<?xml version="1.0" encoding="UTF-8" standalone="no" ?>
<gpx xmlns="http://www.topografix.com/GPX/1/1" xmlns:xsi="http://www.w3.org/2001/XMLSchema-instance" xsi:schemaLocation="http://www.topografix.com/GPX/1/1 http://www.topografix.com/GPX/1/1/gpx.xsd" version="1.1" creator="VisuGPX - https://www.visugpx.com">
  <metadata>
    <name>Pornichet 10/03/2022</name>
    <desc><![CDATA[Sortie jeudi 10 mars 2022]]></desc>
  </metadata>
  <trk>
    <name><![CDATA[Pornichet Cyclisme]]></name>
    <trkseg>
      <trkpt lat="47.26408" lon="-2.31566">
        <ele>9.7</ele>
        <time>2022-03-10T08:17:31.000Z</time>
      </trkpt>
      <trkpt lat="47.26408" lon="-2.31585">
        <ele>9.7</ele>
        <time>2022-03-10T08:17:35.000Z</time>
      </trkpt>
      <trkpt lat="47.26408" lon="-2.31589">
        <ele>0.40000000596046</ele>
        <time>2022-03-10T08:17:36.000Z</time>
      </trkpt>
      <trkpt lat="47.26407" lon="-2.31626">
        <ele>0.40000000596046</ele>
        <time>2022-03-10T08:17:44.000Z</time>
      </trkpt>
      <trkpt lat="47.26409" lon="-2.31657">
        <ele>0.40000000596046</ele>
        <time>2022-03-10T08:17:50.000Z</time>
      </trkpt>
      <trkpt lat="47.26407" lon="-2.31664">
        <ele>0.40000000596046</ele>
        <time>2022-03-10T08:17:53.000Z</time>
      </trkpt>
      <trkpt lat="47.26405" lon="-2.31665">
        <ele>0.40000000596046</ele>
        <time>2022-03-10T08:17:54.000Z</time>
      </trkpt>
      <trkpt lat="47.26391" lon="-2.31672">
        <ele>0.40000000596046</ele>
        <time>2022-03-10T08:17:58.000Z</time>
      </trkpt>
      <trkpt lat="47.26375" lon="-2.3168">
        <ele>-0.40000000596046</ele>
        <time>2022-03-10T08:18:02.000Z</time>
      </trkpt>
      <trkpt lat="47.2637" lon="-2.31683">
        <ele>-0.80000001192093</ele>
        <time>2022-03-10T08:18:03.000Z</time>
      </trkpt>
      <trkpt lat="47.26366" lon="-2.31685">
        <ele>-1.2000000476837</ele>
        <time>2022-03-10T08:18:04.000Z</time>
      </trkpt>
      <trkpt lat="47.26361" lon="-2.31689">
        <ele>-1.7999999523163</ele>
        <time>2022-03-10T08:18:05.000Z</time>
      </trkpt>
      <trkpt lat="47.26352" lon="-2.31695">
        <ele>-1.7999999523163</ele>
        <time>2022-03-10T08:18:07.000Z</time>
      </trkpt>
      <trkpt lat="47.26336" lon="-2.31701">
        <ele>-1.7999999523163</ele>
        <time>2022-03-10T08:18:10.000Z</time>
      </trkpt>
      <trkpt lat="47.26319" lon="-2.31707">
        <ele>-1.7999999523163</ele>
        <time>2022-03-10T08:18:13.000Z</time>
      </trkpt>
      <trkpt lat="47.26314" lon="-2.3171">
        <ele>-1.7999999523163</ele>
        <time>2022-03-10T08:18:14.000Z</time>
      </trkpt>
      <trkpt lat="47.2631" lon="-2.31714">
        <ele>-2.2000000476837</ele>
        <time>2022-03-10T08:18:15.000Z</time>
      </trkpt>
      <trkpt lat="47.26307" lon="-2.3172">
        <ele>-2.5999999046326</ele>
        <time>2022-03-10T08:18:16.000Z</time>
      </trkpt>
      <trkpt lat="47.26305" lon="-2.31726">
        <ele>-3</ele>
        <time>2022-03-10T08:18:17.000Z</time>
      </trkpt>
      <trkpt lat="47.26305" lon="-2.31731">
        <ele>-3.4000000953674</ele>
        <time>2022-03-10T08:18:18.000Z</time>
      </trkpt>
      <trkpt lat="47.26305" lon="-2.31737">
        <ele>-3.7999999523163</ele>
        <time>2022-03-10T08:18:19.000Z</time>
      </trkpt>
      <trkpt lat="47.26305" lon="-2.31743">
        <ele>-3.7999999523163</ele>
        <time>2022-03-10T08:18:20.000Z</time>
      </trkpt>
      <trkpt lat="47.26306" lon="-2.31749">
        <ele>-3.7999999523163</ele>
        <time>2022-03-10T08:18:21.000Z</time>
      </trkpt>
      <trkpt lat="47.26309" lon="-2.31776">
        <ele>-3.7999999523163</ele>
        <time>2022-03-10T08:18:26.000Z</time>
      </trkpt>
      <trkpt lat="47.26309" lon="-2.31804">
        <ele>-3.7999999523163</ele>
        <time>2022-03-10T08:18:31.000Z</time>
      </trkpt>
      <trkpt lat="47.26306" lon="-2.31842">
        <ele>-3.7999999523163</ele>
        <time>2022-03-10T08:18:37.000Z</time>
      </trkpt>
      <trkpt lat="47.26302" lon="-2.31881">
        <ele>-3.7999999523163</ele>
        <time>2022-03-10T08:18:44.000Z</time>
      </trkpt>
      <trkpt lat="47.263" lon="-2.31883">
        <ele>-3.7999999523163</ele>
        <time>2022-03-10T08:18:45.000Z</time>
      </trkpt>
      <trkpt lat="47.26294" lon="-2.31888">
        <ele>-3.7999999523163</ele>
        <time>2022-03-10T08:18:47.000Z</time>
      </trkpt>
      <trkpt lat="47.26281" lon="-2.31905">
        <ele>-3.7999999523163</ele>
        <time>2022-03-10T08:18:52.000Z</time>
      </trkpt>
      <trkpt lat="47.2627" lon="-2.31925">
        <ele>-3.7999999523163</ele>
        <time>2022-03-10T08:18:57.000Z</time>
      </trkpt>
      <trkpt lat="47.26261" lon="-2.31943">
        <ele>-3.7999999523163</ele>
        <time>2022-03-10T08:19:01.000Z</time>
      </trkpt>
      <trkpt lat="47.26249" lon="-2.31958">
        <ele>-4.1999998092651</ele>
        <time>2022-03-10T08:19:06.000Z</time>
      </trkpt>
      <trkpt lat="47.26246" lon="-2.3196">
        <ele>-4.5999999046326</ele>
        <time>2022-03-10T08:19:07.000Z</time>
      </trkpt>
      <trkpt lat="47.26244" lon="-2.31962">
        <ele>-5</ele>
        <time>2022-03-10T08:19:08.000Z</time>
      </trkpt>
      <trkpt lat="47.2624" lon="-2.31964">
        <ele>-5.4000000953674</ele>
        <time>2022-03-10T08:19:09.000Z</time>
      </trkpt>
      <trkpt lat="47.26237" lon="-2.31966">
        <ele>-5.8000001907349</ele>
        <time>2022-03-10T08:19:10.000Z</time>
      </trkpt>
      <trkpt lat="47.26226" lon="-2.31977">
        <ele>-5.8000001907349</ele>
        <time>2022-03-10T08:19:16.000Z</time>
      </trkpt>
      <trkpt lat="47.26213" lon="-2.3199">
        <ele>-5.8000001907349</ele>
        <time>2022-03-10T08:19:21.000Z</time>
      </trkpt>
      <trkpt lat="47.26206" lon="-2.31999">
        <ele>-5.8000001907349</ele>
        <time>2022-03-10T08:19:25.000Z</time>
      </trkpt>
      <trkpt lat="47.26205" lon="-2.32002">
        <ele>-5.8000001907349</ele>
        <time>2022-03-10T08:19:26.000Z</time>
      </trkpt>
      <trkpt lat="47.26202" lon="-2.3201">
        <ele>-5.8000001907349</ele>
        <time>2022-03-10T08:19:31.000Z</time>
      </trkpt>
      <trkpt lat="47.26199" lon="-2.3201">
        <ele>-5.8000001907349</ele>
        <time>2022-03-10T08:19:33.000Z</time>
      </trkpt>
      <trkpt lat="47.2619" lon="-2.32012">
        <ele>-5.8000001907349</ele>
        <time>2022-03-10T08:19:37.000Z</time>
      </trkpt>
      <trkpt lat="47.26172" lon="-2.32021">
        <ele>-5.8000001907349</ele>
        <time>2022-03-10T08:19:43.000Z</time>
      </trkpt>
      <trkpt lat="47.26163" lon="-2.32043">
        <ele>-5.8000001907349</ele>
        <time>2022-03-10T08:19:47.000Z</time>
      </trkpt>
      <trkpt lat="47.26162" lon="-2.32048">
        <ele>-5.8000001907349</ele>
        <time>2022-03-10T08:19:48.000Z</time>
      </trkpt>
      <trkpt lat="47.26152" lon="-2.32086">
        <ele>-5.8000001907349</ele>
        <time>2022-03-10T08:19:54.000Z</time>
      </trkpt>
      <trkpt lat="47.26142" lon="-2.32122">
        <ele>-5.8000001907349</ele>
        <time>2022-03-10T08:20:00.000Z</time>
      </trkpt>
      <trkpt lat="47.26138" lon="-2.32134">
        <ele>-5.8000001907349</ele>
        <time>2022-03-10T08:20:02.000Z</time>
      </trkpt>
      <trkpt lat="47.26126" lon="-2.32168">
        <ele>-5.8000001907349</ele>
        <time>2022-03-10T08:20:08.000Z</time>
      </trkpt>
      <trkpt lat="47.26104" lon="-2.32211">
        <ele>-5.8000001907349</ele>
        <time>2022-03-10T08:20:16.000Z</time>
      </trkpt>
      <trkpt lat="47.26079" lon="-2.32242">
        <ele>-5.8000001907349</ele>
        <time>2022-03-10T08:20:23.000Z</time>
      </trkpt>
      <trkpt lat="47.26055" lon="-2.3227">
        <ele>-5.8000001907349</ele>
        <time>2022-03-10T08:20:30.000Z</time>
      </trkpt>
      <trkpt lat="47.26051" lon="-2.32275">
        <ele>-5.8000001907349</ele>
        <time>2022-03-10T08:20:31.000Z</time>
      </trkpt>
      <trkpt lat="47.26036" lon="-2.32292">
        <ele>-5.8000001907349</ele>
        <time>2022-03-10T08:20:35.000Z</time>
      </trkpt>
      <trkpt lat="47.26007" lon="-2.32327">
        <ele>-5.8000001907349</ele>
        <time>2022-03-10T08:20:43.000Z</time>
      </trkpt>
      <trkpt lat="47.25979" lon="-2.32363">
        <ele>-5.8000001907349</ele>
        <time>2022-03-10T08:20:51.000Z</time>
      </trkpt>
      <trkpt lat="47.25968" lon="-2.32377">
        <ele>-5.8000001907349</ele>
        <time>2022-03-10T08:20:54.000Z</time>
      </trkpt>
      <trkpt lat="47.25962" lon="-2.32386">
        <ele>-5.8000001907349</ele>
        <time>2022-03-10T08:20:56.000Z</time>
      </trkpt>
      <trkpt lat="47.25955" lon="-2.32395">
        <ele>-5.8000001907349</ele>
        <time>2022-03-10T08:20:58.000Z</time>
      </trkpt>
      <trkpt lat="47.25926" lon="-2.32434">
        <ele>-5.8000001907349</ele>
        <time>2022-03-10T08:21:07.000Z</time>
      </trkpt>
      <trkpt lat="47.25912" lon="-2.32454">
        <ele>-5.4000000953674</ele>
        <time>2022-03-10T08:21:12.000Z</time>
      </trkpt>
      <trkpt lat="47.25913" lon="-2.32457">
        <ele>-5</ele>
        <time>2022-03-10T08:21:13.000Z</time>
      </trkpt>
      <trkpt lat="47.25914" lon="-2.3246">
        <ele>-4.5999999046326</ele>
        <time>2022-03-10T08:21:14.000Z</time>
      </trkpt>
      <trkpt lat="47.25916" lon="-2.32463">
        <ele>-4.1999998092651</ele>
        <time>2022-03-10T08:21:15.000Z</time>
      </trkpt>
      <trkpt lat="47.25919" lon="-2.32465">
        <ele>-3.7999999523163</ele>
        <time>2022-03-10T08:21:16.000Z</time>
      </trkpt>
      <trkpt lat="47.25922" lon="-2.32468">
        <ele>-3.7999999523163</ele>
        <time>2022-03-10T08:21:17.000Z</time>
      </trkpt>
      <trkpt lat="47.25934" lon="-2.32486">
        <ele>-3.7999999523163</ele>
        <time>2022-03-10T08:21:21.000Z</time>
      </trkpt>
      <trkpt lat="47.25937" lon="-2.32492">
        <ele>-3.7999999523163</ele>
        <time>2022-03-10T08:21:22.000Z</time>
      </trkpt>
      <trkpt lat="47.25948" lon="-2.32528">
        <ele>-3.7999999523163</ele>
        <time>2022-03-10T08:21:28.000Z</time>
      </trkpt>
      <trkpt lat="47.25961" lon="-2.32577">
        <ele>-3.7999999523163</ele>
        <time>2022-03-10T08:21:36.000Z</time>
      </trkpt>
      <trkpt lat="47.25965" lon="-2.32608">
        <ele>-3.7999999523163</ele>
        <time>2022-03-10T08:21:41.000Z</time>
      </trkpt>
      <trkpt lat="47.25965" lon="-2.32621">
        <ele>-3.7999999523163</ele>
        <time>2022-03-10T08:21:43.000Z</time>
      </trkpt>
      <trkpt lat="47.25966" lon="-2.32651">
        <ele>-3.7999999523163</ele>
        <time>2022-03-10T08:21:48.000Z</time>
      </trkpt>
      <trkpt lat="47.25968" lon="-2.32654">
        <ele>-3.7999999523163</ele>
        <time>2022-03-10T08:21:49.000Z</time>
      </trkpt>
      <trkpt lat="47.25977" lon="-2.32653">
        <ele>-3.7999999523163</ele>
        <time>2022-03-10T08:21:52.000Z</time>
      </trkpt>
      <trkpt lat="47.25984" lon="-2.32654">
        <ele>-3.7999999523163</ele>
        <time>2022-03-10T08:21:54.000Z</time>
      </trkpt>
      <trkpt lat="47.25993" lon="-2.32655">
        <ele>-3.7999999523163</ele>
        <time>2022-03-10T08:21:56.000Z</time>
      </trkpt>
      <trkpt lat="47.26001" lon="-2.32654">
        <ele>-3.7999999523163</ele>
        <time>2022-03-10T08:21:58.000Z</time>
      </trkpt>
      <trkpt lat="47.26036" lon="-2.32649">
        <ele>-3.7999999523163</ele>
        <time>2022-03-10T08:22:06.000Z</time>
      </trkpt>
      <trkpt lat="47.26061" lon="-2.32645">
        <ele>-3.7999999523163</ele>
        <time>2022-03-10T08:22:12.000Z</time>
      </trkpt>
      <trkpt lat="47.26066" lon="-2.32644">
        <ele>-3.7999999523163</ele>
        <time>2022-03-10T08:22:13.000Z</time>
      </trkpt>
      <trkpt lat="47.26098" lon="-2.32639">
        <ele>-3.7999999523163</ele>
        <time>2022-03-10T08:22:21.000Z</time>
      </trkpt>
      <trkpt lat="47.26127" lon="-2.32637">
        <ele>-3.4000000953674</ele>
        <time>2022-03-10T08:22:28.000Z</time>
      </trkpt>
      <trkpt lat="47.26131" lon="-2.32637">
        <ele>-3</ele>
        <time>2022-03-10T08:22:29.000Z</time>
      </trkpt>
      <trkpt lat="47.26135" lon="-2.32637">
        <ele>-2.5999999046326</ele>
        <time>2022-03-10T08:22:30.000Z</time>
      </trkpt>
      <trkpt lat="47.26139" lon="-2.32638">
        <ele>-2.2000000476837</ele>
        <time>2022-03-10T08:22:31.000Z</time>
      </trkpt>
      <trkpt lat="47.26143" lon="-2.3264">
        <ele>-1.7999999523163</ele>
        <time>2022-03-10T08:22:32.000Z</time>
      </trkpt>
      <trkpt lat="47.2615" lon="-2.32644">
        <ele>-1.7999999523163</ele>
        <time>2022-03-10T08:22:34.000Z</time>
      </trkpt>
      <trkpt lat="47.26154" lon="-2.32646">
        <ele>-1.7999999523163</ele>
        <time>2022-03-10T08:22:35.000Z</time>
      </trkpt>
      <trkpt lat="47.26179" lon="-2.32659">
        <ele>-1.7999999523163</ele>
        <time>2022-03-10T08:22:41.000Z</time>
      </trkpt>
      <trkpt lat="47.26183" lon="-2.32662">
        <ele>-1.7999999523163</ele>
        <time>2022-03-10T08:22:42.000Z</time>
      </trkpt>
      <trkpt lat="47.26197" lon="-2.32678">
        <ele>-1.7999999523163</ele>
        <time>2022-03-10T08:22:46.000Z</time>
      </trkpt>
      <trkpt lat="47.26229" lon="-2.32719">
        <ele>-1.7999999523163</ele>
        <time>2022-03-10T08:22:55.000Z</time>
      </trkpt>
      <trkpt lat="47.26239" lon="-2.32734">
        <ele>-1.7999999523163</ele>
        <time>2022-03-10T08:22:58.000Z</time>
      </trkpt>
      <trkpt lat="47.26246" lon="-2.32744">
        <ele>-1.7999999523163</ele>
        <time>2022-03-10T08:23:00.000Z</time>
      </trkpt>
      <trkpt lat="47.2625" lon="-2.32749">
        <ele>-1.7999999523163</ele>
        <time>2022-03-10T08:23:01.000Z</time>
      </trkpt>
      <trkpt lat="47.26273" lon="-2.3279">
        <ele>-1.7999999523163</ele>
        <time>2022-03-10T08:23:08.000Z</time>
      </trkpt>
      <trkpt lat="47.26278" lon="-2.32802">
        <ele>-1.7999999523163</ele>
        <time>2022-03-10T08:23:10.000Z</time>
      </trkpt>
      <trkpt lat="47.26283" lon="-2.32816">
        <ele>-2.2000000476837</ele>
        <time>2022-03-10T08:23:12.000Z</time>
      </trkpt>
      <trkpt lat="47.26284" lon="-2.32823">
        <ele>-2.5999999046326</ele>
        <time>2022-03-10T08:23:13.000Z</time>
      </trkpt>
      <trkpt lat="47.26286" lon="-2.32829">
        <ele>-3</ele>
        <time>2022-03-10T08:23:14.000Z</time>
      </trkpt>
      <trkpt lat="47.26287" lon="-2.32836">
        <ele>-3.4000000953674</ele>
        <time>2022-03-10T08:23:15.000Z</time>
      </trkpt>
      <trkpt lat="47.26288" lon="-2.32843">
        <ele>-3.7999999523163</ele>
        <time>2022-03-10T08:23:16.000Z</time>
      </trkpt>
      <trkpt lat="47.26293" lon="-2.32854">
        <ele>-3.7999999523163</ele>
        <time>2022-03-10T08:23:18.000Z</time>
      </trkpt>
      <trkpt lat="47.26306" lon="-2.32863">
        <ele>-3.7999999523163</ele>
        <time>2022-03-10T08:23:21.000Z</time>
      </trkpt>
      <trkpt lat="47.2632" lon="-2.32879">
        <ele>-3.7999999523163</ele>
        <time>2022-03-10T08:23:25.000Z</time>
      </trkpt>
      <trkpt lat="47.26326" lon="-2.32898">
        <ele>-3.7999999523163</ele>
        <time>2022-03-10T08:23:28.000Z</time>
      </trkpt>
      <trkpt lat="47.26333" lon="-2.32916">
        <ele>-3.7999999523163</ele>
        <time>2022-03-10T08:23:31.000Z</time>
      </trkpt>
      <trkpt lat="47.26349" lon="-2.32965">
        <ele>-3.7999999523163</ele>
        <time>2022-03-10T08:23:39.000Z</time>
      </trkpt>
      <trkpt lat="47.26352" lon="-2.3297">
        <ele>-3.7999999523163</ele>
        <time>2022-03-10T08:23:40.000Z</time>
      </trkpt>
      <trkpt lat="47.26362" lon="-2.32984">
        <ele>-3.7999999523163</ele>
        <time>2022-03-10T08:23:43.000Z</time>
      </trkpt>
      <trkpt lat="47.26366" lon="-2.32995">
        <ele>-3.7999999523163</ele>
        <time>2022-03-10T08:23:45.000Z</time>
      </trkpt>
      <trkpt lat="47.26368" lon="-2.33008">
        <ele>-3.7999999523163</ele>
        <time>2022-03-10T08:23:47.000Z</time>
      </trkpt>
      <trkpt lat="47.2637" lon="-2.33069">
        <ele>-3.7999999523163</ele>
        <time>2022-03-10T08:23:56.000Z</time>
      </trkpt>
      <trkpt lat="47.26375" lon="-2.33133">
        <ele>-3.7999999523163</ele>
        <time>2022-03-10T08:24:05.000Z</time>
      </trkpt>
      <trkpt lat="47.26376" lon="-2.33188">
        <ele>-3.7999999523163</ele>
        <time>2022-03-10T08:24:13.000Z</time>
      </trkpt>
      <trkpt lat="47.26381" lon="-2.33249">
        <ele>-3.7999999523163</ele>
        <time>2022-03-10T08:24:22.000Z</time>
      </trkpt>
      <trkpt lat="47.2639" lon="-2.33262">
        <ele>-3.7999999523163</ele>
        <time>2022-03-10T08:24:25.000Z</time>
      </trkpt>
      <trkpt lat="47.26403" lon="-2.33265">
        <ele>-3.7999999523163</ele>
        <time>2022-03-10T08:24:28.000Z</time>
      </trkpt>
      <trkpt lat="47.26408" lon="-2.33266">
        <ele>-3.7999999523163</ele>
        <time>2022-03-10T08:24:29.000Z</time>
      </trkpt>
      <trkpt lat="47.26444" lon="-2.33271">
        <ele>-3.7999999523163</ele>
        <time>2022-03-10T08:24:37.000Z</time>
      </trkpt>
      <trkpt lat="47.2647" lon="-2.33277">
        <ele>-3.7999999523163</ele>
        <time>2022-03-10T08:24:43.000Z</time>
      </trkpt>
      <trkpt lat="47.26474" lon="-2.33278">
        <ele>-3.7999999523163</ele>
        <time>2022-03-10T08:24:44.000Z</time>
      </trkpt>
      <trkpt lat="47.26504" lon="-2.33282">
        <ele>-3.7999999523163</ele>
        <time>2022-03-10T08:24:51.000Z</time>
      </trkpt>
      <trkpt lat="47.26522" lon="-2.33302">
        <ele>-3.7999999523163</ele>
        <time>2022-03-10T08:24:56.000Z</time>
      </trkpt>
      <trkpt lat="47.26524" lon="-2.33307">
        <ele>-3.7999999523163</ele>
        <time>2022-03-10T08:24:57.000Z</time>
      </trkpt>
      <trkpt lat="47.26527" lon="-2.33326">
        <ele>-3.7999999523163</ele>
        <time>2022-03-10T08:25:00.000Z</time>
      </trkpt>
      <trkpt lat="47.26528" lon="-2.33354">
        <ele>-3.7999999523163</ele>
        <time>2022-03-10T08:25:04.000Z</time>
      </trkpt>
      <trkpt lat="47.26531" lon="-2.33368">
        <ele>-3.7999999523163</ele>
        <time>2022-03-10T08:25:06.000Z</time>
      </trkpt>
      <trkpt lat="47.26539" lon="-2.33394">
        <ele>-3.7999999523163</ele>
        <time>2022-03-10T08:25:10.000Z</time>
      </trkpt>
      <trkpt lat="47.2655" lon="-2.33454">
        <ele>-3.7999999523163</ele>
        <time>2022-03-10T08:25:19.000Z</time>
      </trkpt>
      <trkpt lat="47.26555" lon="-2.33494">
        <ele>-3.7999999523163</ele>
        <time>2022-03-10T08:25:25.000Z</time>
      </trkpt>
      <trkpt lat="47.26557" lon="-2.33507">
        <ele>-3.7999999523163</ele>
        <time>2022-03-10T08:25:27.000Z</time>
      </trkpt>
      <trkpt lat="47.2656" lon="-2.33539">
        <ele>-3.7999999523163</ele>
        <time>2022-03-10T08:25:32.000Z</time>
      </trkpt>
      <trkpt lat="47.26568" lon="-2.33592">
        <ele>-3.7999999523163</ele>
        <time>2022-03-10T08:25:40.000Z</time>
      </trkpt>
      <trkpt lat="47.26572" lon="-2.33623">
        <ele>-3.4000000953674</ele>
        <time>2022-03-10T08:25:45.000Z</time>
      </trkpt>
      <trkpt lat="47.26572" lon="-2.33629">
        <ele>-3</ele>
        <time>2022-03-10T08:25:46.000Z</time>
      </trkpt>
      <trkpt lat="47.26573" lon="-2.33636">
        <ele>-2.5999999046326</ele>
        <time>2022-03-10T08:25:47.000Z</time>
      </trkpt>
      <trkpt lat="47.26574" lon="-2.33642">
        <ele>-2.2000000476837</ele>
        <time>2022-03-10T08:25:48.000Z</time>
      </trkpt>
      <trkpt lat="47.26575" lon="-2.33648">
        <ele>-1.7999999523163</ele>
        <time>2022-03-10T08:25:49.000Z</time>
      </trkpt>
      <trkpt lat="47.26581" lon="-2.33669">
        <ele>-1.7999999523163</ele>
        <time>2022-03-10T08:25:53.000Z</time>
      </trkpt>
      <trkpt lat="47.26596" lon="-2.33689">
        <ele>-1.7999999523163</ele>
        <time>2022-03-10T08:25:58.000Z</time>
      </trkpt>
      <trkpt lat="47.26608" lon="-2.33704">
        <ele>-0.80000001192093</ele>
        <time>2022-03-10T08:26:02.000Z</time>
      </trkpt>
      <trkpt lat="47.26611" lon="-2.33709">
        <ele>-0.40000000596046</ele>
        <time>2022-03-10T08:26:03.000Z</time>
      </trkpt>
      <trkpt lat="47.26614" lon="-2.33714">
        <ele>7.7</ele>
        <time>2022-03-10T08:26:04.000Z</time>
      </trkpt>
      <trkpt lat="47.26617" lon="-2.33719">
        <ele>0.40000000596046</ele>
        <time>2022-03-10T08:26:05.000Z</time>
      </trkpt>
      <trkpt lat="47.26634" lon="-2.33747">
        <ele>0.40000000596046</ele>
        <time>2022-03-10T08:26:11.000Z</time>
      </trkpt>
      <trkpt lat="47.26659" lon="-2.33785">
        <ele>0.40000000596046</ele>
        <time>2022-03-10T08:26:19.000Z</time>
      </trkpt>
      <trkpt lat="47.26684" lon="-2.33823">
        <ele>0.40000000596046</ele>
        <time>2022-03-10T08:26:27.000Z</time>
      </trkpt>
      <trkpt lat="47.26698" lon="-2.33846">
        <ele>0.40000000596046</ele>
        <time>2022-03-10T08:26:32.000Z</time>
      </trkpt>
      <trkpt lat="47.26707" lon="-2.33859">
        <ele>0.40000000596046</ele>
        <time>2022-03-10T08:26:35.000Z</time>
      </trkpt>
      <trkpt lat="47.26712" lon="-2.33867">
        <ele>0.40000000596046</ele>
        <time>2022-03-10T08:26:37.000Z</time>
      </trkpt>
      <trkpt lat="47.26724" lon="-2.33887">
        <ele>0.40000000596046</ele>
        <time>2022-03-10T08:26:41.000Z</time>
      </trkpt>
      <trkpt lat="47.26747" lon="-2.3392">
        <ele>0.40000000596046</ele>
        <time>2022-03-10T08:26:48.000Z</time>
      </trkpt>
      <trkpt lat="47.26767" lon="-2.33953">
        <ele>0.80000001192093</ele>
        <time>2022-03-10T08:26:55.000Z</time>
      </trkpt>
      <trkpt lat="47.2677" lon="-2.33958">
        <ele>1.2000000476837</ele>
        <time>2022-03-10T08:26:56.000Z</time>
      </trkpt>
      <trkpt lat="47.26773" lon="-2.33962">
        <ele>1.7999999523163</ele>
        <time>2022-03-10T08:26:57.000Z</time>
      </trkpt>
      <trkpt lat="47.26776" lon="-2.33966">
        <ele>2.2000000476837</ele>
        <time>2022-03-10T08:26:58.000Z</time>
      </trkpt>
      <trkpt lat="47.26779" lon="-2.33971">
        <ele>2.5999999046326</ele>
        <time>2022-03-10T08:26:59.000Z</time>
      </trkpt>
      <trkpt lat="47.26788" lon="-2.33985">
        <ele>2.5999999046326</ele>
        <time>2022-03-10T08:27:02.000Z</time>
      </trkpt>
      <trkpt lat="47.26791" lon="-2.3399">
        <ele>2.5999999046326</ele>
        <time>2022-03-10T08:27:03.000Z</time>
      </trkpt>
      <trkpt lat="47.26806" lon="-2.34013">
        <ele>2.5999999046326</ele>
        <time>2022-03-10T08:27:08.000Z</time>
      </trkpt>
      <trkpt lat="47.26812" lon="-2.34022">
        <ele>2.5999999046326</ele>
        <time>2022-03-10T08:27:10.000Z</time>
      </trkpt>
      <trkpt lat="47.26824" lon="-2.34041">
        <ele>2.5999999046326</ele>
        <time>2022-03-10T08:27:14.000Z</time>
      </trkpt>
      <trkpt lat="47.26843" lon="-2.34074">
        <ele>2.5999999046326</ele>
        <time>2022-03-10T08:27:21.000Z</time>
      </trkpt>
      <trkpt lat="47.26867" lon="-2.34113">
        <ele>2.5999999046326</ele>
        <time>2022-03-10T08:27:29.000Z</time>
      </trkpt>
      <trkpt lat="47.2687" lon="-2.34118">
        <ele>2.5999999046326</ele>
        <time>2022-03-10T08:27:30.000Z</time>
      </trkpt>
      <trkpt lat="47.26873" lon="-2.34123">
        <ele>2.5999999046326</ele>
        <time>2022-03-10T08:27:31.000Z</time>
      </trkpt>
      <trkpt lat="47.26879" lon="-2.34133">
        <ele>2.5999999046326</ele>
        <time>2022-03-10T08:27:33.000Z</time>
      </trkpt>
      <trkpt lat="47.26885" lon="-2.34142">
        <ele>2.5999999046326</ele>
        <time>2022-03-10T08:27:35.000Z</time>
      </trkpt>
      <trkpt lat="47.26908" lon="-2.34176">
        <ele>2.5999999046326</ele>
        <time>2022-03-10T08:27:42.000Z</time>
      </trkpt>
      <trkpt lat="47.26911" lon="-2.34181">
        <ele>2.5999999046326</ele>
        <time>2022-03-10T08:27:43.000Z</time>
      </trkpt>
      <trkpt lat="47.26924" lon="-2.34202">
        <ele>2.5999999046326</ele>
        <time>2022-03-10T08:27:47.000Z</time>
      </trkpt>
      <trkpt lat="47.26953" lon="-2.3425">
        <ele>2.5999999046326</ele>
        <time>2022-03-10T08:27:56.000Z</time>
      </trkpt>
      <trkpt lat="47.26976" lon="-2.34286">
        <ele>2.5999999046326</ele>
        <time>2022-03-10T08:28:03.000Z</time>
      </trkpt>
      <trkpt lat="47.2699" lon="-2.34313">
        <ele>2.5999999046326</ele>
        <time>2022-03-10T08:28:09.000Z</time>
      </trkpt>
      <trkpt lat="47.26995" lon="-2.34318">
        <ele>2.5999999046326</ele>
        <time>2022-03-10T08:28:11.000Z</time>
      </trkpt>
      <trkpt lat="47.27001" lon="-2.3432">
        <ele>2.5999999046326</ele>
        <time>2022-03-10T08:28:13.000Z</time>
      </trkpt>
      <trkpt lat="47.27025" lon="-2.34323">
        <ele>2.5999999046326</ele>
        <time>2022-03-10T08:28:19.000Z</time>
      </trkpt>
      <trkpt lat="47.27036" lon="-2.3433">
        <ele>2.5999999046326</ele>
        <time>2022-03-10T08:28:22.000Z</time>
      </trkpt>
      <trkpt lat="47.2704" lon="-2.34335">
        <ele>2.5999999046326</ele>
        <time>2022-03-10T08:28:23.000Z</time>
      </trkpt>
      <trkpt lat="47.27044" lon="-2.34353">
        <ele>2.5999999046326</ele>
        <time>2022-03-10T08:28:26.000Z</time>
      </trkpt>
      <trkpt lat="47.27047" lon="-2.34367">
        <ele>2.5999999046326</ele>
        <time>2022-03-10T08:28:28.000Z</time>
      </trkpt>
      <trkpt lat="47.27054" lon="-2.34394">
        <ele>2.5999999046326</ele>
        <time>2022-03-10T08:28:32.000Z</time>
      </trkpt>
      <trkpt lat="47.27056" lon="-2.344">
        <ele>2.5999999046326</ele>
        <time>2022-03-10T08:28:33.000Z</time>
      </trkpt>
      <trkpt lat="47.27057" lon="-2.34407">
        <ele>2.5999999046326</ele>
        <time>2022-03-10T08:28:34.000Z</time>
      </trkpt>
      <trkpt lat="47.27066" lon="-2.3444">
        <ele>2.5999999046326</ele>
        <time>2022-03-10T08:28:39.000Z</time>
      </trkpt>
      <trkpt lat="47.27069" lon="-2.34453">
        <ele>3</ele>
        <time>2022-03-10T08:28:41.000Z</time>
      </trkpt>
      <trkpt lat="47.27071" lon="-2.3446">
        <ele>3.4000000953674</ele>
        <time>2022-03-10T08:28:42.000Z</time>
      </trkpt>
      <trkpt lat="47.27072" lon="-2.34467">
        <ele>3.7999999523163</ele>
        <time>2022-03-10T08:28:43.000Z</time>
      </trkpt>
      <trkpt lat="47.27074" lon="-2.34474">
        <ele>4.1999998092651</ele>
        <time>2022-03-10T08:28:44.000Z</time>
      </trkpt>
      <trkpt lat="47.27076" lon="-2.3448">
        <ele>4.5999999046326</ele>
        <time>2022-03-10T08:28:45.000Z</time>
      </trkpt>
      <trkpt lat="47.27079" lon="-2.34492">
        <ele>4.5999999046326</ele>
        <time>2022-03-10T08:28:47.000Z</time>
      </trkpt>
      <trkpt lat="47.2709" lon="-2.34539">
        <ele>4.5999999046326</ele>
        <time>2022-03-10T08:28:54.000Z</time>
      </trkpt>
      <trkpt lat="47.27105" lon="-2.34605">
        <ele>4.5999999046326</ele>
        <time>2022-03-10T08:29:04.000Z</time>
      </trkpt>
      <trkpt lat="47.27119" lon="-2.34665">
        <ele>4.5999999046326</ele>
        <time>2022-03-10T08:29:12.000Z</time>
      </trkpt>
      <trkpt lat="47.2713" lon="-2.34718">
        <ele>4.5999999046326</ele>
        <time>2022-03-10T08:29:19.000Z</time>
      </trkpt>
      <trkpt lat="47.27131" lon="-2.34725">
        <ele>4.5999999046326</ele>
        <time>2022-03-10T08:29:20.000Z</time>
      </trkpt>
      <trkpt lat="47.27144" lon="-2.34788">
        <ele>4.5999999046326</ele>
        <time>2022-03-10T08:29:29.000Z</time>
      </trkpt>
      <trkpt lat="47.27155" lon="-2.34838">
        <ele>4.5999999046326</ele>
        <time>2022-03-10T08:29:36.000Z</time>
      </trkpt>
      <trkpt lat="47.27169" lon="-2.34892">
        <ele>4.5999999046326</ele>
        <time>2022-03-10T08:29:44.000Z</time>
      </trkpt>
      <trkpt lat="47.27184" lon="-2.34943">
        <ele>4.5999999046326</ele>
        <time>2022-03-10T08:29:52.000Z</time>
      </trkpt>
      <trkpt lat="47.27204" lon="-2.34999">
        <ele>4.5999999046326</ele>
        <time>2022-03-10T08:30:01.000Z</time>
      </trkpt>
      <trkpt lat="47.27211" lon="-2.35017">
        <ele>5</ele>
        <time>2022-03-10T08:30:04.000Z</time>
      </trkpt>
      <trkpt lat="47.27213" lon="-2.35024">
        <ele>5.4000000953674</ele>
        <time>2022-03-10T08:30:05.000Z</time>
      </trkpt>
      <trkpt lat="47.27215" lon="-2.3503">
        <ele>5.8000001907349</ele>
        <time>2022-03-10T08:30:06.000Z</time>
      </trkpt>
      <trkpt lat="47.27217" lon="-2.35036">
        <ele>6.1999998092651</ele>
        <time>2022-03-10T08:30:07.000Z</time>
      </trkpt>
      <trkpt lat="47.2722" lon="-2.35043">
        <ele>6.5999999046326</ele>
        <time>2022-03-10T08:30:08.000Z</time>
      </trkpt>
      <trkpt lat="47.27225" lon="-2.35056">
        <ele>6.5999999046326</ele>
        <time>2022-03-10T08:30:10.000Z</time>
      </trkpt>
      <trkpt lat="47.27247" lon="-2.35105">
        <ele>6.5999999046326</ele>
        <time>2022-03-10T08:30:18.000Z</time>
      </trkpt>
      <trkpt lat="47.27259" lon="-2.35122">
        <ele>6.5999999046326</ele>
        <time>2022-03-10T08:30:22.000Z</time>
      </trkpt>
      <trkpt lat="47.27262" lon="-2.35122">
        <ele>6.5999999046326</ele>
        <time>2022-03-10T08:30:23.000Z</time>
      </trkpt>
      <trkpt lat="47.27272" lon="-2.35116">
        <ele>6.5999999046326</ele>
        <time>2022-03-10T08:30:26.000Z</time>
      </trkpt>
      <trkpt lat="47.27276" lon="-2.35114">
        <ele>6.5999999046326</ele>
        <time>2022-03-10T08:30:27.000Z</time>
      </trkpt>
      <trkpt lat="47.27296" lon="-2.35104">
        <ele>6.5999999046326</ele>
        <time>2022-03-10T08:30:34.000Z</time>
      </trkpt>
      <trkpt lat="47.27299" lon="-2.35105">
        <ele>6.5999999046326</ele>
        <time>2022-03-10T08:30:36.000Z</time>
      </trkpt>
      <trkpt lat="47.27302" lon="-2.35105">
        <ele>6.5999999046326</ele>
        <time>2022-03-10T08:30:38.000Z</time>
      </trkpt>
      <trkpt lat="47.27312" lon="-2.35098">
        <ele>7</ele>
        <time>2022-03-10T08:30:43.000Z</time>
      </trkpt>
      <trkpt lat="47.27315" lon="-2.35097">
        <ele>7.5999999046326</ele>
        <time>2022-03-10T08:30:44.000Z</time>
      </trkpt>
      <trkpt lat="47.27318" lon="-2.35095">
        <ele>8</ele>
        <time>2022-03-10T08:30:45.000Z</time>
      </trkpt>
      <trkpt lat="47.27321" lon="-2.35093">
        <ele>8.3999996185303</ele>
        <time>2022-03-10T08:30:46.000Z</time>
      </trkpt>
      <trkpt lat="47.27324" lon="-2.35092">
        <ele>8.8000001907349</ele>
        <time>2022-03-10T08:30:47.000Z</time>
      </trkpt>
      <trkpt lat="47.27331" lon="-2.35088">
        <ele>8.8000001907349</ele>
        <time>2022-03-10T08:30:49.000Z</time>
      </trkpt>
      <trkpt lat="47.27337" lon="-2.35084">
        <ele>9.1999998092651</ele>
        <time>2022-03-10T08:30:51.000Z</time>
      </trkpt>
      <trkpt lat="47.2734" lon="-2.35082">
        <ele>9.6000003814697</ele>
        <time>2022-03-10T08:30:52.000Z</time>
      </trkpt>
      <trkpt lat="47.27344" lon="-2.3508">
        <ele>10.199999809265</ele>
        <time>2022-03-10T08:30:53.000Z</time>
      </trkpt>
      <trkpt lat="47.27348" lon="-2.35077">
        <ele>10.60000038147</ele>
        <time>2022-03-10T08:30:54.000Z</time>
      </trkpt>
      <trkpt lat="47.27352" lon="-2.35076">
        <ele>11</ele>
        <time>2022-03-10T08:30:55.000Z</time>
      </trkpt>
      <trkpt lat="47.27356" lon="-2.35074">
        <ele>11</ele>
        <time>2022-03-10T08:30:56.000Z</time>
      </trkpt>
      <trkpt lat="47.2737" lon="-2.35063">
        <ele>11.39999961853</ele>
        <time>2022-03-10T08:31:00.000Z</time>
      </trkpt>
      <trkpt lat="47.27373" lon="-2.35061">
        <ele>11.800000190735</ele>
        <time>2022-03-10T08:31:01.000Z</time>
      </trkpt>
      <trkpt lat="47.27376" lon="-2.35059">
        <ele>12.199999809265</ele>
        <time>2022-03-10T08:31:02.000Z</time>
      </trkpt>
      <trkpt lat="47.27379" lon="-2.35058">
        <ele>12.60000038147</ele>
        <time>2022-03-10T08:31:03.000Z</time>
      </trkpt>
      <trkpt lat="47.27383" lon="-2.35057">
        <ele>13</ele>
        <time>2022-03-10T08:31:04.000Z</time>
      </trkpt>
      <trkpt lat="47.27393" lon="-2.35058">
        <ele>13</ele>
        <time>2022-03-10T08:31:07.000Z</time>
      </trkpt>
      <trkpt lat="47.27396" lon="-2.3506">
        <ele>13</ele>
        <time>2022-03-10T08:31:08.000Z</time>
      </trkpt>
      <trkpt lat="47.274" lon="-2.35069">
        <ele>13</ele>
        <time>2022-03-10T08:31:10.000Z</time>
      </trkpt>
      <trkpt lat="47.27411" lon="-2.35107">
        <ele>13</ele>
        <time>2022-03-10T08:31:17.000Z</time>
      </trkpt>
      <trkpt lat="47.27418" lon="-2.3513">
        <ele>13</ele>
        <time>2022-03-10T08:31:21.000Z</time>
      </trkpt>
      <trkpt lat="47.27421" lon="-2.35148">
        <ele>13</ele>
        <time>2022-03-10T08:31:24.000Z</time>
      </trkpt>
      <trkpt lat="47.27423" lon="-2.35153">
        <ele>13</ele>
        <time>2022-03-10T08:31:25.000Z</time>
      </trkpt>
      <trkpt lat="47.27434" lon="-2.35173">
        <ele>13</ele>
        <time>2022-03-10T08:31:30.000Z</time>
      </trkpt>
      <trkpt lat="47.27443" lon="-2.35168">
        <ele>13</ele>
        <time>2022-03-10T08:31:33.000Z</time>
      </trkpt>
      <trkpt lat="47.2745" lon="-2.35164">
        <ele>13</ele>
        <time>2022-03-10T08:31:35.000Z</time>
      </trkpt>
      <trkpt lat="47.27454" lon="-2.35162">
        <ele>13.60000038147</ele>
        <time>2022-03-10T08:31:36.000Z</time>
      </trkpt>
      <trkpt lat="47.27457" lon="-2.35161">
        <ele>14</ele>
        <time>2022-03-10T08:31:37.000Z</time>
      </trkpt>
      <trkpt lat="47.27461" lon="-2.35159">
        <ele>14.39999961853</ele>
        <time>2022-03-10T08:31:38.000Z</time>
      </trkpt>
      <trkpt lat="47.27464" lon="-2.35158">
        <ele>14.800000190735</ele>
        <time>2022-03-10T08:31:39.000Z</time>
      </trkpt>
      <trkpt lat="47.27468" lon="-2.35156">
        <ele>15.199999809265</ele>
        <time>2022-03-10T08:31:40.000Z</time>
      </trkpt>
      <trkpt lat="47.27496" lon="-2.3514">
        <ele>15.199999809265</ele>
        <time>2022-03-10T08:31:48.000Z</time>
      </trkpt>
      <trkpt lat="47.27498" lon="-2.35135">
        <ele>15.199999809265</ele>
        <time>2022-03-10T08:31:49.000Z</time>
      </trkpt>
      <trkpt lat="47.27504" lon="-2.35129">
        <ele>15.800000190735</ele>
        <time>2022-03-10T08:31:51.000Z</time>
      </trkpt>
      <trkpt lat="47.27507" lon="-2.35128">
        <ele>16.200000762939</ele>
        <time>2022-03-10T08:31:52.000Z</time>
      </trkpt>
      <trkpt lat="47.27511" lon="-2.35129">
        <ele>16.60000038147</ele>
        <time>2022-03-10T08:31:53.000Z</time>
      </trkpt>
      <trkpt lat="47.27514" lon="-2.3513">
        <ele>17</ele>
        <time>2022-03-10T08:31:54.000Z</time>
      </trkpt>
      <trkpt lat="47.27518" lon="-2.35131">
        <ele>17.39999961853</ele>
        <time>2022-03-10T08:31:55.000Z</time>
      </trkpt>
      <trkpt lat="47.27541" lon="-2.35139">
        <ele>17.39999961853</ele>
        <time>2022-03-10T08:32:01.000Z</time>
      </trkpt>
      <trkpt lat="47.27567" lon="-2.35135">
        <ele>17.39999961853</ele>
        <time>2022-03-10T08:32:07.000Z</time>
      </trkpt>
      <trkpt lat="47.27571" lon="-2.35134">
        <ele>17.39999961853</ele>
        <time>2022-03-10T08:32:08.000Z</time>
      </trkpt>
      <trkpt lat="47.27599" lon="-2.35133">
        <ele>17.39999961853</ele>
        <time>2022-03-10T08:32:14.000Z</time>
      </trkpt>
      <trkpt lat="47.2761" lon="-2.35147">
        <ele>17.39999961853</ele>
        <time>2022-03-10T08:32:17.000Z</time>
      </trkpt>
      <trkpt lat="47.27611" lon="-2.35161">
        <ele>17.39999961853</ele>
        <time>2022-03-10T08:32:19.000Z</time>
      </trkpt>
      <trkpt lat="47.27613" lon="-2.35167">
        <ele>17.39999961853</ele>
        <time>2022-03-10T08:32:20.000Z</time>
      </trkpt>
      <trkpt lat="47.27615" lon="-2.35172">
        <ele>17.39999961853</ele>
        <time>2022-03-10T08:32:21.000Z</time>
      </trkpt>
      <trkpt lat="47.27628" lon="-2.35177">
        <ele>17.39999961853</ele>
        <time>2022-03-10T08:32:24.000Z</time>
      </trkpt>
      <trkpt lat="47.27633" lon="-2.35176">
        <ele>17.39999961853</ele>
        <time>2022-03-10T08:32:25.000Z</time>
      </trkpt>
      <trkpt lat="47.27659" lon="-2.35172">
        <ele>17.39999961853</ele>
        <time>2022-03-10T08:32:30.000Z</time>
      </trkpt>
      <trkpt lat="47.27664" lon="-2.35173">
        <ele>17.39999961853</ele>
        <time>2022-03-10T08:32:31.000Z</time>
      </trkpt>
      <trkpt lat="47.27669" lon="-2.35177">
        <ele>17.39999961853</ele>
        <time>2022-03-10T08:32:32.000Z</time>
      </trkpt>
      <trkpt lat="47.27675" lon="-2.35198">
        <ele>17.39999961853</ele>
        <time>2022-03-10T08:32:35.000Z</time>
      </trkpt>
      <trkpt lat="47.27676" lon="-2.35206">
        <ele>17</ele>
        <time>2022-03-10T08:32:36.000Z</time>
      </trkpt>
      <trkpt lat="47.27676" lon="-2.35212">
        <ele>16.39999961853</ele>
        <time>2022-03-10T08:32:37.000Z</time>
      </trkpt>
      <trkpt lat="47.27678" lon="-2.35217">
        <ele>15.60000038147</ele>
        <time>2022-03-10T08:32:38.000Z</time>
      </trkpt>
      <trkpt lat="47.2768" lon="-2.3522">
        <ele>15.199999809265</ele>
        <time>2022-03-10T08:32:39.000Z</time>
      </trkpt>
      <trkpt lat="47.27692" lon="-2.35221">
        <ele>15.199999809265</ele>
        <time>2022-03-10T08:32:42.000Z</time>
      </trkpt>
      <trkpt lat="47.27697" lon="-2.35219">
        <ele>14.800000190735</ele>
        <time>2022-03-10T08:32:43.000Z</time>
      </trkpt>
      <trkpt lat="47.27701" lon="-2.35217">
        <ele>14.39999961853</ele>
        <time>2022-03-10T08:32:44.000Z</time>
      </trkpt>
      <trkpt lat="47.27706" lon="-2.35216">
        <ele>14</ele>
        <time>2022-03-10T08:32:45.000Z</time>
      </trkpt>
      <trkpt lat="47.27712" lon="-2.35214">
        <ele>13.60000038147</ele>
        <time>2022-03-10T08:32:46.000Z</time>
      </trkpt>
      <trkpt lat="47.27717" lon="-2.35212">
        <ele>13.199999809265</ele>
        <time>2022-03-10T08:32:47.000Z</time>
      </trkpt>
      <trkpt lat="47.27743" lon="-2.35204">
        <ele>13.199999809265</ele>
        <time>2022-03-10T08:32:52.000Z</time>
      </trkpt>
      <trkpt lat="47.27768" lon="-2.352">
        <ele>12.800000190735</ele>
        <time>2022-03-10T08:32:58.000Z</time>
      </trkpt>
      <trkpt lat="47.2777" lon="-2.35203">
        <ele>12.39999961853</ele>
        <time>2022-03-10T08:32:59.000Z</time>
      </trkpt>
      <trkpt lat="47.27772" lon="-2.35205">
        <ele>12</ele>
        <time>2022-03-10T08:33:00.000Z</time>
      </trkpt>
      <trkpt lat="47.27774" lon="-2.35209">
        <ele>11.60000038147</ele>
        <time>2022-03-10T08:33:01.000Z</time>
      </trkpt>
      <trkpt lat="47.27776" lon="-2.35214">
        <ele>11</ele>
        <time>2022-03-10T08:33:02.000Z</time>
      </trkpt>
      <trkpt lat="47.2778" lon="-2.35237">
        <ele>11</ele>
        <time>2022-03-10T08:33:06.000Z</time>
      </trkpt>
      <trkpt lat="47.27788" lon="-2.35285">
        <ele>11</ele>
        <time>2022-03-10T08:33:13.000Z</time>
      </trkpt>
      <trkpt lat="47.27791" lon="-2.35298">
        <ele>11</ele>
        <time>2022-03-10T08:33:15.000Z</time>
      </trkpt>
      <trkpt lat="47.27798" lon="-2.35326">
        <ele>11</ele>
        <time>2022-03-10T08:33:19.000Z</time>
      </trkpt>
      <trkpt lat="47.27806" lon="-2.35352">
        <ele>11</ele>
        <time>2022-03-10T08:33:23.000Z</time>
      </trkpt>
      <trkpt lat="47.27813" lon="-2.3536">
        <ele>11</ele>
        <time>2022-03-10T08:33:25.000Z</time>
      </trkpt>
      <trkpt lat="47.27831" lon="-2.35363">
        <ele>11</ele>
        <time>2022-03-10T08:33:29.000Z</time>
      </trkpt>
      <trkpt lat="47.2787" lon="-2.35362">
        <ele>11</ele>
        <time>2022-03-10T08:33:38.000Z</time>
      </trkpt>
      <trkpt lat="47.27887" lon="-2.35378">
        <ele>11</ele>
        <time>2022-03-10T08:33:43.000Z</time>
      </trkpt>
      <trkpt lat="47.2789" lon="-2.35383">
        <ele>11.39999961853</ele>
        <time>2022-03-10T08:33:44.000Z</time>
      </trkpt>
      <trkpt lat="47.27894" lon="-2.35387">
        <ele>11.800000190735</ele>
        <time>2022-03-10T08:33:45.000Z</time>
      </trkpt>
      <trkpt lat="47.27897" lon="-2.35391">
        <ele>12.199999809265</ele>
        <time>2022-03-10T08:33:46.000Z</time>
      </trkpt>
      <trkpt lat="47.279" lon="-2.35395">
        <ele>12.60000038147</ele>
        <time>2022-03-10T08:33:47.000Z</time>
      </trkpt>
      <trkpt lat="47.27904" lon="-2.35399">
        <ele>13</ele>
        <time>2022-03-10T08:33:48.000Z</time>
      </trkpt>
      <trkpt lat="47.27913" lon="-2.35413">
        <ele>13</ele>
        <time>2022-03-10T08:33:51.000Z</time>
      </trkpt>
      <trkpt lat="47.27937" lon="-2.35444">
        <ele>13</ele>
        <time>2022-03-10T08:33:58.000Z</time>
      </trkpt>
      <trkpt lat="47.27952" lon="-2.35456">
        <ele>13</ele>
        <time>2022-03-10T08:34:02.000Z</time>
      </trkpt>
      <trkpt lat="47.27963" lon="-2.35463">
        <ele>13</ele>
        <time>2022-03-10T08:34:05.000Z</time>
      </trkpt>
      <trkpt lat="47.27967" lon="-2.35466">
        <ele>13</ele>
        <time>2022-03-10T08:34:06.000Z</time>
      </trkpt>
      <trkpt lat="47.27974" lon="-2.35473">
        <ele>13</ele>
        <time>2022-03-10T08:34:08.000Z</time>
      </trkpt>
      <trkpt lat="47.27977" lon="-2.35478">
        <ele>13</ele>
        <time>2022-03-10T08:34:09.000Z</time>
      </trkpt>
      <trkpt lat="47.27994" lon="-2.35507">
        <ele>13</ele>
        <time>2022-03-10T08:34:15.000Z</time>
      </trkpt>
      <trkpt lat="47.28005" lon="-2.35532">
        <ele>13</ele>
        <time>2022-03-10T08:34:21.000Z</time>
      </trkpt>
      <trkpt lat="47.28011" lon="-2.35549">
        <ele>13</ele>
        <time>2022-03-10T08:34:26.000Z</time>
      </trkpt>
      <trkpt lat="47.28023" lon="-2.35553">
        <ele>13</ele>
        <time>2022-03-10T08:34:30.000Z</time>
      </trkpt>
      <trkpt lat="47.28035" lon="-2.3557">
        <ele>13.60000038147</ele>
        <time>2022-03-10T08:34:35.000Z</time>
      </trkpt>
      <trkpt lat="47.28038" lon="-2.35573">
        <ele>14</ele>
        <time>2022-03-10T08:34:36.000Z</time>
      </trkpt>
      <trkpt lat="47.28041" lon="-2.35575">
        <ele>14.39999961853</ele>
        <time>2022-03-10T08:34:37.000Z</time>
      </trkpt>
      <trkpt lat="47.28043" lon="-2.35577">
        <ele>14.800000190735</ele>
        <time>2022-03-10T08:34:38.000Z</time>
      </trkpt>
      <trkpt lat="47.28046" lon="-2.35579">
        <ele>15.199999809265</ele>
        <time>2022-03-10T08:34:39.000Z</time>
      </trkpt>
      <trkpt lat="47.28049" lon="-2.35579">
        <ele>15.199999809265</ele>
        <time>2022-03-10T08:34:40.000Z</time>
      </trkpt>
      <trkpt lat="47.28067" lon="-2.35587">
        <ele>15.199999809265</ele>
        <time>2022-03-10T08:34:47.000Z</time>
      </trkpt>
      <trkpt lat="47.28068" lon="-2.35589">
        <ele>15.199999809265</ele>
        <time>2022-03-10T08:34:48.000Z</time>
      </trkpt>
      <trkpt lat="47.28074" lon="-2.35599">
        <ele>15.199999809265</ele>
        <time>2022-03-10T08:34:51.000Z</time>
      </trkpt>
      <trkpt lat="47.28083" lon="-2.35612">
        <ele>15.60000038147</ele>
        <time>2022-03-10T08:34:57.000Z</time>
      </trkpt>
      <trkpt lat="47.28085" lon="-2.35614">
        <ele>16</ele>
        <time>2022-03-10T08:34:58.000Z</time>
      </trkpt>
      <trkpt lat="47.28086" lon="-2.35614">
        <ele>16.39999961853</ele>
        <time>2022-03-10T08:34:59.000Z</time>
      </trkpt>
      <trkpt lat="47.28088" lon="-2.35615">
        <ele>16.799999237061</ele>
        <time>2022-03-10T08:35:00.000Z</time>
      </trkpt>
      <trkpt lat="47.28088" lon="-2.35615">
        <ele>17.200000762939</ele>
        <time>2022-03-10T08:35:01.000Z</time>
      </trkpt>
      <trkpt lat="47.28088" lon="-2.35615">
        <ele>17.200000762939</ele>
        <time>2022-03-10T08:35:02.000Z</time>
      </trkpt>
      <trkpt lat="47.28086" lon="-2.35612">
        <ele>17.200000762939</ele>
        <time>2022-03-10T08:41:09.000Z</time>
      </trkpt>
      <trkpt lat="47.28082" lon="-2.35608">
        <ele>17.200000762939</ele>
        <time>2022-03-10T08:41:12.000Z</time>
      </trkpt>
      <trkpt lat="47.28069" lon="-2.35593">
        <ele>17.200000762939</ele>
        <time>2022-03-10T08:41:18.000Z</time>
      </trkpt>
      <trkpt lat="47.28066" lon="-2.35577">
        <ele>17.200000762939</ele>
        <time>2022-03-10T08:41:22.000Z</time>
      </trkpt>
      <trkpt lat="47.28068" lon="-2.35568">
        <ele>17.200000762939</ele>
        <time>2022-03-10T08:41:24.000Z</time>
      </trkpt>
      <trkpt lat="47.28071" lon="-2.35565">
        <ele>17.200000762939</ele>
        <time>2022-03-10T08:41:26.000Z</time>
      </trkpt>
      <trkpt lat="47.28075" lon="-2.35562">
        <ele>17.200000762939</ele>
        <time>2022-03-10T08:41:28.000Z</time>
      </trkpt>
      <trkpt lat="47.28081" lon="-2.3556">
        <ele>17.200000762939</ele>
        <time>2022-03-10T08:41:30.000Z</time>
      </trkpt>
      <trkpt lat="47.28085" lon="-2.35561">
        <ele>17.200000762939</ele>
        <time>2022-03-10T08:41:31.000Z</time>
      </trkpt>
      <trkpt lat="47.28114" lon="-2.35565">
        <ele>17.200000762939</ele>
        <time>2022-03-10T08:41:40.000Z</time>
      </trkpt>
      <trkpt lat="47.28125" lon="-2.35564">
        <ele>17.200000762939</ele>
        <time>2022-03-10T08:41:44.000Z</time>
      </trkpt>
      <trkpt lat="47.28129" lon="-2.35559">
        <ele>17.200000762939</ele>
        <time>2022-03-10T08:41:46.000Z</time>
      </trkpt>
      <trkpt lat="47.28137" lon="-2.35543">
        <ele>17.200000762939</ele>
        <time>2022-03-10T08:41:50.000Z</time>
      </trkpt>
      <trkpt lat="47.28153" lon="-2.35509">
        <ele>17.200000762939</ele>
        <time>2022-03-10T08:41:56.000Z</time>
      </trkpt>
      <trkpt lat="47.2818" lon="-2.35465">
        <ele>17.200000762939</ele>
        <time>2022-03-10T08:42:03.000Z</time>
      </trkpt>
      <trkpt lat="47.28184" lon="-2.35459">
        <ele>17.200000762939</ele>
        <time>2022-03-10T08:42:04.000Z</time>
      </trkpt>
      <trkpt lat="47.28194" lon="-2.3545">
        <ele>17.200000762939</ele>
        <time>2022-03-10T08:42:06.000Z</time>
      </trkpt>
      <trkpt lat="47.28207" lon="-2.35436">
        <ele>17.200000762939</ele>
        <time>2022-03-10T08:42:09.000Z</time>
      </trkpt>
      <trkpt lat="47.28235" lon="-2.35415">
        <ele>17.200000762939</ele>
        <time>2022-03-10T08:42:16.000Z</time>
      </trkpt>
      <trkpt lat="47.2825" lon="-2.35407">
        <ele>17.200000762939</ele>
        <time>2022-03-10T08:42:21.000Z</time>
      </trkpt>
      <trkpt lat="47.28265" lon="-2.3541">
        <ele>17.200000762939</ele>
        <time>2022-03-10T08:42:26.000Z</time>
      </trkpt>
      <trkpt lat="47.28276" lon="-2.354">
        <ele>17.200000762939</ele>
        <time>2022-03-10T08:42:32.000Z</time>
      </trkpt>
      <trkpt lat="47.28281" lon="-2.35383">
        <ele>17.60000038147</ele>
        <time>2022-03-10T08:42:36.000Z</time>
      </trkpt>
      <trkpt lat="47.28284" lon="-2.35381">
        <ele>18</ele>
        <time>2022-03-10T08:42:37.000Z</time>
      </trkpt>
      <trkpt lat="47.28288" lon="-2.35377">
        <ele>18.39999961853</ele>
        <time>2022-03-10T08:42:38.000Z</time>
      </trkpt>
      <trkpt lat="47.28291" lon="-2.35374">
        <ele>19</ele>
        <time>2022-03-10T08:42:39.000Z</time>
      </trkpt>
      <trkpt lat="47.28295" lon="-2.35372">
        <ele>19.39999961853</ele>
        <time>2022-03-10T08:42:40.000Z</time>
      </trkpt>
      <trkpt lat="47.28311" lon="-2.35363">
        <ele>19.39999961853</ele>
        <time>2022-03-10T08:42:44.000Z</time>
      </trkpt>
      <trkpt lat="47.2833" lon="-2.35351">
        <ele>19.39999961853</ele>
        <time>2022-03-10T08:42:50.000Z</time>
      </trkpt>
      <trkpt lat="47.28352" lon="-2.35339">
        <ele>19.39999961853</ele>
        <time>2022-03-10T08:42:57.000Z</time>
      </trkpt>
      <trkpt lat="47.28354" lon="-2.35341">
        <ele>19.39999961853</ele>
        <time>2022-03-10T08:42:58.000Z</time>
      </trkpt>
      <trkpt lat="47.28356" lon="-2.35346">
        <ele>19.39999961853</ele>
        <time>2022-03-10T08:43:00.000Z</time>
      </trkpt>
      <trkpt lat="47.28357" lon="-2.35351">
        <ele>19.39999961853</ele>
        <time>2022-03-10T08:43:02.000Z</time>
      </trkpt>
      <trkpt lat="47.28362" lon="-2.35362">
        <ele>19.39999961853</ele>
        <time>2022-03-10T08:43:06.000Z</time>
      </trkpt>
      <trkpt lat="47.28366" lon="-2.35367">
        <ele>19.799999237061</ele>
        <time>2022-03-10T08:43:09.000Z</time>
      </trkpt>
      <trkpt lat="47.28367" lon="-2.3537">
        <ele>20.200000762939</ele>
        <time>2022-03-10T08:43:10.000Z</time>
      </trkpt>
      <trkpt lat="47.28368" lon="-2.35372">
        <ele>20.60000038147</ele>
        <time>2022-03-10T08:43:11.000Z</time>
      </trkpt>
      <trkpt lat="47.2837" lon="-2.35375">
        <ele>21.200000762939</ele>
        <time>2022-03-10T08:43:12.000Z</time>
      </trkpt>
      <trkpt lat="47.28371" lon="-2.35376">
        <ele>21.60000038147</ele>
        <time>2022-03-10T08:43:13.000Z</time>
      </trkpt>
      <trkpt lat="47.28373" lon="-2.35383">
        <ele>22</ele>
        <time>2022-03-10T08:43:16.000Z</time>
      </trkpt>
      <trkpt lat="47.28374" lon="-2.35386">
        <ele>22.60000038147</ele>
        <time>2022-03-10T08:43:17.000Z</time>
      </trkpt>
      <trkpt lat="47.28375" lon="-2.35389">
        <ele>23</ele>
        <time>2022-03-10T08:43:18.000Z</time>
      </trkpt>
      <trkpt lat="47.28376" lon="-2.3539">
        <ele>23.39999961853</ele>
        <time>2022-03-10T08:43:19.000Z</time>
      </trkpt>
      <trkpt lat="47.28376" lon="-2.35393">
        <ele>23.799999237061</ele>
        <time>2022-03-10T08:43:20.000Z</time>
      </trkpt>
      <trkpt lat="47.28377" lon="-2.35395">
        <ele>24.799999237061</ele>
        <time>2022-03-10T08:43:21.000Z</time>
      </trkpt>
      <trkpt lat="47.28378" lon="-2.35397">
        <ele>25.39999961853</ele>
        <time>2022-03-10T08:43:22.000Z</time>
      </trkpt>
      <trkpt lat="47.28379" lon="-2.35399">
        <ele>25.799999237061</ele>
        <time>2022-03-10T08:43:23.000Z</time>
      </trkpt>
      <trkpt lat="47.28381" lon="-2.35401">
        <ele>26.39999961853</ele>
        <time>2022-03-10T08:43:24.000Z</time>
      </trkpt>
      <trkpt lat="47.28384" lon="-2.35407">
        <ele>26.799999237061</ele>
        <time>2022-03-10T08:43:27.000Z</time>
      </trkpt>
      <trkpt lat="47.28386" lon="-2.3541">
        <ele>27.200000762939</ele>
        <time>2022-03-10T08:43:28.000Z</time>
      </trkpt>
      <trkpt lat="47.28386" lon="-2.35413">
        <ele>27.60000038147</ele>
        <time>2022-03-10T08:43:29.000Z</time>
      </trkpt>
      <trkpt lat="47.28388" lon="-2.35415">
        <ele>28.200000762939</ele>
        <time>2022-03-10T08:43:30.000Z</time>
      </trkpt>
      <trkpt lat="47.28389" lon="-2.35417">
        <ele>28.60000038147</ele>
        <time>2022-03-10T08:43:31.000Z</time>
      </trkpt>
      <trkpt lat="47.28393" lon="-2.3542">
        <ele>28.60000038147</ele>
        <time>2022-03-10T08:43:33.000Z</time>
      </trkpt>
      <trkpt lat="47.28402" lon="-2.35431">
        <ele>28.60000038147</ele>
        <time>2022-03-10T08:43:39.000Z</time>
      </trkpt>
      <trkpt lat="47.28406" lon="-2.3543">
        <ele>28.60000038147</ele>
        <time>2022-03-10T08:43:41.000Z</time>
      </trkpt>
      <trkpt lat="47.2841" lon="-2.35425">
        <ele>28.60000038147</ele>
        <time>2022-03-10T08:43:43.000Z</time>
      </trkpt>
      <trkpt lat="47.28413" lon="-2.3542">
        <ele>28.60000038147</ele>
        <time>2022-03-10T08:43:45.000Z</time>
      </trkpt>
      <trkpt lat="47.28422" lon="-2.35414">
        <ele>28.60000038147</ele>
        <time>2022-03-10T08:43:49.000Z</time>
      </trkpt>
      <trkpt lat="47.28424" lon="-2.35414">
        <ele>29</ele>
        <time>2022-03-10T08:43:50.000Z</time>
      </trkpt>
      <trkpt lat="47.28426" lon="-2.35412">
        <ele>29.39999961853</ele>
        <time>2022-03-10T08:43:51.000Z</time>
      </trkpt>
      <trkpt lat="47.28428" lon="-2.35412">
        <ele>29.799999237061</ele>
        <time>2022-03-10T08:43:52.000Z</time>
      </trkpt>
      <trkpt lat="47.28429" lon="-2.35411">
        <ele>30.200000762939</ele>
        <time>2022-03-10T08:43:53.000Z</time>
      </trkpt>
      <trkpt lat="47.28431" lon="-2.35411">
        <ele>30.60000038147</ele>
        <time>2022-03-10T08:43:54.000Z</time>
      </trkpt>
      <trkpt lat="47.28433" lon="-2.35411">
        <ele>30.60000038147</ele>
        <time>2022-03-10T08:43:55.000Z</time>
      </trkpt>
      <trkpt lat="47.2844" lon="-2.35409">
        <ele>30.60000038147</ele>
        <time>2022-03-10T08:43:58.000Z</time>
      </trkpt>
      <trkpt lat="47.28442" lon="-2.35406">
        <ele>30.60000038147</ele>
        <time>2022-03-10T08:43:59.000Z</time>
      </trkpt>
      <trkpt lat="47.28444" lon="-2.35403">
        <ele>30.200000762939</ele>
        <time>2022-03-10T08:44:00.000Z</time>
      </trkpt>
      <trkpt lat="47.28446" lon="-2.35398">
        <ele>29.799999237061</ele>
        <time>2022-03-10T08:44:01.000Z</time>
      </trkpt>
      <trkpt lat="47.28447" lon="-2.35395">
        <ele>29.39999961853</ele>
        <time>2022-03-10T08:44:02.000Z</time>
      </trkpt>
      <trkpt lat="47.28449" lon="-2.35394">
        <ele>28.799999237061</ele>
        <time>2022-03-10T08:44:03.000Z</time>
      </trkpt>
      <trkpt lat="47.2845" lon="-2.35392">
        <ele>28.39999961853</ele>
        <time>2022-03-10T08:44:04.000Z</time>
      </trkpt>
      <trkpt lat="47.28452" lon="-2.35389">
        <ele>28.39999961853</ele>
        <time>2022-03-10T08:44:08.000Z</time>
      </trkpt>
      <trkpt lat="47.28448" lon="-2.35382">
        <ele>28.39999961853</ele>
        <time>2022-03-10T08:44:16.000Z</time>
      </trkpt>
      <trkpt lat="47.28448" lon="-2.35377">
        <ele>28</ele>
        <time>2022-03-10T08:44:17.000Z</time>
      </trkpt>
      <trkpt lat="47.2845" lon="-2.35372">
        <ele>27.60000038147</ele>
        <time>2022-03-10T08:44:18.000Z</time>
      </trkpt>
      <trkpt lat="47.28451" lon="-2.35367">
        <ele>27</ele>
        <time>2022-03-10T08:44:19.000Z</time>
      </trkpt>
      <trkpt lat="47.28452" lon="-2.35363">
        <ele>26.60000038147</ele>
        <time>2022-03-10T08:44:20.000Z</time>
      </trkpt>
      <trkpt lat="47.28453" lon="-2.35361">
        <ele>26.200000762939</ele>
        <time>2022-03-10T08:44:21.000Z</time>
      </trkpt>
      <trkpt lat="47.28453" lon="-2.35358">
        <ele>25.60000038147</ele>
        <time>2022-03-10T08:44:22.000Z</time>
      </trkpt>
      <trkpt lat="47.28453" lon="-2.35357">
        <ele>25</ele>
        <time>2022-03-10T08:44:23.000Z</time>
      </trkpt>
      <trkpt lat="47.28454" lon="-2.35356">
        <ele>24.39999961853</ele>
        <time>2022-03-10T08:44:24.000Z</time>
      </trkpt>
      <trkpt lat="47.28454" lon="-2.35353">
        <ele>24</ele>
        <time>2022-03-10T08:44:25.000Z</time>
      </trkpt>
      <trkpt lat="47.28455" lon="-2.35347">
        <ele>24</ele>
        <time>2022-03-10T08:44:28.000Z</time>
      </trkpt>
      <trkpt lat="47.2847" lon="-2.35357">
        <ele>22</ele>
        <time>2022-03-10T08:45:27.000Z</time>
      </trkpt>
      <trkpt lat="47.28478" lon="-2.35371">
        <ele>22</ele>
        <time>2022-03-10T08:45:32.000Z</time>
      </trkpt>
      <trkpt lat="47.28488" lon="-2.35398">
        <ele>22</ele>
        <time>2022-03-10T08:45:38.000Z</time>
      </trkpt>
      <trkpt lat="47.28493" lon="-2.35417">
        <ele>22</ele>
        <time>2022-03-10T08:45:43.000Z</time>
      </trkpt>
      <trkpt lat="47.28491" lon="-2.35419">
        <ele>22.39999961853</ele>
        <time>2022-03-10T08:45:44.000Z</time>
      </trkpt>
      <trkpt lat="47.28489" lon="-2.35422">
        <ele>22.799999237061</ele>
        <time>2022-03-10T08:45:45.000Z</time>
      </trkpt>
      <trkpt lat="47.28487" lon="-2.35424">
        <ele>23.200000762939</ele>
        <time>2022-03-10T08:45:46.000Z</time>
      </trkpt>
      <trkpt lat="47.28485" lon="-2.35427">
        <ele>23.799999237061</ele>
        <time>2022-03-10T08:45:47.000Z</time>
      </trkpt>
      <trkpt lat="47.28483" lon="-2.35429">
        <ele>24.200000762939</ele>
        <time>2022-03-10T08:45:48.000Z</time>
      </trkpt>
      <trkpt lat="47.28479" lon="-2.35434">
        <ele>24.60000038147</ele>
        <time>2022-03-10T08:45:50.000Z</time>
      </trkpt>
      <trkpt lat="47.28477" lon="-2.35435">
        <ele>25</ele>
        <time>2022-03-10T08:45:51.000Z</time>
      </trkpt>
      <trkpt lat="47.28475" lon="-2.35436">
        <ele>25.39999961853</ele>
        <time>2022-03-10T08:45:52.000Z</time>
      </trkpt>
      <trkpt lat="47.28473" lon="-2.35436">
        <ele>26</ele>
        <time>2022-03-10T08:45:53.000Z</time>
      </trkpt>
      <trkpt lat="47.28471" lon="-2.35436">
        <ele>26.39999961853</ele>
        <time>2022-03-10T08:45:54.000Z</time>
      </trkpt>
      <trkpt lat="47.28467" lon="-2.35435">
        <ele>26.799999237061</ele>
        <time>2022-03-10T08:45:56.000Z</time>
      </trkpt>
      <trkpt lat="47.28466" lon="-2.35435">
        <ele>27.200000762939</ele>
        <time>2022-03-10T08:45:57.000Z</time>
      </trkpt>
      <trkpt lat="47.28464" lon="-2.35434">
        <ele>27.60000038147</ele>
        <time>2022-03-10T08:45:58.000Z</time>
      </trkpt>
      <trkpt lat="47.28463" lon="-2.35432">
        <ele>28.200000762939</ele>
        <time>2022-03-10T08:45:59.000Z</time>
      </trkpt>
      <trkpt lat="47.28462" lon="-2.3543">
        <ele>28.60000038147</ele>
        <time>2022-03-10T08:46:00.000Z</time>
      </trkpt>
      <trkpt lat="47.28461" lon="-2.35426">
        <ele>28.60000038147</ele>
        <time>2022-03-10T08:46:01.000Z</time>
      </trkpt>
      <trkpt lat="47.28451" lon="-2.35423">
        <ele>28.60000038147</ele>
        <time>2022-03-10T08:46:06.000Z</time>
      </trkpt>
      <trkpt lat="47.28446" lon="-2.35432">
        <ele>28.60000038147</ele>
        <time>2022-03-10T08:46:09.000Z</time>
      </trkpt>
      <trkpt lat="47.28446" lon="-2.35434">
        <ele>29</ele>
        <time>2022-03-10T08:46:10.000Z</time>
      </trkpt>
      <trkpt lat="47.28446" lon="-2.35436">
        <ele>29.39999961853</ele>
        <time>2022-03-10T08:46:11.000Z</time>
      </trkpt>
      <trkpt lat="47.28446" lon="-2.35438">
        <ele>29.799999237061</ele>
        <time>2022-03-10T08:46:12.000Z</time>
      </trkpt>
      <trkpt lat="47.28447" lon="-2.35438">
        <ele>30.200000762939</ele>
        <time>2022-03-10T08:46:13.000Z</time>
      </trkpt>
      <trkpt lat="47.28448" lon="-2.35439">
        <ele>30.799999237061</ele>
        <time>2022-03-10T08:46:14.000Z</time>
      </trkpt>
      <trkpt lat="47.28449" lon="-2.35439">
        <ele>30.799999237061</ele>
        <time>2022-03-10T08:46:15.000Z</time>
      </trkpt>
      <trkpt lat="47.28452" lon="-2.35444">
        <ele>31.200000762939</ele>
        <time>2022-03-10T08:46:19.000Z</time>
      </trkpt>
      <trkpt lat="47.28453" lon="-2.35445">
        <ele>31.60000038147</ele>
        <time>2022-03-10T08:46:20.000Z</time>
      </trkpt>
      <trkpt lat="47.28453" lon="-2.35447">
        <ele>32</ele>
        <time>2022-03-10T08:46:21.000Z</time>
      </trkpt>
      <trkpt lat="47.28454" lon="-2.3545">
        <ele>32.400001525879</ele>
        <time>2022-03-10T08:46:22.000Z</time>
      </trkpt>
      <trkpt lat="47.28455" lon="-2.35453">
        <ele>32.799999237061</ele>
        <time>2022-03-10T08:46:23.000Z</time>
      </trkpt>
      <trkpt lat="47.28455" lon="-2.35467">
        <ele>33.200000762939</ele>
        <time>2022-03-10T08:46:29.000Z</time>
      </trkpt>
      <trkpt lat="47.28456" lon="-2.35469">
        <ele>33.799999237061</ele>
        <time>2022-03-10T08:46:30.000Z</time>
      </trkpt>
      <trkpt lat="47.28457" lon="-2.35472">
        <ele>34.200000762939</ele>
        <time>2022-03-10T08:46:31.000Z</time>
      </trkpt>
      <trkpt lat="47.28458" lon="-2.35475">
        <ele>34.599998474121</ele>
        <time>2022-03-10T08:46:32.000Z</time>
      </trkpt>
      <trkpt lat="47.28459" lon="-2.35477">
        <ele>35</ele>
        <time>2022-03-10T08:46:33.000Z</time>
      </trkpt>
      <trkpt lat="47.28461" lon="-2.35479">
        <ele>35</ele>
        <time>2022-03-10T08:46:34.000Z</time>
      </trkpt>
      <trkpt lat="47.28468" lon="-2.35491">
        <ele>35.400001525879</ele>
        <time>2022-03-10T08:46:41.000Z</time>
      </trkpt>
      <trkpt lat="47.28469" lon="-2.35493">
        <ele>35.799999237061</ele>
        <time>2022-03-10T08:46:42.000Z</time>
      </trkpt>
      <trkpt lat="47.2847" lon="-2.35495">
        <ele>36.200000762939</ele>
        <time>2022-03-10T08:46:43.000Z</time>
      </trkpt>
      <trkpt lat="47.28471" lon="-2.35497">
        <ele>36.599998474121</ele>
        <time>2022-03-10T08:46:44.000Z</time>
      </trkpt>
      <trkpt lat="47.28471" lon="-2.35498">
        <ele>37</ele>
        <time>2022-03-10T08:46:45.000Z</time>
      </trkpt>
      <trkpt lat="47.28473" lon="-2.35503">
        <ele>37</ele>
        <time>2022-03-10T08:46:48.000Z</time>
      </trkpt>
      <trkpt lat="47.28474" lon="-2.35509">
        <ele>37</ele>
        <time>2022-03-10T08:46:51.000Z</time>
      </trkpt>
      <trkpt lat="47.28477" lon="-2.35518">
        <ele>37</ele>
        <time>2022-03-10T08:46:54.000Z</time>
      </trkpt>
      <trkpt lat="47.28484" lon="-2.35546">
        <ele>37</ele>
        <time>2022-03-10T08:47:01.000Z</time>
      </trkpt>
      <trkpt lat="47.28493" lon="-2.35562">
        <ele>37</ele>
        <time>2022-03-10T08:47:06.000Z</time>
      </trkpt>
      <trkpt lat="47.28501" lon="-2.35586">
        <ele>37</ele>
        <time>2022-03-10T08:47:12.000Z</time>
      </trkpt>
      <trkpt lat="47.28508" lon="-2.35601">
        <ele>37</ele>
        <time>2022-03-10T08:47:17.000Z</time>
      </trkpt>
      <trkpt lat="47.28512" lon="-2.35604">
        <ele>36.599998474121</ele>
        <time>2022-03-10T08:47:19.000Z</time>
      </trkpt>
      <trkpt lat="47.28515" lon="-2.35605">
        <ele>36.200000762939</ele>
        <time>2022-03-10T08:47:20.000Z</time>
      </trkpt>
      <trkpt lat="47.28517" lon="-2.35605">
        <ele>35.799999237061</ele>
        <time>2022-03-10T08:47:21.000Z</time>
      </trkpt>
      <trkpt lat="47.2852" lon="-2.35606">
        <ele>35.400001525879</ele>
        <time>2022-03-10T08:47:22.000Z</time>
      </trkpt>
      <trkpt lat="47.28522" lon="-2.35607">
        <ele>35</ele>
        <time>2022-03-10T08:47:23.000Z</time>
      </trkpt>
      <trkpt lat="47.28536" lon="-2.35611">
        <ele>35</ele>
        <time>2022-03-10T08:47:30.000Z</time>
      </trkpt>
      <trkpt lat="47.28542" lon="-2.35617">
        <ele>35</ele>
        <time>2022-03-10T08:47:34.000Z</time>
      </trkpt>
      <trkpt lat="47.28542" lon="-2.3562">
        <ele>34.599998474121</ele>
        <time>2022-03-10T08:47:35.000Z</time>
      </trkpt>
      <trkpt lat="47.28541" lon="-2.35623">
        <ele>34</ele>
        <time>2022-03-10T08:47:36.000Z</time>
      </trkpt>
      <trkpt lat="47.28541" lon="-2.35626">
        <ele>33.599998474121</ele>
        <time>2022-03-10T08:47:37.000Z</time>
      </trkpt>
      <trkpt lat="47.2854" lon="-2.35631">
        <ele>33</ele>
        <time>2022-03-10T08:47:38.000Z</time>
      </trkpt>
      <trkpt lat="47.28541" lon="-2.35636">
        <ele>32.599998474121</ele>
        <time>2022-03-10T08:47:39.000Z</time>
      </trkpt>
      <trkpt lat="47.28541" lon="-2.35643">
        <ele>32</ele>
        <time>2022-03-10T08:47:40.000Z</time>
      </trkpt>
      <trkpt lat="47.28541" lon="-2.35649">
        <ele>31.60000038147</ele>
        <time>2022-03-10T08:47:41.000Z</time>
      </trkpt>
      <trkpt lat="47.28542" lon="-2.35658">
        <ele>31</ele>
        <time>2022-03-10T08:47:42.000Z</time>
      </trkpt>
      <trkpt lat="47.28542" lon="-2.35664">
        <ele>30.60000038147</ele>
        <time>2022-03-10T08:47:43.000Z</time>
      </trkpt>
      <trkpt lat="47.28542" lon="-2.35671">
        <ele>30</ele>
        <time>2022-03-10T08:47:44.000Z</time>
      </trkpt>
      <trkpt lat="47.28542" lon="-2.35676">
        <ele>29.39999961853</ele>
        <time>2022-03-10T08:47:45.000Z</time>
      </trkpt>
      <trkpt lat="47.28541" lon="-2.35681">
        <ele>29</ele>
        <time>2022-03-10T08:47:46.000Z</time>
      </trkpt>
      <trkpt lat="47.2854" lon="-2.35685">
        <ele>28.39999961853</ele>
        <time>2022-03-10T08:47:47.000Z</time>
      </trkpt>
      <trkpt lat="47.28539" lon="-2.3569">
        <ele>27.799999237061</ele>
        <time>2022-03-10T08:47:48.000Z</time>
      </trkpt>
      <trkpt lat="47.28535" lon="-2.35698">
        <ele>27.799999237061</ele>
        <time>2022-03-10T08:47:52.000Z</time>
      </trkpt>
      <trkpt lat="47.28535" lon="-2.3571">
        <ele>27.799999237061</ele>
        <time>2022-03-10T08:47:59.000Z</time>
      </trkpt>
      <trkpt lat="47.28535" lon="-2.35712">
        <ele>27.799999237061</ele>
        <time>2022-03-10T08:48:00.000Z</time>
      </trkpt>
      <trkpt lat="47.28533" lon="-2.35714">
        <ele>27.799999237061</ele>
        <time>2022-03-10T08:48:04.000Z</time>
      </trkpt>
      <trkpt lat="47.2853" lon="-2.35716">
        <ele>27.799999237061</ele>
        <time>2022-03-10T08:48:06.000Z</time>
      </trkpt>
      <trkpt lat="47.28527" lon="-2.35715">
        <ele>27.799999237061</ele>
        <time>2022-03-10T08:48:08.000Z</time>
      </trkpt>
      <trkpt lat="47.28521" lon="-2.35711">
        <ele>27.799999237061</ele>
        <time>2022-03-10T08:48:11.000Z</time>
      </trkpt>
      <trkpt lat="47.2852" lon="-2.35709">
        <ele>27.799999237061</ele>
        <time>2022-03-10T08:48:12.000Z</time>
      </trkpt>
      <trkpt lat="47.28516" lon="-2.35703">
        <ele>27.799999237061</ele>
        <time>2022-03-10T08:48:16.000Z</time>
      </trkpt>
      <trkpt lat="47.28515" lon="-2.35704">
        <ele>27.799999237061</ele>
        <time>2022-03-10T08:48:17.000Z</time>
      </trkpt>
      <trkpt lat="47.28507" lon="-2.35708">
        <ele>27.799999237061</ele>
        <time>2022-03-10T08:48:20.000Z</time>
      </trkpt>
      <trkpt lat="47.28492" lon="-2.35726">
        <ele>27.799999237061</ele>
        <time>2022-03-10T08:48:26.000Z</time>
      </trkpt>
      <trkpt lat="47.2848" lon="-2.35743">
        <ele>27.799999237061</ele>
        <time>2022-03-10T08:48:31.000Z</time>
      </trkpt>
      <trkpt lat="47.2847" lon="-2.3576">
        <ele>27.799999237061</ele>
        <time>2022-03-10T08:48:36.000Z</time>
      </trkpt>
      <trkpt lat="47.28473" lon="-2.35774">
        <ele>27.799999237061</ele>
        <time>2022-03-10T08:48:39.000Z</time>
      </trkpt>
      <trkpt lat="47.28476" lon="-2.35786">
        <ele>27.799999237061</ele>
        <time>2022-03-10T08:48:43.000Z</time>
      </trkpt>
      <trkpt lat="47.28476" lon="-2.35789">
        <ele>27.799999237061</ele>
        <time>2022-03-10T08:48:44.000Z</time>
      </trkpt>
      <trkpt lat="47.28479" lon="-2.35806">
        <ele>27.799999237061</ele>
        <time>2022-03-10T08:48:50.000Z</time>
      </trkpt>
      <trkpt lat="47.28476" lon="-2.35819">
        <ele>27.799999237061</ele>
        <time>2022-03-10T08:48:54.000Z</time>
      </trkpt>
      <trkpt lat="47.28474" lon="-2.35822">
        <ele>27.799999237061</ele>
        <time>2022-03-10T08:48:55.000Z</time>
      </trkpt>
      <trkpt lat="47.28468" lon="-2.35828">
        <ele>27.799999237061</ele>
        <time>2022-03-10T08:48:58.000Z</time>
      </trkpt>
      <trkpt lat="47.28463" lon="-2.35827">
        <ele>27.799999237061</ele>
        <time>2022-03-10T08:49:00.000Z</time>
      </trkpt>
      <trkpt lat="47.28457" lon="-2.35827">
        <ele>27.799999237061</ele>
        <time>2022-03-10T08:49:02.000Z</time>
      </trkpt>
      <trkpt lat="47.28439" lon="-2.3583">
        <ele>27.799999237061</ele>
        <time>2022-03-10T08:49:08.000Z</time>
      </trkpt>
      <trkpt lat="47.28422" lon="-2.35836">
        <ele>27.799999237061</ele>
        <time>2022-03-10T08:49:14.000Z</time>
      </trkpt>
      <trkpt lat="47.2842" lon="-2.35837">
        <ele>27.799999237061</ele>
        <time>2022-03-10T08:49:16.000Z</time>
      </trkpt>
      <trkpt lat="47.28412" lon="-2.35836">
        <ele>27.799999237061</ele>
        <time>2022-03-10T08:50:43.000Z</time>
      </trkpt>
      <trkpt lat="47.284" lon="-2.35845">
        <ele>27.799999237061</ele>
        <time>2022-03-10T08:50:48.000Z</time>
      </trkpt>
      <trkpt lat="47.28384" lon="-2.35851">
        <ele>27.799999237061</ele>
        <time>2022-03-10T08:50:54.000Z</time>
      </trkpt>
      <trkpt lat="47.2838" lon="-2.35852">
        <ele>27.39999961853</ele>
        <time>2022-03-10T08:50:58.000Z</time>
      </trkpt>
      <trkpt lat="47.28373" lon="-2.35849">
        <ele>25.799999237061</ele>
        <time>2022-03-10T08:51:58.000Z</time>
      </trkpt>
      <trkpt lat="47.28359" lon="-2.35846">
        <ele>25.799999237061</ele>
        <time>2022-03-10T08:52:04.000Z</time>
      </trkpt>
      <trkpt lat="47.28348" lon="-2.35851">
        <ele>25.799999237061</ele>
        <time>2022-03-10T08:52:09.000Z</time>
      </trkpt>
      <trkpt lat="47.28341" lon="-2.35862">
        <ele>25.799999237061</ele>
        <time>2022-03-10T08:52:14.000Z</time>
      </trkpt>
      <trkpt lat="47.28337" lon="-2.35867">
        <ele>25.799999237061</ele>
        <time>2022-03-10T08:52:16.000Z</time>
      </trkpt>
      <trkpt lat="47.28334" lon="-2.35873">
        <ele>25.799999237061</ele>
        <time>2022-03-10T08:52:18.000Z</time>
      </trkpt>
      <trkpt lat="47.28331" lon="-2.35876">
        <ele>25.799999237061</ele>
        <time>2022-03-10T08:52:19.000Z</time>
      </trkpt>
      <trkpt lat="47.28317" lon="-2.35869">
        <ele>25.799999237061</ele>
        <time>2022-03-10T08:52:25.000Z</time>
      </trkpt>
      <trkpt lat="47.28308" lon="-2.35866">
        <ele>25.799999237061</ele>
        <time>2022-03-10T08:52:28.000Z</time>
      </trkpt>
      <trkpt lat="47.28304" lon="-2.35866">
        <ele>25.799999237061</ele>
        <time>2022-03-10T08:52:30.000Z</time>
      </trkpt>
      <trkpt lat="47.2829" lon="-2.35863">
        <ele>25.799999237061</ele>
        <time>2022-03-10T08:52:35.000Z</time>
      </trkpt>
      <trkpt lat="47.28288" lon="-2.35864">
        <ele>25.799999237061</ele>
        <time>2022-03-10T08:52:36.000Z</time>
      </trkpt>
      <trkpt lat="47.2827" lon="-2.35882">
        <ele>25.799999237061</ele>
        <time>2022-03-10T08:52:41.000Z</time>
      </trkpt>
      <trkpt lat="47.28254" lon="-2.35895">
        <ele>25.799999237061</ele>
        <time>2022-03-10T08:52:45.000Z</time>
      </trkpt>
      <trkpt lat="47.2825" lon="-2.35897">
        <ele>25.799999237061</ele>
        <time>2022-03-10T08:52:46.000Z</time>
      </trkpt>
      <trkpt lat="47.28238" lon="-2.35902">
        <ele>25.39999961853</ele>
        <time>2022-03-10T08:52:49.000Z</time>
      </trkpt>
      <trkpt lat="47.28233" lon="-2.35902">
        <ele>24.39999961853</ele>
        <time>2022-03-10T08:52:50.000Z</time>
      </trkpt>
      <trkpt lat="47.28228" lon="-2.35901">
        <ele>24</ele>
        <time>2022-03-10T08:52:51.000Z</time>
      </trkpt>
      <trkpt lat="47.28223" lon="-2.359">
        <ele>23.60000038147</ele>
        <time>2022-03-10T08:52:52.000Z</time>
      </trkpt>
      <trkpt lat="47.28207" lon="-2.35896">
        <ele>23.60000038147</ele>
        <time>2022-03-10T08:52:56.000Z</time>
      </trkpt>
      <trkpt lat="47.28202" lon="-2.35907">
        <ele>23.60000038147</ele>
        <time>2022-03-10T08:52:59.000Z</time>
      </trkpt>
      <trkpt lat="47.28201" lon="-2.35913">
        <ele>23.60000038147</ele>
        <time>2022-03-10T08:53:00.000Z</time>
      </trkpt>
      <trkpt lat="47.28199" lon="-2.35919">
        <ele>23.200000762939</ele>
        <time>2022-03-10T08:53:01.000Z</time>
      </trkpt>
      <trkpt lat="47.28196" lon="-2.35926">
        <ele>22.799999237061</ele>
        <time>2022-03-10T08:53:02.000Z</time>
      </trkpt>
      <trkpt lat="47.28193" lon="-2.35931">
        <ele>22.39999961853</ele>
        <time>2022-03-10T08:53:03.000Z</time>
      </trkpt>
      <trkpt lat="47.28188" lon="-2.35936">
        <ele>22</ele>
        <time>2022-03-10T08:53:04.000Z</time>
      </trkpt>
      <trkpt lat="47.28184" lon="-2.3594">
        <ele>21.60000038147</ele>
        <time>2022-03-10T08:53:05.000Z</time>
      </trkpt>
      <trkpt lat="47.2818" lon="-2.35943">
        <ele>21.60000038147</ele>
        <time>2022-03-10T08:53:06.000Z</time>
      </trkpt>
      <trkpt lat="47.28177" lon="-2.35947">
        <ele>21.60000038147</ele>
        <time>2022-03-10T08:53:07.000Z</time>
      </trkpt>
      <trkpt lat="47.28174" lon="-2.35963">
        <ele>21.60000038147</ele>
        <time>2022-03-10T08:53:11.000Z</time>
      </trkpt>
      <trkpt lat="47.28179" lon="-2.35979">
        <ele>21.200000762939</ele>
        <time>2022-03-10T08:53:15.000Z</time>
      </trkpt>
      <trkpt lat="47.28181" lon="-2.35984">
        <ele>20.60000038147</ele>
        <time>2022-03-10T08:53:16.000Z</time>
      </trkpt>
      <trkpt lat="47.28183" lon="-2.35989">
        <ele>20.200000762939</ele>
        <time>2022-03-10T08:53:17.000Z</time>
      </trkpt>
      <trkpt lat="47.28185" lon="-2.35995">
        <ele>19.799999237061</ele>
        <time>2022-03-10T08:53:18.000Z</time>
      </trkpt>
      <trkpt lat="47.28187" lon="-2.36001">
        <ele>19.39999961853</ele>
        <time>2022-03-10T08:53:19.000Z</time>
      </trkpt>
      <trkpt lat="47.2819" lon="-2.36011">
        <ele>19.39999961853</ele>
        <time>2022-03-10T08:53:21.000Z</time>
      </trkpt>
      <trkpt lat="47.28203" lon="-2.3605">
        <ele>19.39999961853</ele>
        <time>2022-03-10T08:53:28.000Z</time>
      </trkpt>
      <trkpt lat="47.28214" lon="-2.36069">
        <ele>19.39999961853</ele>
        <time>2022-03-10T08:53:32.000Z</time>
      </trkpt>
      <trkpt lat="47.28222" lon="-2.36098">
        <ele>19.39999961853</ele>
        <time>2022-03-10T08:53:37.000Z</time>
      </trkpt>
      <trkpt lat="47.28227" lon="-2.36112">
        <ele>19.39999961853</ele>
        <time>2022-03-10T08:53:41.000Z</time>
      </trkpt>
      <trkpt lat="47.28229" lon="-2.36114">
        <ele>19.799999237061</ele>
        <time>2022-03-10T08:53:42.000Z</time>
      </trkpt>
      <trkpt lat="47.2823" lon="-2.36118">
        <ele>20.200000762939</ele>
        <time>2022-03-10T08:53:43.000Z</time>
      </trkpt>
      <trkpt lat="47.28232" lon="-2.36122">
        <ele>20.60000038147</ele>
        <time>2022-03-10T08:53:44.000Z</time>
      </trkpt>
      <trkpt lat="47.28234" lon="-2.36127">
        <ele>21</ele>
        <time>2022-03-10T08:53:45.000Z</time>
      </trkpt>
      <trkpt lat="47.28235" lon="-2.36133">
        <ele>21.39999961853</ele>
        <time>2022-03-10T08:53:46.000Z</time>
      </trkpt>
      <trkpt lat="47.28243" lon="-2.36157">
        <ele>21</ele>
        <time>2022-03-10T08:53:49.000Z</time>
      </trkpt>
      <trkpt lat="47.28246" lon="-2.36164">
        <ele>20.60000038147</ele>
        <time>2022-03-10T08:53:50.000Z</time>
      </trkpt>
      <trkpt lat="47.28249" lon="-2.36172">
        <ele>20</ele>
        <time>2022-03-10T08:53:51.000Z</time>
      </trkpt>
      <trkpt lat="47.28251" lon="-2.36179">
        <ele>19.60000038147</ele>
        <time>2022-03-10T08:53:52.000Z</time>
      </trkpt>
      <trkpt lat="47.28254" lon="-2.36186">
        <ele>19.200000762939</ele>
        <time>2022-03-10T08:53:53.000Z</time>
      </trkpt>
      <trkpt lat="47.28259" lon="-2.36197">
        <ele>19.200000762939</ele>
        <time>2022-03-10T08:53:55.000Z</time>
      </trkpt>
      <trkpt lat="47.28273" lon="-2.36226">
        <ele>19.200000762939</ele>
        <time>2022-03-10T08:54:00.000Z</time>
      </trkpt>
      <trkpt lat="47.28291" lon="-2.36238">
        <ele>19.200000762939</ele>
        <time>2022-03-10T08:54:04.000Z</time>
      </trkpt>
      <trkpt lat="47.28295" lon="-2.36239">
        <ele>19.200000762939</ele>
        <time>2022-03-10T08:54:05.000Z</time>
      </trkpt>
      <trkpt lat="47.28327" lon="-2.36246">
        <ele>19.200000762939</ele>
        <time>2022-03-10T08:54:13.000Z</time>
      </trkpt>
      <trkpt lat="47.2834" lon="-2.36254">
        <ele>19.60000038147</ele>
        <time>2022-03-10T08:54:17.000Z</time>
      </trkpt>
      <trkpt lat="47.28342" lon="-2.36255">
        <ele>20</ele>
        <time>2022-03-10T08:54:18.000Z</time>
      </trkpt>
      <trkpt lat="47.28344" lon="-2.36258">
        <ele>20.39999961853</ele>
        <time>2022-03-10T08:54:19.000Z</time>
      </trkpt>
      <trkpt lat="47.28346" lon="-2.3626">
        <ele>20.799999237061</ele>
        <time>2022-03-10T08:54:20.000Z</time>
      </trkpt>
      <trkpt lat="47.28348" lon="-2.36261">
        <ele>21.200000762939</ele>
        <time>2022-03-10T08:54:21.000Z</time>
      </trkpt>
      <trkpt lat="47.28349" lon="-2.36263">
        <ele>21.200000762939</ele>
        <time>2022-03-10T08:54:22.000Z</time>
      </trkpt>
      <trkpt lat="47.2835" lon="-2.36266">
        <ele>21.200000762939</ele>
        <time>2022-03-10T08:54:23.000Z</time>
      </trkpt>
      <trkpt lat="47.28346" lon="-2.36285">
        <ele>21.200000762939</ele>
        <time>2022-03-10T08:54:28.000Z</time>
      </trkpt>
      <trkpt lat="47.28347" lon="-2.36288">
        <ele>21.200000762939</ele>
        <time>2022-03-10T08:54:29.000Z</time>
      </trkpt>
      <trkpt lat="47.28348" lon="-2.36292">
        <ele>21.200000762939</ele>
        <time>2022-03-10T08:54:30.000Z</time>
      </trkpt>
      <trkpt lat="47.28352" lon="-2.363">
        <ele>21.60000038147</ele>
        <time>2022-03-10T08:54:33.000Z</time>
      </trkpt>
      <trkpt lat="47.28354" lon="-2.36301">
        <ele>22</ele>
        <time>2022-03-10T08:54:34.000Z</time>
      </trkpt>
      <trkpt lat="47.28355" lon="-2.36301">
        <ele>22.39999961853</ele>
        <time>2022-03-10T08:54:35.000Z</time>
      </trkpt>
      <trkpt lat="47.28357" lon="-2.36302">
        <ele>22.799999237061</ele>
        <time>2022-03-10T08:54:36.000Z</time>
      </trkpt>
      <trkpt lat="47.28357" lon="-2.36303">
        <ele>23.200000762939</ele>
        <time>2022-03-10T08:54:37.000Z</time>
      </trkpt>
      <trkpt lat="47.28363" lon="-2.36307">
        <ele>23.200000762939</ele>
        <time>2022-03-10T08:54:40.000Z</time>
      </trkpt>
      <trkpt lat="47.28377" lon="-2.3632">
        <ele>23.200000762939</ele>
        <time>2022-03-10T08:54:45.000Z</time>
      </trkpt>
      <trkpt lat="47.28386" lon="-2.3633">
        <ele>23.799999237061</ele>
        <time>2022-03-10T08:54:48.000Z</time>
      </trkpt>
      <trkpt lat="47.28389" lon="-2.36333">
        <ele>24.200000762939</ele>
        <time>2022-03-10T08:54:49.000Z</time>
      </trkpt>
      <trkpt lat="47.28392" lon="-2.36338">
        <ele>24.60000038147</ele>
        <time>2022-03-10T08:54:50.000Z</time>
      </trkpt>
      <trkpt lat="47.28394" lon="-2.36341">
        <ele>25</ele>
        <time>2022-03-10T08:54:51.000Z</time>
      </trkpt>
      <trkpt lat="47.28396" lon="-2.36345">
        <ele>25.39999961853</ele>
        <time>2022-03-10T08:54:52.000Z</time>
      </trkpt>
      <trkpt lat="47.28408" lon="-2.36358">
        <ele>25.39999961853</ele>
        <time>2022-03-10T08:54:57.000Z</time>
      </trkpt>
      <trkpt lat="47.28432" lon="-2.3637">
        <ele>25.39999961853</ele>
        <time>2022-03-10T08:55:03.000Z</time>
      </trkpt>
      <trkpt lat="47.28449" lon="-2.36386">
        <ele>25.799999237061</ele>
        <time>2022-03-10T08:55:07.000Z</time>
      </trkpt>
      <trkpt lat="47.28452" lon="-2.36391">
        <ele>26.39999961853</ele>
        <time>2022-03-10T08:55:08.000Z</time>
      </trkpt>
      <trkpt lat="47.28455" lon="-2.36396">
        <ele>26.799999237061</ele>
        <time>2022-03-10T08:55:09.000Z</time>
      </trkpt>
      <trkpt lat="47.28458" lon="-2.36399">
        <ele>27.200000762939</ele>
        <time>2022-03-10T08:55:10.000Z</time>
      </trkpt>
      <trkpt lat="47.2846" lon="-2.36402">
        <ele>27.799999237061</ele>
        <time>2022-03-10T08:55:11.000Z</time>
      </trkpt>
      <trkpt lat="47.28474" lon="-2.36424">
        <ele>27.799999237061</ele>
        <time>2022-03-10T08:55:15.000Z</time>
      </trkpt>
      <trkpt lat="47.285" lon="-2.36445">
        <ele>27.799999237061</ele>
        <time>2022-03-10T08:55:20.000Z</time>
      </trkpt>
      <trkpt lat="47.28516" lon="-2.3647">
        <ele>27.799999237061</ele>
        <time>2022-03-10T08:55:25.000Z</time>
      </trkpt>
      <trkpt lat="47.28518" lon="-2.36486">
        <ele>27.799999237061</ele>
        <time>2022-03-10T08:55:28.000Z</time>
      </trkpt>
      <trkpt lat="47.28519" lon="-2.36492">
        <ele>27.799999237061</ele>
        <time>2022-03-10T08:55:29.000Z</time>
      </trkpt>
      <trkpt lat="47.28514" lon="-2.36508">
        <ele>27.799999237061</ele>
        <time>2022-03-10T08:55:32.000Z</time>
      </trkpt>
      <trkpt lat="47.28511" lon="-2.36513">
        <ele>27.799999237061</ele>
        <time>2022-03-10T08:55:33.000Z</time>
      </trkpt>
      <trkpt lat="47.28499" lon="-2.36529">
        <ele>27.799999237061</ele>
        <time>2022-03-10T08:55:36.000Z</time>
      </trkpt>
      <trkpt lat="47.28494" lon="-2.36534">
        <ele>27.39999961853</ele>
        <time>2022-03-10T08:55:37.000Z</time>
      </trkpt>
      <trkpt lat="47.28489" lon="-2.36539">
        <ele>27</ele>
        <time>2022-03-10T08:55:38.000Z</time>
      </trkpt>
      <trkpt lat="47.28484" lon="-2.36544">
        <ele>26.60000038147</ele>
        <time>2022-03-10T08:55:39.000Z</time>
      </trkpt>
      <trkpt lat="47.2848" lon="-2.3655">
        <ele>26.200000762939</ele>
        <time>2022-03-10T08:55:40.000Z</time>
      </trkpt>
      <trkpt lat="47.28476" lon="-2.36555">
        <ele>25.799999237061</ele>
        <time>2022-03-10T08:55:41.000Z</time>
      </trkpt>
      <trkpt lat="47.28472" lon="-2.36561">
        <ele>25.799999237061</ele>
        <time>2022-03-10T08:55:42.000Z</time>
      </trkpt>
      <trkpt lat="47.2847" lon="-2.36566">
        <ele>25.799999237061</ele>
        <time>2022-03-10T08:55:43.000Z</time>
      </trkpt>
      <trkpt lat="47.28468" lon="-2.36579">
        <ele>25.799999237061</ele>
        <time>2022-03-10T08:55:45.000Z</time>
      </trkpt>
      <trkpt lat="47.28473" lon="-2.36598">
        <ele>25.39999961853</ele>
        <time>2022-03-10T08:55:48.000Z</time>
      </trkpt>
      <trkpt lat="47.28475" lon="-2.36604">
        <ele>25</ele>
        <time>2022-03-10T08:55:49.000Z</time>
      </trkpt>
      <trkpt lat="47.28477" lon="-2.3661">
        <ele>24.60000038147</ele>
        <time>2022-03-10T08:55:50.000Z</time>
      </trkpt>
      <trkpt lat="47.28477" lon="-2.36615">
        <ele>24.200000762939</ele>
        <time>2022-03-10T08:55:51.000Z</time>
      </trkpt>
      <trkpt lat="47.28479" lon="-2.36619">
        <ele>23.60000038147</ele>
        <time>2022-03-10T08:55:52.000Z</time>
      </trkpt>
      <trkpt lat="47.2848" lon="-2.36623">
        <ele>23.60000038147</ele>
        <time>2022-03-10T08:55:53.000Z</time>
      </trkpt>
      <trkpt lat="47.28488" lon="-2.36641">
        <ele>23.60000038147</ele>
        <time>2022-03-10T08:55:58.000Z</time>
      </trkpt>
      <trkpt lat="47.28501" lon="-2.36661">
        <ele>23.60000038147</ele>
        <time>2022-03-10T08:56:04.000Z</time>
      </trkpt>
      <trkpt lat="47.28509" lon="-2.36664">
        <ele>23.60000038147</ele>
        <time>2022-03-10T08:56:09.000Z</time>
      </trkpt>
      <trkpt lat="47.28512" lon="-2.36667">
        <ele>23.60000038147</ele>
        <time>2022-03-10T08:56:12.000Z</time>
      </trkpt>
      <trkpt lat="47.28513" lon="-2.36669">
        <ele>23.60000038147</ele>
        <time>2022-03-10T08:56:13.000Z</time>
      </trkpt>
      <trkpt lat="47.28519" lon="-2.36667">
        <ele>23.60000038147</ele>
        <time>2022-03-10T08:56:16.000Z</time>
      </trkpt>
      <trkpt lat="47.28533" lon="-2.36662">
        <ele>23.60000038147</ele>
        <time>2022-03-10T08:56:20.000Z</time>
      </trkpt>
      <trkpt lat="47.28562" lon="-2.36658">
        <ele>23.60000038147</ele>
        <time>2022-03-10T08:56:27.000Z</time>
      </trkpt>
      <trkpt lat="47.2858" lon="-2.36658">
        <ele>23.60000038147</ele>
        <time>2022-03-10T08:56:33.000Z</time>
      </trkpt>
      <trkpt lat="47.28582" lon="-2.36659">
        <ele>23.60000038147</ele>
        <time>2022-03-10T08:56:36.000Z</time>
      </trkpt>
      <trkpt lat="47.28584" lon="-2.3666">
        <ele>23.60000038147</ele>
        <time>2022-03-10T08:59:04.000Z</time>
      </trkpt>
      <trkpt lat="47.28594" lon="-2.36661">
        <ele>23.60000038147</ele>
        <time>2022-03-10T08:59:10.000Z</time>
      </trkpt>
      <trkpt lat="47.28608" lon="-2.3666">
        <ele>23.60000038147</ele>
        <time>2022-03-10T08:59:15.000Z</time>
      </trkpt>
      <trkpt lat="47.28619" lon="-2.36658">
        <ele>24</ele>
        <time>2022-03-10T08:59:19.000Z</time>
      </trkpt>
      <trkpt lat="47.28622" lon="-2.36657">
        <ele>24.60000038147</ele>
        <time>2022-03-10T08:59:20.000Z</time>
      </trkpt>
      <trkpt lat="47.28624" lon="-2.36656">
        <ele>25</ele>
        <time>2022-03-10T08:59:21.000Z</time>
      </trkpt>
      <trkpt lat="47.28627" lon="-2.36655">
        <ele>25.39999961853</ele>
        <time>2022-03-10T08:59:22.000Z</time>
      </trkpt>
      <trkpt lat="47.28629" lon="-2.36653">
        <ele>25.799999237061</ele>
        <time>2022-03-10T08:59:23.000Z</time>
      </trkpt>
      <trkpt lat="47.28637" lon="-2.36648">
        <ele>25.799999237061</ele>
        <time>2022-03-10T08:59:26.000Z</time>
      </trkpt>
      <trkpt lat="47.28639" lon="-2.36647">
        <ele>26.200000762939</ele>
        <time>2022-03-10T08:59:27.000Z</time>
      </trkpt>
      <trkpt lat="47.28642" lon="-2.36646">
        <ele>26.60000038147</ele>
        <time>2022-03-10T08:59:28.000Z</time>
      </trkpt>
      <trkpt lat="47.28645" lon="-2.36645">
        <ele>27</ele>
        <time>2022-03-10T08:59:29.000Z</time>
      </trkpt>
      <trkpt lat="47.28648" lon="-2.36643">
        <ele>27.39999961853</ele>
        <time>2022-03-10T08:59:30.000Z</time>
      </trkpt>
      <trkpt lat="47.28652" lon="-2.36641">
        <ele>27.799999237061</ele>
        <time>2022-03-10T08:59:31.000Z</time>
      </trkpt>
      <trkpt lat="47.28655" lon="-2.36639">
        <ele>27.799999237061</ele>
        <time>2022-03-10T08:59:32.000Z</time>
      </trkpt>
      <trkpt lat="47.2867" lon="-2.36629">
        <ele>28.39999961853</ele>
        <time>2022-03-10T08:59:36.000Z</time>
      </trkpt>
      <trkpt lat="47.28673" lon="-2.36626">
        <ele>28.799999237061</ele>
        <time>2022-03-10T08:59:37.000Z</time>
      </trkpt>
      <trkpt lat="47.28676" lon="-2.36623">
        <ele>29.200000762939</ele>
        <time>2022-03-10T08:59:38.000Z</time>
      </trkpt>
      <trkpt lat="47.28679" lon="-2.3662">
        <ele>29.60000038147</ele>
        <time>2022-03-10T08:59:39.000Z</time>
      </trkpt>
      <trkpt lat="47.28683" lon="-2.36617">
        <ele>30.200000762939</ele>
        <time>2022-03-10T08:59:40.000Z</time>
      </trkpt>
      <trkpt lat="47.28702" lon="-2.36597">
        <ele>30.60000038147</ele>
        <time>2022-03-10T08:59:46.000Z</time>
      </trkpt>
      <trkpt lat="47.28705" lon="-2.36591">
        <ele>31</ele>
        <time>2022-03-10T08:59:47.000Z</time>
      </trkpt>
      <trkpt lat="47.28708" lon="-2.36587">
        <ele>31.39999961853</ele>
        <time>2022-03-10T08:59:48.000Z</time>
      </trkpt>
      <trkpt lat="47.2871" lon="-2.36582">
        <ele>32</ele>
        <time>2022-03-10T08:59:49.000Z</time>
      </trkpt>
      <trkpt lat="47.28712" lon="-2.36577">
        <ele>32.400001525879</ele>
        <time>2022-03-10T08:59:50.000Z</time>
      </trkpt>
      <trkpt lat="47.28714" lon="-2.36572">
        <ele>32.400001525879</ele>
        <time>2022-03-10T08:59:51.000Z</time>
      </trkpt>
      <trkpt lat="47.28733" lon="-2.36533">
        <ele>32.400001525879</ele>
        <time>2022-03-10T08:59:59.000Z</time>
      </trkpt>
      <trkpt lat="47.28752" lon="-2.36495">
        <ele>32.400001525879</ele>
        <time>2022-03-10T09:00:07.000Z</time>
      </trkpt>
      <trkpt lat="47.28765" lon="-2.36458">
        <ele>32.400001525879</ele>
        <time>2022-03-10T09:00:14.000Z</time>
      </trkpt>
      <trkpt lat="47.28767" lon="-2.36453">
        <ele>33.200000762939</ele>
        <time>2022-03-10T09:00:15.000Z</time>
      </trkpt>
      <trkpt lat="47.28769" lon="-2.36448">
        <ele>33.599998474121</ele>
        <time>2022-03-10T09:00:16.000Z</time>
      </trkpt>
      <trkpt lat="47.28772" lon="-2.36442">
        <ele>34</ele>
        <time>2022-03-10T09:00:17.000Z</time>
      </trkpt>
      <trkpt lat="47.28774" lon="-2.36437">
        <ele>34.400001525879</ele>
        <time>2022-03-10T09:00:18.000Z</time>
      </trkpt>
      <trkpt lat="47.2878" lon="-2.36425">
        <ele>34.400001525879</ele>
        <time>2022-03-10T09:00:20.000Z</time>
      </trkpt>
      <trkpt lat="47.28788" lon="-2.3641">
        <ele>34.400001525879</ele>
        <time>2022-03-10T09:00:23.000Z</time>
      </trkpt>
      <trkpt lat="47.28797" lon="-2.36395">
        <ele>34.400001525879</ele>
        <time>2022-03-10T09:00:26.000Z</time>
      </trkpt>
      <trkpt lat="47.2882" lon="-2.36356">
        <ele>34.400001525879</ele>
        <time>2022-03-10T09:00:33.000Z</time>
      </trkpt>
      <trkpt lat="47.28828" lon="-2.36344">
        <ele>34.400001525879</ele>
        <time>2022-03-10T09:00:35.000Z</time>
      </trkpt>
      <trkpt lat="47.28842" lon="-2.36326">
        <ele>34.400001525879</ele>
        <time>2022-03-10T09:00:38.000Z</time>
      </trkpt>
      <trkpt lat="47.28848" lon="-2.3632">
        <ele>34.400001525879</ele>
        <time>2022-03-10T09:00:39.000Z</time>
      </trkpt>
      <trkpt lat="47.28856" lon="-2.36315">
        <ele>33.599998474121</ele>
        <time>2022-03-10T09:00:40.000Z</time>
      </trkpt>
      <trkpt lat="47.28863" lon="-2.36311">
        <ele>33</ele>
        <time>2022-03-10T09:00:41.000Z</time>
      </trkpt>
      <trkpt lat="47.2887" lon="-2.36307">
        <ele>32.599998474121</ele>
        <time>2022-03-10T09:00:42.000Z</time>
      </trkpt>
      <trkpt lat="47.28877" lon="-2.36304">
        <ele>32.200000762939</ele>
        <time>2022-03-10T09:00:43.000Z</time>
      </trkpt>
      <trkpt lat="47.28893" lon="-2.36298">
        <ele>31.799999237061</ele>
        <time>2022-03-10T09:00:45.000Z</time>
      </trkpt>
      <trkpt lat="47.28901" lon="-2.36295">
        <ele>31.39999961853</ele>
        <time>2022-03-10T09:00:46.000Z</time>
      </trkpt>
      <trkpt lat="47.28909" lon="-2.36291">
        <ele>31</ele>
        <time>2022-03-10T09:00:47.000Z</time>
      </trkpt>
      <trkpt lat="47.28917" lon="-2.36288">
        <ele>30.39999961853</ele>
        <time>2022-03-10T09:00:48.000Z</time>
      </trkpt>
      <trkpt lat="47.28924" lon="-2.36284">
        <ele>30</ele>
        <time>2022-03-10T09:00:49.000Z</time>
      </trkpt>
      <trkpt lat="47.28959" lon="-2.3627">
        <ele>30</ele>
        <time>2022-03-10T09:00:54.000Z</time>
      </trkpt>
      <trkpt lat="47.29015" lon="-2.36245">
        <ele>30</ele>
        <time>2022-03-10T09:01:03.000Z</time>
      </trkpt>
      <trkpt lat="47.29059" lon="-2.36227">
        <ele>30</ele>
        <time>2022-03-10T09:01:11.000Z</time>
      </trkpt>
      <trkpt lat="47.29104" lon="-2.36207">
        <ele>30</ele>
        <time>2022-03-10T09:01:19.000Z</time>
      </trkpt>
      <trkpt lat="47.29144" lon="-2.3619">
        <ele>30</ele>
        <time>2022-03-10T09:01:26.000Z</time>
      </trkpt>
      <trkpt lat="47.29183" lon="-2.36173">
        <ele>30</ele>
        <time>2022-03-10T09:01:33.000Z</time>
      </trkpt>
      <trkpt lat="47.29223" lon="-2.36155">
        <ele>30</ele>
        <time>2022-03-10T09:01:40.000Z</time>
      </trkpt>
      <trkpt lat="47.29263" lon="-2.36138">
        <ele>30</ele>
        <time>2022-03-10T09:01:47.000Z</time>
      </trkpt>
      <trkpt lat="47.29269" lon="-2.36135">
        <ele>30</ele>
        <time>2022-03-10T09:01:48.000Z</time>
      </trkpt>
      <trkpt lat="47.29312" lon="-2.36114">
        <ele>30</ele>
        <time>2022-03-10T09:01:55.000Z</time>
      </trkpt>
      <trkpt lat="47.29342" lon="-2.36096">
        <ele>30</ele>
        <time>2022-03-10T09:02:00.000Z</time>
      </trkpt>
      <trkpt lat="47.29353" lon="-2.36087">
        <ele>30</ele>
        <time>2022-03-10T09:02:02.000Z</time>
      </trkpt>
      <trkpt lat="47.29383" lon="-2.36062">
        <ele>30</ele>
        <time>2022-03-10T09:02:08.000Z</time>
      </trkpt>
      <trkpt lat="47.29411" lon="-2.36038">
        <ele>30</ele>
        <time>2022-03-10T09:02:14.000Z</time>
      </trkpt>
      <trkpt lat="47.29416" lon="-2.36034">
        <ele>30</ele>
        <time>2022-03-10T09:02:15.000Z</time>
      </trkpt>
      <trkpt lat="47.29448" lon="-2.36006">
        <ele>30</ele>
        <time>2022-03-10T09:02:22.000Z</time>
      </trkpt>
      <trkpt lat="47.29455" lon="-2.35999">
        <ele>30</ele>
        <time>2022-03-10T09:02:24.000Z</time>
      </trkpt>
      <trkpt lat="47.2946" lon="-2.35988">
        <ele>30</ele>
        <time>2022-03-10T09:02:26.000Z</time>
      </trkpt>
      <trkpt lat="47.29468" lon="-2.35977">
        <ele>30.39999961853</ele>
        <time>2022-03-10T09:02:29.000Z</time>
      </trkpt>
      <trkpt lat="47.29471" lon="-2.35978">
        <ele>30.799999237061</ele>
        <time>2022-03-10T09:02:30.000Z</time>
      </trkpt>
      <trkpt lat="47.29474" lon="-2.35982">
        <ele>31.200000762939</ele>
        <time>2022-03-10T09:02:31.000Z</time>
      </trkpt>
      <trkpt lat="47.29476" lon="-2.35988">
        <ele>31.60000038147</ele>
        <time>2022-03-10T09:02:32.000Z</time>
      </trkpt>
      <trkpt lat="47.29475" lon="-2.35994">
        <ele>32</ele>
        <time>2022-03-10T09:02:33.000Z</time>
      </trkpt>
      <trkpt lat="47.29479" lon="-2.36019">
        <ele>32</ele>
        <time>2022-03-10T09:02:37.000Z</time>
      </trkpt>
      <trkpt lat="47.29481" lon="-2.36025">
        <ele>32</ele>
        <time>2022-03-10T09:02:38.000Z</time>
      </trkpt>
      <trkpt lat="47.2949" lon="-2.36054">
        <ele>32</ele>
        <time>2022-03-10T09:02:42.000Z</time>
      </trkpt>
      <trkpt lat="47.29501" lon="-2.36087">
        <ele>32</ele>
        <time>2022-03-10T09:02:46.000Z</time>
      </trkpt>
      <trkpt lat="47.29504" lon="-2.36094">
        <ele>32</ele>
        <time>2022-03-10T09:02:47.000Z</time>
      </trkpt>
      <trkpt lat="47.29525" lon="-2.36141">
        <ele>32</ele>
        <time>2022-03-10T09:02:53.000Z</time>
      </trkpt>
      <trkpt lat="47.2954" lon="-2.3617">
        <ele>32</ele>
        <time>2022-03-10T09:02:57.000Z</time>
      </trkpt>
      <trkpt lat="47.29548" lon="-2.36186">
        <ele>32</ele>
        <time>2022-03-10T09:02:59.000Z</time>
      </trkpt>
      <trkpt lat="47.29572" lon="-2.36236">
        <ele>31.60000038147</ele>
        <time>2022-03-10T09:03:05.000Z</time>
      </trkpt>
      <trkpt lat="47.29576" lon="-2.36244">
        <ele>31.200000762939</ele>
        <time>2022-03-10T09:03:06.000Z</time>
      </trkpt>
      <trkpt lat="47.2958" lon="-2.36252">
        <ele>30.799999237061</ele>
        <time>2022-03-10T09:03:07.000Z</time>
      </trkpt>
      <trkpt lat="47.29584" lon="-2.3626">
        <ele>30</ele>
        <time>2022-03-10T09:03:08.000Z</time>
      </trkpt>
      <trkpt lat="47.29599" lon="-2.36293">
        <ele>30</ele>
        <time>2022-03-10T09:03:12.000Z</time>
      </trkpt>
      <trkpt lat="47.29606" lon="-2.36309">
        <ele>30</ele>
        <time>2022-03-10T09:03:14.000Z</time>
      </trkpt>
      <trkpt lat="47.2962" lon="-2.3633">
        <ele>30</ele>
        <time>2022-03-10T09:03:17.000Z</time>
      </trkpt>
      <trkpt lat="47.29624" lon="-2.36338">
        <ele>29.60000038147</ele>
        <time>2022-03-10T09:03:18.000Z</time>
      </trkpt>
      <trkpt lat="47.29628" lon="-2.36346">
        <ele>29.200000762939</ele>
        <time>2022-03-10T09:03:19.000Z</time>
      </trkpt>
      <trkpt lat="47.29631" lon="-2.36354">
        <ele>28.799999237061</ele>
        <time>2022-03-10T09:03:20.000Z</time>
      </trkpt>
      <trkpt lat="47.29635" lon="-2.36362">
        <ele>28.39999961853</ele>
        <time>2022-03-10T09:03:21.000Z</time>
      </trkpt>
      <trkpt lat="47.29639" lon="-2.3637">
        <ele>28</ele>
        <time>2022-03-10T09:03:22.000Z</time>
      </trkpt>
      <trkpt lat="47.29669" lon="-2.36438">
        <ele>28</ele>
        <time>2022-03-10T09:03:31.000Z</time>
      </trkpt>
      <trkpt lat="47.29689" lon="-2.36491">
        <ele>28</ele>
        <time>2022-03-10T09:03:38.000Z</time>
      </trkpt>
      <trkpt lat="47.29699" lon="-2.36521">
        <ele>28.39999961853</ele>
        <time>2022-03-10T09:03:42.000Z</time>
      </trkpt>
      <trkpt lat="47.29702" lon="-2.36527">
        <ele>28.799999237061</ele>
        <time>2022-03-10T09:03:43.000Z</time>
      </trkpt>
      <trkpt lat="47.29705" lon="-2.36534">
        <ele>29.200000762939</ele>
        <time>2022-03-10T09:03:44.000Z</time>
      </trkpt>
      <trkpt lat="47.29708" lon="-2.3654">
        <ele>29.60000038147</ele>
        <time>2022-03-10T09:03:45.000Z</time>
      </trkpt>
      <trkpt lat="47.29711" lon="-2.36547">
        <ele>30</ele>
        <time>2022-03-10T09:03:46.000Z</time>
      </trkpt>
      <trkpt lat="47.2972" lon="-2.36571">
        <ele>30.39999961853</ele>
        <time>2022-03-10T09:03:50.000Z</time>
      </trkpt>
      <trkpt lat="47.29723" lon="-2.36577">
        <ele>30.799999237061</ele>
        <time>2022-03-10T09:03:51.000Z</time>
      </trkpt>
      <trkpt lat="47.29725" lon="-2.36582">
        <ele>31.200000762939</ele>
        <time>2022-03-10T09:03:52.000Z</time>
      </trkpt>
      <trkpt lat="47.29726" lon="-2.36588">
        <ele>31.799999237061</ele>
        <time>2022-03-10T09:03:53.000Z</time>
      </trkpt>
      <trkpt lat="47.29728" lon="-2.36593">
        <ele>32.200000762939</ele>
        <time>2022-03-10T09:03:54.000Z</time>
      </trkpt>
      <trkpt lat="47.29737" lon="-2.36602">
        <ele>32.200000762939</ele>
        <time>2022-03-10T09:03:57.000Z</time>
      </trkpt>
      <trkpt lat="47.29746" lon="-2.36597">
        <ele>32.200000762939</ele>
        <time>2022-03-10T09:04:00.000Z</time>
      </trkpt>
      <trkpt lat="47.29754" lon="-2.3659">
        <ele>32.200000762939</ele>
        <time>2022-03-10T09:04:02.000Z</time>
      </trkpt>
      <trkpt lat="47.29769" lon="-2.36572">
        <ele>32.200000762939</ele>
        <time>2022-03-10T09:04:06.000Z</time>
      </trkpt>
      <trkpt lat="47.29796" lon="-2.36547">
        <ele>32.200000762939</ele>
        <time>2022-03-10T09:04:13.000Z</time>
      </trkpt>
      <trkpt lat="47.29804" lon="-2.36537">
        <ele>32.200000762939</ele>
        <time>2022-03-10T09:04:16.000Z</time>
      </trkpt>
      <trkpt lat="47.29804" lon="-2.36532">
        <ele>32.200000762939</ele>
        <time>2022-03-10T09:04:17.000Z</time>
      </trkpt>
      <trkpt lat="47.29801" lon="-2.36515">
        <ele>32.200000762939</ele>
        <time>2022-03-10T09:04:22.000Z</time>
      </trkpt>
      <trkpt lat="47.29801" lon="-2.36515">
        <ele>32.200000762939</ele>
        <time>2022-03-10T09:04:24.000Z</time>
      </trkpt>
      <trkpt lat="47.29801" lon="-2.36519">
        <ele>32.599998474121</ele>
        <time>2022-03-10T09:07:46.000Z</time>
      </trkpt>
      <trkpt lat="47.29802" lon="-2.3653">
        <ele>32.599998474121</ele>
        <time>2022-03-10T09:07:53.000Z</time>
      </trkpt>
      <trkpt lat="47.29803" lon="-2.36535">
        <ele>32.599998474121</ele>
        <time>2022-03-10T09:07:59.000Z</time>
      </trkpt>
      <trkpt lat="47.29801" lon="-2.36542">
        <ele>32.599998474121</ele>
        <time>2022-03-10T09:09:28.000Z</time>
      </trkpt>
      <trkpt lat="47.29798" lon="-2.36546">
        <ele>32.599998474121</ele>
        <time>2022-03-10T09:09:30.000Z</time>
      </trkpt>
      <trkpt lat="47.29783" lon="-2.36559">
        <ele>32.599998474121</ele>
        <time>2022-03-10T09:09:36.000Z</time>
      </trkpt>
      <trkpt lat="47.29758" lon="-2.36588">
        <ele>32.599998474121</ele>
        <time>2022-03-10T09:09:44.000Z</time>
      </trkpt>
      <trkpt lat="47.29737" lon="-2.36612">
        <ele>32.599998474121</ele>
        <time>2022-03-10T09:09:51.000Z</time>
      </trkpt>
      <trkpt lat="47.29736" lon="-2.36617">
        <ele>32.599998474121</ele>
        <time>2022-03-10T09:09:52.000Z</time>
      </trkpt>
      <trkpt lat="47.29739" lon="-2.36627">
        <ele>32.599998474121</ele>
        <time>2022-03-10T09:09:54.000Z</time>
      </trkpt>
      <trkpt lat="47.29744" lon="-2.36642">
        <ele>33</ele>
        <time>2022-03-10T09:09:57.000Z</time>
      </trkpt>
      <trkpt lat="47.29746" lon="-2.36647">
        <ele>33.400001525879</ele>
        <time>2022-03-10T09:09:58.000Z</time>
      </trkpt>
      <trkpt lat="47.29748" lon="-2.36653">
        <ele>33.799999237061</ele>
        <time>2022-03-10T09:09:59.000Z</time>
      </trkpt>
      <trkpt lat="47.2975" lon="-2.36659">
        <ele>34.200000762939</ele>
        <time>2022-03-10T09:10:00.000Z</time>
      </trkpt>
      <trkpt lat="47.29752" lon="-2.36665">
        <ele>34.599998474121</ele>
        <time>2022-03-10T09:10:01.000Z</time>
      </trkpt>
      <trkpt lat="47.29761" lon="-2.36698">
        <ele>34.599998474121</ele>
        <time>2022-03-10T09:10:08.000Z</time>
      </trkpt>
      <trkpt lat="47.29765" lon="-2.36708">
        <ele>34.599998474121</ele>
        <time>2022-03-10T09:10:13.000Z</time>
      </trkpt>
      <trkpt lat="47.29773" lon="-2.36731">
        <ele>34.599998474121</ele>
        <time>2022-03-10T09:10:18.000Z</time>
      </trkpt>
      <trkpt lat="47.29775" lon="-2.36737">
        <ele>35</ele>
        <time>2022-03-10T09:10:19.000Z</time>
      </trkpt>
      <trkpt lat="47.29778" lon="-2.36742">
        <ele>35.599998474121</ele>
        <time>2022-03-10T09:10:20.000Z</time>
      </trkpt>
      <trkpt lat="47.29781" lon="-2.36748">
        <ele>36</ele>
        <time>2022-03-10T09:10:21.000Z</time>
      </trkpt>
      <trkpt lat="47.29784" lon="-2.36754">
        <ele>36.400001525879</ele>
        <time>2022-03-10T09:10:22.000Z</time>
      </trkpt>
      <trkpt lat="47.29787" lon="-2.3676">
        <ele>36.799999237061</ele>
        <time>2022-03-10T09:10:23.000Z</time>
      </trkpt>
      <trkpt lat="47.2979" lon="-2.36765">
        <ele>36.799999237061</ele>
        <time>2022-03-10T09:10:24.000Z</time>
      </trkpt>
      <trkpt lat="47.298" lon="-2.36783">
        <ele>36.799999237061</ele>
        <time>2022-03-10T09:10:27.000Z</time>
      </trkpt>
      <trkpt lat="47.29809" lon="-2.36801">
        <ele>36.799999237061</ele>
        <time>2022-03-10T09:10:30.000Z</time>
      </trkpt>
      <trkpt lat="47.29817" lon="-2.3682">
        <ele>37.200000762939</ele>
        <time>2022-03-10T09:10:33.000Z</time>
      </trkpt>
      <trkpt lat="47.29819" lon="-2.36826">
        <ele>37.599998474121</ele>
        <time>2022-03-10T09:10:34.000Z</time>
      </trkpt>
      <trkpt lat="47.29822" lon="-2.36832">
        <ele>38</ele>
        <time>2022-03-10T09:10:35.000Z</time>
      </trkpt>
      <trkpt lat="47.29825" lon="-2.36838">
        <ele>38.400001525879</ele>
        <time>2022-03-10T09:10:36.000Z</time>
      </trkpt>
      <trkpt lat="47.29827" lon="-2.36845">
        <ele>38.799999237061</ele>
        <time>2022-03-10T09:10:37.000Z</time>
      </trkpt>
      <trkpt lat="47.29842" lon="-2.36881">
        <ele>38.799999237061</ele>
        <time>2022-03-10T09:10:43.000Z</time>
      </trkpt>
      <trkpt lat="47.29854" lon="-2.36911">
        <ele>38.799999237061</ele>
        <time>2022-03-10T09:10:48.000Z</time>
      </trkpt>
      <trkpt lat="47.2986" lon="-2.36921">
        <ele>39.200000762939</ele>
        <time>2022-03-10T09:10:50.000Z</time>
      </trkpt>
      <trkpt lat="47.29863" lon="-2.36927">
        <ele>39.799999237061</ele>
        <time>2022-03-10T09:10:51.000Z</time>
      </trkpt>
      <trkpt lat="47.29866" lon="-2.36933">
        <ele>40.200000762939</ele>
        <time>2022-03-10T09:10:52.000Z</time>
      </trkpt>
      <trkpt lat="47.29869" lon="-2.36938">
        <ele>40.599998474121</ele>
        <time>2022-03-10T09:10:53.000Z</time>
      </trkpt>
      <trkpt lat="47.29872" lon="-2.36943">
        <ele>41</ele>
        <time>2022-03-10T09:10:54.000Z</time>
      </trkpt>
      <trkpt lat="47.29879" lon="-2.36952">
        <ele>41</ele>
        <time>2022-03-10T09:10:56.000Z</time>
      </trkpt>
      <trkpt lat="47.29883" lon="-2.36956">
        <ele>41</ele>
        <time>2022-03-10T09:10:57.000Z</time>
      </trkpt>
      <trkpt lat="47.29896" lon="-2.3696">
        <ele>41</ele>
        <time>2022-03-10T09:11:00.000Z</time>
      </trkpt>
      <trkpt lat="47.299" lon="-2.36962">
        <ele>41</ele>
        <time>2022-03-10T09:11:01.000Z</time>
      </trkpt>
      <trkpt lat="47.29902" lon="-2.36965">
        <ele>41</ele>
        <time>2022-03-10T09:11:02.000Z</time>
      </trkpt>
      <trkpt lat="47.29898" lon="-2.36974">
        <ele>41</ele>
        <time>2022-03-10T09:11:04.000Z</time>
      </trkpt>
      <trkpt lat="47.29886" lon="-2.36974">
        <ele>41</ele>
        <time>2022-03-10T09:11:07.000Z</time>
      </trkpt>
      <trkpt lat="47.29869" lon="-2.36984">
        <ele>41</ele>
        <time>2022-03-10T09:11:11.000Z</time>
      </trkpt>
      <trkpt lat="47.29854" lon="-2.37003">
        <ele>41</ele>
        <time>2022-03-10T09:11:15.000Z</time>
      </trkpt>
      <trkpt lat="47.29826" lon="-2.37041">
        <ele>41</ele>
        <time>2022-03-10T09:11:22.000Z</time>
      </trkpt>
      <trkpt lat="47.29811" lon="-2.37074">
        <ele>41</ele>
        <time>2022-03-10T09:11:27.000Z</time>
      </trkpt>
      <trkpt lat="47.2981" lon="-2.37082">
        <ele>41</ele>
        <time>2022-03-10T09:11:28.000Z</time>
      </trkpt>
      <trkpt lat="47.29802" lon="-2.37128">
        <ele>41</ele>
        <time>2022-03-10T09:11:34.000Z</time>
      </trkpt>
      <trkpt lat="47.29797" lon="-2.37144">
        <ele>41</ele>
        <time>2022-03-10T09:11:36.000Z</time>
      </trkpt>
      <trkpt lat="47.29786" lon="-2.37163">
        <ele>41</ele>
        <time>2022-03-10T09:11:39.000Z</time>
      </trkpt>
      <trkpt lat="47.2977" lon="-2.37176">
        <ele>41</ele>
        <time>2022-03-10T09:11:42.000Z</time>
      </trkpt>
      <trkpt lat="47.2976" lon="-2.37183">
        <ele>41</ele>
        <time>2022-03-10T09:11:44.000Z</time>
      </trkpt>
      <trkpt lat="47.29754" lon="-2.37185">
        <ele>41</ele>
        <time>2022-03-10T09:11:45.000Z</time>
      </trkpt>
      <trkpt lat="47.29731" lon="-2.37188">
        <ele>41</ele>
        <time>2022-03-10T09:11:49.000Z</time>
      </trkpt>
      <trkpt lat="47.29718" lon="-2.37189">
        <ele>41</ele>
        <time>2022-03-10T09:11:51.000Z</time>
      </trkpt>
      <trkpt lat="47.29704" lon="-2.37195">
        <ele>41</ele>
        <time>2022-03-10T09:11:53.000Z</time>
      </trkpt>
      <trkpt lat="47.29658" lon="-2.37213">
        <ele>41</ele>
        <time>2022-03-10T09:12:00.000Z</time>
      </trkpt>
      <trkpt lat="47.29604" lon="-2.37239">
        <ele>41</ele>
        <time>2022-03-10T09:12:08.000Z</time>
      </trkpt>
      <trkpt lat="47.2959" lon="-2.37247">
        <ele>40.200000762939</ele>
        <time>2022-03-10T09:12:10.000Z</time>
      </trkpt>
      <trkpt lat="47.29583" lon="-2.37251">
        <ele>39.599998474121</ele>
        <time>2022-03-10T09:12:11.000Z</time>
      </trkpt>
      <trkpt lat="47.29576" lon="-2.37254">
        <ele>39.200000762939</ele>
        <time>2022-03-10T09:12:12.000Z</time>
      </trkpt>
      <trkpt lat="47.2957" lon="-2.37257">
        <ele>38.799999237061</ele>
        <time>2022-03-10T09:12:13.000Z</time>
      </trkpt>
      <trkpt lat="47.29556" lon="-2.37265">
        <ele>38.799999237061</ele>
        <time>2022-03-10T09:12:15.000Z</time>
      </trkpt>
      <trkpt lat="47.2953" lon="-2.37281">
        <ele>38.400001525879</ele>
        <time>2022-03-10T09:12:19.000Z</time>
      </trkpt>
      <trkpt lat="47.29522" lon="-2.37284">
        <ele>37.799999237061</ele>
        <time>2022-03-10T09:12:20.000Z</time>
      </trkpt>
      <trkpt lat="47.29514" lon="-2.37286">
        <ele>37.400001525879</ele>
        <time>2022-03-10T09:12:21.000Z</time>
      </trkpt>
      <trkpt lat="47.29506" lon="-2.37287">
        <ele>37</ele>
        <time>2022-03-10T09:12:22.000Z</time>
      </trkpt>
      <trkpt lat="47.29498" lon="-2.37287">
        <ele>36.400001525879</ele>
        <time>2022-03-10T09:12:23.000Z</time>
      </trkpt>
      <trkpt lat="47.29491" lon="-2.37287">
        <ele>36</ele>
        <time>2022-03-10T09:12:24.000Z</time>
      </trkpt>
      <trkpt lat="47.29486" lon="-2.37288">
        <ele>35.400001525879</ele>
        <time>2022-03-10T09:12:25.000Z</time>
      </trkpt>
      <trkpt lat="47.29482" lon="-2.37289">
        <ele>35</ele>
        <time>2022-03-10T09:12:26.000Z</time>
      </trkpt>
      <trkpt lat="47.29479" lon="-2.37293">
        <ele>34.400001525879</ele>
        <time>2022-03-10T09:12:27.000Z</time>
      </trkpt>
      <trkpt lat="47.29479" lon="-2.37299">
        <ele>34</ele>
        <time>2022-03-10T09:12:28.000Z</time>
      </trkpt>
      <trkpt lat="47.29486" lon="-2.37311">
        <ele>34</ele>
        <time>2022-03-10T09:12:31.000Z</time>
      </trkpt>
      <trkpt lat="47.29503" lon="-2.37326">
        <ele>34</ele>
        <time>2022-03-10T09:12:36.000Z</time>
      </trkpt>
      <trkpt lat="47.29507" lon="-2.3733">
        <ele>34</ele>
        <time>2022-03-10T09:12:37.000Z</time>
      </trkpt>
      <trkpt lat="47.2953" lon="-2.37358">
        <ele>34</ele>
        <time>2022-03-10T09:12:43.000Z</time>
      </trkpt>
      <trkpt lat="47.29556" lon="-2.37393">
        <ele>34</ele>
        <time>2022-03-10T09:12:50.000Z</time>
      </trkpt>
      <trkpt lat="47.2958" lon="-2.37433">
        <ele>34</ele>
        <time>2022-03-10T09:12:57.000Z</time>
      </trkpt>
      <trkpt lat="47.29612" lon="-2.37485">
        <ele>34</ele>
        <time>2022-03-10T09:13:05.000Z</time>
      </trkpt>
      <trkpt lat="47.29637" lon="-2.37506">
        <ele>34</ele>
        <time>2022-03-10T09:13:09.000Z</time>
      </trkpt>
      <trkpt lat="47.29674" lon="-2.3753">
        <ele>33.599998474121</ele>
        <time>2022-03-10T09:13:14.000Z</time>
      </trkpt>
      <trkpt lat="47.29681" lon="-2.37536">
        <ele>33.200000762939</ele>
        <time>2022-03-10T09:13:15.000Z</time>
      </trkpt>
      <trkpt lat="47.29687" lon="-2.37542">
        <ele>32.799999237061</ele>
        <time>2022-03-10T09:13:16.000Z</time>
      </trkpt>
      <trkpt lat="47.29693" lon="-2.37547">
        <ele>32.400001525879</ele>
        <time>2022-03-10T09:13:17.000Z</time>
      </trkpt>
      <trkpt lat="47.29699" lon="-2.37552">
        <ele>32</ele>
        <time>2022-03-10T09:13:18.000Z</time>
      </trkpt>
      <trkpt lat="47.29709" lon="-2.37563">
        <ele>32</ele>
        <time>2022-03-10T09:13:20.000Z</time>
      </trkpt>
      <trkpt lat="47.29731" lon="-2.3759">
        <ele>32.400001525879</ele>
        <time>2022-03-10T09:13:25.000Z</time>
      </trkpt>
      <trkpt lat="47.29734" lon="-2.37595">
        <ele>32.799999237061</ele>
        <time>2022-03-10T09:13:26.000Z</time>
      </trkpt>
      <trkpt lat="47.29738" lon="-2.376">
        <ele>33.200000762939</ele>
        <time>2022-03-10T09:13:27.000Z</time>
      </trkpt>
      <trkpt lat="47.29742" lon="-2.37605">
        <ele>33.599998474121</ele>
        <time>2022-03-10T09:13:28.000Z</time>
      </trkpt>
      <trkpt lat="47.29746" lon="-2.37611">
        <ele>34</ele>
        <time>2022-03-10T09:13:29.000Z</time>
      </trkpt>
      <trkpt lat="47.29767" lon="-2.37642">
        <ele>34</ele>
        <time>2022-03-10T09:13:35.000Z</time>
      </trkpt>
      <trkpt lat="47.29779" lon="-2.37657">
        <ele>34.400001525879</ele>
        <time>2022-03-10T09:13:38.000Z</time>
      </trkpt>
      <trkpt lat="47.29783" lon="-2.37663">
        <ele>34.799999237061</ele>
        <time>2022-03-10T09:13:39.000Z</time>
      </trkpt>
      <trkpt lat="47.29786" lon="-2.37668">
        <ele>35.200000762939</ele>
        <time>2022-03-10T09:13:40.000Z</time>
      </trkpt>
      <trkpt lat="47.2979" lon="-2.37673">
        <ele>35.599998474121</ele>
        <time>2022-03-10T09:13:41.000Z</time>
      </trkpt>
      <trkpt lat="47.29794" lon="-2.37679">
        <ele>36</ele>
        <time>2022-03-10T09:13:42.000Z</time>
      </trkpt>
      <trkpt lat="47.29819" lon="-2.37722">
        <ele>36</ele>
        <time>2022-03-10T09:13:49.000Z</time>
      </trkpt>
      <trkpt lat="47.2985" lon="-2.37773">
        <ele>36</ele>
        <time>2022-03-10T09:13:57.000Z</time>
      </trkpt>
      <trkpt lat="47.29869" lon="-2.37803">
        <ele>35.599998474121</ele>
        <time>2022-03-10T09:14:02.000Z</time>
      </trkpt>
      <trkpt lat="47.2987" lon="-2.3781">
        <ele>35.200000762939</ele>
        <time>2022-03-10T09:14:03.000Z</time>
      </trkpt>
      <trkpt lat="47.29868" lon="-2.37816">
        <ele>34.799999237061</ele>
        <time>2022-03-10T09:14:04.000Z</time>
      </trkpt>
      <trkpt lat="47.29865" lon="-2.37822">
        <ele>34.400001525879</ele>
        <time>2022-03-10T09:14:05.000Z</time>
      </trkpt>
      <trkpt lat="47.29862" lon="-2.37828">
        <ele>33.799999237061</ele>
        <time>2022-03-10T09:14:06.000Z</time>
      </trkpt>
      <trkpt lat="47.29857" lon="-2.37839">
        <ele>33.799999237061</ele>
        <time>2022-03-10T09:14:08.000Z</time>
      </trkpt>
      <trkpt lat="47.2985" lon="-2.37857">
        <ele>33.799999237061</ele>
        <time>2022-03-10T09:14:11.000Z</time>
      </trkpt>
      <trkpt lat="47.29843" lon="-2.37867">
        <ele>33.799999237061</ele>
        <time>2022-03-10T09:14:13.000Z</time>
      </trkpt>
      <trkpt lat="47.29831" lon="-2.37878">
        <ele>33.799999237061</ele>
        <time>2022-03-10T09:14:16.000Z</time>
      </trkpt>
      <trkpt lat="47.29827" lon="-2.37881">
        <ele>33.799999237061</ele>
        <time>2022-03-10T09:14:17.000Z</time>
      </trkpt>
      <trkpt lat="47.29815" lon="-2.3789">
        <ele>33.799999237061</ele>
        <time>2022-03-10T09:14:20.000Z</time>
      </trkpt>
      <trkpt lat="47.29796" lon="-2.379">
        <ele>33.799999237061</ele>
        <time>2022-03-10T09:14:24.000Z</time>
      </trkpt>
      <trkpt lat="47.29779" lon="-2.37913">
        <ele>33.799999237061</ele>
        <time>2022-03-10T09:14:28.000Z</time>
      </trkpt>
      <trkpt lat="47.29769" lon="-2.3792">
        <ele>33.799999237061</ele>
        <time>2022-03-10T09:14:30.000Z</time>
      </trkpt>
      <trkpt lat="47.29759" lon="-2.3793">
        <ele>33.799999237061</ele>
        <time>2022-03-10T09:14:32.000Z</time>
      </trkpt>
      <trkpt lat="47.2975" lon="-2.37941">
        <ele>33.799999237061</ele>
        <time>2022-03-10T09:14:34.000Z</time>
      </trkpt>
      <trkpt lat="47.29745" lon="-2.37948">
        <ele>33.799999237061</ele>
        <time>2022-03-10T09:14:35.000Z</time>
      </trkpt>
      <trkpt lat="47.29742" lon="-2.37955">
        <ele>33.799999237061</ele>
        <time>2022-03-10T09:14:36.000Z</time>
      </trkpt>
      <trkpt lat="47.29734" lon="-2.3797">
        <ele>33</ele>
        <time>2022-03-10T09:14:38.000Z</time>
      </trkpt>
      <trkpt lat="47.29732" lon="-2.37978">
        <ele>32.599998474121</ele>
        <time>2022-03-10T09:14:39.000Z</time>
      </trkpt>
      <trkpt lat="47.29729" lon="-2.37985">
        <ele>32.200000762939</ele>
        <time>2022-03-10T09:14:40.000Z</time>
      </trkpt>
      <trkpt lat="47.29727" lon="-2.37993">
        <ele>31.60000038147</ele>
        <time>2022-03-10T09:14:41.000Z</time>
      </trkpt>
      <trkpt lat="47.29727" lon="-2.38001">
        <ele>30.799999237061</ele>
        <time>2022-03-10T09:14:42.000Z</time>
      </trkpt>
      <trkpt lat="47.29728" lon="-2.3801">
        <ele>30.200000762939</ele>
        <time>2022-03-10T09:14:43.000Z</time>
      </trkpt>
      <trkpt lat="47.29729" lon="-2.38018">
        <ele>29.39999961853</ele>
        <time>2022-03-10T09:14:44.000Z</time>
      </trkpt>
      <trkpt lat="47.29731" lon="-2.38025">
        <ele>28.39999961853</ele>
        <time>2022-03-10T09:14:45.000Z</time>
      </trkpt>
      <trkpt lat="47.29731" lon="-2.38032">
        <ele>27.39999961853</ele>
        <time>2022-03-10T09:14:46.000Z</time>
      </trkpt>
      <trkpt lat="47.29732" lon="-2.38039">
        <ele>26.39999961853</ele>
        <time>2022-03-10T09:14:47.000Z</time>
      </trkpt>
      <trkpt lat="47.29734" lon="-2.38046">
        <ele>25.39999961853</ele>
        <time>2022-03-10T09:14:48.000Z</time>
      </trkpt>
      <trkpt lat="47.29734" lon="-2.38054">
        <ele>24.60000038147</ele>
        <time>2022-03-10T09:14:49.000Z</time>
      </trkpt>
      <trkpt lat="47.29734" lon="-2.38063">
        <ele>23.799999237061</ele>
        <time>2022-03-10T09:14:50.000Z</time>
      </trkpt>
      <trkpt lat="47.29733" lon="-2.3807">
        <ele>23</ele>
        <time>2022-03-10T09:14:51.000Z</time>
      </trkpt>
      <trkpt lat="47.29732" lon="-2.38079">
        <ele>22.200000762939</ele>
        <time>2022-03-10T09:14:52.000Z</time>
      </trkpt>
      <trkpt lat="47.29731" lon="-2.38086">
        <ele>21.60000038147</ele>
        <time>2022-03-10T09:14:53.000Z</time>
      </trkpt>
      <trkpt lat="47.2973" lon="-2.3809">
        <ele>21</ele>
        <time>2022-03-10T09:14:54.000Z</time>
      </trkpt>
      <trkpt lat="47.2973" lon="-2.3809">
        <ele>20.39999961853</ele>
        <time>2022-03-10T09:14:55.000Z</time>
      </trkpt>
      <trkpt lat="47.29729" lon="-2.38089">
        <ele>19.799999237061</ele>
        <time>2022-03-10T09:14:56.000Z</time>
      </trkpt>
      <trkpt lat="47.29727" lon="-2.38088">
        <ele>19.200000762939</ele>
        <time>2022-03-10T09:14:57.000Z</time>
      </trkpt>
      <trkpt lat="47.29725" lon="-2.38086">
        <ele>18.60000038147</ele>
        <time>2022-03-10T09:14:58.000Z</time>
      </trkpt>
      <trkpt lat="47.29722" lon="-2.38085">
        <ele>17.799999237061</ele>
        <time>2022-03-10T09:14:59.000Z</time>
      </trkpt>
      <trkpt lat="47.2972" lon="-2.38086">
        <ele>17.200000762939</ele>
        <time>2022-03-10T09:15:00.000Z</time>
      </trkpt>
      <trkpt lat="47.29714" lon="-2.38093">
        <ele>17.200000762939</ele>
        <time>2022-03-10T09:15:02.000Z</time>
      </trkpt>
      <trkpt lat="47.29711" lon="-2.38099">
        <ele>17.200000762939</ele>
        <time>2022-03-10T09:15:03.000Z</time>
      </trkpt>
      <trkpt lat="47.29705" lon="-2.38112">
        <ele>17.200000762939</ele>
        <time>2022-03-10T09:15:05.000Z</time>
      </trkpt>
      <trkpt lat="47.29702" lon="-2.3812">
        <ele>17.200000762939</ele>
        <time>2022-03-10T09:15:06.000Z</time>
      </trkpt>
      <trkpt lat="47.29698" lon="-2.38128">
        <ele>16.799999237061</ele>
        <time>2022-03-10T09:15:07.000Z</time>
      </trkpt>
      <trkpt lat="47.29695" lon="-2.38136">
        <ele>16.39999961853</ele>
        <time>2022-03-10T09:15:08.000Z</time>
      </trkpt>
      <trkpt lat="47.29691" lon="-2.38143">
        <ele>16</ele>
        <time>2022-03-10T09:15:09.000Z</time>
      </trkpt>
      <trkpt lat="47.29687" lon="-2.3815">
        <ele>15.60000038147</ele>
        <time>2022-03-10T09:15:10.000Z</time>
      </trkpt>
      <trkpt lat="47.29683" lon="-2.38157">
        <ele>15.199999809265</ele>
        <time>2022-03-10T09:15:11.000Z</time>
      </trkpt>
      <trkpt lat="47.29675" lon="-2.38168">
        <ele>15.199999809265</ele>
        <time>2022-03-10T09:15:13.000Z</time>
      </trkpt>
      <trkpt lat="47.29672" lon="-2.38172">
        <ele>14.800000190735</ele>
        <time>2022-03-10T09:15:14.000Z</time>
      </trkpt>
      <trkpt lat="47.29667" lon="-2.38176">
        <ele>14.39999961853</ele>
        <time>2022-03-10T09:15:15.000Z</time>
      </trkpt>
      <trkpt lat="47.29663" lon="-2.38179">
        <ele>14</ele>
        <time>2022-03-10T09:15:16.000Z</time>
      </trkpt>
      <trkpt lat="47.29659" lon="-2.38182">
        <ele>13.60000038147</ele>
        <time>2022-03-10T09:15:17.000Z</time>
      </trkpt>
      <trkpt lat="47.29654" lon="-2.38185">
        <ele>13.199999809265</ele>
        <time>2022-03-10T09:15:18.000Z</time>
      </trkpt>
      <trkpt lat="47.29625" lon="-2.38203">
        <ele>12.800000190735</ele>
        <time>2022-03-10T09:15:24.000Z</time>
      </trkpt>
      <trkpt lat="47.2962" lon="-2.38206">
        <ele>12.39999961853</ele>
        <time>2022-03-10T09:15:25.000Z</time>
      </trkpt>
      <trkpt lat="47.29615" lon="-2.38209">
        <ele>11.800000190735</ele>
        <time>2022-03-10T09:15:26.000Z</time>
      </trkpt>
      <trkpt lat="47.2961" lon="-2.38213">
        <ele>11</ele>
        <time>2022-03-10T09:15:27.000Z</time>
      </trkpt>
      <trkpt lat="47.29596" lon="-2.38222">
        <ele>11</ele>
        <time>2022-03-10T09:15:30.000Z</time>
      </trkpt>
      <trkpt lat="47.29569" lon="-2.38243">
        <ele>10.60000038147</ele>
        <time>2022-03-10T09:15:36.000Z</time>
      </trkpt>
      <trkpt lat="47.29565" lon="-2.38246">
        <ele>10.199999809265</ele>
        <time>2022-03-10T09:15:37.000Z</time>
      </trkpt>
      <trkpt lat="47.29561" lon="-2.38251">
        <ele>9.8000001907349</ele>
        <time>2022-03-10T09:15:38.000Z</time>
      </trkpt>
      <trkpt lat="47.29558" lon="-2.38257">
        <ele>9.3999996185303</ele>
        <time>2022-03-10T09:15:39.000Z</time>
      </trkpt>
      <trkpt lat="47.29555" lon="-2.38263">
        <ele>9</ele>
        <time>2022-03-10T09:15:40.000Z</time>
      </trkpt>
      <trkpt lat="47.29553" lon="-2.38275">
        <ele>9</ele>
        <time>2022-03-10T09:15:42.000Z</time>
      </trkpt>
      <trkpt lat="47.29551" lon="-2.38291">
        <ele>9</ele>
        <time>2022-03-10T09:15:45.000Z</time>
      </trkpt>
      <trkpt lat="47.29551" lon="-2.38298">
        <ele>9</ele>
        <time>2022-03-10T09:15:47.000Z</time>
      </trkpt>
      <trkpt lat="47.2955" lon="-2.38305">
        <ele>8.6000003814697</ele>
        <time>2022-03-10T09:15:50.000Z</time>
      </trkpt>
      <trkpt lat="47.2955" lon="-2.38307">
        <ele>8.1999998092651</ele>
        <time>2022-03-10T09:15:51.000Z</time>
      </trkpt>
      <trkpt lat="47.29551" lon="-2.38308">
        <ele>7.4000000953674</ele>
        <time>2022-03-10T09:15:52.000Z</time>
      </trkpt>
      <trkpt lat="47.29552" lon="-2.38308">
        <ele>7</ele>
        <time>2022-03-10T09:15:53.000Z</time>
      </trkpt>
      <trkpt lat="47.29552" lon="-2.3831">
        <ele>7</ele>
        <time>2022-03-10T09:15:54.000Z</time>
      </trkpt>
      <trkpt lat="47.29551" lon="-2.38309">
        <ele>7</ele>
        <time>2022-03-10T09:15:55.000Z</time>
      </trkpt>
      <trkpt lat="47.29552" lon="-2.3831">
        <ele>7</ele>
        <time>2022-03-10T09:15:57.000Z</time>
      </trkpt>
      <trkpt lat="47.29552" lon="-2.38313">
        <ele>7</ele>
        <time>2022-03-10T09:15:58.000Z</time>
      </trkpt>
      <trkpt lat="47.29551" lon="-2.3832">
        <ele>7</ele>
        <time>2022-03-10T09:16:01.000Z</time>
      </trkpt>
      <trkpt lat="47.29549" lon="-2.38338">
        <ele>7</ele>
        <time>2022-03-10T09:16:07.000Z</time>
      </trkpt>
      <trkpt lat="47.29544" lon="-2.38351">
        <ele>7</ele>
        <time>2022-03-10T09:16:12.000Z</time>
      </trkpt>
      <trkpt lat="47.29533" lon="-2.38364">
        <ele>7</ele>
        <time>2022-03-10T09:16:16.000Z</time>
      </trkpt>
      <trkpt lat="47.29514" lon="-2.3839">
        <ele>7</ele>
        <time>2022-03-10T09:16:22.000Z</time>
      </trkpt>
      <trkpt lat="47.2951" lon="-2.38395">
        <ele>6.4000000953674</ele>
        <time>2022-03-10T09:16:23.000Z</time>
      </trkpt>
      <trkpt lat="47.29507" lon="-2.38401">
        <ele>6</ele>
        <time>2022-03-10T09:16:24.000Z</time>
      </trkpt>
      <trkpt lat="47.29503" lon="-2.38408">
        <ele>5.5999999046326</ele>
        <time>2022-03-10T09:16:25.000Z</time>
      </trkpt>
      <trkpt lat="47.295" lon="-2.38415">
        <ele>5</ele>
        <time>2022-03-10T09:16:26.000Z</time>
      </trkpt>
      <trkpt lat="47.29497" lon="-2.38422">
        <ele>4.5999999046326</ele>
        <time>2022-03-10T09:16:27.000Z</time>
      </trkpt>
      <trkpt lat="47.2948" lon="-2.38455">
        <ele>4.5999999046326</ele>
        <time>2022-03-10T09:16:32.000Z</time>
      </trkpt>
      <trkpt lat="47.29477" lon="-2.38461">
        <ele>4.5999999046326</ele>
        <time>2022-03-10T09:16:33.000Z</time>
      </trkpt>
      <trkpt lat="47.29471" lon="-2.38471">
        <ele>4.1999998092651</ele>
        <time>2022-03-10T09:16:35.000Z</time>
      </trkpt>
      <trkpt lat="47.29468" lon="-2.38476">
        <ele>3.7999999523163</ele>
        <time>2022-03-10T09:16:36.000Z</time>
      </trkpt>
      <trkpt lat="47.29465" lon="-2.38483">
        <ele>3.4000000953674</ele>
        <time>2022-03-10T09:16:37.000Z</time>
      </trkpt>
      <trkpt lat="47.29463" lon="-2.38489">
        <ele>2.7999999523163</ele>
        <time>2022-03-10T09:16:38.000Z</time>
      </trkpt>
      <trkpt lat="47.29462" lon="-2.38496">
        <ele>2.4000000953674</ele>
        <time>2022-03-10T09:16:39.000Z</time>
      </trkpt>
      <trkpt lat="47.29461" lon="-2.38525">
        <ele>2.4000000953674</ele>
        <time>2022-03-10T09:16:43.000Z</time>
      </trkpt>
      <trkpt lat="47.29461" lon="-2.38532">
        <ele>2.4000000953674</ele>
        <time>2022-03-10T09:16:44.000Z</time>
      </trkpt>
      <trkpt lat="47.29462" lon="-2.38563">
        <ele>2.4000000953674</ele>
        <time>2022-03-10T09:16:48.000Z</time>
      </trkpt>
      <trkpt lat="47.29464" lon="-2.38632">
        <ele>2.4000000953674</ele>
        <time>2022-03-10T09:16:57.000Z</time>
      </trkpt>
      <trkpt lat="47.29463" lon="-2.38638">
        <ele>2.4000000953674</ele>
        <time>2022-03-10T09:16:58.000Z</time>
      </trkpt>
      <trkpt lat="47.29462" lon="-2.38672">
        <ele>2.4000000953674</ele>
        <time>2022-03-10T09:17:03.000Z</time>
      </trkpt>
      <trkpt lat="47.29468" lon="-2.38699">
        <ele>2.4000000953674</ele>
        <time>2022-03-10T09:17:07.000Z</time>
      </trkpt>
      <trkpt lat="47.29472" lon="-2.3872">
        <ele>2.4000000953674</ele>
        <time>2022-03-10T09:17:10.000Z</time>
      </trkpt>
      <trkpt lat="47.29473" lon="-2.38734">
        <ele>2.4000000953674</ele>
        <time>2022-03-10T09:17:12.000Z</time>
      </trkpt>
      <trkpt lat="47.29473" lon="-2.38748">
        <ele>2.4000000953674</ele>
        <time>2022-03-10T09:17:14.000Z</time>
      </trkpt>
      <trkpt lat="47.29472" lon="-2.3877">
        <ele>3</ele>
        <time>2022-03-10T09:17:17.000Z</time>
      </trkpt>
      <trkpt lat="47.29472" lon="-2.38776">
        <ele>3.4000000953674</ele>
        <time>2022-03-10T09:17:18.000Z</time>
      </trkpt>
      <trkpt lat="47.29472" lon="-2.38783">
        <ele>3.7999999523163</ele>
        <time>2022-03-10T09:17:19.000Z</time>
      </trkpt>
      <trkpt lat="47.29472" lon="-2.3879">
        <ele>4.1999998092651</ele>
        <time>2022-03-10T09:17:20.000Z</time>
      </trkpt>
      <trkpt lat="47.29472" lon="-2.38797">
        <ele>4.5999999046326</ele>
        <time>2022-03-10T09:17:21.000Z</time>
      </trkpt>
      <trkpt lat="47.29476" lon="-2.38832">
        <ele>4.5999999046326</ele>
        <time>2022-03-10T09:17:26.000Z</time>
      </trkpt>
      <trkpt lat="47.29479" lon="-2.3885">
        <ele>4.5999999046326</ele>
        <time>2022-03-10T09:17:29.000Z</time>
      </trkpt>
      <trkpt lat="47.29483" lon="-2.38863">
        <ele>4.5999999046326</ele>
        <time>2022-03-10T09:17:31.000Z</time>
      </trkpt>
      <trkpt lat="47.29497" lon="-2.38909">
        <ele>4.5999999046326</ele>
        <time>2022-03-10T09:17:38.000Z</time>
      </trkpt>
      <trkpt lat="47.29513" lon="-2.38944">
        <ele>4.5999999046326</ele>
        <time>2022-03-10T09:17:44.000Z</time>
      </trkpt>
      <trkpt lat="47.29539" lon="-2.38969">
        <ele>4.5999999046326</ele>
        <time>2022-03-10T09:17:50.000Z</time>
      </trkpt>
      <trkpt lat="47.29572" lon="-2.38989">
        <ele>4.5999999046326</ele>
        <time>2022-03-10T09:17:57.000Z</time>
      </trkpt>
      <trkpt lat="47.29604" lon="-2.39004">
        <ele>4.5999999046326</ele>
        <time>2022-03-10T09:18:04.000Z</time>
      </trkpt>
      <trkpt lat="47.29621" lon="-2.39016">
        <ele>4.5999999046326</ele>
        <time>2022-03-10T09:18:08.000Z</time>
      </trkpt>
      <trkpt lat="47.29625" lon="-2.39029">
        <ele>4.5999999046326</ele>
        <time>2022-03-10T09:18:10.000Z</time>
      </trkpt>
      <trkpt lat="47.29628" lon="-2.3906">
        <ele>4.5999999046326</ele>
        <time>2022-03-10T09:18:14.000Z</time>
      </trkpt>
      <trkpt lat="47.29628" lon="-2.39069">
        <ele>4.5999999046326</ele>
        <time>2022-03-10T09:18:15.000Z</time>
      </trkpt>
      <trkpt lat="47.29629" lon="-2.39122">
        <ele>4.5999999046326</ele>
        <time>2022-03-10T09:18:21.000Z</time>
      </trkpt>
      <trkpt lat="47.2963" lon="-2.3913">
        <ele>4.5999999046326</ele>
        <time>2022-03-10T09:18:22.000Z</time>
      </trkpt>
      <trkpt lat="47.2964" lon="-2.39164">
        <ele>4.5999999046326</ele>
        <time>2022-03-10T09:18:26.000Z</time>
      </trkpt>
      <trkpt lat="47.29653" lon="-2.3918">
        <ele>4.5999999046326</ele>
        <time>2022-03-10T09:18:29.000Z</time>
      </trkpt>
      <trkpt lat="47.29662" lon="-2.39186">
        <ele>4.5999999046326</ele>
        <time>2022-03-10T09:18:31.000Z</time>
      </trkpt>
      <trkpt lat="47.29665" lon="-2.3919">
        <ele>4.5999999046326</ele>
        <time>2022-03-10T09:18:32.000Z</time>
      </trkpt>
      <trkpt lat="47.29665" lon="-2.39197">
        <ele>4.5999999046326</ele>
        <time>2022-03-10T09:18:33.000Z</time>
      </trkpt>
      <trkpt lat="47.29664" lon="-2.39203">
        <ele>4.1999998092651</ele>
        <time>2022-03-10T09:18:34.000Z</time>
      </trkpt>
      <trkpt lat="47.29661" lon="-2.39208">
        <ele>3.7999999523163</ele>
        <time>2022-03-10T09:18:35.000Z</time>
      </trkpt>
      <trkpt lat="47.29659" lon="-2.39214">
        <ele>3.4000000953674</ele>
        <time>2022-03-10T09:18:36.000Z</time>
      </trkpt>
      <trkpt lat="47.29657" lon="-2.39221">
        <ele>3</ele>
        <time>2022-03-10T09:18:37.000Z</time>
      </trkpt>
      <trkpt lat="47.29655" lon="-2.39228">
        <ele>2.5999999046326</ele>
        <time>2022-03-10T09:18:38.000Z</time>
      </trkpt>
      <trkpt lat="47.29654" lon="-2.39236">
        <ele>2.5999999046326</ele>
        <time>2022-03-10T09:18:39.000Z</time>
      </trkpt>
      <trkpt lat="47.29651" lon="-2.39253">
        <ele>2.5999999046326</ele>
        <time>2022-03-10T09:18:41.000Z</time>
      </trkpt>
      <trkpt lat="47.29645" lon="-2.39315">
        <ele>2.5999999046326</ele>
        <time>2022-03-10T09:18:48.000Z</time>
      </trkpt>
      <trkpt lat="47.2964" lon="-2.39382">
        <ele>2.5999999046326</ele>
        <time>2022-03-10T09:18:56.000Z</time>
      </trkpt>
      <trkpt lat="47.29638" lon="-2.39389">
        <ele>2.5999999046326</ele>
        <time>2022-03-10T09:18:57.000Z</time>
      </trkpt>
      <trkpt lat="47.29632" lon="-2.39412">
        <ele>2.5999999046326</ele>
        <time>2022-03-10T09:19:00.000Z</time>
      </trkpt>
      <trkpt lat="47.29627" lon="-2.39438">
        <ele>2.5999999046326</ele>
        <time>2022-03-10T09:19:03.000Z</time>
      </trkpt>
      <trkpt lat="47.29619" lon="-2.39452">
        <ele>2.5999999046326</ele>
        <time>2022-03-10T09:19:05.000Z</time>
      </trkpt>
      <trkpt lat="47.29589" lon="-2.39498">
        <ele>2.5999999046326</ele>
        <time>2022-03-10T09:19:13.000Z</time>
      </trkpt>
      <trkpt lat="47.29576" lon="-2.39498">
        <ele>2.5999999046326</ele>
        <time>2022-03-10T09:19:16.000Z</time>
      </trkpt>
      <trkpt lat="47.29565" lon="-2.39493">
        <ele>2.5999999046326</ele>
        <time>2022-03-10T09:19:19.000Z</time>
      </trkpt>
      <trkpt lat="47.29558" lon="-2.39492">
        <ele>2.5999999046326</ele>
        <time>2022-03-10T09:19:21.000Z</time>
      </trkpt>
      <trkpt lat="47.29555" lon="-2.39496">
        <ele>2.5999999046326</ele>
        <time>2022-03-10T09:19:22.000Z</time>
      </trkpt>
      <trkpt lat="47.29553" lon="-2.39506">
        <ele>2.5999999046326</ele>
        <time>2022-03-10T09:19:24.000Z</time>
      </trkpt>
      <trkpt lat="47.29553" lon="-2.39512">
        <ele>2.5999999046326</ele>
        <time>2022-03-10T09:19:27.000Z</time>
      </trkpt>
      <trkpt lat="47.29554" lon="-2.39519">
        <ele>2.5999999046326</ele>
        <time>2022-03-10T09:19:29.000Z</time>
      </trkpt>
      <trkpt lat="47.29555" lon="-2.39531">
        <ele>2.5999999046326</ele>
        <time>2022-03-10T09:19:33.000Z</time>
      </trkpt>
      <trkpt lat="47.29554" lon="-2.39536">
        <ele>3.4000000953674</ele>
        <time>2022-03-10T09:19:34.000Z</time>
      </trkpt>
      <trkpt lat="47.29554" lon="-2.39541">
        <ele>3.7999999523163</ele>
        <time>2022-03-10T09:19:35.000Z</time>
      </trkpt>
      <trkpt lat="47.29556" lon="-2.39543">
        <ele>4.1999998092651</ele>
        <time>2022-03-10T09:19:36.000Z</time>
      </trkpt>
      <trkpt lat="47.29559" lon="-2.39544">
        <ele>4.5999999046326</ele>
        <time>2022-03-10T09:19:37.000Z</time>
      </trkpt>
      <trkpt lat="47.29568" lon="-2.39544">
        <ele>4.5999999046326</ele>
        <time>2022-03-10T09:19:40.000Z</time>
      </trkpt>
      <trkpt lat="47.2957" lon="-2.39544">
        <ele>4.5999999046326</ele>
        <time>2022-03-10T09:19:41.000Z</time>
      </trkpt>
      <trkpt lat="47.29577" lon="-2.39546">
        <ele>5.1999998092651</ele>
        <time>2022-03-10T09:19:44.000Z</time>
      </trkpt>
      <trkpt lat="47.2958" lon="-2.39547">
        <ele>5.5999999046326</ele>
        <time>2022-03-10T09:19:45.000Z</time>
      </trkpt>
      <trkpt lat="47.29582" lon="-2.39547">
        <ele>6</ele>
        <time>2022-03-10T09:19:46.000Z</time>
      </trkpt>
      <trkpt lat="47.29583" lon="-2.39547">
        <ele>6.4000000953674</ele>
        <time>2022-03-10T09:19:47.000Z</time>
      </trkpt>
      <trkpt lat="47.29586" lon="-2.39547">
        <ele>6.8000001907349</ele>
        <time>2022-03-10T09:19:48.000Z</time>
      </trkpt>
      <trkpt lat="47.29603" lon="-2.3955">
        <ele>6.8000001907349</ele>
        <time>2022-03-10T09:19:55.000Z</time>
      </trkpt>
      <trkpt lat="47.29624" lon="-2.39554">
        <ele>6.8000001907349</ele>
        <time>2022-03-10T09:20:00.000Z</time>
      </trkpt>
      <trkpt lat="47.29625" lon="-2.39558">
        <ele>6.8000001907349</ele>
        <time>2022-03-10T09:20:01.000Z</time>
      </trkpt>
      <trkpt lat="47.2962" lon="-2.39564">
        <ele>6.8000001907349</ele>
        <time>2022-03-10T09:20:03.000Z</time>
      </trkpt>
      <trkpt lat="47.29617" lon="-2.39565">
        <ele>6.4000000953674</ele>
        <time>2022-03-10T09:20:04.000Z</time>
      </trkpt>
      <trkpt lat="47.29613" lon="-2.39565">
        <ele>6</ele>
        <time>2022-03-10T09:20:05.000Z</time>
      </trkpt>
      <trkpt lat="47.2961" lon="-2.39566">
        <ele>5.5999999046326</ele>
        <time>2022-03-10T09:20:06.000Z</time>
      </trkpt>
      <trkpt lat="47.29609" lon="-2.3957">
        <ele>5.1999998092651</ele>
        <time>2022-03-10T09:20:07.000Z</time>
      </trkpt>
      <trkpt lat="47.29611" lon="-2.39573">
        <ele>4.8000001907349</ele>
        <time>2022-03-10T09:20:08.000Z</time>
      </trkpt>
      <trkpt lat="47.29615" lon="-2.39574">
        <ele>4.8000001907349</ele>
        <time>2022-03-10T09:20:09.000Z</time>
      </trkpt>
      <trkpt lat="47.29622" lon="-2.39575">
        <ele>4.1999998092651</ele>
        <time>2022-03-10T09:20:11.000Z</time>
      </trkpt>
      <trkpt lat="47.29626" lon="-2.39577">
        <ele>3.7999999523163</ele>
        <time>2022-03-10T09:20:12.000Z</time>
      </trkpt>
      <trkpt lat="47.29629" lon="-2.39581">
        <ele>3.4000000953674</ele>
        <time>2022-03-10T09:20:13.000Z</time>
      </trkpt>
      <trkpt lat="47.29631" lon="-2.39585">
        <ele>3</ele>
        <time>2022-03-10T09:20:14.000Z</time>
      </trkpt>
      <trkpt lat="47.29631" lon="-2.39591">
        <ele>2.5999999046326</ele>
        <time>2022-03-10T09:20:15.000Z</time>
      </trkpt>
      <trkpt lat="47.2963" lon="-2.39597">
        <ele>2.5999999046326</ele>
        <time>2022-03-10T09:20:16.000Z</time>
      </trkpt>
      <trkpt lat="47.29629" lon="-2.39627">
        <ele>2.5999999046326</ele>
        <time>2022-03-10T09:20:21.000Z</time>
      </trkpt>
      <trkpt lat="47.29623" lon="-2.39659">
        <ele>2.5999999046326</ele>
        <time>2022-03-10T09:20:25.000Z</time>
      </trkpt>
      <trkpt lat="47.29603" lon="-2.39693">
        <ele>2.5999999046326</ele>
        <time>2022-03-10T09:20:30.000Z</time>
      </trkpt>
      <trkpt lat="47.29571" lon="-2.3975">
        <ele>2.5999999046326</ele>
        <time>2022-03-10T09:20:38.000Z</time>
      </trkpt>
      <trkpt lat="47.29551" lon="-2.39795">
        <ele>2.5999999046326</ele>
        <time>2022-03-10T09:20:44.000Z</time>
      </trkpt>
      <trkpt lat="47.29546" lon="-2.39807">
        <ele>2.5999999046326</ele>
        <time>2022-03-10T09:20:46.000Z</time>
      </trkpt>
      <trkpt lat="47.29539" lon="-2.39818">
        <ele>2.5999999046326</ele>
        <time>2022-03-10T09:20:48.000Z</time>
      </trkpt>
      <trkpt lat="47.29527" lon="-2.39841">
        <ele>2.5999999046326</ele>
        <time>2022-03-10T09:20:52.000Z</time>
      </trkpt>
      <trkpt lat="47.29517" lon="-2.39863">
        <ele>2.5999999046326</ele>
        <time>2022-03-10T09:20:56.000Z</time>
      </trkpt>
      <trkpt lat="47.29499" lon="-2.39896">
        <ele>2.5999999046326</ele>
        <time>2022-03-10T09:21:03.000Z</time>
      </trkpt>
      <trkpt lat="47.29494" lon="-2.39899">
        <ele>2.5999999046326</ele>
        <time>2022-03-10T09:21:06.000Z</time>
      </trkpt>
      <trkpt lat="47.29485" lon="-2.39894">
        <ele>2.5999999046326</ele>
        <time>2022-03-10T09:21:12.000Z</time>
      </trkpt>
      <trkpt lat="47.29476" lon="-2.39875">
        <ele>2.5999999046326</ele>
        <time>2022-03-10T09:21:17.000Z</time>
      </trkpt>
      <trkpt lat="47.29469" lon="-2.3986">
        <ele>2.5999999046326</ele>
        <time>2022-03-10T09:21:20.000Z</time>
      </trkpt>
      <trkpt lat="47.29463" lon="-2.3985">
        <ele>2.5999999046326</ele>
        <time>2022-03-10T09:21:22.000Z</time>
      </trkpt>
      <trkpt lat="47.29456" lon="-2.39842">
        <ele>2.5999999046326</ele>
        <time>2022-03-10T09:21:24.000Z</time>
      </trkpt>
      <trkpt lat="47.29449" lon="-2.39842">
        <ele>2.5999999046326</ele>
        <time>2022-03-10T09:21:26.000Z</time>
      </trkpt>
      <trkpt lat="47.2944" lon="-2.39841">
        <ele>2.5999999046326</ele>
        <time>2022-03-10T09:21:28.000Z</time>
      </trkpt>
      <trkpt lat="47.2943" lon="-2.3984">
        <ele>2.5999999046326</ele>
        <time>2022-03-10T09:21:30.000Z</time>
      </trkpt>
      <trkpt lat="47.29404" lon="-2.39845">
        <ele>2.5999999046326</ele>
        <time>2022-03-10T09:21:35.000Z</time>
      </trkpt>
      <trkpt lat="47.29398" lon="-2.39848">
        <ele>2.5999999046326</ele>
        <time>2022-03-10T09:21:36.000Z</time>
      </trkpt>
      <trkpt lat="47.29382" lon="-2.39859">
        <ele>2.5999999046326</ele>
        <time>2022-03-10T09:21:39.000Z</time>
      </trkpt>
      <trkpt lat="47.29346" lon="-2.3989">
        <ele>2.5999999046326</ele>
        <time>2022-03-10T09:21:46.000Z</time>
      </trkpt>
      <trkpt lat="47.29312" lon="-2.39931">
        <ele>2.2000000476837</ele>
        <time>2022-03-10T09:21:53.000Z</time>
      </trkpt>
      <trkpt lat="47.29308" lon="-2.39938">
        <ele>1.7999999523163</ele>
        <time>2022-03-10T09:21:54.000Z</time>
      </trkpt>
      <trkpt lat="47.29304" lon="-2.39945">
        <ele>1.3999999761581</ele>
        <time>2022-03-10T09:21:55.000Z</time>
      </trkpt>
      <trkpt lat="47.29299" lon="-2.39952">
        <ele>1</ele>
        <time>2022-03-10T09:21:56.000Z</time>
      </trkpt>
      <trkpt lat="47.29295" lon="-2.39959">
        <ele>0.60000002384186</ele>
        <time>2022-03-10T09:21:57.000Z</time>
      </trkpt>
      <trkpt lat="47.2928" lon="-2.39989">
        <ele>0.60000002384186</ele>
        <time>2022-03-10T09:22:01.000Z</time>
      </trkpt>
      <trkpt lat="47.29255" lon="-2.40045">
        <ele>0.60000002384186</ele>
        <time>2022-03-10T09:22:08.000Z</time>
      </trkpt>
      <trkpt lat="47.29233" lon="-2.40091">
        <ele>0.60000002384186</ele>
        <time>2022-03-10T09:22:14.000Z</time>
      </trkpt>
      <trkpt lat="47.29225" lon="-2.40106">
        <ele>0.60000002384186</ele>
        <time>2022-03-10T09:22:16.000Z</time>
      </trkpt>
      <trkpt lat="47.29199" lon="-2.40161">
        <ele>0.60000002384186</ele>
        <time>2022-03-10T09:22:23.000Z</time>
      </trkpt>
      <trkpt lat="47.29175" lon="-2.40212">
        <ele>0.60000002384186</ele>
        <time>2022-03-10T09:22:30.000Z</time>
      </trkpt>
      <trkpt lat="47.29152" lon="-2.40262">
        <ele>0.60000002384186</ele>
        <time>2022-03-10T09:22:37.000Z</time>
      </trkpt>
      <trkpt lat="47.29126" lon="-2.40316">
        <ele>0.60000002384186</ele>
        <time>2022-03-10T09:22:45.000Z</time>
      </trkpt>
      <trkpt lat="47.29108" lon="-2.40353">
        <ele>0.60000002384186</ele>
        <time>2022-03-10T09:22:51.000Z</time>
      </trkpt>
      <trkpt lat="47.29081" lon="-2.40409">
        <ele>0.60000002384186</ele>
        <time>2022-03-10T09:22:59.000Z</time>
      </trkpt>
      <trkpt lat="47.29056" lon="-2.40459">
        <ele>0.60000002384186</ele>
        <time>2022-03-10T09:23:06.000Z</time>
      </trkpt>
      <trkpt lat="47.29023" lon="-2.40511">
        <ele>0.60000002384186</ele>
        <time>2022-03-10T09:23:14.000Z</time>
      </trkpt>
      <trkpt lat="47.28983" lon="-2.40557">
        <ele>0.60000002384186</ele>
        <time>2022-03-10T09:23:22.000Z</time>
      </trkpt>
      <trkpt lat="47.28948" lon="-2.40585">
        <ele>0.60000002384186</ele>
        <time>2022-03-10T09:23:28.000Z</time>
      </trkpt>
      <trkpt lat="47.28902" lon="-2.40614">
        <ele>0.60000002384186</ele>
        <time>2022-03-10T09:23:36.000Z</time>
      </trkpt>
      <trkpt lat="47.28852" lon="-2.40646">
        <ele>0.60000002384186</ele>
        <time>2022-03-10T09:23:45.000Z</time>
      </trkpt>
      <trkpt lat="47.28807" lon="-2.40679">
        <ele>0.60000002384186</ele>
        <time>2022-03-10T09:23:53.000Z</time>
      </trkpt>
      <trkpt lat="47.28765" lon="-2.40721">
        <ele>0.60000002384186</ele>
        <time>2022-03-10T09:24:01.000Z</time>
      </trkpt>
      <trkpt lat="47.28738" lon="-2.40759">
        <ele>0.60000002384186</ele>
        <time>2022-03-10T09:24:07.000Z</time>
      </trkpt>
      <trkpt lat="47.28727" lon="-2.40781">
        <ele>0.60000002384186</ele>
        <time>2022-03-10T09:24:10.000Z</time>
      </trkpt>
      <trkpt lat="47.28718" lon="-2.40804">
        <ele>0.60000002384186</ele>
        <time>2022-03-10T09:24:13.000Z</time>
      </trkpt>
      <trkpt lat="47.28709" lon="-2.40836">
        <ele>0.60000002384186</ele>
        <time>2022-03-10T09:24:17.000Z</time>
      </trkpt>
      <trkpt lat="47.28705" lon="-2.40862">
        <ele>0.60000002384186</ele>
        <time>2022-03-10T09:24:20.000Z</time>
      </trkpt>
      <trkpt lat="47.28703" lon="-2.40897">
        <ele>0.60000002384186</ele>
        <time>2022-03-10T09:24:24.000Z</time>
      </trkpt>
      <trkpt lat="47.28703" lon="-2.40915">
        <ele>0.60000002384186</ele>
        <time>2022-03-10T09:24:26.000Z</time>
      </trkpt>
      <trkpt lat="47.28711" lon="-2.40976">
        <ele>0.60000002384186</ele>
        <time>2022-03-10T09:24:33.000Z</time>
      </trkpt>
      <trkpt lat="47.28724" lon="-2.41026">
        <ele>0.60000002384186</ele>
        <time>2022-03-10T09:24:39.000Z</time>
      </trkpt>
      <trkpt lat="47.28742" lon="-2.41091">
        <ele>0.60000002384186</ele>
        <time>2022-03-10T09:24:47.000Z</time>
      </trkpt>
      <trkpt lat="47.28757" lon="-2.41148">
        <ele>0.60000002384186</ele>
        <time>2022-03-10T09:24:54.000Z</time>
      </trkpt>
      <trkpt lat="47.28759" lon="-2.41156">
        <ele>0.60000002384186</ele>
        <time>2022-03-10T09:24:55.000Z</time>
      </trkpt>
      <trkpt lat="47.28768" lon="-2.41193">
        <ele>0.60000002384186</ele>
        <time>2022-03-10T09:25:00.000Z</time>
      </trkpt>
      <trkpt lat="47.28768" lon="-2.412">
        <ele>0.60000002384186</ele>
        <time>2022-03-10T09:25:01.000Z</time>
      </trkpt>
      <trkpt lat="47.28771" lon="-2.4122">
        <ele>0.60000002384186</ele>
        <time>2022-03-10T09:25:04.000Z</time>
      </trkpt>
      <trkpt lat="47.28776" lon="-2.41233">
        <ele>0.60000002384186</ele>
        <time>2022-03-10T09:25:06.000Z</time>
      </trkpt>
      <trkpt lat="47.28776" lon="-2.41254">
        <ele>1</ele>
        <time>2022-03-10T09:25:09.000Z</time>
      </trkpt>
      <trkpt lat="47.28774" lon="-2.41261">
        <ele>1.3999999761581</ele>
        <time>2022-03-10T09:25:10.000Z</time>
      </trkpt>
      <trkpt lat="47.2877" lon="-2.41266">
        <ele>1.7999999523163</ele>
        <time>2022-03-10T09:25:11.000Z</time>
      </trkpt>
      <trkpt lat="47.28767" lon="-2.4127">
        <ele>2.2000000476837</ele>
        <time>2022-03-10T09:25:12.000Z</time>
      </trkpt>
      <trkpt lat="47.28763" lon="-2.41274">
        <ele>2.5999999046326</ele>
        <time>2022-03-10T09:25:13.000Z</time>
      </trkpt>
      <trkpt lat="47.28753" lon="-2.41274">
        <ele>2.5999999046326</ele>
        <time>2022-03-10T09:25:15.000Z</time>
      </trkpt>
      <trkpt lat="47.28742" lon="-2.41261">
        <ele>2.5999999046326</ele>
        <time>2022-03-10T09:25:18.000Z</time>
      </trkpt>
      <trkpt lat="47.28726" lon="-2.41245">
        <ele>2.5999999046326</ele>
        <time>2022-03-10T09:25:22.000Z</time>
      </trkpt>
      <trkpt lat="47.28715" lon="-2.41239">
        <ele>2.5999999046326</ele>
        <time>2022-03-10T09:25:24.000Z</time>
      </trkpt>
      <trkpt lat="47.28697" lon="-2.41234">
        <ele>2.5999999046326</ele>
        <time>2022-03-10T09:25:27.000Z</time>
      </trkpt>
      <trkpt lat="47.28664" lon="-2.41227">
        <ele>2.2000000476837</ele>
        <time>2022-03-10T09:25:32.000Z</time>
      </trkpt>
      <trkpt lat="47.28658" lon="-2.41226">
        <ele>1.6000000238419</ele>
        <time>2022-03-10T09:25:33.000Z</time>
      </trkpt>
      <trkpt lat="47.28652" lon="-2.41224">
        <ele>1.2000000476837</ele>
        <time>2022-03-10T09:25:34.000Z</time>
      </trkpt>
      <trkpt lat="47.28645" lon="-2.41223">
        <ele>0.80000001192093</ele>
        <time>2022-03-10T09:25:35.000Z</time>
      </trkpt>
      <trkpt lat="47.28638" lon="-2.41221">
        <ele>0.40000000596046</ele>
        <time>2022-03-10T09:25:36.000Z</time>
      </trkpt>
      <trkpt lat="47.28602" lon="-2.41212">
        <ele>3.4</ele>
        <time>2022-03-10T09:25:41.000Z</time>
      </trkpt>
      <trkpt lat="47.28594" lon="-2.41211">
        <ele>-0.60000002384186</ele>
        <time>2022-03-10T09:25:42.000Z</time>
      </trkpt>
      <trkpt lat="47.28587" lon="-2.41209">
        <ele>-1</ele>
        <time>2022-03-10T09:25:43.000Z</time>
      </trkpt>
      <trkpt lat="47.2858" lon="-2.41208">
        <ele>-1.3999999761581</ele>
        <time>2022-03-10T09:25:44.000Z</time>
      </trkpt>
      <trkpt lat="47.28573" lon="-2.41207">
        <ele>-1.7999999523163</ele>
        <time>2022-03-10T09:25:45.000Z</time>
      </trkpt>
      <trkpt lat="47.28562" lon="-2.41205">
        <ele>-1.7999999523163</ele>
        <time>2022-03-10T09:25:47.000Z</time>
      </trkpt>
      <trkpt lat="47.28532" lon="-2.41199">
        <ele>-1.7999999523163</ele>
        <time>2022-03-10T09:25:53.000Z</time>
      </trkpt>
      <trkpt lat="47.28528" lon="-2.41198">
        <ele>-1.3999999761581</ele>
        <time>2022-03-10T09:25:54.000Z</time>
      </trkpt>
      <trkpt lat="47.28523" lon="-2.41198">
        <ele>-1</ele>
        <time>2022-03-10T09:25:55.000Z</time>
      </trkpt>
      <trkpt lat="47.28518" lon="-2.41198">
        <ele>-0.60000002384186</ele>
        <time>2022-03-10T09:25:56.000Z</time>
      </trkpt>
      <trkpt lat="47.28513" lon="-2.41199">
        <ele>-0.20000000298023</ele>
        <time>2022-03-10T09:25:57.000Z</time>
      </trkpt>
      <trkpt lat="47.28509" lon="-2.41199">
        <ele>0.20000000298023</ele>
        <time>2022-03-10T09:25:58.000Z</time>
      </trkpt>
      <trkpt lat="47.28497" lon="-2.41209">
        <ele>0.20000000298023</ele>
        <time>2022-03-10T09:26:01.000Z</time>
      </trkpt>
      <trkpt lat="47.28494" lon="-2.41212">
        <ele>0.20000000298023</ele>
        <time>2022-03-10T09:26:02.000Z</time>
      </trkpt>
      <trkpt lat="47.28488" lon="-2.41222">
        <ele>0.20000000298023</ele>
        <time>2022-03-10T09:26:04.000Z</time>
      </trkpt>
      <trkpt lat="47.28487" lon="-2.41236">
        <ele>0.20000000298023</ele>
        <time>2022-03-10T09:26:06.000Z</time>
      </trkpt>
      <trkpt lat="47.28481" lon="-2.41251">
        <ele>0.20000000298023</ele>
        <time>2022-03-10T09:26:09.000Z</time>
      </trkpt>
      <trkpt lat="47.28466" lon="-2.41255">
        <ele>0.20000000298023</ele>
        <time>2022-03-10T09:26:13.000Z</time>
      </trkpt>
      <trkpt lat="47.28454" lon="-2.41262">
        <ele>0.20000000298023</ele>
        <time>2022-03-10T09:26:17.000Z</time>
      </trkpt>
      <trkpt lat="47.28453" lon="-2.41277">
        <ele>0.20000000298023</ele>
        <time>2022-03-10T09:26:20.000Z</time>
      </trkpt>
      <trkpt lat="47.28454" lon="-2.41282">
        <ele>0.20000000298023</ele>
        <time>2022-03-10T09:26:21.000Z</time>
      </trkpt>
      <trkpt lat="47.28452" lon="-2.41301">
        <ele>0.20000000298023</ele>
        <time>2022-03-10T09:26:24.000Z</time>
      </trkpt>
      <trkpt lat="47.28451" lon="-2.41307">
        <ele>0.20000000298023</ele>
        <time>2022-03-10T09:26:25.000Z</time>
      </trkpt>
      <trkpt lat="47.28447" lon="-2.41328">
        <ele>0.20000000298023</ele>
        <time>2022-03-10T09:26:28.000Z</time>
      </trkpt>
      <trkpt lat="47.28444" lon="-2.41343">
        <ele>0.20000000298023</ele>
        <time>2022-03-10T09:26:30.000Z</time>
      </trkpt>
      <trkpt lat="47.28439" lon="-2.41357">
        <ele>0.20000000298023</ele>
        <time>2022-03-10T09:26:32.000Z</time>
      </trkpt>
      <trkpt lat="47.28435" lon="-2.41372">
        <ele>0.20000000298023</ele>
        <time>2022-03-10T09:26:34.000Z</time>
      </trkpt>
      <trkpt lat="47.28428" lon="-2.41404">
        <ele>0.20000000298023</ele>
        <time>2022-03-10T09:26:38.000Z</time>
      </trkpt>
      <trkpt lat="47.28417" lon="-2.41462">
        <ele>0.20000000298023</ele>
        <time>2022-03-10T09:26:45.000Z</time>
      </trkpt>
      <trkpt lat="47.28412" lon="-2.41521">
        <ele>0.20000000298023</ele>
        <time>2022-03-10T09:26:52.000Z</time>
      </trkpt>
      <trkpt lat="47.28408" lon="-2.41571">
        <ele>0.20000000298023</ele>
        <time>2022-03-10T09:26:58.000Z</time>
      </trkpt>
      <trkpt lat="47.28399" lon="-2.41647">
        <ele>0.20000000298023</ele>
        <time>2022-03-10T09:27:07.000Z</time>
      </trkpt>
      <trkpt lat="47.2839" lon="-2.41697">
        <ele>0.20000000298023</ele>
        <time>2022-03-10T09:27:13.000Z</time>
      </trkpt>
      <trkpt lat="47.28376" lon="-2.41755">
        <ele>0.20000000298023</ele>
        <time>2022-03-10T09:27:20.000Z</time>
      </trkpt>
      <trkpt lat="47.28362" lon="-2.41813">
        <ele>0.20000000298023</ele>
        <time>2022-03-10T09:27:27.000Z</time>
      </trkpt>
      <trkpt lat="47.2835" lon="-2.41861">
        <ele>0.20000000298023</ele>
        <time>2022-03-10T09:27:33.000Z</time>
      </trkpt>
      <trkpt lat="47.28336" lon="-2.41919">
        <ele>0.20000000298023</ele>
        <time>2022-03-10T09:27:40.000Z</time>
      </trkpt>
      <trkpt lat="47.28324" lon="-2.4196">
        <ele>0.20000000298023</ele>
        <time>2022-03-10T09:27:45.000Z</time>
      </trkpt>
      <trkpt lat="47.28311" lon="-2.4202">
        <ele>0.20000000298023</ele>
        <time>2022-03-10T09:27:52.000Z</time>
      </trkpt>
      <trkpt lat="47.28304" lon="-2.42071">
        <ele>0.20000000298023</ele>
        <time>2022-03-10T09:27:58.000Z</time>
      </trkpt>
      <trkpt lat="47.28293" lon="-2.42139">
        <ele>0.20000000298023</ele>
        <time>2022-03-10T09:28:06.000Z</time>
      </trkpt>
      <trkpt lat="47.28284" lon="-2.42201">
        <ele>0.20000000298023</ele>
        <time>2022-03-10T09:28:13.000Z</time>
      </trkpt>
      <trkpt lat="47.28278" lon="-2.42235">
        <ele>0.20000000298023</ele>
        <time>2022-03-10T09:28:17.000Z</time>
      </trkpt>
      <trkpt lat="47.28274" lon="-2.42252">
        <ele>0.20000000298023</ele>
        <time>2022-03-10T09:28:19.000Z</time>
      </trkpt>
      <trkpt lat="47.28266" lon="-2.42303">
        <ele>0.20000000298023</ele>
        <time>2022-03-10T09:28:25.000Z</time>
      </trkpt>
      <trkpt lat="47.28259" lon="-2.42361">
        <ele>0.20000000298023</ele>
        <time>2022-03-10T09:28:32.000Z</time>
      </trkpt>
      <trkpt lat="47.28246" lon="-2.42417">
        <ele>0.20000000298023</ele>
        <time>2022-03-10T09:28:39.000Z</time>
      </trkpt>
      <trkpt lat="47.28244" lon="-2.42424">
        <ele>0.20000000298023</ele>
        <time>2022-03-10T09:28:40.000Z</time>
      </trkpt>
      <trkpt lat="47.28236" lon="-2.42447">
        <ele>0.20000000298023</ele>
        <time>2022-03-10T09:28:43.000Z</time>
      </trkpt>
      <trkpt lat="47.28233" lon="-2.42454">
        <ele>0.20000000298023</ele>
        <time>2022-03-10T09:28:44.000Z</time>
      </trkpt>
      <trkpt lat="47.28216" lon="-2.42489">
        <ele>0.20000000298023</ele>
        <time>2022-03-10T09:28:49.000Z</time>
      </trkpt>
      <trkpt lat="47.28208" lon="-2.42501">
        <ele>0.20000000298023</ele>
        <time>2022-03-10T09:28:51.000Z</time>
      </trkpt>
      <trkpt lat="47.28203" lon="-2.42506">
        <ele>0.20000000298023</ele>
        <time>2022-03-10T09:28:52.000Z</time>
      </trkpt>
      <trkpt lat="47.28188" lon="-2.42518">
        <ele>0.20000000298023</ele>
        <time>2022-03-10T09:28:55.000Z</time>
      </trkpt>
      <trkpt lat="47.28177" lon="-2.42523">
        <ele>0.20000000298023</ele>
        <time>2022-03-10T09:28:57.000Z</time>
      </trkpt>
      <trkpt lat="47.2815" lon="-2.42534">
        <ele>0.20000000298023</ele>
        <time>2022-03-10T09:29:02.000Z</time>
      </trkpt>
      <trkpt lat="47.28122" lon="-2.42542">
        <ele>0.20000000298023</ele>
        <time>2022-03-10T09:29:08.000Z</time>
      </trkpt>
      <trkpt lat="47.28103" lon="-2.42546">
        <ele>0.20000000298023</ele>
        <time>2022-03-10T09:29:14.000Z</time>
      </trkpt>
      <trkpt lat="47.281" lon="-2.42546">
        <ele>0.20000000298023</ele>
        <time>2022-03-10T09:29:17.000Z</time>
      </trkpt>
      <trkpt lat="47.28098" lon="-2.42547">
        <ele>0.20000000298023</ele>
        <time>2022-03-10T09:29:24.000Z</time>
      </trkpt>
      <trkpt lat="47.2809" lon="-2.42556">
        <ele>0.20000000298023</ele>
        <time>2022-03-10T09:29:29.000Z</time>
      </trkpt>
      <trkpt lat="47.28084" lon="-2.42555">
        <ele>0.20000000298023</ele>
        <time>2022-03-10T09:29:33.000Z</time>
      </trkpt>
      <trkpt lat="47.2808" lon="-2.42563">
        <ele>0.20000000298023</ele>
        <time>2022-03-10T09:29:37.000Z</time>
      </trkpt>
      <trkpt lat="47.28078" lon="-2.42566">
        <ele>0.20000000298023</ele>
        <time>2022-03-10T09:29:38.000Z</time>
      </trkpt>
      <trkpt lat="47.28071" lon="-2.42578">
        <ele>0.20000000298023</ele>
        <time>2022-03-10T09:29:41.000Z</time>
      </trkpt>
      <trkpt lat="47.28064" lon="-2.42586">
        <ele>0.20000000298023</ele>
        <time>2022-03-10T09:29:43.000Z</time>
      </trkpt>
      <trkpt lat="47.28051" lon="-2.42593">
        <ele>0.20000000298023</ele>
        <time>2022-03-10T09:29:46.000Z</time>
      </trkpt>
      <trkpt lat="47.28042" lon="-2.42597">
        <ele>0.20000000298023</ele>
        <time>2022-03-10T09:29:48.000Z</time>
      </trkpt>
      <trkpt lat="47.28038" lon="-2.42599">
        <ele>0.20000000298023</ele>
        <time>2022-03-10T09:29:49.000Z</time>
      </trkpt>
      <trkpt lat="47.2803" lon="-2.42606">
        <ele>0.20000000298023</ele>
        <time>2022-03-10T09:29:51.000Z</time>
      </trkpt>
      <trkpt lat="47.28023" lon="-2.42614">
        <ele>0.20000000298023</ele>
        <time>2022-03-10T09:29:53.000Z</time>
      </trkpt>
      <trkpt lat="47.28011" lon="-2.42625">
        <ele>0.20000000298023</ele>
        <time>2022-03-10T09:29:56.000Z</time>
      </trkpt>
      <trkpt lat="47.27998" lon="-2.42635">
        <ele>0.20000000298023</ele>
        <time>2022-03-10T09:29:59.000Z</time>
      </trkpt>
      <trkpt lat="47.27984" lon="-2.4264">
        <ele>0.20000000298023</ele>
        <time>2022-03-10T09:30:02.000Z</time>
      </trkpt>
      <trkpt lat="47.27955" lon="-2.42646">
        <ele>0.20000000298023</ele>
        <time>2022-03-10T09:30:08.000Z</time>
      </trkpt>
      <trkpt lat="47.2795" lon="-2.42649">
        <ele>0.20000000298023</ele>
        <time>2022-03-10T09:30:09.000Z</time>
      </trkpt>
      <trkpt lat="47.27917" lon="-2.42672">
        <ele>0.20000000298023</ele>
        <time>2022-03-10T09:30:17.000Z</time>
      </trkpt>
      <trkpt lat="47.27904" lon="-2.42679">
        <ele>0.20000000298023</ele>
        <time>2022-03-10T09:30:21.000Z</time>
      </trkpt>
      <trkpt lat="47.27894" lon="-2.42689">
        <ele>0.20000000298023</ele>
        <time>2022-03-10T09:30:24.000Z</time>
      </trkpt>
      <trkpt lat="47.27887" lon="-2.42695">
        <ele>0.20000000298023</ele>
        <time>2022-03-10T09:30:26.000Z</time>
      </trkpt>
      <trkpt lat="47.27863" lon="-2.42708">
        <ele>0.20000000298023</ele>
        <time>2022-03-10T09:30:32.000Z</time>
      </trkpt>
      <trkpt lat="47.2784" lon="-2.42717">
        <ele>0.20000000298023</ele>
        <time>2022-03-10T09:30:38.000Z</time>
      </trkpt>
      <trkpt lat="47.27831" lon="-2.42722">
        <ele>0.20000000298023</ele>
        <time>2022-03-10T09:30:41.000Z</time>
      </trkpt>
      <trkpt lat="47.2783" lon="-2.42727">
        <ele>0.20000000298023</ele>
        <time>2022-03-10T09:30:42.000Z</time>
      </trkpt>
      <trkpt lat="47.2783" lon="-2.42739">
        <ele>0.60000002384186</ele>
        <time>2022-03-10T09:30:44.000Z</time>
      </trkpt>
      <trkpt lat="47.2783" lon="-2.42745">
        <ele>1</ele>
        <time>2022-03-10T09:30:45.000Z</time>
      </trkpt>
      <trkpt lat="47.27831" lon="-2.42751">
        <ele>1.3999999761581</ele>
        <time>2022-03-10T09:30:46.000Z</time>
      </trkpt>
      <trkpt lat="47.27831" lon="-2.42757">
        <ele>1.7999999523163</ele>
        <time>2022-03-10T09:30:47.000Z</time>
      </trkpt>
      <trkpt lat="47.27831" lon="-2.42763">
        <ele>2.4000000953674</ele>
        <time>2022-03-10T09:30:48.000Z</time>
      </trkpt>
      <trkpt lat="47.27833" lon="-2.42805">
        <ele>2.4000000953674</ele>
        <time>2022-03-10T09:30:55.000Z</time>
      </trkpt>
      <trkpt lat="47.27834" lon="-2.42823">
        <ele>2.4000000953674</ele>
        <time>2022-03-10T09:30:58.000Z</time>
      </trkpt>
      <trkpt lat="47.27832" lon="-2.42825">
        <ele>2.4000000953674</ele>
        <time>2022-03-10T09:30:59.000Z</time>
      </trkpt>
      <trkpt lat="47.27823" lon="-2.42825">
        <ele>2.4000000953674</ele>
        <time>2022-03-10T09:31:03.000Z</time>
      </trkpt>
      <trkpt lat="47.27811" lon="-2.42822">
        <ele>2.4000000953674</ele>
        <time>2022-03-10T09:31:07.000Z</time>
      </trkpt>
      <trkpt lat="47.27807" lon="-2.42822">
        <ele>2.4000000953674</ele>
        <time>2022-03-10T09:31:08.000Z</time>
      </trkpt>
      <trkpt lat="47.27781" lon="-2.42817">
        <ele>2.4000000953674</ele>
        <time>2022-03-10T09:31:13.000Z</time>
      </trkpt>
      <trkpt lat="47.27752" lon="-2.42814">
        <ele>2.4000000953674</ele>
        <time>2022-03-10T09:31:19.000Z</time>
      </trkpt>
      <trkpt lat="47.27725" lon="-2.42807">
        <ele>2.4000000953674</ele>
        <time>2022-03-10T09:31:25.000Z</time>
      </trkpt>
      <trkpt lat="47.27698" lon="-2.42796">
        <ele>2.4000000953674</ele>
        <time>2022-03-10T09:31:32.000Z</time>
      </trkpt>
      <trkpt lat="47.27667" lon="-2.42781">
        <ele>2.4000000953674</ele>
        <time>2022-03-10T09:31:39.000Z</time>
      </trkpt>
      <trkpt lat="47.27659" lon="-2.42775">
        <ele>2.4000000953674</ele>
        <time>2022-03-10T09:31:41.000Z</time>
      </trkpt>
      <trkpt lat="47.27643" lon="-2.42759">
        <ele>2.4000000953674</ele>
        <time>2022-03-10T09:31:45.000Z</time>
      </trkpt>
      <trkpt lat="47.27606" lon="-2.42721">
        <ele>2.4000000953674</ele>
        <time>2022-03-10T09:31:54.000Z</time>
      </trkpt>
      <trkpt lat="47.27578" lon="-2.42689">
        <ele>2.4000000953674</ele>
        <time>2022-03-10T09:32:01.000Z</time>
      </trkpt>
      <trkpt lat="47.27554" lon="-2.42657">
        <ele>2.4000000953674</ele>
        <time>2022-03-10T09:32:07.000Z</time>
      </trkpt>
      <trkpt lat="47.27529" lon="-2.42625">
        <ele>2.4000000953674</ele>
        <time>2022-03-10T09:32:13.000Z</time>
      </trkpt>
      <trkpt lat="47.2749" lon="-2.42582">
        <ele>2.4000000953674</ele>
        <time>2022-03-10T09:32:21.000Z</time>
      </trkpt>
      <trkpt lat="47.27452" lon="-2.42539">
        <ele>2.4000000953674</ele>
        <time>2022-03-10T09:32:29.000Z</time>
      </trkpt>
      <trkpt lat="47.27447" lon="-2.42536">
        <ele>2.4000000953674</ele>
        <time>2022-03-10T09:32:30.000Z</time>
      </trkpt>
      <trkpt lat="47.27438" lon="-2.42541">
        <ele>2.4000000953674</ele>
        <time>2022-03-10T09:32:32.000Z</time>
      </trkpt>
      <trkpt lat="47.27427" lon="-2.42561">
        <ele>2.4000000953674</ele>
        <time>2022-03-10T09:32:35.000Z</time>
      </trkpt>
      <trkpt lat="47.27412" lon="-2.42569">
        <ele>2.4000000953674</ele>
        <time>2022-03-10T09:32:38.000Z</time>
      </trkpt>
      <trkpt lat="47.27395" lon="-2.42566">
        <ele>2.4000000953674</ele>
        <time>2022-03-10T09:32:41.000Z</time>
      </trkpt>
      <trkpt lat="47.27389" lon="-2.42565">
        <ele>2.4000000953674</ele>
        <time>2022-03-10T09:32:42.000Z</time>
      </trkpt>
      <trkpt lat="47.27351" lon="-2.42562">
        <ele>2.4000000953674</ele>
        <time>2022-03-10T09:32:48.000Z</time>
      </trkpt>
      <trkpt lat="47.2731" lon="-2.42567">
        <ele>2.4000000953674</ele>
        <time>2022-03-10T09:32:55.000Z</time>
      </trkpt>
      <trkpt lat="47.27275" lon="-2.42581">
        <ele>2.4000000953674</ele>
        <time>2022-03-10T09:33:01.000Z</time>
      </trkpt>
      <trkpt lat="47.2727" lon="-2.42585">
        <ele>2.4000000953674</ele>
        <time>2022-03-10T09:33:02.000Z</time>
      </trkpt>
      <trkpt lat="47.27246" lon="-2.42596">
        <ele>2.4000000953674</ele>
        <time>2022-03-10T09:33:06.000Z</time>
      </trkpt>
      <trkpt lat="47.27228" lon="-2.42603">
        <ele>2.4000000953674</ele>
        <time>2022-03-10T09:33:09.000Z</time>
      </trkpt>
      <trkpt lat="47.2721" lon="-2.42609">
        <ele>2.4000000953674</ele>
        <time>2022-03-10T09:33:12.000Z</time>
      </trkpt>
      <trkpt lat="47.27166" lon="-2.42621">
        <ele>2.4000000953674</ele>
        <time>2022-03-10T09:33:19.000Z</time>
      </trkpt>
      <trkpt lat="47.27137" lon="-2.42632">
        <ele>2.4000000953674</ele>
        <time>2022-03-10T09:33:24.000Z</time>
      </trkpt>
      <trkpt lat="47.27126" lon="-2.42639">
        <ele>2.4000000953674</ele>
        <time>2022-03-10T09:33:26.000Z</time>
      </trkpt>
      <trkpt lat="47.27113" lon="-2.42643">
        <ele>2.4000000953674</ele>
        <time>2022-03-10T09:33:28.000Z</time>
      </trkpt>
      <trkpt lat="47.27101" lon="-2.42646">
        <ele>2.4000000953674</ele>
        <time>2022-03-10T09:33:30.000Z</time>
      </trkpt>
      <trkpt lat="47.27051" lon="-2.42661">
        <ele>2.4000000953674</ele>
        <time>2022-03-10T09:33:38.000Z</time>
      </trkpt>
      <trkpt lat="47.27045" lon="-2.42659">
        <ele>2.4000000953674</ele>
        <time>2022-03-10T09:33:39.000Z</time>
      </trkpt>
      <trkpt lat="47.27018" lon="-2.42641">
        <ele>2.4000000953674</ele>
        <time>2022-03-10T09:33:44.000Z</time>
      </trkpt>
      <trkpt lat="47.27014" lon="-2.42635">
        <ele>2.4000000953674</ele>
        <time>2022-03-10T09:33:45.000Z</time>
      </trkpt>
      <trkpt lat="47.27007" lon="-2.4262">
        <ele>2.4000000953674</ele>
        <time>2022-03-10T09:33:47.000Z</time>
      </trkpt>
      <trkpt lat="47.26985" lon="-2.42561">
        <ele>2.4000000953674</ele>
        <time>2022-03-10T09:33:54.000Z</time>
      </trkpt>
      <trkpt lat="47.26966" lon="-2.42524">
        <ele>2.4000000953674</ele>
        <time>2022-03-10T09:33:59.000Z</time>
      </trkpt>
      <trkpt lat="47.26961" lon="-2.42518">
        <ele>2.4000000953674</ele>
        <time>2022-03-10T09:34:00.000Z</time>
      </trkpt>
      <trkpt lat="47.26931" lon="-2.42487">
        <ele>2.4000000953674</ele>
        <time>2022-03-10T09:34:06.000Z</time>
      </trkpt>
      <trkpt lat="47.2692" lon="-2.42479">
        <ele>2.4000000953674</ele>
        <time>2022-03-10T09:34:08.000Z</time>
      </trkpt>
      <trkpt lat="47.26914" lon="-2.42476">
        <ele>2.7999999523163</ele>
        <time>2022-03-10T09:34:09.000Z</time>
      </trkpt>
      <trkpt lat="47.26908" lon="-2.42473">
        <ele>3.2000000476837</ele>
        <time>2022-03-10T09:34:10.000Z</time>
      </trkpt>
      <trkpt lat="47.26902" lon="-2.42471">
        <ele>3.5999999046326</ele>
        <time>2022-03-10T09:34:11.000Z</time>
      </trkpt>
      <trkpt lat="47.26896" lon="-2.42469">
        <ele>4</ele>
        <time>2022-03-10T09:34:12.000Z</time>
      </trkpt>
      <trkpt lat="47.26889" lon="-2.42468">
        <ele>4.4000000953674</ele>
        <time>2022-03-10T09:34:13.000Z</time>
      </trkpt>
      <trkpt lat="47.2687" lon="-2.42465">
        <ele>4.4000000953674</ele>
        <time>2022-03-10T09:34:16.000Z</time>
      </trkpt>
      <trkpt lat="47.2685" lon="-2.42463">
        <ele>4.4000000953674</ele>
        <time>2022-03-10T09:34:19.000Z</time>
      </trkpt>
      <trkpt lat="47.26843" lon="-2.42461">
        <ele>4.4000000953674</ele>
        <time>2022-03-10T09:34:20.000Z</time>
      </trkpt>
      <trkpt lat="47.26831" lon="-2.42457">
        <ele>4.4000000953674</ele>
        <time>2022-03-10T09:34:22.000Z</time>
      </trkpt>
      <trkpt lat="47.2682" lon="-2.42448">
        <ele>4.4000000953674</ele>
        <time>2022-03-10T09:34:24.000Z</time>
      </trkpt>
      <trkpt lat="47.26805" lon="-2.42428">
        <ele>4.4000000953674</ele>
        <time>2022-03-10T09:34:27.000Z</time>
      </trkpt>
      <trkpt lat="47.26801" lon="-2.42421">
        <ele>4.4000000953674</ele>
        <time>2022-03-10T09:34:28.000Z</time>
      </trkpt>
      <trkpt lat="47.26773" lon="-2.4237">
        <ele>4.4000000953674</ele>
        <time>2022-03-10T09:34:35.000Z</time>
      </trkpt>
      <trkpt lat="47.26762" lon="-2.42349">
        <ele>4.4000000953674</ele>
        <time>2022-03-10T09:34:38.000Z</time>
      </trkpt>
      <trkpt lat="47.26751" lon="-2.42339">
        <ele>4.4000000953674</ele>
        <time>2022-03-10T09:34:40.000Z</time>
      </trkpt>
      <trkpt lat="47.2674" lon="-2.42331">
        <ele>4.4000000953674</ele>
        <time>2022-03-10T09:34:42.000Z</time>
      </trkpt>
      <trkpt lat="47.26715" lon="-2.42314">
        <ele>4.4000000953674</ele>
        <time>2022-03-10T09:34:46.000Z</time>
      </trkpt>
      <trkpt lat="47.26672" lon="-2.42283">
        <ele>4.4000000953674</ele>
        <time>2022-03-10T09:34:53.000Z</time>
      </trkpt>
      <trkpt lat="47.26644" lon="-2.42247">
        <ele>4.4000000953674</ele>
        <time>2022-03-10T09:34:58.000Z</time>
      </trkpt>
      <trkpt lat="47.26621" lon="-2.42217">
        <ele>4.4000000953674</ele>
        <time>2022-03-10T09:35:02.000Z</time>
      </trkpt>
      <trkpt lat="47.26608" lon="-2.42203">
        <ele>4.4000000953674</ele>
        <time>2022-03-10T09:35:04.000Z</time>
      </trkpt>
      <trkpt lat="47.26587" lon="-2.42185">
        <ele>4.4000000953674</ele>
        <time>2022-03-10T09:35:07.000Z</time>
      </trkpt>
      <trkpt lat="47.26546" lon="-2.42156">
        <ele>4.4000000953674</ele>
        <time>2022-03-10T09:35:13.000Z</time>
      </trkpt>
      <trkpt lat="47.26516" lon="-2.42127">
        <ele>4.4000000953674</ele>
        <time>2022-03-10T09:35:18.000Z</time>
      </trkpt>
      <trkpt lat="47.2647" lon="-2.42078">
        <ele>4.4000000953674</ele>
        <time>2022-03-10T09:35:26.000Z</time>
      </trkpt>
      <trkpt lat="47.26431" lon="-2.42036">
        <ele>4.4000000953674</ele>
        <time>2022-03-10T09:35:33.000Z</time>
      </trkpt>
      <trkpt lat="47.26389" lon="-2.41996">
        <ele>4.4000000953674</ele>
        <time>2022-03-10T09:35:40.000Z</time>
      </trkpt>
      <trkpt lat="47.26353" lon="-2.41973">
        <ele>4.4000000953674</ele>
        <time>2022-03-10T09:35:45.000Z</time>
      </trkpt>
      <trkpt lat="47.26306" lon="-2.41943">
        <ele>4.4000000953674</ele>
        <time>2022-03-10T09:35:52.000Z</time>
      </trkpt>
      <trkpt lat="47.26263" lon="-2.41914">
        <ele>4.4000000953674</ele>
        <time>2022-03-10T09:35:59.000Z</time>
      </trkpt>
      <trkpt lat="47.2622" lon="-2.41886">
        <ele>4.4000000953674</ele>
        <time>2022-03-10T09:36:06.000Z</time>
      </trkpt>
      <trkpt lat="47.26208" lon="-2.41876">
        <ele>4.4000000953674</ele>
        <time>2022-03-10T09:36:08.000Z</time>
      </trkpt>
      <trkpt lat="47.26203" lon="-2.4187">
        <ele>4.8000001907349</ele>
        <time>2022-03-10T09:36:09.000Z</time>
      </trkpt>
      <trkpt lat="47.26198" lon="-2.41864">
        <ele>5.1999998092651</ele>
        <time>2022-03-10T09:36:10.000Z</time>
      </trkpt>
      <trkpt lat="47.26193" lon="-2.41859">
        <ele>5.5999999046326</ele>
        <time>2022-03-10T09:36:11.000Z</time>
      </trkpt>
      <trkpt lat="47.26189" lon="-2.41853">
        <ele>6</ele>
        <time>2022-03-10T09:36:12.000Z</time>
      </trkpt>
      <trkpt lat="47.26184" lon="-2.41847">
        <ele>6.4000000953674</ele>
        <time>2022-03-10T09:36:13.000Z</time>
      </trkpt>
      <trkpt lat="47.26163" lon="-2.41823">
        <ele>6.4000000953674</ele>
        <time>2022-03-10T09:36:17.000Z</time>
      </trkpt>
      <trkpt lat="47.26151" lon="-2.41814">
        <ele>6.4000000953674</ele>
        <time>2022-03-10T09:36:19.000Z</time>
      </trkpt>
      <trkpt lat="47.26135" lon="-2.41805">
        <ele>6.4000000953674</ele>
        <time>2022-03-10T09:36:22.000Z</time>
      </trkpt>
      <trkpt lat="47.26129" lon="-2.41804">
        <ele>6.4000000953674</ele>
        <time>2022-03-10T09:36:23.000Z</time>
      </trkpt>
      <trkpt lat="47.26119" lon="-2.4181">
        <ele>6.4000000953674</ele>
        <time>2022-03-10T09:36:25.000Z</time>
      </trkpt>
      <trkpt lat="47.26112" lon="-2.41821">
        <ele>6.4000000953674</ele>
        <time>2022-03-10T09:36:27.000Z</time>
      </trkpt>
      <trkpt lat="47.26109" lon="-2.41827">
        <ele>6.8000001907349</ele>
        <time>2022-03-10T09:36:28.000Z</time>
      </trkpt>
      <trkpt lat="47.26105" lon="-2.41833">
        <ele>7.4000000953674</ele>
        <time>2022-03-10T09:36:29.000Z</time>
      </trkpt>
      <trkpt lat="47.26101" lon="-2.41839">
        <ele>7.8000001907349</ele>
        <time>2022-03-10T09:36:30.000Z</time>
      </trkpt>
      <trkpt lat="47.26097" lon="-2.41844">
        <ele>8.1999998092651</ele>
        <time>2022-03-10T09:36:31.000Z</time>
      </trkpt>
      <trkpt lat="47.26093" lon="-2.4185">
        <ele>8.8000001907349</ele>
        <time>2022-03-10T09:36:32.000Z</time>
      </trkpt>
      <trkpt lat="47.2607" lon="-2.41883">
        <ele>8.8000001907349</ele>
        <time>2022-03-10T09:36:39.000Z</time>
      </trkpt>
      <trkpt lat="47.26043" lon="-2.41919">
        <ele>8.8000001907349</ele>
        <time>2022-03-10T09:36:46.000Z</time>
      </trkpt>
      <trkpt lat="47.26039" lon="-2.41924">
        <ele>8.8000001907349</ele>
        <time>2022-03-10T09:36:47.000Z</time>
      </trkpt>
      <trkpt lat="47.2603" lon="-2.41934">
        <ele>9.1999998092651</ele>
        <time>2022-03-10T09:36:49.000Z</time>
      </trkpt>
      <trkpt lat="47.26027" lon="-2.4194">
        <ele>9.6000003814697</ele>
        <time>2022-03-10T09:36:50.000Z</time>
      </trkpt>
      <trkpt lat="47.26024" lon="-2.41946">
        <ele>10.39999961853</ele>
        <time>2022-03-10T09:36:51.000Z</time>
      </trkpt>
      <trkpt lat="47.26021" lon="-2.41952">
        <ele>10.800000190735</ele>
        <time>2022-03-10T09:36:52.000Z</time>
      </trkpt>
      <trkpt lat="47.26018" lon="-2.41956">
        <ele>10.800000190735</ele>
        <time>2022-03-10T09:36:53.000Z</time>
      </trkpt>
      <trkpt lat="47.26001" lon="-2.41985">
        <ele>10.800000190735</ele>
        <time>2022-03-10T09:36:59.000Z</time>
      </trkpt>
      <trkpt lat="47.25999" lon="-2.4199">
        <ele>10.800000190735</ele>
        <time>2022-03-10T09:37:00.000Z</time>
      </trkpt>
      <trkpt lat="47.25997" lon="-2.42012">
        <ele>10.800000190735</ele>
        <time>2022-03-10T09:37:04.000Z</time>
      </trkpt>
      <trkpt lat="47.26005" lon="-2.42036">
        <ele>10.800000190735</ele>
        <time>2022-03-10T09:37:08.000Z</time>
      </trkpt>
      <trkpt lat="47.2601" lon="-2.42051">
        <ele>10.800000190735</ele>
        <time>2022-03-10T09:37:10.000Z</time>
      </trkpt>
      <trkpt lat="47.26021" lon="-2.4208">
        <ele>10.800000190735</ele>
        <time>2022-03-10T09:37:14.000Z</time>
      </trkpt>
      <trkpt lat="47.26034" lon="-2.42119">
        <ele>10.800000190735</ele>
        <time>2022-03-10T09:37:19.000Z</time>
      </trkpt>
      <trkpt lat="47.26038" lon="-2.42126">
        <ele>10.800000190735</ele>
        <time>2022-03-10T09:37:20.000Z</time>
      </trkpt>
      <trkpt lat="47.26047" lon="-2.42149">
        <ele>10.800000190735</ele>
        <time>2022-03-10T09:37:23.000Z</time>
      </trkpt>
      <trkpt lat="47.26053" lon="-2.42166">
        <ele>10.39999961853</ele>
        <time>2022-03-10T09:37:25.000Z</time>
      </trkpt>
      <trkpt lat="47.26056" lon="-2.42174">
        <ele>9.8000001907349</ele>
        <time>2022-03-10T09:37:26.000Z</time>
      </trkpt>
      <trkpt lat="47.26059" lon="-2.42182">
        <ele>9.3999996185303</ele>
        <time>2022-03-10T09:37:27.000Z</time>
      </trkpt>
      <trkpt lat="47.26062" lon="-2.4219">
        <ele>9</ele>
        <time>2022-03-10T09:37:28.000Z</time>
      </trkpt>
      <trkpt lat="47.26065" lon="-2.42198">
        <ele>8.6000003814697</ele>
        <time>2022-03-10T09:37:29.000Z</time>
      </trkpt>
      <trkpt lat="47.26078" lon="-2.42238">
        <ele>8.6000003814697</ele>
        <time>2022-03-10T09:37:34.000Z</time>
      </trkpt>
      <trkpt lat="47.26092" lon="-2.42281">
        <ele>8.6000003814697</ele>
        <time>2022-03-10T09:37:40.000Z</time>
      </trkpt>
      <trkpt lat="47.26102" lon="-2.42308">
        <ele>8.6000003814697</ele>
        <time>2022-03-10T09:37:45.000Z</time>
      </trkpt>
      <trkpt lat="47.26103" lon="-2.42317">
        <ele>8.6000003814697</ele>
        <time>2022-03-10T09:37:49.000Z</time>
      </trkpt>
      <trkpt lat="47.26104" lon="-2.42331">
        <ele>8.6000003814697</ele>
        <time>2022-03-10T09:37:53.000Z</time>
      </trkpt>
      <trkpt lat="47.26108" lon="-2.42359">
        <ele>8.6000003814697</ele>
        <time>2022-03-10T09:37:58.000Z</time>
      </trkpt>
      <trkpt lat="47.26112" lon="-2.42384">
        <ele>8.6000003814697</ele>
        <time>2022-03-10T09:38:03.000Z</time>
      </trkpt>
      <trkpt lat="47.26116" lon="-2.42416">
        <ele>8.6000003814697</ele>
        <time>2022-03-10T09:38:08.000Z</time>
      </trkpt>
      <trkpt lat="47.26116" lon="-2.42429">
        <ele>8.6000003814697</ele>
        <time>2022-03-10T09:38:10.000Z</time>
      </trkpt>
      <trkpt lat="47.26106" lon="-2.42441">
        <ele>8.6000003814697</ele>
        <time>2022-03-10T09:38:13.000Z</time>
      </trkpt>
      <trkpt lat="47.26094" lon="-2.42447">
        <ele>8.6000003814697</ele>
        <time>2022-03-10T09:38:16.000Z</time>
      </trkpt>
      <trkpt lat="47.26081" lon="-2.42451">
        <ele>8.6000003814697</ele>
        <time>2022-03-10T09:38:19.000Z</time>
      </trkpt>
      <trkpt lat="47.26054" lon="-2.42461">
        <ele>8.6000003814697</ele>
        <time>2022-03-10T09:38:26.000Z</time>
      </trkpt>
      <trkpt lat="47.26051" lon="-2.42465">
        <ele>8.6000003814697</ele>
        <time>2022-03-10T09:38:27.000Z</time>
      </trkpt>
      <trkpt lat="47.26041" lon="-2.42477">
        <ele>8.6000003814697</ele>
        <time>2022-03-10T09:38:30.000Z</time>
      </trkpt>
      <trkpt lat="47.26025" lon="-2.42483">
        <ele>8.6000003814697</ele>
        <time>2022-03-10T09:38:34.000Z</time>
      </trkpt>
      <trkpt lat="47.26001" lon="-2.42488">
        <ele>8.6000003814697</ele>
        <time>2022-03-10T09:38:40.000Z</time>
      </trkpt>
      <trkpt lat="47.2599" lon="-2.42497">
        <ele>8.6000003814697</ele>
        <time>2022-03-10T09:38:44.000Z</time>
      </trkpt>
      <trkpt lat="47.25986" lon="-2.42499">
        <ele>8.6000003814697</ele>
        <time>2022-03-10T09:38:45.000Z</time>
      </trkpt>
      <trkpt lat="47.25982" lon="-2.42509">
        <ele>8.6000003814697</ele>
        <time>2022-03-10T09:38:47.000Z</time>
      </trkpt>
      <trkpt lat="47.25978" lon="-2.42528">
        <ele>8.6000003814697</ele>
        <time>2022-03-10T09:38:50.000Z</time>
      </trkpt>
      <trkpt lat="47.25973" lon="-2.42549">
        <ele>8.6000003814697</ele>
        <time>2022-03-10T09:38:53.000Z</time>
      </trkpt>
      <trkpt lat="47.25969" lon="-2.42571">
        <ele>8.6000003814697</ele>
        <time>2022-03-10T09:38:56.000Z</time>
      </trkpt>
      <trkpt lat="47.25968" lon="-2.42586">
        <ele>8.6000003814697</ele>
        <time>2022-03-10T09:38:58.000Z</time>
      </trkpt>
      <trkpt lat="47.25969" lon="-2.4261">
        <ele>8.6000003814697</ele>
        <time>2022-03-10T09:39:01.000Z</time>
      </trkpt>
      <trkpt lat="47.25971" lon="-2.42627">
        <ele>8.6000003814697</ele>
        <time>2022-03-10T09:39:03.000Z</time>
      </trkpt>
      <trkpt lat="47.25979" lon="-2.42689">
        <ele>8.6000003814697</ele>
        <time>2022-03-10T09:39:11.000Z</time>
      </trkpt>
      <trkpt lat="47.25983" lon="-2.42727">
        <ele>8.6000003814697</ele>
        <time>2022-03-10T09:39:16.000Z</time>
      </trkpt>
      <trkpt lat="47.25983" lon="-2.42748">
        <ele>8.6000003814697</ele>
        <time>2022-03-10T09:39:19.000Z</time>
      </trkpt>
      <trkpt lat="47.25984" lon="-2.42811">
        <ele>8.6000003814697</ele>
        <time>2022-03-10T09:39:27.000Z</time>
      </trkpt>
      <trkpt lat="47.25984" lon="-2.42866">
        <ele>8.6000003814697</ele>
        <time>2022-03-10T09:39:35.000Z</time>
      </trkpt>
      <trkpt lat="47.25985" lon="-2.42876">
        <ele>8.6000003814697</ele>
        <time>2022-03-10T09:39:39.000Z</time>
      </trkpt>
      <trkpt lat="47.25982" lon="-2.42895">
        <ele>8.6000003814697</ele>
        <time>2022-03-10T09:39:43.000Z</time>
      </trkpt>
      <trkpt lat="47.25968" lon="-2.42933">
        <ele>8.6000003814697</ele>
        <time>2022-03-10T09:39:49.000Z</time>
      </trkpt>
      <trkpt lat="47.25961" lon="-2.42968">
        <ele>8.6000003814697</ele>
        <time>2022-03-10T09:39:54.000Z</time>
      </trkpt>
      <trkpt lat="47.25967" lon="-2.42988">
        <ele>8.6000003814697</ele>
        <time>2022-03-10T09:39:58.000Z</time>
      </trkpt>
      <trkpt lat="47.2598" lon="-2.42986">
        <ele>8.6000003814697</ele>
        <time>2022-03-10T09:40:01.000Z</time>
      </trkpt>
      <trkpt lat="47.25988" lon="-2.42985">
        <ele>8.6000003814697</ele>
        <time>2022-03-10T09:40:03.000Z</time>
      </trkpt>
      <trkpt lat="47.26" lon="-2.42991">
        <ele>8.6000003814697</ele>
        <time>2022-03-10T09:40:06.000Z</time>
      </trkpt>
      <trkpt lat="47.26002" lon="-2.43003">
        <ele>8.6000003814697</ele>
        <time>2022-03-10T09:40:08.000Z</time>
      </trkpt>
      <trkpt lat="47.26004" lon="-2.4301">
        <ele>8.6000003814697</ele>
        <time>2022-03-10T09:40:09.000Z</time>
      </trkpt>
      <trkpt lat="47.26012" lon="-2.4303">
        <ele>8.6000003814697</ele>
        <time>2022-03-10T09:40:12.000Z</time>
      </trkpt>
      <trkpt lat="47.26018" lon="-2.43042">
        <ele>8.6000003814697</ele>
        <time>2022-03-10T09:40:14.000Z</time>
      </trkpt>
      <trkpt lat="47.26039" lon="-2.43068">
        <ele>8.6000003814697</ele>
        <time>2022-03-10T09:40:19.000Z</time>
      </trkpt>
      <trkpt lat="47.26051" lon="-2.43092">
        <ele>8.6000003814697</ele>
        <time>2022-03-10T09:40:24.000Z</time>
      </trkpt>
      <trkpt lat="47.26056" lon="-2.43122">
        <ele>8.6000003814697</ele>
        <time>2022-03-10T09:40:29.000Z</time>
      </trkpt>
      <trkpt lat="47.26066" lon="-2.43164">
        <ele>8.6000003814697</ele>
        <time>2022-03-10T09:40:35.000Z</time>
      </trkpt>
      <trkpt lat="47.26079" lon="-2.43207">
        <ele>8.6000003814697</ele>
        <time>2022-03-10T09:40:41.000Z</time>
      </trkpt>
      <trkpt lat="47.26099" lon="-2.43258">
        <ele>8.6000003814697</ele>
        <time>2022-03-10T09:40:48.000Z</time>
      </trkpt>
      <trkpt lat="47.26112" lon="-2.43304">
        <ele>8.6000003814697</ele>
        <time>2022-03-10T09:40:54.000Z</time>
      </trkpt>
      <trkpt lat="47.26121" lon="-2.43348">
        <ele>8.6000003814697</ele>
        <time>2022-03-10T09:41:00.000Z</time>
      </trkpt>
      <trkpt lat="47.26123" lon="-2.43353">
        <ele>8.6000003814697</ele>
        <time>2022-03-10T09:41:01.000Z</time>
      </trkpt>
      <trkpt lat="47.26132" lon="-2.43362">
        <ele>8.6000003814697</ele>
        <time>2022-03-10T09:41:04.000Z</time>
      </trkpt>
      <trkpt lat="47.26148" lon="-2.43358">
        <ele>8.6000003814697</ele>
        <time>2022-03-10T09:41:08.000Z</time>
      </trkpt>
      <trkpt lat="47.26169" lon="-2.4336">
        <ele>8.6000003814697</ele>
        <time>2022-03-10T09:41:14.000Z</time>
      </trkpt>
      <trkpt lat="47.2617" lon="-2.43363">
        <ele>8.6000003814697</ele>
        <time>2022-03-10T09:41:15.000Z</time>
      </trkpt>
      <trkpt lat="47.2617" lon="-2.43371">
        <ele>8.6000003814697</ele>
        <time>2022-03-10T09:41:17.000Z</time>
      </trkpt>
      <trkpt lat="47.26169" lon="-2.4338">
        <ele>8.6000003814697</ele>
        <time>2022-03-10T09:41:19.000Z</time>
      </trkpt>
      <trkpt lat="47.2617" lon="-2.43394">
        <ele>8.6000003814697</ele>
        <time>2022-03-10T09:41:22.000Z</time>
      </trkpt>
      <trkpt lat="47.26173" lon="-2.43425">
        <ele>8.6000003814697</ele>
        <time>2022-03-10T09:41:28.000Z</time>
      </trkpt>
      <trkpt lat="47.26178" lon="-2.43448">
        <ele>9</ele>
        <time>2022-03-10T09:41:32.000Z</time>
      </trkpt>
      <trkpt lat="47.26179" lon="-2.43454">
        <ele>9.3999996185303</ele>
        <time>2022-03-10T09:41:33.000Z</time>
      </trkpt>
      <trkpt lat="47.26181" lon="-2.4346">
        <ele>9.8000001907349</ele>
        <time>2022-03-10T09:41:34.000Z</time>
      </trkpt>
      <trkpt lat="47.26182" lon="-2.43466">
        <ele>10.199999809265</ele>
        <time>2022-03-10T09:41:35.000Z</time>
      </trkpt>
      <trkpt lat="47.26183" lon="-2.43472">
        <ele>10.60000038147</ele>
        <time>2022-03-10T09:41:36.000Z</time>
      </trkpt>
      <trkpt lat="47.26184" lon="-2.43478">
        <ele>10.60000038147</ele>
        <time>2022-03-10T09:41:37.000Z</time>
      </trkpt>
      <trkpt lat="47.2619" lon="-2.43496">
        <ele>10.60000038147</ele>
        <time>2022-03-10T09:41:40.000Z</time>
      </trkpt>
      <trkpt lat="47.26193" lon="-2.43508">
        <ele>10.60000038147</ele>
        <time>2022-03-10T09:41:42.000Z</time>
      </trkpt>
      <trkpt lat="47.26196" lon="-2.43521">
        <ele>10.60000038147</ele>
        <time>2022-03-10T09:41:44.000Z</time>
      </trkpt>
      <trkpt lat="47.26198" lon="-2.43533">
        <ele>10.60000038147</ele>
        <time>2022-03-10T09:41:46.000Z</time>
      </trkpt>
      <trkpt lat="47.26208" lon="-2.43579">
        <ele>10.60000038147</ele>
        <time>2022-03-10T09:41:53.000Z</time>
      </trkpt>
      <trkpt lat="47.26212" lon="-2.43594">
        <ele>10.60000038147</ele>
        <time>2022-03-10T09:41:56.000Z</time>
      </trkpt>
      <trkpt lat="47.26215" lon="-2.43596">
        <ele>10.60000038147</ele>
        <time>2022-03-10T09:41:57.000Z</time>
      </trkpt>
      <trkpt lat="47.26226" lon="-2.43591">
        <ele>10.60000038147</ele>
        <time>2022-03-10T09:42:00.000Z</time>
      </trkpt>
      <trkpt lat="47.26231" lon="-2.43589">
        <ele>10.60000038147</ele>
        <time>2022-03-10T09:42:01.000Z</time>
      </trkpt>
      <trkpt lat="47.2626" lon="-2.43575">
        <ele>10.60000038147</ele>
        <time>2022-03-10T09:42:07.000Z</time>
      </trkpt>
      <trkpt lat="47.2628" lon="-2.43564">
        <ele>10.60000038147</ele>
        <time>2022-03-10T09:42:11.000Z</time>
      </trkpt>
      <trkpt lat="47.26289" lon="-2.43559">
        <ele>10.60000038147</ele>
        <time>2022-03-10T09:42:13.000Z</time>
      </trkpt>
      <trkpt lat="47.26318" lon="-2.43544">
        <ele>10.60000038147</ele>
        <time>2022-03-10T09:42:19.000Z</time>
      </trkpt>
      <trkpt lat="47.26348" lon="-2.43531">
        <ele>10.60000038147</ele>
        <time>2022-03-10T09:42:25.000Z</time>
      </trkpt>
      <trkpt lat="47.26353" lon="-2.4353">
        <ele>10.60000038147</ele>
        <time>2022-03-10T09:42:26.000Z</time>
      </trkpt>
      <trkpt lat="47.26358" lon="-2.43529">
        <ele>10.60000038147</ele>
        <time>2022-03-10T09:42:27.000Z</time>
      </trkpt>
      <trkpt lat="47.26368" lon="-2.43525">
        <ele>10.60000038147</ele>
        <time>2022-03-10T09:42:29.000Z</time>
      </trkpt>
      <trkpt lat="47.26379" lon="-2.43521">
        <ele>10.60000038147</ele>
        <time>2022-03-10T09:42:31.000Z</time>
      </trkpt>
      <trkpt lat="47.26388" lon="-2.43517">
        <ele>10.60000038147</ele>
        <time>2022-03-10T09:42:33.000Z</time>
      </trkpt>
      <trkpt lat="47.26398" lon="-2.4352">
        <ele>10.60000038147</ele>
        <time>2022-03-10T09:42:35.000Z</time>
      </trkpt>
      <trkpt lat="47.26406" lon="-2.43538">
        <ele>10.60000038147</ele>
        <time>2022-03-10T09:42:38.000Z</time>
      </trkpt>
      <trkpt lat="47.26404" lon="-2.43561">
        <ele>10.60000038147</ele>
        <time>2022-03-10T09:42:41.000Z</time>
      </trkpt>
      <trkpt lat="47.26404" lon="-2.43584">
        <ele>10.60000038147</ele>
        <time>2022-03-10T09:42:44.000Z</time>
      </trkpt>
      <trkpt lat="47.26404" lon="-2.43591">
        <ele>10.60000038147</ele>
        <time>2022-03-10T09:42:45.000Z</time>
      </trkpt>
      <trkpt lat="47.26405" lon="-2.43639">
        <ele>10.60000038147</ele>
        <time>2022-03-10T09:42:51.000Z</time>
      </trkpt>
      <trkpt lat="47.26407" lon="-2.43692">
        <ele>10.60000038147</ele>
        <time>2022-03-10T09:42:58.000Z</time>
      </trkpt>
      <trkpt lat="47.26406" lon="-2.43721">
        <ele>10.60000038147</ele>
        <time>2022-03-10T09:43:02.000Z</time>
      </trkpt>
      <trkpt lat="47.26405" lon="-2.43736">
        <ele>10.60000038147</ele>
        <time>2022-03-10T09:43:04.000Z</time>
      </trkpt>
      <trkpt lat="47.26403" lon="-2.43759">
        <ele>10.60000038147</ele>
        <time>2022-03-10T09:43:07.000Z</time>
      </trkpt>
      <trkpt lat="47.26402" lon="-2.43779">
        <ele>10.60000038147</ele>
        <time>2022-03-10T09:43:10.000Z</time>
      </trkpt>
      <trkpt lat="47.26401" lon="-2.43785">
        <ele>10.60000038147</ele>
        <time>2022-03-10T09:43:11.000Z</time>
      </trkpt>
      <trkpt lat="47.264" lon="-2.43819">
        <ele>10.60000038147</ele>
        <time>2022-03-10T09:43:16.000Z</time>
      </trkpt>
      <trkpt lat="47.26397" lon="-2.43852">
        <ele>10.60000038147</ele>
        <time>2022-03-10T09:43:21.000Z</time>
      </trkpt>
      <trkpt lat="47.26397" lon="-2.43858">
        <ele>10.60000038147</ele>
        <time>2022-03-10T09:43:22.000Z</time>
      </trkpt>
      <trkpt lat="47.26396" lon="-2.43876">
        <ele>11</ele>
        <time>2022-03-10T09:43:25.000Z</time>
      </trkpt>
      <trkpt lat="47.26398" lon="-2.43881">
        <ele>11.39999961853</ele>
        <time>2022-03-10T09:43:26.000Z</time>
      </trkpt>
      <trkpt lat="47.26398" lon="-2.43886">
        <ele>12.199999809265</ele>
        <time>2022-03-10T09:43:27.000Z</time>
      </trkpt>
      <trkpt lat="47.26398" lon="-2.43891">
        <ele>12.800000190735</ele>
        <time>2022-03-10T09:43:28.000Z</time>
      </trkpt>
      <trkpt lat="47.26396" lon="-2.43913">
        <ele>12.800000190735</ele>
        <time>2022-03-10T09:43:32.000Z</time>
      </trkpt>
      <trkpt lat="47.26396" lon="-2.4393">
        <ele>13.199999809265</ele>
        <time>2022-03-10T09:43:35.000Z</time>
      </trkpt>
      <trkpt lat="47.26396" lon="-2.43935">
        <ele>13.60000038147</ele>
        <time>2022-03-10T09:43:36.000Z</time>
      </trkpt>
      <trkpt lat="47.26396" lon="-2.4394">
        <ele>14</ele>
        <time>2022-03-10T09:43:37.000Z</time>
      </trkpt>
      <trkpt lat="47.26395" lon="-2.43945">
        <ele>14.39999961853</ele>
        <time>2022-03-10T09:43:38.000Z</time>
      </trkpt>
      <trkpt lat="47.26395" lon="-2.4395">
        <ele>14.800000190735</ele>
        <time>2022-03-10T09:43:39.000Z</time>
      </trkpt>
      <trkpt lat="47.26395" lon="-2.43961">
        <ele>14.800000190735</ele>
        <time>2022-03-10T09:43:42.000Z</time>
      </trkpt>
      <trkpt lat="47.26394" lon="-2.43974">
        <ele>15.199999809265</ele>
        <time>2022-03-10T09:43:45.000Z</time>
      </trkpt>
      <trkpt lat="47.26394" lon="-2.43978">
        <ele>15.60000038147</ele>
        <time>2022-03-10T09:43:46.000Z</time>
      </trkpt>
      <trkpt lat="47.26394" lon="-2.43982">
        <ele>16</ele>
        <time>2022-03-10T09:43:47.000Z</time>
      </trkpt>
      <trkpt lat="47.26394" lon="-2.43986">
        <ele>16.39999961853</ele>
        <time>2022-03-10T09:43:48.000Z</time>
      </trkpt>
      <trkpt lat="47.26393" lon="-2.43991">
        <ele>16.799999237061</ele>
        <time>2022-03-10T09:43:49.000Z</time>
      </trkpt>
      <trkpt lat="47.26391" lon="-2.44017">
        <ele>16.799999237061</ele>
        <time>2022-03-10T09:43:54.000Z</time>
      </trkpt>
      <trkpt lat="47.26389" lon="-2.44038">
        <ele>17.39999961853</ele>
        <time>2022-03-10T09:43:58.000Z</time>
      </trkpt>
      <trkpt lat="47.26388" lon="-2.44043">
        <ele>17.799999237061</ele>
        <time>2022-03-10T09:43:59.000Z</time>
      </trkpt>
      <trkpt lat="47.26387" lon="-2.44048">
        <ele>18.200000762939</ele>
        <time>2022-03-10T09:44:00.000Z</time>
      </trkpt>
      <trkpt lat="47.26387" lon="-2.44053">
        <ele>18.60000038147</ele>
        <time>2022-03-10T09:44:01.000Z</time>
      </trkpt>
      <trkpt lat="47.26386" lon="-2.44058">
        <ele>19</ele>
        <time>2022-03-10T09:44:02.000Z</time>
      </trkpt>
      <trkpt lat="47.26389" lon="-2.44081">
        <ele>19</ele>
        <time>2022-03-10T09:44:07.000Z</time>
      </trkpt>
      <trkpt lat="47.26392" lon="-2.44083">
        <ele>19</ele>
        <time>2022-03-10T09:44:08.000Z</time>
      </trkpt>
      <trkpt lat="47.26407" lon="-2.44086">
        <ele>19</ele>
        <time>2022-03-10T09:44:12.000Z</time>
      </trkpt>
      <trkpt lat="47.26437" lon="-2.44087">
        <ele>19</ele>
        <time>2022-03-10T09:44:19.000Z</time>
      </trkpt>
      <trkpt lat="47.26469" lon="-2.44093">
        <ele>19</ele>
        <time>2022-03-10T09:44:26.000Z</time>
      </trkpt>
      <trkpt lat="47.26496" lon="-2.441">
        <ele>19</ele>
        <time>2022-03-10T09:44:32.000Z</time>
      </trkpt>
      <trkpt lat="47.265" lon="-2.44102">
        <ele>19</ele>
        <time>2022-03-10T09:44:33.000Z</time>
      </trkpt>
      <trkpt lat="47.26517" lon="-2.44118">
        <ele>19</ele>
        <time>2022-03-10T09:44:37.000Z</time>
      </trkpt>
      <trkpt lat="47.26521" lon="-2.44123">
        <ele>18.60000038147</ele>
        <time>2022-03-10T09:44:38.000Z</time>
      </trkpt>
      <trkpt lat="47.26524" lon="-2.44128">
        <ele>18.200000762939</ele>
        <time>2022-03-10T09:44:39.000Z</time>
      </trkpt>
      <trkpt lat="47.26527" lon="-2.44132">
        <ele>17.799999237061</ele>
        <time>2022-03-10T09:44:40.000Z</time>
      </trkpt>
      <trkpt lat="47.26529" lon="-2.44136">
        <ele>16.799999237061</ele>
        <time>2022-03-10T09:44:41.000Z</time>
      </trkpt>
      <trkpt lat="47.26531" lon="-2.44139">
        <ele>16.799999237061</ele>
        <time>2022-03-10T09:44:42.000Z</time>
      </trkpt>
      <trkpt lat="47.26548" lon="-2.44155">
        <ele>16.39999961853</ele>
        <time>2022-03-10T09:44:47.000Z</time>
      </trkpt>
      <trkpt lat="47.2655" lon="-2.44157">
        <ele>16</ele>
        <time>2022-03-10T09:44:48.000Z</time>
      </trkpt>
      <trkpt lat="47.26551" lon="-2.44158">
        <ele>15.60000038147</ele>
        <time>2022-03-10T09:44:49.000Z</time>
      </trkpt>
      <trkpt lat="47.26553" lon="-2.4416">
        <ele>15.199999809265</ele>
        <time>2022-03-10T09:44:50.000Z</time>
      </trkpt>
      <trkpt lat="47.26555" lon="-2.4416">
        <ele>14.800000190735</ele>
        <time>2022-03-10T09:44:51.000Z</time>
      </trkpt>
      <trkpt lat="47.26565" lon="-2.44168">
        <ele>14.800000190735</ele>
        <time>2022-03-10T09:44:58.000Z</time>
      </trkpt>
      <trkpt lat="47.26569" lon="-2.4417">
        <ele>14.800000190735</ele>
        <time>2022-03-10T09:45:02.000Z</time>
      </trkpt>
      <trkpt lat="47.2657" lon="-2.44171">
        <ele>14.800000190735</ele>
        <time>2022-03-10T09:45:12.000Z</time>
      </trkpt>
      <trkpt lat="47.26571" lon="-2.44171">
        <ele>14.800000190735</ele>
        <time>2022-03-10T09:45:13.000Z</time>
      </trkpt>
      <trkpt lat="47.26577" lon="-2.44174">
        <ele>14.800000190735</ele>
        <time>2022-03-10T09:45:18.000Z</time>
      </trkpt>
      <trkpt lat="47.26578" lon="-2.44173">
        <ele>14.800000190735</ele>
        <time>2022-03-10T09:45:19.000Z</time>
      </trkpt>
      <trkpt lat="47.26583" lon="-2.44176">
        <ele>14.800000190735</ele>
        <time>2022-03-10T09:45:22.000Z</time>
      </trkpt>
      <trkpt lat="47.26593" lon="-2.44188">
        <ele>14.800000190735</ele>
        <time>2022-03-10T09:45:27.000Z</time>
      </trkpt>
      <trkpt lat="47.26594" lon="-2.44189">
        <ele>14</ele>
        <time>2022-03-10T09:45:30.000Z</time>
      </trkpt>
      <trkpt lat="47.26597" lon="-2.4419">
        <ele>12.800000190735</ele>
        <time>2022-03-10T09:45:51.000Z</time>
      </trkpt>
      <trkpt lat="47.26599" lon="-2.44192">
        <ele>12.800000190735</ele>
        <time>2022-03-10T09:45:52.000Z</time>
      </trkpt>
      <trkpt lat="47.26617" lon="-2.44207">
        <ele>12.800000190735</ele>
        <time>2022-03-10T09:45:58.000Z</time>
      </trkpt>
      <trkpt lat="47.26634" lon="-2.44216">
        <ele>12.800000190735</ele>
        <time>2022-03-10T09:46:03.000Z</time>
      </trkpt>
      <trkpt lat="47.26637" lon="-2.44214">
        <ele>12.800000190735</ele>
        <time>2022-03-10T09:46:04.000Z</time>
      </trkpt>
      <trkpt lat="47.26651" lon="-2.44203">
        <ele>12.800000190735</ele>
        <time>2022-03-10T09:46:08.000Z</time>
      </trkpt>
      <trkpt lat="47.26655" lon="-2.442">
        <ele>12.800000190735</ele>
        <time>2022-03-10T09:46:09.000Z</time>
      </trkpt>
      <trkpt lat="47.26671" lon="-2.4419">
        <ele>12.800000190735</ele>
        <time>2022-03-10T09:46:13.000Z</time>
      </trkpt>
      <trkpt lat="47.26675" lon="-2.44189">
        <ele>12.800000190735</ele>
        <time>2022-03-10T09:46:14.000Z</time>
      </trkpt>
      <trkpt lat="47.26693" lon="-2.44189">
        <ele>12.800000190735</ele>
        <time>2022-03-10T09:46:19.000Z</time>
      </trkpt>
      <trkpt lat="47.26714" lon="-2.44199">
        <ele>12.800000190735</ele>
        <time>2022-03-10T09:46:26.000Z</time>
      </trkpt>
      <trkpt lat="47.26734" lon="-2.4421">
        <ele>12.800000190735</ele>
        <time>2022-03-10T09:46:32.000Z</time>
      </trkpt>
      <trkpt lat="47.26758" lon="-2.44221">
        <ele>12.800000190735</ele>
        <time>2022-03-10T09:46:40.000Z</time>
      </trkpt>
      <trkpt lat="47.26769" lon="-2.44209">
        <ele>12.800000190735</ele>
        <time>2022-03-10T09:46:44.000Z</time>
      </trkpt>
      <trkpt lat="47.26776" lon="-2.44202">
        <ele>12.800000190735</ele>
        <time>2022-03-10T09:46:46.000Z</time>
      </trkpt>
      <trkpt lat="47.26784" lon="-2.44199">
        <ele>12.800000190735</ele>
        <time>2022-03-10T09:46:48.000Z</time>
      </trkpt>
      <trkpt lat="47.26791" lon="-2.44195">
        <ele>12.800000190735</ele>
        <time>2022-03-10T09:46:52.000Z</time>
      </trkpt>
      <trkpt lat="47.26795" lon="-2.44194">
        <ele>12.800000190735</ele>
        <time>2022-03-10T09:46:55.000Z</time>
      </trkpt>
      <trkpt lat="47.26799" lon="-2.44196">
        <ele>12.800000190735</ele>
        <time>2022-03-10T09:46:58.000Z</time>
      </trkpt>
      <trkpt lat="47.26799" lon="-2.44196">
        <ele>12.800000190735</ele>
        <time>2022-03-10T09:46:59.000Z</time>
      </trkpt>
      <trkpt lat="47.26806" lon="-2.44199">
        <ele>12.800000190735</ele>
        <time>2022-03-10T09:47:16.000Z</time>
      </trkpt>
      <trkpt lat="47.26808" lon="-2.44201">
        <ele>12.800000190735</ele>
        <time>2022-03-10T09:47:17.000Z</time>
      </trkpt>
      <trkpt lat="47.26813" lon="-2.44204">
        <ele>12.800000190735</ele>
        <time>2022-03-10T09:47:21.000Z</time>
      </trkpt>
      <trkpt lat="47.26821" lon="-2.44216">
        <ele>12.800000190735</ele>
        <time>2022-03-10T09:47:25.000Z</time>
      </trkpt>
      <trkpt lat="47.26826" lon="-2.44238">
        <ele>12.800000190735</ele>
        <time>2022-03-10T09:47:29.000Z</time>
      </trkpt>
      <trkpt lat="47.26833" lon="-2.44276">
        <ele>12.199999809265</ele>
        <time>2022-03-10T09:47:34.000Z</time>
      </trkpt>
      <trkpt lat="47.26836" lon="-2.44283">
        <ele>11.60000038147</ele>
        <time>2022-03-10T09:47:35.000Z</time>
      </trkpt>
      <trkpt lat="47.2684" lon="-2.44288">
        <ele>11.199999809265</ele>
        <time>2022-03-10T09:47:36.000Z</time>
      </trkpt>
      <trkpt lat="47.26844" lon="-2.44293">
        <ele>10.60000038147</ele>
        <time>2022-03-10T09:47:37.000Z</time>
      </trkpt>
      <trkpt lat="47.26847" lon="-2.44298">
        <ele>10.199999809265</ele>
        <time>2022-03-10T09:47:38.000Z</time>
      </trkpt>
      <trkpt lat="47.26855" lon="-2.44322">
        <ele>10.199999809265</ele>
        <time>2022-03-10T09:47:42.000Z</time>
      </trkpt>
      <trkpt lat="47.26868" lon="-2.44373">
        <ele>10.199999809265</ele>
        <time>2022-03-10T09:47:50.000Z</time>
      </trkpt>
      <trkpt lat="47.26872" lon="-2.44414">
        <ele>10.199999809265</ele>
        <time>2022-03-10T09:47:56.000Z</time>
      </trkpt>
      <trkpt lat="47.26875" lon="-2.4444">
        <ele>10.199999809265</ele>
        <time>2022-03-10T09:48:01.000Z</time>
      </trkpt>
      <trkpt lat="47.26878" lon="-2.44451">
        <ele>9.8000001907349</ele>
        <time>2022-03-10T09:48:04.000Z</time>
      </trkpt>
      <trkpt lat="47.26879" lon="-2.44455">
        <ele>9.3999996185303</ele>
        <time>2022-03-10T09:48:05.000Z</time>
      </trkpt>
      <trkpt lat="47.26881" lon="-2.44458">
        <ele>9</ele>
        <time>2022-03-10T09:48:06.000Z</time>
      </trkpt>
      <trkpt lat="47.26883" lon="-2.44461">
        <ele>8.6000003814697</ele>
        <time>2022-03-10T09:48:07.000Z</time>
      </trkpt>
      <trkpt lat="47.26886" lon="-2.44465">
        <ele>8.1999998092651</ele>
        <time>2022-03-10T09:48:08.000Z</time>
      </trkpt>
      <trkpt lat="47.26894" lon="-2.44471">
        <ele>8.1999998092651</ele>
        <time>2022-03-10T09:48:11.000Z</time>
      </trkpt>
      <trkpt lat="47.26898" lon="-2.44469">
        <ele>8.1999998092651</ele>
        <time>2022-03-10T09:48:12.000Z</time>
      </trkpt>
      <trkpt lat="47.26918" lon="-2.44456">
        <ele>8.1999998092651</ele>
        <time>2022-03-10T09:48:17.000Z</time>
      </trkpt>
      <trkpt lat="47.26927" lon="-2.4445">
        <ele>8.1999998092651</ele>
        <time>2022-03-10T09:48:19.000Z</time>
      </trkpt>
      <trkpt lat="47.26945" lon="-2.44435">
        <ele>8.1999998092651</ele>
        <time>2022-03-10T09:48:23.000Z</time>
      </trkpt>
      <trkpt lat="47.26953" lon="-2.4443">
        <ele>8.1999998092651</ele>
        <time>2022-03-10T09:48:25.000Z</time>
      </trkpt>
      <trkpt lat="47.26962" lon="-2.44433">
        <ele>8.1999998092651</ele>
        <time>2022-03-10T09:48:27.000Z</time>
      </trkpt>
      <trkpt lat="47.26973" lon="-2.44447">
        <ele>8.1999998092651</ele>
        <time>2022-03-10T09:48:31.000Z</time>
      </trkpt>
      <trkpt lat="47.26975" lon="-2.44455">
        <ele>8.1999998092651</ele>
        <time>2022-03-10T09:48:34.000Z</time>
      </trkpt>
      <trkpt lat="47.26986" lon="-2.44469">
        <ele>8.1999998092651</ele>
        <time>2022-03-10T09:48:38.000Z</time>
      </trkpt>
      <trkpt lat="47.2699" lon="-2.44472">
        <ele>8.1999998092651</ele>
        <time>2022-03-10T09:48:39.000Z</time>
      </trkpt>
      <trkpt lat="47.26992" lon="-2.44478">
        <ele>8.1999998092651</ele>
        <time>2022-03-10T09:48:40.000Z</time>
      </trkpt>
      <trkpt lat="47.26995" lon="-2.44488">
        <ele>8.1999998092651</ele>
        <time>2022-03-10T09:48:42.000Z</time>
      </trkpt>
      <trkpt lat="47.27005" lon="-2.44511">
        <ele>8.1999998092651</ele>
        <time>2022-03-10T09:48:47.000Z</time>
      </trkpt>
      <trkpt lat="47.27007" lon="-2.44517">
        <ele>8.1999998092651</ele>
        <time>2022-03-10T09:48:48.000Z</time>
      </trkpt>
      <trkpt lat="47.27014" lon="-2.44543">
        <ele>8.1999998092651</ele>
        <time>2022-03-10T09:48:52.000Z</time>
      </trkpt>
      <trkpt lat="47.27022" lon="-2.44589">
        <ele>8.1999998092651</ele>
        <time>2022-03-10T09:48:58.000Z</time>
      </trkpt>
      <trkpt lat="47.27033" lon="-2.44652">
        <ele>8.1999998092651</ele>
        <time>2022-03-10T09:49:06.000Z</time>
      </trkpt>
      <trkpt lat="47.27043" lon="-2.44709">
        <ele>8.1999998092651</ele>
        <time>2022-03-10T09:49:13.000Z</time>
      </trkpt>
      <trkpt lat="47.27053" lon="-2.44767">
        <ele>8.1999998092651</ele>
        <time>2022-03-10T09:49:20.000Z</time>
      </trkpt>
      <trkpt lat="47.27058" lon="-2.44843">
        <ele>8.1999998092651</ele>
        <time>2022-03-10T09:49:28.000Z</time>
      </trkpt>
      <trkpt lat="47.27061" lon="-2.44917">
        <ele>8.1999998092651</ele>
        <time>2022-03-10T09:49:36.000Z</time>
      </trkpt>
      <trkpt lat="47.27062" lon="-2.44976">
        <ele>8.1999998092651</ele>
        <time>2022-03-10T09:49:43.000Z</time>
      </trkpt>
      <trkpt lat="47.2705" lon="-2.44997">
        <ele>8.1999998092651</ele>
        <time>2022-03-10T09:49:47.000Z</time>
      </trkpt>
      <trkpt lat="47.27031" lon="-2.45004">
        <ele>8.1999998092651</ele>
        <time>2022-03-10T09:49:51.000Z</time>
      </trkpt>
      <trkpt lat="47.27025" lon="-2.45004">
        <ele>8.1999998092651</ele>
        <time>2022-03-10T09:49:52.000Z</time>
      </trkpt>
      <trkpt lat="47.27003" lon="-2.45009">
        <ele>8.1999998092651</ele>
        <time>2022-03-10T09:49:56.000Z</time>
      </trkpt>
      <trkpt lat="47.26998" lon="-2.4501">
        <ele>8.1999998092651</ele>
        <time>2022-03-10T09:49:57.000Z</time>
      </trkpt>
      <trkpt lat="47.26969" lon="-2.45012">
        <ele>8.1999998092651</ele>
        <time>2022-03-10T09:50:02.000Z</time>
      </trkpt>
      <trkpt lat="47.26964" lon="-2.45019">
        <ele>8.1999998092651</ele>
        <time>2022-03-10T09:50:04.000Z</time>
      </trkpt>
      <trkpt lat="47.26964" lon="-2.45024">
        <ele>8.1999998092651</ele>
        <time>2022-03-10T09:50:05.000Z</time>
      </trkpt>
      <trkpt lat="47.26964" lon="-2.4505">
        <ele>8.1999998092651</ele>
        <time>2022-03-10T09:50:10.000Z</time>
      </trkpt>
      <trkpt lat="47.26965" lon="-2.45075">
        <ele>8.1999998092651</ele>
        <time>2022-03-10T09:50:16.000Z</time>
      </trkpt>
      <trkpt lat="47.26969" lon="-2.45091">
        <ele>8.1999998092651</ele>
        <time>2022-03-10T09:50:21.000Z</time>
      </trkpt>
      <trkpt lat="47.26971" lon="-2.45117">
        <ele>8.1999998092651</ele>
        <time>2022-03-10T09:50:26.000Z</time>
      </trkpt>
      <trkpt lat="47.26972" lon="-2.45148">
        <ele>8.1999998092651</ele>
        <time>2022-03-10T09:50:32.000Z</time>
      </trkpt>
      <trkpt lat="47.26973" lon="-2.45172">
        <ele>8.1999998092651</ele>
        <time>2022-03-10T09:50:36.000Z</time>
      </trkpt>
      <trkpt lat="47.26974" lon="-2.45183">
        <ele>8.1999998092651</ele>
        <time>2022-03-10T09:50:38.000Z</time>
      </trkpt>
      <trkpt lat="47.26977" lon="-2.45217">
        <ele>8.1999998092651</ele>
        <time>2022-03-10T09:50:44.000Z</time>
      </trkpt>
      <trkpt lat="47.26978" lon="-2.45245">
        <ele>8.1999998092651</ele>
        <time>2022-03-10T09:50:50.000Z</time>
      </trkpt>
      <trkpt lat="47.26977" lon="-2.45275">
        <ele>8.1999998092651</ele>
        <time>2022-03-10T09:50:55.000Z</time>
      </trkpt>
      <trkpt lat="47.26975" lon="-2.45322">
        <ele>8.1999998092651</ele>
        <time>2022-03-10T09:51:03.000Z</time>
      </trkpt>
      <trkpt lat="47.26981" lon="-2.45338">
        <ele>8.1999998092651</ele>
        <time>2022-03-10T09:51:08.000Z</time>
      </trkpt>
      <trkpt lat="47.26984" lon="-2.45338">
        <ele>8.1999998092651</ele>
        <time>2022-03-10T09:51:09.000Z</time>
      </trkpt>
      <trkpt lat="47.27004" lon="-2.45336">
        <ele>8.1999998092651</ele>
        <time>2022-03-10T09:51:14.000Z</time>
      </trkpt>
      <trkpt lat="47.27034" lon="-2.45332">
        <ele>8.1999998092651</ele>
        <time>2022-03-10T09:51:21.000Z</time>
      </trkpt>
      <trkpt lat="47.27058" lon="-2.4533">
        <ele>8.1999998092651</ele>
        <time>2022-03-10T09:51:27.000Z</time>
      </trkpt>
      <trkpt lat="47.27064" lon="-2.45332">
        <ele>8.1999998092651</ele>
        <time>2022-03-10T09:51:29.000Z</time>
      </trkpt>
      <trkpt lat="47.27068" lon="-2.45343">
        <ele>8.1999998092651</ele>
        <time>2022-03-10T09:51:31.000Z</time>
      </trkpt>
      <trkpt lat="47.27069" lon="-2.45362">
        <ele>8.1999998092651</ele>
        <time>2022-03-10T09:51:34.000Z</time>
      </trkpt>
      <trkpt lat="47.27069" lon="-2.45369">
        <ele>8.1999998092651</ele>
        <time>2022-03-10T09:51:35.000Z</time>
      </trkpt>
      <trkpt lat="47.2707" lon="-2.45411">
        <ele>8.1999998092651</ele>
        <time>2022-03-10T09:51:41.000Z</time>
      </trkpt>
      <trkpt lat="47.2707" lon="-2.45418">
        <ele>8.1999998092651</ele>
        <time>2022-03-10T09:51:42.000Z</time>
      </trkpt>
      <trkpt lat="47.27066" lon="-2.45455">
        <ele>8.1999998092651</ele>
        <time>2022-03-10T09:51:47.000Z</time>
      </trkpt>
      <trkpt lat="47.27057" lon="-2.455">
        <ele>8.1999998092651</ele>
        <time>2022-03-10T09:51:53.000Z</time>
      </trkpt>
      <trkpt lat="47.27056" lon="-2.45541">
        <ele>8.1999998092651</ele>
        <time>2022-03-10T09:51:59.000Z</time>
      </trkpt>
      <trkpt lat="47.27057" lon="-2.45554">
        <ele>8.1999998092651</ele>
        <time>2022-03-10T09:52:01.000Z</time>
      </trkpt>
      <trkpt lat="47.27061" lon="-2.45582">
        <ele>8.1999998092651</ele>
        <time>2022-03-10T09:52:05.000Z</time>
      </trkpt>
      <trkpt lat="47.27065" lon="-2.45604">
        <ele>8.1999998092651</ele>
        <time>2022-03-10T09:52:08.000Z</time>
      </trkpt>
      <trkpt lat="47.27066" lon="-2.45618">
        <ele>8.1999998092651</ele>
        <time>2022-03-10T09:52:10.000Z</time>
      </trkpt>
      <trkpt lat="47.27071" lon="-2.45652">
        <ele>8.1999998092651</ele>
        <time>2022-03-10T09:52:15.000Z</time>
      </trkpt>
      <trkpt lat="47.27075" lon="-2.45672">
        <ele>8.1999998092651</ele>
        <time>2022-03-10T09:52:18.000Z</time>
      </trkpt>
      <trkpt lat="47.27078" lon="-2.45691">
        <ele>8.1999998092651</ele>
        <time>2022-03-10T09:52:21.000Z</time>
      </trkpt>
      <trkpt lat="47.27085" lon="-2.45715">
        <ele>8.1999998092651</ele>
        <time>2022-03-10T09:52:25.000Z</time>
      </trkpt>
      <trkpt lat="47.27092" lon="-2.45739">
        <ele>8.1999998092651</ele>
        <time>2022-03-10T09:52:30.000Z</time>
      </trkpt>
      <trkpt lat="47.27095" lon="-2.45742">
        <ele>8.1999998092651</ele>
        <time>2022-03-10T09:52:31.000Z</time>
      </trkpt>
      <trkpt lat="47.27101" lon="-2.45739">
        <ele>8.1999998092651</ele>
        <time>2022-03-10T09:52:33.000Z</time>
      </trkpt>
      <trkpt lat="47.27126" lon="-2.45729">
        <ele>8.1999998092651</ele>
        <time>2022-03-10T09:52:39.000Z</time>
      </trkpt>
      <trkpt lat="47.27141" lon="-2.45722">
        <ele>7.8000001907349</ele>
        <time>2022-03-10T09:52:43.000Z</time>
      </trkpt>
      <trkpt lat="47.27145" lon="-2.45721">
        <ele>7.1999998092651</ele>
        <time>2022-03-10T09:52:44.000Z</time>
      </trkpt>
      <trkpt lat="47.27149" lon="-2.45719">
        <ele>6.8000001907349</ele>
        <time>2022-03-10T09:52:45.000Z</time>
      </trkpt>
      <trkpt lat="47.27154" lon="-2.45718">
        <ele>6.4000000953674</ele>
        <time>2022-03-10T09:52:46.000Z</time>
      </trkpt>
      <trkpt lat="47.27158" lon="-2.45716">
        <ele>6</ele>
        <time>2022-03-10T09:52:47.000Z</time>
      </trkpt>
      <trkpt lat="47.27171" lon="-2.45711">
        <ele>6</ele>
        <time>2022-03-10T09:52:50.000Z</time>
      </trkpt>
      <trkpt lat="47.27176" lon="-2.45711">
        <ele>6</ele>
        <time>2022-03-10T09:52:51.000Z</time>
      </trkpt>
      <trkpt lat="47.27212" lon="-2.45703">
        <ele>6</ele>
        <time>2022-03-10T09:52:58.000Z</time>
      </trkpt>
      <trkpt lat="47.27217" lon="-2.457">
        <ele>6</ele>
        <time>2022-03-10T09:52:59.000Z</time>
      </trkpt>
      <trkpt lat="47.27226" lon="-2.45695">
        <ele>6</ele>
        <time>2022-03-10T09:53:01.000Z</time>
      </trkpt>
      <trkpt lat="47.27234" lon="-2.45687">
        <ele>6</ele>
        <time>2022-03-10T09:53:03.000Z</time>
      </trkpt>
      <trkpt lat="47.27243" lon="-2.4568">
        <ele>6</ele>
        <time>2022-03-10T09:53:05.000Z</time>
      </trkpt>
      <trkpt lat="47.27259" lon="-2.4567">
        <ele>6</ele>
        <time>2022-03-10T09:53:09.000Z</time>
      </trkpt>
      <trkpt lat="47.27286" lon="-2.45656">
        <ele>6</ele>
        <time>2022-03-10T09:53:16.000Z</time>
      </trkpt>
      <trkpt lat="47.27294" lon="-2.4565">
        <ele>6</ele>
        <time>2022-03-10T09:53:18.000Z</time>
      </trkpt>
      <trkpt lat="47.27306" lon="-2.45642">
        <ele>6</ele>
        <time>2022-03-10T09:53:21.000Z</time>
      </trkpt>
      <trkpt lat="47.27326" lon="-2.45639">
        <ele>6</ele>
        <time>2022-03-10T09:53:26.000Z</time>
      </trkpt>
      <trkpt lat="47.2733" lon="-2.45651">
        <ele>6</ele>
        <time>2022-03-10T09:53:28.000Z</time>
      </trkpt>
      <trkpt lat="47.27345" lon="-2.457">
        <ele>6</ele>
        <time>2022-03-10T09:53:36.000Z</time>
      </trkpt>
      <trkpt lat="47.27359" lon="-2.45737">
        <ele>5.5999999046326</ele>
        <time>2022-03-10T09:53:42.000Z</time>
      </trkpt>
      <trkpt lat="47.27362" lon="-2.45742">
        <ele>5.1999998092651</ele>
        <time>2022-03-10T09:53:43.000Z</time>
      </trkpt>
      <trkpt lat="47.27364" lon="-2.45748">
        <ele>4.8000001907349</ele>
        <time>2022-03-10T09:53:44.000Z</time>
      </trkpt>
      <trkpt lat="47.27366" lon="-2.45753">
        <ele>4</ele>
        <time>2022-03-10T09:53:45.000Z</time>
      </trkpt>
      <trkpt lat="47.2737" lon="-2.45768">
        <ele>4</ele>
        <time>2022-03-10T09:53:48.000Z</time>
      </trkpt>
      <trkpt lat="47.27373" lon="-2.45773">
        <ele>4</ele>
        <time>2022-03-10T09:53:50.000Z</time>
      </trkpt>
      <trkpt lat="47.27377" lon="-2.45774">
        <ele>4</ele>
        <time>2022-03-10T09:53:52.000Z</time>
      </trkpt>
      <trkpt lat="47.27398" lon="-2.4577">
        <ele>4</ele>
        <time>2022-03-10T09:53:58.000Z</time>
      </trkpt>
      <trkpt lat="47.27427" lon="-2.45767">
        <ele>4</ele>
        <time>2022-03-10T09:54:06.000Z</time>
      </trkpt>
      <trkpt lat="47.27452" lon="-2.45761">
        <ele>4</ele>
        <time>2022-03-10T09:54:12.000Z</time>
      </trkpt>
      <trkpt lat="47.27465" lon="-2.45757">
        <ele>4</ele>
        <time>2022-03-10T09:54:15.000Z</time>
      </trkpt>
      <trkpt lat="47.27505" lon="-2.45744">
        <ele>4</ele>
        <time>2022-03-10T09:54:24.000Z</time>
      </trkpt>
      <trkpt lat="47.27541" lon="-2.45731">
        <ele>4</ele>
        <time>2022-03-10T09:54:32.000Z</time>
      </trkpt>
      <trkpt lat="47.2758" lon="-2.45719">
        <ele>4</ele>
        <time>2022-03-10T09:54:41.000Z</time>
      </trkpt>
      <trkpt lat="47.27596" lon="-2.45713">
        <ele>4</ele>
        <time>2022-03-10T09:54:45.000Z</time>
      </trkpt>
      <trkpt lat="47.27604" lon="-2.4571">
        <ele>4</ele>
        <time>2022-03-10T09:54:47.000Z</time>
      </trkpt>
      <trkpt lat="47.27609" lon="-2.45709">
        <ele>4</ele>
        <time>2022-03-10T09:54:48.000Z</time>
      </trkpt>
      <trkpt lat="47.27627" lon="-2.45707">
        <ele>4</ele>
        <time>2022-03-10T09:54:53.000Z</time>
      </trkpt>
      <trkpt lat="47.27632" lon="-2.45722">
        <ele>4</ele>
        <time>2022-03-10T09:54:56.000Z</time>
      </trkpt>
      <trkpt lat="47.27634" lon="-2.45729">
        <ele>4</ele>
        <time>2022-03-10T09:54:57.000Z</time>
      </trkpt>
      <trkpt lat="47.27637" lon="-2.45753">
        <ele>4</ele>
        <time>2022-03-10T09:55:00.000Z</time>
      </trkpt>
      <trkpt lat="47.27638" lon="-2.45762">
        <ele>4</ele>
        <time>2022-03-10T09:55:01.000Z</time>
      </trkpt>
      <trkpt lat="47.27639" lon="-2.45771">
        <ele>4</ele>
        <time>2022-03-10T09:55:02.000Z</time>
      </trkpt>
      <trkpt lat="47.27642" lon="-2.45798">
        <ele>4</ele>
        <time>2022-03-10T09:55:05.000Z</time>
      </trkpt>
      <trkpt lat="47.27642" lon="-2.45824">
        <ele>4</ele>
        <time>2022-03-10T09:55:08.000Z</time>
      </trkpt>
      <trkpt lat="47.27641" lon="-2.45849">
        <ele>4</ele>
        <time>2022-03-10T09:55:11.000Z</time>
      </trkpt>
      <trkpt lat="47.27639" lon="-2.45908">
        <ele>4</ele>
        <time>2022-03-10T09:55:18.000Z</time>
      </trkpt>
      <trkpt lat="47.27638" lon="-2.45916">
        <ele>4</ele>
        <time>2022-03-10T09:55:19.000Z</time>
      </trkpt>
      <trkpt lat="47.27638" lon="-2.45925">
        <ele>3.5999999046326</ele>
        <time>2022-03-10T09:55:20.000Z</time>
      </trkpt>
      <trkpt lat="47.27639" lon="-2.45933">
        <ele>3.2000000476837</ele>
        <time>2022-03-10T09:55:21.000Z</time>
      </trkpt>
      <trkpt lat="47.27639" lon="-2.45941">
        <ele>2.7999999523163</ele>
        <time>2022-03-10T09:55:22.000Z</time>
      </trkpt>
      <trkpt lat="47.27639" lon="-2.45949">
        <ele>2.4000000953674</ele>
        <time>2022-03-10T09:55:23.000Z</time>
      </trkpt>
      <trkpt lat="47.27638" lon="-2.45958">
        <ele>1.7999999523163</ele>
        <time>2022-03-10T09:55:24.000Z</time>
      </trkpt>
      <trkpt lat="47.27638" lon="-2.45966">
        <ele>1.7999999523163</ele>
        <time>2022-03-10T09:55:25.000Z</time>
      </trkpt>
      <trkpt lat="47.2764" lon="-2.46">
        <ele>1.7999999523163</ele>
        <time>2022-03-10T09:55:29.000Z</time>
      </trkpt>
      <trkpt lat="47.27642" lon="-2.46016">
        <ele>1.7999999523163</ele>
        <time>2022-03-10T09:55:31.000Z</time>
      </trkpt>
      <trkpt lat="47.27647" lon="-2.46039">
        <ele>1.7999999523163</ele>
        <time>2022-03-10T09:55:34.000Z</time>
      </trkpt>
      <trkpt lat="47.27653" lon="-2.46073">
        <ele>1.7999999523163</ele>
        <time>2022-03-10T09:55:38.000Z</time>
      </trkpt>
      <trkpt lat="47.27655" lon="-2.46089">
        <ele>1.7999999523163</ele>
        <time>2022-03-10T09:55:40.000Z</time>
      </trkpt>
      <trkpt lat="47.27658" lon="-2.46103">
        <ele>1.7999999523163</ele>
        <time>2022-03-10T09:55:42.000Z</time>
      </trkpt>
      <trkpt lat="47.27662" lon="-2.46124">
        <ele>1.7999999523163</ele>
        <time>2022-03-10T09:55:45.000Z</time>
      </trkpt>
      <trkpt lat="47.27668" lon="-2.4616">
        <ele>1.7999999523163</ele>
        <time>2022-03-10T09:55:51.000Z</time>
      </trkpt>
      <trkpt lat="47.27669" lon="-2.46202">
        <ele>1.7999999523163</ele>
        <time>2022-03-10T09:55:57.000Z</time>
      </trkpt>
      <trkpt lat="47.27673" lon="-2.46245">
        <ele>2.2000000476837</ele>
        <time>2022-03-10T09:56:03.000Z</time>
      </trkpt>
      <trkpt lat="47.27673" lon="-2.46252">
        <ele>2.5999999046326</ele>
        <time>2022-03-10T09:56:04.000Z</time>
      </trkpt>
      <trkpt lat="47.27672" lon="-2.46259">
        <ele>3.2000000476837</ele>
        <time>2022-03-10T09:56:05.000Z</time>
      </trkpt>
      <trkpt lat="47.27669" lon="-2.46265">
        <ele>3.5999999046326</ele>
        <time>2022-03-10T09:56:06.000Z</time>
      </trkpt>
      <trkpt lat="47.27666" lon="-2.46269">
        <ele>4</ele>
        <time>2022-03-10T09:56:07.000Z</time>
      </trkpt>
      <trkpt lat="47.27663" lon="-2.46274">
        <ele>4</ele>
        <time>2022-03-10T09:56:08.000Z</time>
      </trkpt>
      <trkpt lat="47.2766" lon="-2.46278">
        <ele>4</ele>
        <time>2022-03-10T09:56:09.000Z</time>
      </trkpt>
      <trkpt lat="47.27659" lon="-2.46289">
        <ele>4</ele>
        <time>2022-03-10T09:56:11.000Z</time>
      </trkpt>
      <trkpt lat="47.27665" lon="-2.463">
        <ele>4</ele>
        <time>2022-03-10T09:56:13.000Z</time>
      </trkpt>
      <trkpt lat="47.2767" lon="-2.46312">
        <ele>4</ele>
        <time>2022-03-10T09:56:15.000Z</time>
      </trkpt>
      <trkpt lat="47.27675" lon="-2.46342">
        <ele>4</ele>
        <time>2022-03-10T09:56:19.000Z</time>
      </trkpt>
      <trkpt lat="47.27684" lon="-2.46374">
        <ele>4</ele>
        <time>2022-03-10T09:56:23.000Z</time>
      </trkpt>
      <trkpt lat="47.2769" lon="-2.4639">
        <ele>4</ele>
        <time>2022-03-10T09:56:25.000Z</time>
      </trkpt>
      <trkpt lat="47.27702" lon="-2.46423">
        <ele>4</ele>
        <time>2022-03-10T09:56:29.000Z</time>
      </trkpt>
      <trkpt lat="47.27724" lon="-2.46469">
        <ele>4</ele>
        <time>2022-03-10T09:56:35.000Z</time>
      </trkpt>
      <trkpt lat="47.27737" lon="-2.46521">
        <ele>4</ele>
        <time>2022-03-10T09:56:41.000Z</time>
      </trkpt>
      <trkpt lat="47.27753" lon="-2.46578">
        <ele>4</ele>
        <time>2022-03-10T09:56:48.000Z</time>
      </trkpt>
      <trkpt lat="47.27764" lon="-2.46603">
        <ele>4</ele>
        <time>2022-03-10T09:56:52.000Z</time>
      </trkpt>
      <trkpt lat="47.2776" lon="-2.46621">
        <ele>4</ele>
        <time>2022-03-10T09:56:55.000Z</time>
      </trkpt>
      <trkpt lat="47.2776" lon="-2.46637">
        <ele>4</ele>
        <time>2022-03-10T09:56:58.000Z</time>
      </trkpt>
      <trkpt lat="47.27762" lon="-2.46643">
        <ele>4</ele>
        <time>2022-03-10T09:56:59.000Z</time>
      </trkpt>
      <trkpt lat="47.27761" lon="-2.46665">
        <ele>4</ele>
        <time>2022-03-10T09:57:02.000Z</time>
      </trkpt>
      <trkpt lat="47.27761" lon="-2.46682">
        <ele>4</ele>
        <time>2022-03-10T09:57:04.000Z</time>
      </trkpt>
      <trkpt lat="47.2776" lon="-2.46691">
        <ele>4</ele>
        <time>2022-03-10T09:57:05.000Z</time>
      </trkpt>
      <trkpt lat="47.27759" lon="-2.467">
        <ele>4</ele>
        <time>2022-03-10T09:57:06.000Z</time>
      </trkpt>
      <trkpt lat="47.27757" lon="-2.46717">
        <ele>4</ele>
        <time>2022-03-10T09:57:08.000Z</time>
      </trkpt>
      <trkpt lat="47.27758" lon="-2.46732">
        <ele>4</ele>
        <time>2022-03-10T09:57:10.000Z</time>
      </trkpt>
      <trkpt lat="47.2776" lon="-2.4674">
        <ele>3.5999999046326</ele>
        <time>2022-03-10T09:57:11.000Z</time>
      </trkpt>
      <trkpt lat="47.27762" lon="-2.46748">
        <ele>3.2000000476837</ele>
        <time>2022-03-10T09:57:12.000Z</time>
      </trkpt>
      <trkpt lat="47.27763" lon="-2.46755">
        <ele>2.5999999046326</ele>
        <time>2022-03-10T09:57:13.000Z</time>
      </trkpt>
      <trkpt lat="47.27766" lon="-2.46763">
        <ele>2.2000000476837</ele>
        <time>2022-03-10T09:57:14.000Z</time>
      </trkpt>
      <trkpt lat="47.27768" lon="-2.46771">
        <ele>1.7999999523163</ele>
        <time>2022-03-10T09:57:15.000Z</time>
      </trkpt>
      <trkpt lat="47.27776" lon="-2.46806">
        <ele>1.7999999523163</ele>
        <time>2022-03-10T09:57:20.000Z</time>
      </trkpt>
      <trkpt lat="47.27782" lon="-2.46825">
        <ele>1.7999999523163</ele>
        <time>2022-03-10T09:57:23.000Z</time>
      </trkpt>
      <trkpt lat="47.27783" lon="-2.46838">
        <ele>1.7999999523163</ele>
        <time>2022-03-10T09:57:25.000Z</time>
      </trkpt>
      <trkpt lat="47.27784" lon="-2.46851">
        <ele>1.7999999523163</ele>
        <time>2022-03-10T09:57:27.000Z</time>
      </trkpt>
      <trkpt lat="47.27782" lon="-2.46877">
        <ele>1.7999999523163</ele>
        <time>2022-03-10T09:57:31.000Z</time>
      </trkpt>
      <trkpt lat="47.27781" lon="-2.46884">
        <ele>1.7999999523163</ele>
        <time>2022-03-10T09:57:32.000Z</time>
      </trkpt>
      <trkpt lat="47.27774" lon="-2.46901">
        <ele>1.7999999523163</ele>
        <time>2022-03-10T09:57:35.000Z</time>
      </trkpt>
      <trkpt lat="47.2777" lon="-2.46912">
        <ele>1.7999999523163</ele>
        <time>2022-03-10T09:57:37.000Z</time>
      </trkpt>
      <trkpt lat="47.27767" lon="-2.46932">
        <ele>1.7999999523163</ele>
        <time>2022-03-10T09:57:41.000Z</time>
      </trkpt>
      <trkpt lat="47.27753" lon="-2.46933">
        <ele>1.7999999523163</ele>
        <time>2022-03-10T09:57:45.000Z</time>
      </trkpt>
      <trkpt lat="47.27749" lon="-2.46934">
        <ele>1.7999999523163</ele>
        <time>2022-03-10T09:57:46.000Z</time>
      </trkpt>
      <trkpt lat="47.27731" lon="-2.46935">
        <ele>1.7999999523163</ele>
        <time>2022-03-10T09:57:50.000Z</time>
      </trkpt>
      <trkpt lat="47.2771" lon="-2.46937">
        <ele>1.7999999523163</ele>
        <time>2022-03-10T09:57:55.000Z</time>
      </trkpt>
      <trkpt lat="47.27706" lon="-2.46936">
        <ele>2.4000000953674</ele>
        <time>2022-03-10T09:57:56.000Z</time>
      </trkpt>
      <trkpt lat="47.27702" lon="-2.46935">
        <ele>2.7999999523163</ele>
        <time>2022-03-10T09:57:57.000Z</time>
      </trkpt>
      <trkpt lat="47.27697" lon="-2.46934">
        <ele>3.2000000476837</ele>
        <time>2022-03-10T09:57:58.000Z</time>
      </trkpt>
      <trkpt lat="47.27692" lon="-2.46932">
        <ele>3.5999999046326</ele>
        <time>2022-03-10T09:57:59.000Z</time>
      </trkpt>
      <trkpt lat="47.27687" lon="-2.4693">
        <ele>4</ele>
        <time>2022-03-10T09:58:00.000Z</time>
      </trkpt>
      <trkpt lat="47.27676" lon="-2.46929">
        <ele>4</ele>
        <time>2022-03-10T09:58:02.000Z</time>
      </trkpt>
      <trkpt lat="47.27667" lon="-2.46932">
        <ele>4</ele>
        <time>2022-03-10T09:58:04.000Z</time>
      </trkpt>
      <trkpt lat="47.27656" lon="-2.46944">
        <ele>4</ele>
        <time>2022-03-10T09:58:07.000Z</time>
      </trkpt>
      <trkpt lat="47.27655" lon="-2.46952">
        <ele>4</ele>
        <time>2022-03-10T09:58:08.000Z</time>
      </trkpt>
      <trkpt lat="47.27656" lon="-2.46977">
        <ele>4</ele>
        <time>2022-03-10T09:58:11.000Z</time>
      </trkpt>
      <trkpt lat="47.27656" lon="-2.46983">
        <ele>4</ele>
        <time>2022-03-10T09:58:12.000Z</time>
      </trkpt>
      <trkpt lat="47.27654" lon="-2.46987">
        <ele>4</ele>
        <time>2022-03-10T09:58:13.000Z</time>
      </trkpt>
      <trkpt lat="47.27651" lon="-2.46989">
        <ele>4</ele>
        <time>2022-03-10T09:58:14.000Z</time>
      </trkpt>
      <trkpt lat="47.27635" lon="-2.46986">
        <ele>4</ele>
        <time>2022-03-10T09:58:18.000Z</time>
      </trkpt>
      <trkpt lat="47.2763" lon="-2.46986">
        <ele>4</ele>
        <time>2022-03-10T09:58:19.000Z</time>
      </trkpt>
      <trkpt lat="47.27616" lon="-2.46987">
        <ele>4.4000000953674</ele>
        <time>2022-03-10T09:58:23.000Z</time>
      </trkpt>
      <trkpt lat="47.27613" lon="-2.46988">
        <ele>4.8000001907349</ele>
        <time>2022-03-10T09:58:24.000Z</time>
      </trkpt>
      <trkpt lat="47.2761" lon="-2.46988">
        <ele>5.1999998092651</ele>
        <time>2022-03-10T09:58:25.000Z</time>
      </trkpt>
      <trkpt lat="47.27606" lon="-2.46989">
        <ele>5.8000001907349</ele>
        <time>2022-03-10T09:58:26.000Z</time>
      </trkpt>
      <trkpt lat="47.27603" lon="-2.46989">
        <ele>6.1999998092651</ele>
        <time>2022-03-10T09:58:27.000Z</time>
      </trkpt>
      <trkpt lat="47.27588" lon="-2.46989">
        <ele>6.1999998092651</ele>
        <time>2022-03-10T09:58:31.000Z</time>
      </trkpt>
      <trkpt lat="47.27584" lon="-2.46987">
        <ele>6.5999999046326</ele>
        <time>2022-03-10T09:58:32.000Z</time>
      </trkpt>
      <trkpt lat="47.27579" lon="-2.46986">
        <ele>7</ele>
        <time>2022-03-10T09:58:33.000Z</time>
      </trkpt>
      <trkpt lat="47.27574" lon="-2.46983">
        <ele>7.4000000953674</ele>
        <time>2022-03-10T09:58:34.000Z</time>
      </trkpt>
      <trkpt lat="47.27569" lon="-2.4698">
        <ele>7.8000001907349</ele>
        <time>2022-03-10T09:58:35.000Z</time>
      </trkpt>
      <trkpt lat="47.27564" lon="-2.46978">
        <ele>8.1999998092651</ele>
        <time>2022-03-10T09:58:36.000Z</time>
      </trkpt>
      <trkpt lat="47.27549" lon="-2.46985">
        <ele>8.1999998092651</ele>
        <time>2022-03-10T09:58:39.000Z</time>
      </trkpt>
      <trkpt lat="47.27538" lon="-2.47002">
        <ele>8.1999998092651</ele>
        <time>2022-03-10T09:58:42.000Z</time>
      </trkpt>
      <trkpt lat="47.27532" lon="-2.47014">
        <ele>8.1999998092651</ele>
        <time>2022-03-10T09:58:44.000Z</time>
      </trkpt>
      <trkpt lat="47.27509" lon="-2.47046">
        <ele>8.1999998092651</ele>
        <time>2022-03-10T09:58:50.000Z</time>
      </trkpt>
      <trkpt lat="47.27505" lon="-2.47051">
        <ele>8.1999998092651</ele>
        <time>2022-03-10T09:58:51.000Z</time>
      </trkpt>
      <trkpt lat="47.27493" lon="-2.47064">
        <ele>8.1999998092651</ele>
        <time>2022-03-10T09:58:54.000Z</time>
      </trkpt>
      <trkpt lat="47.27489" lon="-2.47068">
        <ele>8.1999998092651</ele>
        <time>2022-03-10T09:58:55.000Z</time>
      </trkpt>
      <trkpt lat="47.27482" lon="-2.47077">
        <ele>8.1999998092651</ele>
        <time>2022-03-10T09:58:57.000Z</time>
      </trkpt>
      <trkpt lat="47.27478" lon="-2.4709">
        <ele>8.1999998092651</ele>
        <time>2022-03-10T09:58:59.000Z</time>
      </trkpt>
      <trkpt lat="47.27482" lon="-2.47112">
        <ele>8.1999998092651</ele>
        <time>2022-03-10T09:59:02.000Z</time>
      </trkpt>
      <trkpt lat="47.27484" lon="-2.4712">
        <ele>8.1999998092651</ele>
        <time>2022-03-10T09:59:03.000Z</time>
      </trkpt>
      <trkpt lat="47.27503" lon="-2.47176">
        <ele>8.1999998092651</ele>
        <time>2022-03-10T09:59:10.000Z</time>
      </trkpt>
      <trkpt lat="47.27504" lon="-2.47183">
        <ele>7.5999999046326</ele>
        <time>2022-03-10T09:59:11.000Z</time>
      </trkpt>
      <trkpt lat="47.27503" lon="-2.4719">
        <ele>7.1999998092651</ele>
        <time>2022-03-10T09:59:12.000Z</time>
      </trkpt>
      <trkpt lat="47.275" lon="-2.47195">
        <ele>6.8000001907349</ele>
        <time>2022-03-10T09:59:13.000Z</time>
      </trkpt>
      <trkpt lat="47.27496" lon="-2.47198">
        <ele>6.1999998092651</ele>
        <time>2022-03-10T09:59:14.000Z</time>
      </trkpt>
      <trkpt lat="47.27491" lon="-2.47201">
        <ele>5.8000001907349</ele>
        <time>2022-03-10T09:59:15.000Z</time>
      </trkpt>
      <trkpt lat="47.27486" lon="-2.47203">
        <ele>5.8000001907349</ele>
        <time>2022-03-10T09:59:16.000Z</time>
      </trkpt>
      <trkpt lat="47.2748" lon="-2.47205">
        <ele>5.8000001907349</ele>
        <time>2022-03-10T09:59:17.000Z</time>
      </trkpt>
      <trkpt lat="47.27475" lon="-2.47207">
        <ele>5.8000001907349</ele>
        <time>2022-03-10T09:59:18.000Z</time>
      </trkpt>
      <trkpt lat="47.2745" lon="-2.47225">
        <ele>5.8000001907349</ele>
        <time>2022-03-10T09:59:23.000Z</time>
      </trkpt>
      <trkpt lat="47.27421" lon="-2.47243">
        <ele>5.8000001907349</ele>
        <time>2022-03-10T09:59:29.000Z</time>
      </trkpt>
      <trkpt lat="47.27411" lon="-2.47247">
        <ele>6.1999998092651</ele>
        <time>2022-03-10T09:59:31.000Z</time>
      </trkpt>
      <trkpt lat="47.27406" lon="-2.4725">
        <ele>6.5999999046326</ele>
        <time>2022-03-10T09:59:32.000Z</time>
      </trkpt>
      <trkpt lat="47.27401" lon="-2.47253">
        <ele>7</ele>
        <time>2022-03-10T09:59:33.000Z</time>
      </trkpt>
      <trkpt lat="47.27396" lon="-2.47257">
        <ele>7.4000000953674</ele>
        <time>2022-03-10T09:59:34.000Z</time>
      </trkpt>
      <trkpt lat="47.27392" lon="-2.47261">
        <ele>7.8000001907349</ele>
        <time>2022-03-10T09:59:35.000Z</time>
      </trkpt>
      <trkpt lat="47.27371" lon="-2.47281">
        <ele>7.8000001907349</ele>
        <time>2022-03-10T09:59:40.000Z</time>
      </trkpt>
      <trkpt lat="47.27366" lon="-2.47285">
        <ele>7.8000001907349</ele>
        <time>2022-03-10T09:59:41.000Z</time>
      </trkpt>
      <trkpt lat="47.27345" lon="-2.47298">
        <ele>7.8000001907349</ele>
        <time>2022-03-10T09:59:46.000Z</time>
      </trkpt>
      <trkpt lat="47.27341" lon="-2.47299">
        <ele>7.8000001907349</ele>
        <time>2022-03-10T09:59:47.000Z</time>
      </trkpt>
      <trkpt lat="47.27328" lon="-2.47302">
        <ele>8.1999998092651</ele>
        <time>2022-03-10T09:59:50.000Z</time>
      </trkpt>
      <trkpt lat="47.27325" lon="-2.47304">
        <ele>8.6000003814697</ele>
        <time>2022-03-10T09:59:51.000Z</time>
      </trkpt>
      <trkpt lat="47.27322" lon="-2.47308">
        <ele>9</ele>
        <time>2022-03-10T09:59:52.000Z</time>
      </trkpt>
      <trkpt lat="47.27319" lon="-2.47311">
        <ele>9.3999996185303</ele>
        <time>2022-03-10T09:59:53.000Z</time>
      </trkpt>
      <trkpt lat="47.27315" lon="-2.47313">
        <ele>9.8000001907349</ele>
        <time>2022-03-10T09:59:54.000Z</time>
      </trkpt>
      <trkpt lat="47.27299" lon="-2.47326">
        <ele>9.8000001907349</ele>
        <time>2022-03-10T09:59:59.000Z</time>
      </trkpt>
      <trkpt lat="47.27291" lon="-2.47337">
        <ele>10.199999809265</ele>
        <time>2022-03-10T10:00:02.000Z</time>
      </trkpt>
      <trkpt lat="47.2729" lon="-2.47341">
        <ele>10.800000190735</ele>
        <time>2022-03-10T10:00:03.000Z</time>
      </trkpt>
      <trkpt lat="47.27288" lon="-2.47346">
        <ele>11.199999809265</ele>
        <time>2022-03-10T10:00:04.000Z</time>
      </trkpt>
      <trkpt lat="47.27287" lon="-2.47353">
        <ele>11.60000038147</ele>
        <time>2022-03-10T10:00:05.000Z</time>
      </trkpt>
      <trkpt lat="47.27286" lon="-2.4736">
        <ele>12</ele>
        <time>2022-03-10T10:00:06.000Z</time>
      </trkpt>
      <trkpt lat="47.27283" lon="-2.47375">
        <ele>12</ele>
        <time>2022-03-10T10:00:08.000Z</time>
      </trkpt>
      <trkpt lat="47.27281" lon="-2.47381">
        <ele>12</ele>
        <time>2022-03-10T10:00:09.000Z</time>
      </trkpt>
      <trkpt lat="47.27271" lon="-2.47401">
        <ele>12</ele>
        <time>2022-03-10T10:00:12.000Z</time>
      </trkpt>
      <trkpt lat="47.27268" lon="-2.47408">
        <ele>12</ele>
        <time>2022-03-10T10:00:13.000Z</time>
      </trkpt>
      <trkpt lat="47.27267" lon="-2.47417">
        <ele>12</ele>
        <time>2022-03-10T10:00:14.000Z</time>
      </trkpt>
      <trkpt lat="47.27269" lon="-2.47444">
        <ele>12</ele>
        <time>2022-03-10T10:00:17.000Z</time>
      </trkpt>
      <trkpt lat="47.27274" lon="-2.47461">
        <ele>12</ele>
        <time>2022-03-10T10:00:19.000Z</time>
      </trkpt>
      <trkpt lat="47.27277" lon="-2.47477">
        <ele>11.60000038147</ele>
        <time>2022-03-10T10:00:21.000Z</time>
      </trkpt>
      <trkpt lat="47.27278" lon="-2.47486">
        <ele>11.199999809265</ele>
        <time>2022-03-10T10:00:22.000Z</time>
      </trkpt>
      <trkpt lat="47.2728" lon="-2.47494">
        <ele>10.800000190735</ele>
        <time>2022-03-10T10:00:23.000Z</time>
      </trkpt>
      <trkpt lat="47.27282" lon="-2.47501">
        <ele>10.39999961853</ele>
        <time>2022-03-10T10:00:24.000Z</time>
      </trkpt>
      <trkpt lat="47.27284" lon="-2.47508">
        <ele>10</ele>
        <time>2022-03-10T10:00:25.000Z</time>
      </trkpt>
      <trkpt lat="47.27288" lon="-2.47523">
        <ele>10</ele>
        <time>2022-03-10T10:00:27.000Z</time>
      </trkpt>
      <trkpt lat="47.27301" lon="-2.47556">
        <ele>10</ele>
        <time>2022-03-10T10:00:32.000Z</time>
      </trkpt>
      <trkpt lat="47.27303" lon="-2.47561">
        <ele>10</ele>
        <time>2022-03-10T10:00:33.000Z</time>
      </trkpt>
      <trkpt lat="47.27306" lon="-2.47568">
        <ele>10</ele>
        <time>2022-03-10T10:00:36.000Z</time>
      </trkpt>
      <trkpt lat="47.27308" lon="-2.47572">
        <ele>10</ele>
        <time>2022-03-10T10:00:39.000Z</time>
      </trkpt>
      <trkpt lat="47.27307" lon="-2.47576">
        <ele>10</ele>
        <time>2022-03-10T10:00:46.000Z</time>
      </trkpt>
      <trkpt lat="47.27306" lon="-2.47578">
        <ele>10</ele>
        <time>2022-03-10T10:00:47.000Z</time>
      </trkpt>
      <trkpt lat="47.27302" lon="-2.47586">
        <ele>10</ele>
        <time>2022-03-10T10:00:50.000Z</time>
      </trkpt>
      <trkpt lat="47.27305" lon="-2.4759">
        <ele>10</ele>
        <time>2022-03-10T10:00:52.000Z</time>
      </trkpt>
      <trkpt lat="47.27308" lon="-2.47594">
        <ele>10</ele>
        <time>2022-03-10T10:00:53.000Z</time>
      </trkpt>
      <trkpt lat="47.27318" lon="-2.47611">
        <ele>10</ele>
        <time>2022-03-10T10:00:57.000Z</time>
      </trkpt>
      <trkpt lat="47.27333" lon="-2.47625">
        <ele>10</ele>
        <time>2022-03-10T10:01:01.000Z</time>
      </trkpt>
      <trkpt lat="47.27352" lon="-2.47643">
        <ele>10</ele>
        <time>2022-03-10T10:01:05.000Z</time>
      </trkpt>
      <trkpt lat="47.27369" lon="-2.47662">
        <ele>10</ele>
        <time>2022-03-10T10:01:08.000Z</time>
      </trkpt>
      <trkpt lat="47.27374" lon="-2.4767">
        <ele>9.1999998092651</ele>
        <time>2022-03-10T10:01:09.000Z</time>
      </trkpt>
      <trkpt lat="47.2738" lon="-2.47677">
        <ele>8.8000001907349</ele>
        <time>2022-03-10T10:01:10.000Z</time>
      </trkpt>
      <trkpt lat="47.27386" lon="-2.47683">
        <ele>8.3999996185303</ele>
        <time>2022-03-10T10:01:11.000Z</time>
      </trkpt>
      <trkpt lat="47.27391" lon="-2.47688">
        <ele>7.8000001907349</ele>
        <time>2022-03-10T10:01:12.000Z</time>
      </trkpt>
      <trkpt lat="47.27402" lon="-2.47699">
        <ele>7.8000001907349</ele>
        <time>2022-03-10T10:01:14.000Z</time>
      </trkpt>
      <trkpt lat="47.27425" lon="-2.47733">
        <ele>7.4000000953674</ele>
        <time>2022-03-10T10:01:19.000Z</time>
      </trkpt>
      <trkpt lat="47.2743" lon="-2.47739">
        <ele>7</ele>
        <time>2022-03-10T10:01:20.000Z</time>
      </trkpt>
      <trkpt lat="47.27435" lon="-2.47747">
        <ele>6.5999999046326</ele>
        <time>2022-03-10T10:01:21.000Z</time>
      </trkpt>
      <trkpt lat="47.27439" lon="-2.47754">
        <ele>6.1999998092651</ele>
        <time>2022-03-10T10:01:22.000Z</time>
      </trkpt>
      <trkpt lat="47.27443" lon="-2.47761">
        <ele>5.8000001907349</ele>
        <time>2022-03-10T10:01:23.000Z</time>
      </trkpt>
      <trkpt lat="47.2745" lon="-2.47776">
        <ele>5.8000001907349</ele>
        <time>2022-03-10T10:01:25.000Z</time>
      </trkpt>
      <trkpt lat="47.27469" lon="-2.47806">
        <ele>5.8000001907349</ele>
        <time>2022-03-10T10:01:30.000Z</time>
      </trkpt>
      <trkpt lat="47.27473" lon="-2.47811">
        <ele>5.8000001907349</ele>
        <time>2022-03-10T10:01:31.000Z</time>
      </trkpt>
      <trkpt lat="47.27481" lon="-2.47823">
        <ele>5.8000001907349</ele>
        <time>2022-03-10T10:01:33.000Z</time>
      </trkpt>
      <trkpt lat="47.27491" lon="-2.47844">
        <ele>5.8000001907349</ele>
        <time>2022-03-10T10:01:36.000Z</time>
      </trkpt>
      <trkpt lat="47.27516" lon="-2.47894">
        <ele>5.8000001907349</ele>
        <time>2022-03-10T10:01:43.000Z</time>
      </trkpt>
      <trkpt lat="47.27531" lon="-2.47919">
        <ele>5.8000001907349</ele>
        <time>2022-03-10T10:01:47.000Z</time>
      </trkpt>
      <trkpt lat="47.27543" lon="-2.47922">
        <ele>5.8000001907349</ele>
        <time>2022-03-10T10:01:50.000Z</time>
      </trkpt>
      <trkpt lat="47.27551" lon="-2.47916">
        <ele>5.8000001907349</ele>
        <time>2022-03-10T10:01:52.000Z</time>
      </trkpt>
      <trkpt lat="47.27565" lon="-2.47907">
        <ele>5.8000001907349</ele>
        <time>2022-03-10T10:01:55.000Z</time>
      </trkpt>
      <trkpt lat="47.27575" lon="-2.47903">
        <ele>6.1999998092651</ele>
        <time>2022-03-10T10:01:57.000Z</time>
      </trkpt>
      <trkpt lat="47.2758" lon="-2.47903">
        <ele>7</ele>
        <time>2022-03-10T10:01:58.000Z</time>
      </trkpt>
      <trkpt lat="47.27584" lon="-2.47905">
        <ele>7.4000000953674</ele>
        <time>2022-03-10T10:01:59.000Z</time>
      </trkpt>
      <trkpt lat="47.27588" lon="-2.47908">
        <ele>7.8000001907349</ele>
        <time>2022-03-10T10:02:00.000Z</time>
      </trkpt>
      <trkpt lat="47.27594" lon="-2.47917">
        <ele>7.8000001907349</ele>
        <time>2022-03-10T10:02:02.000Z</time>
      </trkpt>
      <trkpt lat="47.27597" lon="-2.47929">
        <ele>7.8000001907349</ele>
        <time>2022-03-10T10:02:04.000Z</time>
      </trkpt>
      <trkpt lat="47.27599" lon="-2.47936">
        <ele>8.1999998092651</ele>
        <time>2022-03-10T10:02:05.000Z</time>
      </trkpt>
      <trkpt lat="47.27601" lon="-2.47943">
        <ele>8.6000003814697</ele>
        <time>2022-03-10T10:02:06.000Z</time>
      </trkpt>
      <trkpt lat="47.27603" lon="-2.47949">
        <ele>9</ele>
        <time>2022-03-10T10:02:07.000Z</time>
      </trkpt>
      <trkpt lat="47.27604" lon="-2.47955">
        <ele>9.3999996185303</ele>
        <time>2022-03-10T10:02:08.000Z</time>
      </trkpt>
      <trkpt lat="47.27606" lon="-2.47961">
        <ele>9.8000001907349</ele>
        <time>2022-03-10T10:02:09.000Z</time>
      </trkpt>
      <trkpt lat="47.2761" lon="-2.47972">
        <ele>10.199999809265</ele>
        <time>2022-03-10T10:02:11.000Z</time>
      </trkpt>
      <trkpt lat="47.27612" lon="-2.47977">
        <ele>10.800000190735</ele>
        <time>2022-03-10T10:02:12.000Z</time>
      </trkpt>
      <trkpt lat="47.27614" lon="-2.47982">
        <ele>11.199999809265</ele>
        <time>2022-03-10T10:02:13.000Z</time>
      </trkpt>
      <trkpt lat="47.27616" lon="-2.47987">
        <ele>11.60000038147</ele>
        <time>2022-03-10T10:02:14.000Z</time>
      </trkpt>
      <trkpt lat="47.27619" lon="-2.47993">
        <ele>12</ele>
        <time>2022-03-10T10:02:15.000Z</time>
      </trkpt>
      <trkpt lat="47.27625" lon="-2.48012">
        <ele>12</ele>
        <time>2022-03-10T10:02:19.000Z</time>
      </trkpt>
      <trkpt lat="47.27621" lon="-2.48044">
        <ele>12</ele>
        <time>2022-03-10T10:02:25.000Z</time>
      </trkpt>
      <trkpt lat="47.27619" lon="-2.48053">
        <ele>12</ele>
        <time>2022-03-10T10:02:26.000Z</time>
      </trkpt>
      <trkpt lat="47.27617" lon="-2.48082">
        <ele>12</ele>
        <time>2022-03-10T10:02:30.000Z</time>
      </trkpt>
      <trkpt lat="47.27624" lon="-2.48095">
        <ele>12</ele>
        <time>2022-03-10T10:02:33.000Z</time>
      </trkpt>
      <trkpt lat="47.27631" lon="-2.48094">
        <ele>12</ele>
        <time>2022-03-10T10:02:35.000Z</time>
      </trkpt>
      <trkpt lat="47.27635" lon="-2.48093">
        <ele>12</ele>
        <time>2022-03-10T10:02:36.000Z</time>
      </trkpt>
      <trkpt lat="47.27666" lon="-2.48086">
        <ele>12</ele>
        <time>2022-03-10T10:02:44.000Z</time>
      </trkpt>
      <trkpt lat="47.2769" lon="-2.48079">
        <ele>12</ele>
        <time>2022-03-10T10:02:51.000Z</time>
      </trkpt>
      <trkpt lat="47.27698" lon="-2.48078">
        <ele>12</ele>
        <time>2022-03-10T10:02:54.000Z</time>
      </trkpt>
      <trkpt lat="47.27701" lon="-2.48079">
        <ele>12.39999961853</ele>
        <time>2022-03-10T10:02:55.000Z</time>
      </trkpt>
      <trkpt lat="47.27703" lon="-2.4808">
        <ele>12.800000190735</ele>
        <time>2022-03-10T10:02:56.000Z</time>
      </trkpt>
      <trkpt lat="47.27705" lon="-2.48082">
        <ele>13.199999809265</ele>
        <time>2022-03-10T10:02:57.000Z</time>
      </trkpt>
      <trkpt lat="47.27707" lon="-2.48084">
        <ele>13.60000038147</ele>
        <time>2022-03-10T10:02:58.000Z</time>
      </trkpt>
      <trkpt lat="47.27709" lon="-2.48086">
        <ele>14</ele>
        <time>2022-03-10T10:02:59.000Z</time>
      </trkpt>
      <trkpt lat="47.27711" lon="-2.48089">
        <ele>14</ele>
        <time>2022-03-10T10:03:00.000Z</time>
      </trkpt>
      <trkpt lat="47.27717" lon="-2.48099">
        <ele>14.39999961853</ele>
        <time>2022-03-10T10:03:03.000Z</time>
      </trkpt>
      <trkpt lat="47.27719" lon="-2.48103">
        <ele>14.800000190735</ele>
        <time>2022-03-10T10:03:04.000Z</time>
      </trkpt>
      <trkpt lat="47.2772" lon="-2.48105">
        <ele>15.199999809265</ele>
        <time>2022-03-10T10:03:05.000Z</time>
      </trkpt>
      <trkpt lat="47.27722" lon="-2.48107">
        <ele>15.800000190735</ele>
        <time>2022-03-10T10:03:06.000Z</time>
      </trkpt>
      <trkpt lat="47.27723" lon="-2.48108">
        <ele>16.200000762939</ele>
        <time>2022-03-10T10:03:07.000Z</time>
      </trkpt>
      <trkpt lat="47.27724" lon="-2.48109">
        <ele>16.200000762939</ele>
        <time>2022-03-10T10:03:08.000Z</time>
      </trkpt>
      <trkpt lat="47.27725" lon="-2.48111">
        <ele>16.200000762939</ele>
        <time>2022-03-10T10:03:09.000Z</time>
      </trkpt>
      <trkpt lat="47.27728" lon="-2.48118">
        <ele>16.200000762939</ele>
        <time>2022-03-10T10:03:14.000Z</time>
      </trkpt>
      <trkpt lat="47.27731" lon="-2.48122">
        <ele>16.200000762939</ele>
        <time>2022-03-10T10:03:18.000Z</time>
      </trkpt>
      <trkpt lat="47.27735" lon="-2.4813">
        <ele>16.200000762939</ele>
        <time>2022-03-10T10:03:25.000Z</time>
      </trkpt>
      <trkpt lat="47.27735" lon="-2.48132">
        <ele>16.200000762939</ele>
        <time>2022-03-10T10:03:26.000Z</time>
      </trkpt>
      <trkpt lat="47.27736" lon="-2.48134">
        <ele>16.200000762939</ele>
        <time>2022-03-10T10:03:27.000Z</time>
      </trkpt>
      <trkpt lat="47.27739" lon="-2.48147">
        <ele>16.200000762939</ele>
        <time>2022-03-10T10:03:31.000Z</time>
      </trkpt>
      <trkpt lat="47.27741" lon="-2.48164">
        <ele>15.60000038147</ele>
        <time>2022-03-10T10:03:36.000Z</time>
      </trkpt>
      <trkpt lat="47.2774" lon="-2.48168">
        <ele>14.800000190735</ele>
        <time>2022-03-10T10:03:37.000Z</time>
      </trkpt>
      <trkpt lat="47.27739" lon="-2.48173">
        <ele>14.199999809265</ele>
        <time>2022-03-10T10:03:38.000Z</time>
      </trkpt>
      <trkpt lat="47.27739" lon="-2.4818">
        <ele>13.800000190735</ele>
        <time>2022-03-10T10:03:39.000Z</time>
      </trkpt>
      <trkpt lat="47.27739" lon="-2.48188">
        <ele>13.800000190735</ele>
        <time>2022-03-10T10:03:40.000Z</time>
      </trkpt>
      <trkpt lat="47.27739" lon="-2.48198">
        <ele>13.199999809265</ele>
        <time>2022-03-10T10:03:41.000Z</time>
      </trkpt>
      <trkpt lat="47.2774" lon="-2.48209">
        <ele>12.800000190735</ele>
        <time>2022-03-10T10:03:42.000Z</time>
      </trkpt>
      <trkpt lat="47.27742" lon="-2.48219">
        <ele>12.39999961853</ele>
        <time>2022-03-10T10:03:43.000Z</time>
      </trkpt>
      <trkpt lat="47.27744" lon="-2.48229">
        <ele>11.800000190735</ele>
        <time>2022-03-10T10:03:44.000Z</time>
      </trkpt>
      <trkpt lat="47.27745" lon="-2.48238">
        <ele>11.199999809265</ele>
        <time>2022-03-10T10:03:45.000Z</time>
      </trkpt>
      <trkpt lat="47.27748" lon="-2.48246">
        <ele>10.60000038147</ele>
        <time>2022-03-10T10:03:46.000Z</time>
      </trkpt>
      <trkpt lat="47.27749" lon="-2.48252">
        <ele>10</ele>
        <time>2022-03-10T10:03:47.000Z</time>
      </trkpt>
      <trkpt lat="47.2775" lon="-2.48257">
        <ele>9.3999996185303</ele>
        <time>2022-03-10T10:03:48.000Z</time>
      </trkpt>
      <trkpt lat="47.2775" lon="-2.48261">
        <ele>9.3999996185303</ele>
        <time>2022-03-10T10:03:49.000Z</time>
      </trkpt>
      <trkpt lat="47.27748" lon="-2.48263">
        <ele>9</ele>
        <time>2022-03-10T10:03:50.000Z</time>
      </trkpt>
      <trkpt lat="47.27746" lon="-2.48263">
        <ele>8.3999996185303</ele>
        <time>2022-03-10T10:03:51.000Z</time>
      </trkpt>
      <trkpt lat="47.27743" lon="-2.48263">
        <ele>8</ele>
        <time>2022-03-10T10:03:52.000Z</time>
      </trkpt>
      <trkpt lat="47.2774" lon="-2.48265">
        <ele>7.4000000953674</ele>
        <time>2022-03-10T10:03:53.000Z</time>
      </trkpt>
      <trkpt lat="47.27737" lon="-2.48269">
        <ele>7</ele>
        <time>2022-03-10T10:03:54.000Z</time>
      </trkpt>
      <trkpt lat="47.27735" lon="-2.48273">
        <ele>7</ele>
        <time>2022-03-10T10:03:55.000Z</time>
      </trkpt>
      <trkpt lat="47.27728" lon="-2.48287">
        <ele>7</ele>
        <time>2022-03-10T10:03:58.000Z</time>
      </trkpt>
      <trkpt lat="47.27724" lon="-2.4829">
        <ele>7</ele>
        <time>2022-03-10T10:03:59.000Z</time>
      </trkpt>
      <trkpt lat="47.27706" lon="-2.48292">
        <ele>7</ele>
        <time>2022-03-10T10:04:03.000Z</time>
      </trkpt>
      <trkpt lat="47.277" lon="-2.48288">
        <ele>7</ele>
        <time>2022-03-10T10:04:05.000Z</time>
      </trkpt>
      <trkpt lat="47.27691" lon="-2.48282">
        <ele>7.4000000953674</ele>
        <time>2022-03-10T10:04:08.000Z</time>
      </trkpt>
      <trkpt lat="47.27689" lon="-2.4828">
        <ele>7.8000001907349</ele>
        <time>2022-03-10T10:04:09.000Z</time>
      </trkpt>
      <trkpt lat="47.27687" lon="-2.48277">
        <ele>8.1999998092651</ele>
        <time>2022-03-10T10:04:10.000Z</time>
      </trkpt>
      <trkpt lat="47.27683" lon="-2.48275">
        <ele>8.6000003814697</ele>
        <time>2022-03-10T10:04:11.000Z</time>
      </trkpt>
      <trkpt lat="47.2768" lon="-2.48273">
        <ele>9</ele>
        <time>2022-03-10T10:04:12.000Z</time>
      </trkpt>
      <trkpt lat="47.27676" lon="-2.48271">
        <ele>9</ele>
        <time>2022-03-10T10:04:13.000Z</time>
      </trkpt>
      <trkpt lat="47.27651" lon="-2.48272">
        <ele>9</ele>
        <time>2022-03-10T10:04:19.000Z</time>
      </trkpt>
      <trkpt lat="47.27648" lon="-2.48275">
        <ele>9</ele>
        <time>2022-03-10T10:04:20.000Z</time>
      </trkpt>
      <trkpt lat="47.27646" lon="-2.48285">
        <ele>9</ele>
        <time>2022-03-10T10:04:22.000Z</time>
      </trkpt>
      <trkpt lat="47.27646" lon="-2.48304">
        <ele>9</ele>
        <time>2022-03-10T10:04:25.000Z</time>
      </trkpt>
      <trkpt lat="47.27645" lon="-2.48322">
        <ele>9</ele>
        <time>2022-03-10T10:04:28.000Z</time>
      </trkpt>
      <trkpt lat="47.27642" lon="-2.48339">
        <ele>9</ele>
        <time>2022-03-10T10:04:31.000Z</time>
      </trkpt>
      <trkpt lat="47.27643" lon="-2.48346">
        <ele>9</ele>
        <time>2022-03-10T10:04:32.000Z</time>
      </trkpt>
      <trkpt lat="47.27647" lon="-2.48389">
        <ele>9</ele>
        <time>2022-03-10T10:04:37.000Z</time>
      </trkpt>
      <trkpt lat="47.2765" lon="-2.48426">
        <ele>8.6000003814697</ele>
        <time>2022-03-10T10:04:41.000Z</time>
      </trkpt>
      <trkpt lat="47.2765" lon="-2.48434">
        <ele>8.1999998092651</ele>
        <time>2022-03-10T10:04:42.000Z</time>
      </trkpt>
      <trkpt lat="47.27651" lon="-2.48442">
        <ele>7.8000001907349</ele>
        <time>2022-03-10T10:04:43.000Z</time>
      </trkpt>
      <trkpt lat="47.27652" lon="-2.4845">
        <ele>7.4000000953674</ele>
        <time>2022-03-10T10:04:44.000Z</time>
      </trkpt>
      <trkpt lat="47.27653" lon="-2.48458">
        <ele>7</ele>
        <time>2022-03-10T10:04:45.000Z</time>
      </trkpt>
      <trkpt lat="47.27659" lon="-2.48482">
        <ele>7</ele>
        <time>2022-03-10T10:04:48.000Z</time>
      </trkpt>
      <trkpt lat="47.27662" lon="-2.48491">
        <ele>7</ele>
        <time>2022-03-10T10:04:49.000Z</time>
      </trkpt>
      <trkpt lat="47.27665" lon="-2.48499">
        <ele>7</ele>
        <time>2022-03-10T10:04:50.000Z</time>
      </trkpt>
      <trkpt lat="47.27668" lon="-2.48515">
        <ele>7</ele>
        <time>2022-03-10T10:04:52.000Z</time>
      </trkpt>
      <trkpt lat="47.27679" lon="-2.48583">
        <ele>7</ele>
        <time>2022-03-10T10:05:00.000Z</time>
      </trkpt>
      <trkpt lat="47.27689" lon="-2.48647">
        <ele>7</ele>
        <time>2022-03-10T10:05:07.000Z</time>
      </trkpt>
      <trkpt lat="47.27691" lon="-2.48706">
        <ele>7</ele>
        <time>2022-03-10T10:05:13.000Z</time>
      </trkpt>
      <trkpt lat="47.27692" lon="-2.48725">
        <ele>7</ele>
        <time>2022-03-10T10:05:15.000Z</time>
      </trkpt>
      <trkpt lat="47.27693" lon="-2.48762">
        <ele>7</ele>
        <time>2022-03-10T10:05:19.000Z</time>
      </trkpt>
      <trkpt lat="47.27694" lon="-2.48814">
        <ele>7</ele>
        <time>2022-03-10T10:05:25.000Z</time>
      </trkpt>
      <trkpt lat="47.27695" lon="-2.4884">
        <ele>7</ele>
        <time>2022-03-10T10:05:28.000Z</time>
      </trkpt>
      <trkpt lat="47.27697" lon="-2.48876">
        <ele>7</ele>
        <time>2022-03-10T10:05:32.000Z</time>
      </trkpt>
      <trkpt lat="47.27697" lon="-2.4891">
        <ele>7</ele>
        <time>2022-03-10T10:05:36.000Z</time>
      </trkpt>
      <trkpt lat="47.27695" lon="-2.48915">
        <ele>7</ele>
        <time>2022-03-10T10:05:37.000Z</time>
      </trkpt>
      <trkpt lat="47.2768" lon="-2.48919">
        <ele>7</ele>
        <time>2022-03-10T10:05:40.000Z</time>
      </trkpt>
      <trkpt lat="47.27676" lon="-2.4892">
        <ele>7</ele>
        <time>2022-03-10T10:05:41.000Z</time>
      </trkpt>
      <trkpt lat="47.27649" lon="-2.48926">
        <ele>7</ele>
        <time>2022-03-10T10:05:47.000Z</time>
      </trkpt>
      <trkpt lat="47.2762" lon="-2.48933">
        <ele>7</ele>
        <time>2022-03-10T10:05:54.000Z</time>
      </trkpt>
      <trkpt lat="47.27603" lon="-2.48937">
        <ele>7</ele>
        <time>2022-03-10T10:05:59.000Z</time>
      </trkpt>
      <trkpt lat="47.27587" lon="-2.48941">
        <ele>7</ele>
        <time>2022-03-10T10:06:05.000Z</time>
      </trkpt>
      <trkpt lat="47.27572" lon="-2.48945">
        <ele>6.5999999046326</ele>
        <time>2022-03-10T10:06:11.000Z</time>
      </trkpt>
      <trkpt lat="47.2757" lon="-2.48945">
        <ele>6.1999998092651</ele>
        <time>2022-03-10T10:06:12.000Z</time>
      </trkpt>
      <trkpt lat="47.27569" lon="-2.48945">
        <ele>5.8000001907349</ele>
        <time>2022-03-10T10:06:13.000Z</time>
      </trkpt>
      <trkpt lat="47.27568" lon="-2.48945">
        <ele>5.4000000953674</ele>
        <time>2022-03-10T10:06:14.000Z</time>
      </trkpt>
      <trkpt lat="47.27566" lon="-2.48945">
        <ele>4.8000001907349</ele>
        <time>2022-03-10T10:06:15.000Z</time>
      </trkpt>
      <trkpt lat="47.27562" lon="-2.48947">
        <ele>4.8000001907349</ele>
        <time>2022-03-10T10:06:19.000Z</time>
      </trkpt>
      <trkpt lat="47.2755" lon="-2.48951">
        <ele>4.8000001907349</ele>
        <time>2022-03-10T10:06:25.000Z</time>
      </trkpt>
      <trkpt lat="47.27537" lon="-2.48968">
        <ele>4.8000001907349</ele>
        <time>2022-03-10T10:06:30.000Z</time>
      </trkpt>
      <trkpt lat="47.27534" lon="-2.48971">
        <ele>4</ele>
        <time>2022-03-10T10:06:31.000Z</time>
      </trkpt>
      <trkpt lat="47.27532" lon="-2.48972">
        <ele>3.5999999046326</ele>
        <time>2022-03-10T10:06:32.000Z</time>
      </trkpt>
      <trkpt lat="47.2753" lon="-2.48974">
        <ele>3.2000000476837</ele>
        <time>2022-03-10T10:06:33.000Z</time>
      </trkpt>
      <trkpt lat="47.27529" lon="-2.48973">
        <ele>2.7999999523163</ele>
        <time>2022-03-10T10:06:34.000Z</time>
      </trkpt>
      <trkpt lat="47.27527" lon="-2.48964">
        <ele>2.7999999523163</ele>
        <time>2022-03-10T10:06:38.000Z</time>
      </trkpt>
      <trkpt lat="47.27528" lon="-2.48944">
        <ele>2.7999999523163</ele>
        <time>2022-03-10T10:06:43.000Z</time>
      </trkpt>
      <trkpt lat="47.27525" lon="-2.48927">
        <ele>2.7999999523163</ele>
        <time>2022-03-10T10:06:46.000Z</time>
      </trkpt>
      <trkpt lat="47.27522" lon="-2.48922">
        <ele>2.7999999523163</ele>
        <time>2022-03-10T10:06:47.000Z</time>
      </trkpt>
      <trkpt lat="47.27517" lon="-2.489">
        <ele>2.7999999523163</ele>
        <time>2022-03-10T10:06:51.000Z</time>
      </trkpt>
      <trkpt lat="47.27518" lon="-2.4889">
        <ele>2.7999999523163</ele>
        <time>2022-03-10T10:06:53.000Z</time>
      </trkpt>
      <trkpt lat="47.27519" lon="-2.48878">
        <ele>2.7999999523163</ele>
        <time>2022-03-10T10:06:55.000Z</time>
      </trkpt>
      <trkpt lat="47.27526" lon="-2.4885">
        <ele>2.7999999523163</ele>
        <time>2022-03-10T10:06:59.000Z</time>
      </trkpt>
      <trkpt lat="47.27536" lon="-2.4881">
        <ele>2.7999999523163</ele>
        <time>2022-03-10T10:07:05.000Z</time>
      </trkpt>
      <trkpt lat="47.27536" lon="-2.48804">
        <ele>2.7999999523163</ele>
        <time>2022-03-10T10:07:06.000Z</time>
      </trkpt>
      <trkpt lat="47.27537" lon="-2.48785">
        <ele>2.7999999523163</ele>
        <time>2022-03-10T10:07:09.000Z</time>
      </trkpt>
      <trkpt lat="47.27538" lon="-2.48779">
        <ele>2.7999999523163</ele>
        <time>2022-03-10T10:07:10.000Z</time>
      </trkpt>
      <trkpt lat="47.27538" lon="-2.48755">
        <ele>2.7999999523163</ele>
        <time>2022-03-10T10:07:15.000Z</time>
      </trkpt>
      <trkpt lat="47.27535" lon="-2.48746">
        <ele>3.2000000476837</ele>
        <time>2022-03-10T10:07:18.000Z</time>
      </trkpt>
      <trkpt lat="47.27533" lon="-2.48745">
        <ele>3.5999999046326</ele>
        <time>2022-03-10T10:07:19.000Z</time>
      </trkpt>
      <trkpt lat="47.27532" lon="-2.48744">
        <ele>4.4000000953674</ele>
        <time>2022-03-10T10:07:20.000Z</time>
      </trkpt>
      <trkpt lat="47.2753" lon="-2.48746">
        <ele>4.8000001907349</ele>
        <time>2022-03-10T10:07:21.000Z</time>
      </trkpt>
      <trkpt lat="47.27523" lon="-2.48752">
        <ele>4.8000001907349</ele>
        <time>2022-03-10T10:07:24.000Z</time>
      </trkpt>
      <trkpt lat="47.2752" lon="-2.48755">
        <ele>4.8000001907349</ele>
        <time>2022-03-10T10:07:25.000Z</time>
      </trkpt>
      <trkpt lat="47.27518" lon="-2.48758">
        <ele>4.8000001907349</ele>
        <time>2022-03-10T10:07:26.000Z</time>
      </trkpt>
      <trkpt lat="47.2751" lon="-2.48769">
        <ele>4.8000001907349</ele>
        <time>2022-03-10T10:07:31.000Z</time>
      </trkpt>
      <trkpt lat="47.27511" lon="-2.48761">
        <ele>4.8000001907349</ele>
        <time>2022-03-10T10:07:34.000Z</time>
      </trkpt>
      <trkpt lat="47.27515" lon="-2.48756">
        <ele>4.8000001907349</ele>
        <time>2022-03-10T10:07:36.000Z</time>
      </trkpt>
      <trkpt lat="47.27525" lon="-2.48742">
        <ele>4.8000001907349</ele>
        <time>2022-03-10T10:07:41.000Z</time>
      </trkpt>
      <trkpt lat="47.27536" lon="-2.48724">
        <ele>4.8000001907349</ele>
        <time>2022-03-10T10:07:47.000Z</time>
      </trkpt>
      <trkpt lat="47.2753" lon="-2.4871">
        <ele>4.8000001907349</ele>
        <time>2022-03-10T10:07:51.000Z</time>
      </trkpt>
      <trkpt lat="47.27522" lon="-2.48685">
        <ele>4.8000001907349</ele>
        <time>2022-03-10T10:07:57.000Z</time>
      </trkpt>
      <trkpt lat="47.27519" lon="-2.48664">
        <ele>4.8000001907349</ele>
        <time>2022-03-10T10:08:00.000Z</time>
      </trkpt>
      <trkpt lat="47.27515" lon="-2.48645">
        <ele>4.8000001907349</ele>
        <time>2022-03-10T10:08:03.000Z</time>
      </trkpt>
      <trkpt lat="47.27512" lon="-2.4864">
        <ele>4.8000001907349</ele>
        <time>2022-03-10T10:08:04.000Z</time>
      </trkpt>
      <trkpt lat="47.27497" lon="-2.48626">
        <ele>4.8000001907349</ele>
        <time>2022-03-10T10:08:08.000Z</time>
      </trkpt>
      <trkpt lat="47.27491" lon="-2.48617">
        <ele>4.8000001907349</ele>
        <time>2022-03-10T10:08:10.000Z</time>
      </trkpt>
      <trkpt lat="47.27488" lon="-2.48612">
        <ele>4.8000001907349</ele>
        <time>2022-03-10T10:08:11.000Z</time>
      </trkpt>
      <trkpt lat="47.27483" lon="-2.48601">
        <ele>4.8000001907349</ele>
        <time>2022-03-10T10:08:13.000Z</time>
      </trkpt>
      <trkpt lat="47.27479" lon="-2.48578">
        <ele>4.8000001907349</ele>
        <time>2022-03-10T10:08:17.000Z</time>
      </trkpt>
      <trkpt lat="47.27472" lon="-2.48562">
        <ele>4.8000001907349</ele>
        <time>2022-03-10T10:08:21.000Z</time>
      </trkpt>
      <trkpt lat="47.27466" lon="-2.48568">
        <ele>4.8000001907349</ele>
        <time>2022-03-10T10:08:24.000Z</time>
      </trkpt>
      <trkpt lat="47.27466" lon="-2.48587">
        <ele>4.8000001907349</ele>
        <time>2022-03-10T10:08:28.000Z</time>
      </trkpt>
      <trkpt lat="47.27462" lon="-2.48605">
        <ele>4.8000001907349</ele>
        <time>2022-03-10T10:08:32.000Z</time>
      </trkpt>
      <trkpt lat="47.27457" lon="-2.48612">
        <ele>4.8000001907349</ele>
        <time>2022-03-10T10:08:34.000Z</time>
      </trkpt>
      <trkpt lat="47.27453" lon="-2.48627">
        <ele>4.8000001907349</ele>
        <time>2022-03-10T10:08:38.000Z</time>
      </trkpt>
      <trkpt lat="47.27452" lon="-2.48635">
        <ele>4.8000001907349</ele>
        <time>2022-03-10T10:08:42.000Z</time>
      </trkpt>
      <trkpt lat="47.27452" lon="-2.48635">
        <ele>4.8000001907349</ele>
        <time>2022-03-10T10:08:43.000Z</time>
      </trkpt>
      <trkpt lat="47.27452" lon="-2.48633">
        <ele>4.8000001907349</ele>
        <time>2022-03-10T10:24:13.000Z</time>
      </trkpt>
      <trkpt lat="47.27452" lon="-2.48632">
        <ele>4.8000001907349</ele>
        <time>2022-03-10T10:24:14.000Z</time>
      </trkpt>
      <trkpt lat="47.27453" lon="-2.48632">
        <ele>4.8000001907349</ele>
        <time>2022-03-10T10:24:17.000Z</time>
      </trkpt>
      <trkpt lat="47.27455" lon="-2.48629">
        <ele>4.8000001907349</ele>
        <time>2022-03-10T10:25:26.000Z</time>
      </trkpt>
      <trkpt lat="47.27456" lon="-2.48624">
        <ele>4.8000001907349</ele>
        <time>2022-03-10T10:25:28.000Z</time>
      </trkpt>
      <trkpt lat="47.27456" lon="-2.48614">
        <ele>4.8000001907349</ele>
        <time>2022-03-10T10:25:32.000Z</time>
      </trkpt>
      <trkpt lat="47.27458" lon="-2.48604">
        <ele>4.8000001907349</ele>
        <time>2022-03-10T10:25:35.000Z</time>
      </trkpt>
      <trkpt lat="47.27457" lon="-2.48581">
        <ele>4.8000001907349</ele>
        <time>2022-03-10T10:25:41.000Z</time>
      </trkpt>
      <trkpt lat="47.27462" lon="-2.48556">
        <ele>4.8000001907349</ele>
        <time>2022-03-10T10:25:47.000Z</time>
      </trkpt>
      <trkpt lat="47.27465" lon="-2.48553">
        <ele>4.8000001907349</ele>
        <time>2022-03-10T10:25:48.000Z</time>
      </trkpt>
      <trkpt lat="47.27467" lon="-2.48533">
        <ele>4.8000001907349</ele>
        <time>2022-03-10T10:25:52.000Z</time>
      </trkpt>
      <trkpt lat="47.27466" lon="-2.48484">
        <ele>4.8000001907349</ele>
        <time>2022-03-10T10:26:01.000Z</time>
      </trkpt>
      <trkpt lat="47.27462" lon="-2.48444">
        <ele>4.8000001907349</ele>
        <time>2022-03-10T10:26:07.000Z</time>
      </trkpt>
      <trkpt lat="47.27461" lon="-2.48438">
        <ele>4.8000001907349</ele>
        <time>2022-03-10T10:26:08.000Z</time>
      </trkpt>
      <trkpt lat="47.27448" lon="-2.48388">
        <ele>4.8000001907349</ele>
        <time>2022-03-10T10:26:16.000Z</time>
      </trkpt>
      <trkpt lat="47.27438" lon="-2.48358">
        <ele>5.1999998092651</ele>
        <time>2022-03-10T10:26:21.000Z</time>
      </trkpt>
      <trkpt lat="47.27437" lon="-2.48352">
        <ele>5.5999999046326</ele>
        <time>2022-03-10T10:26:22.000Z</time>
      </trkpt>
      <trkpt lat="47.27435" lon="-2.48345">
        <ele>6</ele>
        <time>2022-03-10T10:26:23.000Z</time>
      </trkpt>
      <trkpt lat="47.27433" lon="-2.48339">
        <ele>6.4000000953674</ele>
        <time>2022-03-10T10:26:24.000Z</time>
      </trkpt>
      <trkpt lat="47.27432" lon="-2.48333">
        <ele>6.8000001907349</ele>
        <time>2022-03-10T10:26:25.000Z</time>
      </trkpt>
      <trkpt lat="47.27423" lon="-2.4829">
        <ele>6.8000001907349</ele>
        <time>2022-03-10T10:26:31.000Z</time>
      </trkpt>
      <trkpt lat="47.27422" lon="-2.48284">
        <ele>6.8000001907349</ele>
        <time>2022-03-10T10:26:32.000Z</time>
      </trkpt>
      <trkpt lat="47.27418" lon="-2.48251">
        <ele>6.8000001907349</ele>
        <time>2022-03-10T10:26:37.000Z</time>
      </trkpt>
      <trkpt lat="47.27405" lon="-2.48176">
        <ele>6.8000001907349</ele>
        <time>2022-03-10T10:26:49.000Z</time>
      </trkpt>
      <trkpt lat="47.27405" lon="-2.48164">
        <ele>6.8000001907349</ele>
        <time>2022-03-10T10:26:51.000Z</time>
      </trkpt>
      <trkpt lat="47.27405" lon="-2.48152">
        <ele>6.8000001907349</ele>
        <time>2022-03-10T10:26:53.000Z</time>
      </trkpt>
      <trkpt lat="47.27405" lon="-2.48146">
        <ele>6.8000001907349</ele>
        <time>2022-03-10T10:26:54.000Z</time>
      </trkpt>
      <trkpt lat="47.2741" lon="-2.48128">
        <ele>6.8000001907349</ele>
        <time>2022-03-10T10:26:57.000Z</time>
      </trkpt>
      <trkpt lat="47.27413" lon="-2.48125">
        <ele>6.8000001907349</ele>
        <time>2022-03-10T10:26:58.000Z</time>
      </trkpt>
      <trkpt lat="47.27419" lon="-2.48122">
        <ele>6.8000001907349</ele>
        <time>2022-03-10T10:27:00.000Z</time>
      </trkpt>
      <trkpt lat="47.2743" lon="-2.4812">
        <ele>7.1999998092651</ele>
        <time>2022-03-10T10:27:03.000Z</time>
      </trkpt>
      <trkpt lat="47.27435" lon="-2.48119">
        <ele>7.8000001907349</ele>
        <time>2022-03-10T10:27:04.000Z</time>
      </trkpt>
      <trkpt lat="47.27439" lon="-2.48118">
        <ele>8.1999998092651</ele>
        <time>2022-03-10T10:27:05.000Z</time>
      </trkpt>
      <trkpt lat="47.27443" lon="-2.48117">
        <ele>8.6000003814697</ele>
        <time>2022-03-10T10:27:06.000Z</time>
      </trkpt>
      <trkpt lat="47.27446" lon="-2.48116">
        <ele>9.1999998092651</ele>
        <time>2022-03-10T10:27:07.000Z</time>
      </trkpt>
      <trkpt lat="47.27468" lon="-2.48111">
        <ele>9.1999998092651</ele>
        <time>2022-03-10T10:27:12.000Z</time>
      </trkpt>
      <trkpt lat="47.27478" lon="-2.48107">
        <ele>9.6000003814697</ele>
        <time>2022-03-10T10:27:15.000Z</time>
      </trkpt>
      <trkpt lat="47.27482" lon="-2.48106">
        <ele>10</ele>
        <time>2022-03-10T10:27:16.000Z</time>
      </trkpt>
      <trkpt lat="47.27485" lon="-2.48105">
        <ele>10.39999961853</ele>
        <time>2022-03-10T10:27:17.000Z</time>
      </trkpt>
      <trkpt lat="47.27487" lon="-2.48104">
        <ele>10.800000190735</ele>
        <time>2022-03-10T10:27:18.000Z</time>
      </trkpt>
      <trkpt lat="47.27489" lon="-2.48103">
        <ele>11.199999809265</ele>
        <time>2022-03-10T10:27:19.000Z</time>
      </trkpt>
      <trkpt lat="47.27486" lon="-2.48093">
        <ele>11.199999809265</ele>
        <time>2022-03-10T10:27:22.000Z</time>
      </trkpt>
      <trkpt lat="47.27472" lon="-2.48066">
        <ele>11.199999809265</ele>
        <time>2022-03-10T10:27:27.000Z</time>
      </trkpt>
      <trkpt lat="47.27449" lon="-2.48016">
        <ele>11.199999809265</ele>
        <time>2022-03-10T10:27:34.000Z</time>
      </trkpt>
      <trkpt lat="47.27436" lon="-2.47991">
        <ele>10.800000190735</ele>
        <time>2022-03-10T10:27:37.000Z</time>
      </trkpt>
      <trkpt lat="47.27432" lon="-2.47983">
        <ele>10.39999961853</ele>
        <time>2022-03-10T10:27:38.000Z</time>
      </trkpt>
      <trkpt lat="47.27427" lon="-2.47975">
        <ele>9.8000001907349</ele>
        <time>2022-03-10T10:27:39.000Z</time>
      </trkpt>
      <trkpt lat="47.27422" lon="-2.47968">
        <ele>9.3999996185303</ele>
        <time>2022-03-10T10:27:40.000Z</time>
      </trkpt>
      <trkpt lat="47.27416" lon="-2.4796">
        <ele>9</ele>
        <time>2022-03-10T10:27:41.000Z</time>
      </trkpt>
      <trkpt lat="47.27392" lon="-2.47932">
        <ele>8.6000003814697</ele>
        <time>2022-03-10T10:27:45.000Z</time>
      </trkpt>
      <trkpt lat="47.27385" lon="-2.47927">
        <ele>8.1999998092651</ele>
        <time>2022-03-10T10:27:46.000Z</time>
      </trkpt>
      <trkpt lat="47.27378" lon="-2.47922">
        <ele>7.8000001907349</ele>
        <time>2022-03-10T10:27:47.000Z</time>
      </trkpt>
      <trkpt lat="47.27371" lon="-2.47917">
        <ele>7.4000000953674</ele>
        <time>2022-03-10T10:27:48.000Z</time>
      </trkpt>
      <trkpt lat="47.27365" lon="-2.47911">
        <ele>7</ele>
        <time>2022-03-10T10:27:49.000Z</time>
      </trkpt>
      <trkpt lat="47.27335" lon="-2.47887">
        <ele>7</ele>
        <time>2022-03-10T10:27:54.000Z</time>
      </trkpt>
      <trkpt lat="47.27305" lon="-2.47863">
        <ele>7</ele>
        <time>2022-03-10T10:27:59.000Z</time>
      </trkpt>
      <trkpt lat="47.27282" lon="-2.47843">
        <ele>7</ele>
        <time>2022-03-10T10:28:03.000Z</time>
      </trkpt>
      <trkpt lat="47.27271" lon="-2.47831">
        <ele>7</ele>
        <time>2022-03-10T10:28:05.000Z</time>
      </trkpt>
      <trkpt lat="47.27255" lon="-2.4781">
        <ele>7</ele>
        <time>2022-03-10T10:28:08.000Z</time>
      </trkpt>
      <trkpt lat="47.27233" lon="-2.47774">
        <ele>7</ele>
        <time>2022-03-10T10:28:13.000Z</time>
      </trkpt>
      <trkpt lat="47.2722" lon="-2.47744">
        <ele>7</ele>
        <time>2022-03-10T10:28:17.000Z</time>
      </trkpt>
      <trkpt lat="47.27215" lon="-2.47729">
        <ele>7</ele>
        <time>2022-03-10T10:28:19.000Z</time>
      </trkpt>
      <trkpt lat="47.27203" lon="-2.4767">
        <ele>7</ele>
        <time>2022-03-10T10:28:26.000Z</time>
      </trkpt>
      <trkpt lat="47.27201" lon="-2.47619">
        <ele>7</ele>
        <time>2022-03-10T10:28:32.000Z</time>
      </trkpt>
      <trkpt lat="47.272" lon="-2.47611">
        <ele>7</ele>
        <time>2022-03-10T10:28:33.000Z</time>
      </trkpt>
      <trkpt lat="47.27197" lon="-2.47594">
        <ele>7</ele>
        <time>2022-03-10T10:28:35.000Z</time>
      </trkpt>
      <trkpt lat="47.27196" lon="-2.47585">
        <ele>7</ele>
        <time>2022-03-10T10:28:36.000Z</time>
      </trkpt>
      <trkpt lat="47.27195" lon="-2.47566">
        <ele>7.4000000953674</ele>
        <time>2022-03-10T10:28:38.000Z</time>
      </trkpt>
      <trkpt lat="47.27194" lon="-2.47556">
        <ele>7.8000001907349</ele>
        <time>2022-03-10T10:28:39.000Z</time>
      </trkpt>
      <trkpt lat="47.27193" lon="-2.47547">
        <ele>8.1999998092651</ele>
        <time>2022-03-10T10:28:40.000Z</time>
      </trkpt>
      <trkpt lat="47.27192" lon="-2.47538">
        <ele>8.6000003814697</ele>
        <time>2022-03-10T10:28:41.000Z</time>
      </trkpt>
      <trkpt lat="47.27191" lon="-2.47529">
        <ele>9</ele>
        <time>2022-03-10T10:28:42.000Z</time>
      </trkpt>
      <trkpt lat="47.27187" lon="-2.47503">
        <ele>9</ele>
        <time>2022-03-10T10:28:45.000Z</time>
      </trkpt>
      <trkpt lat="47.27171" lon="-2.47456">
        <ele>9</ele>
        <time>2022-03-10T10:28:51.000Z</time>
      </trkpt>
      <trkpt lat="47.27146" lon="-2.47392">
        <ele>9</ele>
        <time>2022-03-10T10:28:59.000Z</time>
      </trkpt>
      <trkpt lat="47.27137" lon="-2.47368">
        <ele>9.3999996185303</ele>
        <time>2022-03-10T10:29:02.000Z</time>
      </trkpt>
      <trkpt lat="47.27135" lon="-2.4736">
        <ele>9.8000001907349</ele>
        <time>2022-03-10T10:29:03.000Z</time>
      </trkpt>
      <trkpt lat="47.27133" lon="-2.47352">
        <ele>10.199999809265</ele>
        <time>2022-03-10T10:29:04.000Z</time>
      </trkpt>
      <trkpt lat="47.27131" lon="-2.47344">
        <ele>10.60000038147</ele>
        <time>2022-03-10T10:29:05.000Z</time>
      </trkpt>
      <trkpt lat="47.27129" lon="-2.47336">
        <ele>11</ele>
        <time>2022-03-10T10:29:06.000Z</time>
      </trkpt>
      <trkpt lat="47.27126" lon="-2.47309">
        <ele>11</ele>
        <time>2022-03-10T10:29:09.000Z</time>
      </trkpt>
      <trkpt lat="47.27124" lon="-2.47282">
        <ele>11</ele>
        <time>2022-03-10T10:29:12.000Z</time>
      </trkpt>
      <trkpt lat="47.27119" lon="-2.47199">
        <ele>11</ele>
        <time>2022-03-10T10:29:21.000Z</time>
      </trkpt>
      <trkpt lat="47.27113" lon="-2.47142">
        <ele>11</ele>
        <time>2022-03-10T10:29:27.000Z</time>
      </trkpt>
      <trkpt lat="47.2711" lon="-2.47084">
        <ele>11</ele>
        <time>2022-03-10T10:29:34.000Z</time>
      </trkpt>
      <trkpt lat="47.27117" lon="-2.47066">
        <ele>11</ele>
        <time>2022-03-10T10:29:37.000Z</time>
      </trkpt>
      <trkpt lat="47.2712" lon="-2.47062">
        <ele>11</ele>
        <time>2022-03-10T10:29:38.000Z</time>
      </trkpt>
      <trkpt lat="47.27124" lon="-2.47057">
        <ele>11</ele>
        <time>2022-03-10T10:29:39.000Z</time>
      </trkpt>
      <trkpt lat="47.27133" lon="-2.47053">
        <ele>11</ele>
        <time>2022-03-10T10:29:41.000Z</time>
      </trkpt>
      <trkpt lat="47.27143" lon="-2.47052">
        <ele>11.60000038147</ele>
        <time>2022-03-10T10:29:43.000Z</time>
      </trkpt>
      <trkpt lat="47.27148" lon="-2.47051">
        <ele>12</ele>
        <time>2022-03-10T10:29:44.000Z</time>
      </trkpt>
      <trkpt lat="47.27152" lon="-2.4705">
        <ele>12.39999961853</ele>
        <time>2022-03-10T10:29:45.000Z</time>
      </trkpt>
      <trkpt lat="47.27157" lon="-2.47049">
        <ele>12.800000190735</ele>
        <time>2022-03-10T10:29:46.000Z</time>
      </trkpt>
      <trkpt lat="47.27162" lon="-2.47048">
        <ele>13.199999809265</ele>
        <time>2022-03-10T10:29:47.000Z</time>
      </trkpt>
      <trkpt lat="47.27187" lon="-2.47043">
        <ele>13.199999809265</ele>
        <time>2022-03-10T10:29:53.000Z</time>
      </trkpt>
      <trkpt lat="47.27224" lon="-2.47036">
        <ele>13.199999809265</ele>
        <time>2022-03-10T10:30:02.000Z</time>
      </trkpt>
      <trkpt lat="47.27256" lon="-2.47034">
        <ele>13.199999809265</ele>
        <time>2022-03-10T10:30:09.000Z</time>
      </trkpt>
      <trkpt lat="47.27264" lon="-2.47035">
        <ele>13.60000038147</ele>
        <time>2022-03-10T10:30:11.000Z</time>
      </trkpt>
      <trkpt lat="47.27268" lon="-2.47036">
        <ele>14</ele>
        <time>2022-03-10T10:30:12.000Z</time>
      </trkpt>
      <trkpt lat="47.27273" lon="-2.47036">
        <ele>14.39999961853</ele>
        <time>2022-03-10T10:30:13.000Z</time>
      </trkpt>
      <trkpt lat="47.27278" lon="-2.47036">
        <ele>14.800000190735</ele>
        <time>2022-03-10T10:30:14.000Z</time>
      </trkpt>
      <trkpt lat="47.27283" lon="-2.47035">
        <ele>15.199999809265</ele>
        <time>2022-03-10T10:30:15.000Z</time>
      </trkpt>
      <trkpt lat="47.27304" lon="-2.47031">
        <ele>15.199999809265</ele>
        <time>2022-03-10T10:30:19.000Z</time>
      </trkpt>
      <trkpt lat="47.27329" lon="-2.47009">
        <ele>15.199999809265</ele>
        <time>2022-03-10T10:30:24.000Z</time>
      </trkpt>
      <trkpt lat="47.27334" lon="-2.47005">
        <ele>15.199999809265</ele>
        <time>2022-03-10T10:30:25.000Z</time>
      </trkpt>
      <trkpt lat="47.27348" lon="-2.46997">
        <ele>15.199999809265</ele>
        <time>2022-03-10T10:30:28.000Z</time>
      </trkpt>
      <trkpt lat="47.27359" lon="-2.46994">
        <ele>14.800000190735</ele>
        <time>2022-03-10T10:30:30.000Z</time>
      </trkpt>
      <trkpt lat="47.27364" lon="-2.46991">
        <ele>14.39999961853</ele>
        <time>2022-03-10T10:30:31.000Z</time>
      </trkpt>
      <trkpt lat="47.2737" lon="-2.46989">
        <ele>14</ele>
        <time>2022-03-10T10:30:32.000Z</time>
      </trkpt>
      <trkpt lat="47.27375" lon="-2.46987">
        <ele>13.60000038147</ele>
        <time>2022-03-10T10:30:33.000Z</time>
      </trkpt>
      <trkpt lat="47.2738" lon="-2.46984">
        <ele>13.199999809265</ele>
        <time>2022-03-10T10:30:34.000Z</time>
      </trkpt>
      <trkpt lat="47.27413" lon="-2.46971">
        <ele>13.199999809265</ele>
        <time>2022-03-10T10:30:40.000Z</time>
      </trkpt>
      <trkpt lat="47.27424" lon="-2.46965">
        <ele>12.800000190735</ele>
        <time>2022-03-10T10:30:42.000Z</time>
      </trkpt>
      <trkpt lat="47.27429" lon="-2.46961">
        <ele>12.39999961853</ele>
        <time>2022-03-10T10:30:43.000Z</time>
      </trkpt>
      <trkpt lat="47.27434" lon="-2.46957">
        <ele>12</ele>
        <time>2022-03-10T10:30:44.000Z</time>
      </trkpt>
      <trkpt lat="47.27439" lon="-2.46952">
        <ele>11.39999961853</ele>
        <time>2022-03-10T10:30:45.000Z</time>
      </trkpt>
      <trkpt lat="47.27444" lon="-2.46948">
        <ele>11</ele>
        <time>2022-03-10T10:30:46.000Z</time>
      </trkpt>
      <trkpt lat="47.27473" lon="-2.46926">
        <ele>11</ele>
        <time>2022-03-10T10:30:51.000Z</time>
      </trkpt>
      <trkpt lat="47.27481" lon="-2.46911">
        <ele>10.60000038147</ele>
        <time>2022-03-10T10:30:53.000Z</time>
      </trkpt>
      <trkpt lat="47.27483" lon="-2.46902">
        <ele>10.199999809265</ele>
        <time>2022-03-10T10:30:54.000Z</time>
      </trkpt>
      <trkpt lat="47.27484" lon="-2.46892">
        <ele>9.8000001907349</ele>
        <time>2022-03-10T10:30:55.000Z</time>
      </trkpt>
      <trkpt lat="47.27483" lon="-2.46882">
        <ele>9.3999996185303</ele>
        <time>2022-03-10T10:30:56.000Z</time>
      </trkpt>
      <trkpt lat="47.27481" lon="-2.46873">
        <ele>9</ele>
        <time>2022-03-10T10:30:57.000Z</time>
      </trkpt>
      <trkpt lat="47.27476" lon="-2.46856">
        <ele>9</ele>
        <time>2022-03-10T10:30:59.000Z</time>
      </trkpt>
      <trkpt lat="47.2747" lon="-2.46834">
        <ele>9</ele>
        <time>2022-03-10T10:31:02.000Z</time>
      </trkpt>
      <trkpt lat="47.27467" lon="-2.46826">
        <ele>9</ele>
        <time>2022-03-10T10:31:03.000Z</time>
      </trkpt>
      <trkpt lat="47.27456" lon="-2.46795">
        <ele>9</ele>
        <time>2022-03-10T10:31:07.000Z</time>
      </trkpt>
      <trkpt lat="47.27435" lon="-2.46723">
        <ele>9</ele>
        <time>2022-03-10T10:31:15.000Z</time>
      </trkpt>
      <trkpt lat="47.27424" lon="-2.46689">
        <ele>8.6000003814697</ele>
        <time>2022-03-10T10:31:19.000Z</time>
      </trkpt>
      <trkpt lat="47.27421" lon="-2.4668">
        <ele>8.1999998092651</ele>
        <time>2022-03-10T10:31:20.000Z</time>
      </trkpt>
      <trkpt lat="47.27419" lon="-2.46672">
        <ele>7.8000001907349</ele>
        <time>2022-03-10T10:31:21.000Z</time>
      </trkpt>
      <trkpt lat="47.27417" lon="-2.46665">
        <ele>7.4000000953674</ele>
        <time>2022-03-10T10:31:22.000Z</time>
      </trkpt>
      <trkpt lat="47.27415" lon="-2.46657">
        <ele>7</ele>
        <time>2022-03-10T10:31:23.000Z</time>
      </trkpt>
      <trkpt lat="47.27405" lon="-2.46618">
        <ele>7</ele>
        <time>2022-03-10T10:31:28.000Z</time>
      </trkpt>
      <trkpt lat="47.2739" lon="-2.46568">
        <ele>7</ele>
        <time>2022-03-10T10:31:34.000Z</time>
      </trkpt>
      <trkpt lat="47.27367" lon="-2.46505">
        <ele>7</ele>
        <time>2022-03-10T10:31:42.000Z</time>
      </trkpt>
      <trkpt lat="47.27349" lon="-2.46453">
        <ele>7</ele>
        <time>2022-03-10T10:31:48.000Z</time>
      </trkpt>
      <trkpt lat="47.27325" lon="-2.46382">
        <ele>7</ele>
        <time>2022-03-10T10:31:56.000Z</time>
      </trkpt>
      <trkpt lat="47.27306" lon="-2.46329">
        <ele>7</ele>
        <time>2022-03-10T10:32:03.000Z</time>
      </trkpt>
      <trkpt lat="47.27283" lon="-2.46272">
        <ele>6.5999999046326</ele>
        <time>2022-03-10T10:32:11.000Z</time>
      </trkpt>
      <trkpt lat="47.2728" lon="-2.46265">
        <ele>6.1999998092651</ele>
        <time>2022-03-10T10:32:12.000Z</time>
      </trkpt>
      <trkpt lat="47.27277" lon="-2.46258">
        <ele>5.8000001907349</ele>
        <time>2022-03-10T10:32:13.000Z</time>
      </trkpt>
      <trkpt lat="47.27274" lon="-2.46252">
        <ele>5.4000000953674</ele>
        <time>2022-03-10T10:32:14.000Z</time>
      </trkpt>
      <trkpt lat="47.27272" lon="-2.46245">
        <ele>5</ele>
        <time>2022-03-10T10:32:15.000Z</time>
      </trkpt>
      <trkpt lat="47.27264" lon="-2.46226">
        <ele>5</ele>
        <time>2022-03-10T10:32:18.000Z</time>
      </trkpt>
      <trkpt lat="47.27259" lon="-2.46215">
        <ele>5</ele>
        <time>2022-03-10T10:32:20.000Z</time>
      </trkpt>
      <trkpt lat="47.27259" lon="-2.46203">
        <ele>5</ele>
        <time>2022-03-10T10:32:22.000Z</time>
      </trkpt>
      <trkpt lat="47.27271" lon="-2.46192">
        <ele>5</ele>
        <time>2022-03-10T10:32:25.000Z</time>
      </trkpt>
      <trkpt lat="47.27299" lon="-2.46169">
        <ele>5</ele>
        <time>2022-03-10T10:32:31.000Z</time>
      </trkpt>
      <trkpt lat="47.27323" lon="-2.46148">
        <ele>5</ele>
        <time>2022-03-10T10:32:36.000Z</time>
      </trkpt>
      <trkpt lat="47.27328" lon="-2.46145">
        <ele>5</ele>
        <time>2022-03-10T10:32:37.000Z</time>
      </trkpt>
      <trkpt lat="47.27334" lon="-2.46143">
        <ele>5</ele>
        <time>2022-03-10T10:32:38.000Z</time>
      </trkpt>
      <trkpt lat="47.27352" lon="-2.4614">
        <ele>5</ele>
        <time>2022-03-10T10:32:41.000Z</time>
      </trkpt>
      <trkpt lat="47.27363" lon="-2.46139">
        <ele>5</ele>
        <time>2022-03-10T10:32:43.000Z</time>
      </trkpt>
      <trkpt lat="47.27379" lon="-2.46138">
        <ele>5</ele>
        <time>2022-03-10T10:32:46.000Z</time>
      </trkpt>
      <trkpt lat="47.27384" lon="-2.46137">
        <ele>5</ele>
        <time>2022-03-10T10:32:47.000Z</time>
      </trkpt>
      <trkpt lat="47.27421" lon="-2.46128">
        <ele>5</ele>
        <time>2022-03-10T10:32:54.000Z</time>
      </trkpt>
      <trkpt lat="47.27438" lon="-2.46122">
        <ele>5</ele>
        <time>2022-03-10T10:32:57.000Z</time>
      </trkpt>
      <trkpt lat="47.27448" lon="-2.46115">
        <ele>5</ele>
        <time>2022-03-10T10:32:59.000Z</time>
      </trkpt>
      <trkpt lat="47.2748" lon="-2.4609">
        <ele>5</ele>
        <time>2022-03-10T10:33:05.000Z</time>
      </trkpt>
      <trkpt lat="47.27499" lon="-2.46072">
        <ele>5</ele>
        <time>2022-03-10T10:33:10.000Z</time>
      </trkpt>
      <trkpt lat="47.27517" lon="-2.46058">
        <ele>5</ele>
        <time>2022-03-10T10:33:16.000Z</time>
      </trkpt>
      <trkpt lat="47.27527" lon="-2.46051">
        <ele>4.5999999046326</ele>
        <time>2022-03-10T10:33:20.000Z</time>
      </trkpt>
      <trkpt lat="47.27529" lon="-2.4605">
        <ele>4.1999998092651</ele>
        <time>2022-03-10T10:33:21.000Z</time>
      </trkpt>
      <trkpt lat="47.2753" lon="-2.46049">
        <ele>3.7999999523163</ele>
        <time>2022-03-10T10:33:22.000Z</time>
      </trkpt>
      <trkpt lat="47.27532" lon="-2.46047">
        <ele>3.4000000953674</ele>
        <time>2022-03-10T10:33:23.000Z</time>
      </trkpt>
      <trkpt lat="47.27534" lon="-2.46045">
        <ele>3</ele>
        <time>2022-03-10T10:33:24.000Z</time>
      </trkpt>
      <trkpt lat="47.27545" lon="-2.46036">
        <ele>3</ele>
        <time>2022-03-10T10:33:28.000Z</time>
      </trkpt>
      <trkpt lat="47.2756" lon="-2.46021">
        <ele>3</ele>
        <time>2022-03-10T10:33:32.000Z</time>
      </trkpt>
      <trkpt lat="47.27564" lon="-2.46017">
        <ele>3</ele>
        <time>2022-03-10T10:33:33.000Z</time>
      </trkpt>
      <trkpt lat="47.2759" lon="-2.45989">
        <ele>3</ele>
        <time>2022-03-10T10:33:39.000Z</time>
      </trkpt>
      <trkpt lat="47.27627" lon="-2.45958">
        <ele>3</ele>
        <time>2022-03-10T10:33:47.000Z</time>
      </trkpt>
      <trkpt lat="47.27632" lon="-2.45955">
        <ele>3</ele>
        <time>2022-03-10T10:33:48.000Z</time>
      </trkpt>
      <trkpt lat="47.27638" lon="-2.45942">
        <ele>3</ele>
        <time>2022-03-10T10:33:50.000Z</time>
      </trkpt>
      <trkpt lat="47.27637" lon="-2.45919">
        <ele>3</ele>
        <time>2022-03-10T10:33:53.000Z</time>
      </trkpt>
      <trkpt lat="47.27637" lon="-2.45911">
        <ele>3</ele>
        <time>2022-03-10T10:33:54.000Z</time>
      </trkpt>
      <trkpt lat="47.27639" lon="-2.45879">
        <ele>3</ele>
        <time>2022-03-10T10:33:58.000Z</time>
      </trkpt>
      <trkpt lat="47.2764" lon="-2.45847">
        <ele>3</ele>
        <time>2022-03-10T10:34:02.000Z</time>
      </trkpt>
      <trkpt lat="47.27639" lon="-2.45789">
        <ele>3</ele>
        <time>2022-03-10T10:34:10.000Z</time>
      </trkpt>
      <trkpt lat="47.27637" lon="-2.45752">
        <ele>3</ele>
        <time>2022-03-10T10:34:16.000Z</time>
      </trkpt>
      <trkpt lat="47.27633" lon="-2.45725">
        <ele>3.4000000953674</ele>
        <time>2022-03-10T10:34:21.000Z</time>
      </trkpt>
      <trkpt lat="47.27632" lon="-2.4572">
        <ele>3.7999999523163</ele>
        <time>2022-03-10T10:34:22.000Z</time>
      </trkpt>
      <trkpt lat="47.2763" lon="-2.45715">
        <ele>4.1999998092651</ele>
        <time>2022-03-10T10:34:23.000Z</time>
      </trkpt>
      <trkpt lat="47.27629" lon="-2.4571">
        <ele>4.5999999046326</ele>
        <time>2022-03-10T10:34:24.000Z</time>
      </trkpt>
      <trkpt lat="47.27627" lon="-2.45706">
        <ele>5</ele>
        <time>2022-03-10T10:34:25.000Z</time>
      </trkpt>
      <trkpt lat="47.27624" lon="-2.45704">
        <ele>5</ele>
        <time>2022-03-10T10:34:26.000Z</time>
      </trkpt>
      <trkpt lat="47.2761" lon="-2.45707">
        <ele>5</ele>
        <time>2022-03-10T10:34:29.000Z</time>
      </trkpt>
      <trkpt lat="47.276" lon="-2.45712">
        <ele>5</ele>
        <time>2022-03-10T10:34:31.000Z</time>
      </trkpt>
      <trkpt lat="47.27578" lon="-2.45719">
        <ele>5</ele>
        <time>2022-03-10T10:34:35.000Z</time>
      </trkpt>
      <trkpt lat="47.27548" lon="-2.4573">
        <ele>5</ele>
        <time>2022-03-10T10:34:40.000Z</time>
      </trkpt>
      <trkpt lat="47.27536" lon="-2.45734">
        <ele>5</ele>
        <time>2022-03-10T10:34:42.000Z</time>
      </trkpt>
      <trkpt lat="47.27484" lon="-2.45752">
        <ele>5</ele>
        <time>2022-03-10T10:34:50.000Z</time>
      </trkpt>
      <trkpt lat="47.27428" lon="-2.45766">
        <ele>5</ele>
        <time>2022-03-10T10:34:58.000Z</time>
      </trkpt>
      <trkpt lat="47.2738" lon="-2.45774">
        <ele>5</ele>
        <time>2022-03-10T10:35:05.000Z</time>
      </trkpt>
      <trkpt lat="47.27375" lon="-2.45773">
        <ele>5</ele>
        <time>2022-03-10T10:35:06.000Z</time>
      </trkpt>
      <trkpt lat="47.27367" lon="-2.45765">
        <ele>5</ele>
        <time>2022-03-10T10:35:08.000Z</time>
      </trkpt>
      <trkpt lat="47.27361" lon="-2.45743">
        <ele>5</ele>
        <time>2022-03-10T10:35:11.000Z</time>
      </trkpt>
      <trkpt lat="47.27359" lon="-2.45735">
        <ele>5</ele>
        <time>2022-03-10T10:35:12.000Z</time>
      </trkpt>
      <trkpt lat="47.2734" lon="-2.45683">
        <ele>5</ele>
        <time>2022-03-10T10:35:19.000Z</time>
      </trkpt>
      <trkpt lat="47.27322" lon="-2.45622">
        <ele>5</ele>
        <time>2022-03-10T10:35:27.000Z</time>
      </trkpt>
      <trkpt lat="47.27326" lon="-2.456">
        <ele>5</ele>
        <time>2022-03-10T10:35:30.000Z</time>
      </trkpt>
      <trkpt lat="47.2734" lon="-2.45589">
        <ele>5</ele>
        <time>2022-03-10T10:35:33.000Z</time>
      </trkpt>
      <trkpt lat="47.27375" lon="-2.45571">
        <ele>5</ele>
        <time>2022-03-10T10:35:39.000Z</time>
      </trkpt>
      <trkpt lat="47.2741" lon="-2.45562">
        <ele>5</ele>
        <time>2022-03-10T10:35:45.000Z</time>
      </trkpt>
      <trkpt lat="47.27416" lon="-2.45559">
        <ele>5</ele>
        <time>2022-03-10T10:35:46.000Z</time>
      </trkpt>
      <trkpt lat="47.27422" lon="-2.45556">
        <ele>5</ele>
        <time>2022-03-10T10:35:47.000Z</time>
      </trkpt>
      <trkpt lat="47.27431" lon="-2.45543">
        <ele>5</ele>
        <time>2022-03-10T10:35:49.000Z</time>
      </trkpt>
      <trkpt lat="47.27435" lon="-2.45518">
        <ele>5</ele>
        <time>2022-03-10T10:35:52.000Z</time>
      </trkpt>
      <trkpt lat="47.27446" lon="-2.45506">
        <ele>5</ele>
        <time>2022-03-10T10:35:55.000Z</time>
      </trkpt>
      <trkpt lat="47.27457" lon="-2.45499">
        <ele>5</ele>
        <time>2022-03-10T10:35:57.000Z</time>
      </trkpt>
      <trkpt lat="47.27473" lon="-2.45489">
        <ele>5</ele>
        <time>2022-03-10T10:36:00.000Z</time>
      </trkpt>
      <trkpt lat="47.27491" lon="-2.45471">
        <ele>5</ele>
        <time>2022-03-10T10:36:04.000Z</time>
      </trkpt>
      <trkpt lat="47.27493" lon="-2.45464">
        <ele>5</ele>
        <time>2022-03-10T10:36:05.000Z</time>
      </trkpt>
      <trkpt lat="47.27489" lon="-2.4544">
        <ele>5</ele>
        <time>2022-03-10T10:36:08.000Z</time>
      </trkpt>
      <trkpt lat="47.27487" lon="-2.45422">
        <ele>5</ele>
        <time>2022-03-10T10:36:10.000Z</time>
      </trkpt>
      <trkpt lat="47.27486" lon="-2.45405">
        <ele>5</ele>
        <time>2022-03-10T10:36:12.000Z</time>
      </trkpt>
      <trkpt lat="47.27488" lon="-2.45399">
        <ele>5</ele>
        <time>2022-03-10T10:36:13.000Z</time>
      </trkpt>
      <trkpt lat="47.27502" lon="-2.45393">
        <ele>5</ele>
        <time>2022-03-10T10:36:16.000Z</time>
      </trkpt>
      <trkpt lat="47.27525" lon="-2.45386">
        <ele>5</ele>
        <time>2022-03-10T10:36:20.000Z</time>
      </trkpt>
      <trkpt lat="47.27537" lon="-2.4538">
        <ele>5</ele>
        <time>2022-03-10T10:36:22.000Z</time>
      </trkpt>
      <trkpt lat="47.27578" lon="-2.45364">
        <ele>5</ele>
        <time>2022-03-10T10:36:29.000Z</time>
      </trkpt>
      <trkpt lat="47.27605" lon="-2.45356">
        <ele>5</ele>
        <time>2022-03-10T10:36:34.000Z</time>
      </trkpt>
      <trkpt lat="47.27609" lon="-2.45357">
        <ele>5</ele>
        <time>2022-03-10T10:36:35.000Z</time>
      </trkpt>
      <trkpt lat="47.27618" lon="-2.45344">
        <ele>5</ele>
        <time>2022-03-10T10:36:38.000Z</time>
      </trkpt>
      <trkpt lat="47.27617" lon="-2.45331">
        <ele>5</ele>
        <time>2022-03-10T10:36:40.000Z</time>
      </trkpt>
      <trkpt lat="47.27616" lon="-2.45323">
        <ele>5</ele>
        <time>2022-03-10T10:36:41.000Z</time>
      </trkpt>
      <trkpt lat="47.27612" lon="-2.45285">
        <ele>4.5999999046326</ele>
        <time>2022-03-10T10:36:45.000Z</time>
      </trkpt>
      <trkpt lat="47.2761" lon="-2.45275">
        <ele>4.1999998092651</ele>
        <time>2022-03-10T10:36:46.000Z</time>
      </trkpt>
      <trkpt lat="47.2761" lon="-2.45265">
        <ele>3.7999999523163</ele>
        <time>2022-03-10T10:36:47.000Z</time>
      </trkpt>
      <trkpt lat="47.27609" lon="-2.45254">
        <ele>3.4000000953674</ele>
        <time>2022-03-10T10:36:48.000Z</time>
      </trkpt>
      <trkpt lat="47.27608" lon="-2.45244">
        <ele>3</ele>
        <time>2022-03-10T10:36:49.000Z</time>
      </trkpt>
      <trkpt lat="47.27606" lon="-2.45221">
        <ele>3</ele>
        <time>2022-03-10T10:36:51.000Z</time>
      </trkpt>
      <trkpt lat="47.27596" lon="-2.45155">
        <ele>3</ele>
        <time>2022-03-10T10:36:57.000Z</time>
      </trkpt>
      <trkpt lat="47.27582" lon="-2.4509">
        <ele>3</ele>
        <time>2022-03-10T10:37:03.000Z</time>
      </trkpt>
      <trkpt lat="47.27578" lon="-2.45081">
        <ele>2.5999999046326</ele>
        <time>2022-03-10T10:37:04.000Z</time>
      </trkpt>
      <trkpt lat="47.27573" lon="-2.45071">
        <ele>2.2000000476837</ele>
        <time>2022-03-10T10:37:05.000Z</time>
      </trkpt>
      <trkpt lat="47.27569" lon="-2.45062">
        <ele>1.7999999523163</ele>
        <time>2022-03-10T10:37:06.000Z</time>
      </trkpt>
      <trkpt lat="47.27564" lon="-2.45054">
        <ele>1.3999999761581</ele>
        <time>2022-03-10T10:37:07.000Z</time>
      </trkpt>
      <trkpt lat="47.2756" lon="-2.45046">
        <ele>1</ele>
        <time>2022-03-10T10:37:08.000Z</time>
      </trkpt>
      <trkpt lat="47.27538" lon="-2.44993">
        <ele>1</ele>
        <time>2022-03-10T10:37:14.000Z</time>
      </trkpt>
      <trkpt lat="47.27518" lon="-2.44931">
        <ele>1</ele>
        <time>2022-03-10T10:37:21.000Z</time>
      </trkpt>
      <trkpt lat="47.27504" lon="-2.44869">
        <ele>1</ele>
        <time>2022-03-10T10:37:28.000Z</time>
      </trkpt>
      <trkpt lat="47.27501" lon="-2.44853">
        <ele>1</ele>
        <time>2022-03-10T10:37:30.000Z</time>
      </trkpt>
      <trkpt lat="47.27506" lon="-2.4484">
        <ele>1</ele>
        <time>2022-03-10T10:37:32.000Z</time>
      </trkpt>
      <trkpt lat="47.27525" lon="-2.44821">
        <ele>1</ele>
        <time>2022-03-10T10:37:36.000Z</time>
      </trkpt>
      <trkpt lat="47.27534" lon="-2.44808">
        <ele>1</ele>
        <time>2022-03-10T10:37:38.000Z</time>
      </trkpt>
      <trkpt lat="47.27534" lon="-2.448">
        <ele>1</ele>
        <time>2022-03-10T10:37:39.000Z</time>
      </trkpt>
      <trkpt lat="47.27529" lon="-2.44778">
        <ele>1</ele>
        <time>2022-03-10T10:37:42.000Z</time>
      </trkpt>
      <trkpt lat="47.27519" lon="-2.44731">
        <ele>1</ele>
        <time>2022-03-10T10:37:47.000Z</time>
      </trkpt>
      <trkpt lat="47.27507" lon="-2.44693">
        <ele>1</ele>
        <time>2022-03-10T10:37:51.000Z</time>
      </trkpt>
      <trkpt lat="47.27502" lon="-2.44685">
        <ele>1</ele>
        <time>2022-03-10T10:37:52.000Z</time>
      </trkpt>
      <trkpt lat="47.27477" lon="-2.44646">
        <ele>1</ele>
        <time>2022-03-10T10:37:57.000Z</time>
      </trkpt>
      <trkpt lat="47.27462" lon="-2.44613">
        <ele>1</ele>
        <time>2022-03-10T10:38:01.000Z</time>
      </trkpt>
      <trkpt lat="47.27458" lon="-2.44605">
        <ele>1</ele>
        <time>2022-03-10T10:38:02.000Z</time>
      </trkpt>
      <trkpt lat="47.27454" lon="-2.44597">
        <ele>1</ele>
        <time>2022-03-10T10:38:03.000Z</time>
      </trkpt>
      <trkpt lat="47.27449" lon="-2.4457">
        <ele>1</ele>
        <time>2022-03-10T10:38:06.000Z</time>
      </trkpt>
      <trkpt lat="47.27449" lon="-2.44561">
        <ele>1</ele>
        <time>2022-03-10T10:38:07.000Z</time>
      </trkpt>
      <trkpt lat="47.27444" lon="-2.44515">
        <ele>1</ele>
        <time>2022-03-10T10:38:12.000Z</time>
      </trkpt>
      <trkpt lat="47.27441" lon="-2.44506">
        <ele>1</ele>
        <time>2022-03-10T10:38:13.000Z</time>
      </trkpt>
      <trkpt lat="47.27435" lon="-2.44471">
        <ele>1</ele>
        <time>2022-03-10T10:38:17.000Z</time>
      </trkpt>
      <trkpt lat="47.27436" lon="-2.44421">
        <ele>1</ele>
        <time>2022-03-10T10:38:23.000Z</time>
      </trkpt>
      <trkpt lat="47.27439" lon="-2.44414">
        <ele>1</ele>
        <time>2022-03-10T10:38:24.000Z</time>
      </trkpt>
      <trkpt lat="47.2745" lon="-2.44402">
        <ele>1</ele>
        <time>2022-03-10T10:38:27.000Z</time>
      </trkpt>
      <trkpt lat="47.27465" lon="-2.44402">
        <ele>1</ele>
        <time>2022-03-10T10:38:30.000Z</time>
      </trkpt>
      <trkpt lat="47.27498" lon="-2.44394">
        <ele>1</ele>
        <time>2022-03-10T10:38:36.000Z</time>
      </trkpt>
      <trkpt lat="47.27514" lon="-2.44384">
        <ele>1</ele>
        <time>2022-03-10T10:38:39.000Z</time>
      </trkpt>
      <trkpt lat="47.27518" lon="-2.44378">
        <ele>1</ele>
        <time>2022-03-10T10:38:40.000Z</time>
      </trkpt>
      <trkpt lat="47.27529" lon="-2.44347">
        <ele>1</ele>
        <time>2022-03-10T10:38:44.000Z</time>
      </trkpt>
      <trkpt lat="47.27531" lon="-2.4433">
        <ele>1</ele>
        <time>2022-03-10T10:38:46.000Z</time>
      </trkpt>
      <trkpt lat="47.27538" lon="-2.44293">
        <ele>1</ele>
        <time>2022-03-10T10:38:50.000Z</time>
      </trkpt>
      <trkpt lat="47.27553" lon="-2.44239">
        <ele>1</ele>
        <time>2022-03-10T10:38:56.000Z</time>
      </trkpt>
      <trkpt lat="47.27579" lon="-2.44185">
        <ele>1</ele>
        <time>2022-03-10T10:39:03.000Z</time>
      </trkpt>
      <trkpt lat="47.27604" lon="-2.44145">
        <ele>1</ele>
        <time>2022-03-10T10:39:09.000Z</time>
      </trkpt>
      <trkpt lat="47.27634" lon="-2.4409">
        <ele>1</ele>
        <time>2022-03-10T10:39:17.000Z</time>
      </trkpt>
      <trkpt lat="47.27647" lon="-2.44064">
        <ele>1</ele>
        <time>2022-03-10T10:39:21.000Z</time>
      </trkpt>
      <trkpt lat="47.27652" lon="-2.44051">
        <ele>1</ele>
        <time>2022-03-10T10:39:23.000Z</time>
      </trkpt>
      <trkpt lat="47.27668" lon="-2.44047">
        <ele>1</ele>
        <time>2022-03-10T10:39:26.000Z</time>
      </trkpt>
      <trkpt lat="47.27684" lon="-2.44042">
        <ele>1</ele>
        <time>2022-03-10T10:39:29.000Z</time>
      </trkpt>
      <trkpt lat="47.27695" lon="-2.44039">
        <ele>1</ele>
        <time>2022-03-10T10:39:31.000Z</time>
      </trkpt>
      <trkpt lat="47.27703" lon="-2.44038">
        <ele>1</ele>
        <time>2022-03-10T10:39:33.000Z</time>
      </trkpt>
      <trkpt lat="47.27712" lon="-2.44034">
        <ele>1</ele>
        <time>2022-03-10T10:39:35.000Z</time>
      </trkpt>
      <trkpt lat="47.2772" lon="-2.44018">
        <ele>1</ele>
        <time>2022-03-10T10:39:38.000Z</time>
      </trkpt>
      <trkpt lat="47.27724" lon="-2.44003">
        <ele>1</ele>
        <time>2022-03-10T10:39:40.000Z</time>
      </trkpt>
      <trkpt lat="47.27733" lon="-2.43973">
        <ele>1</ele>
        <time>2022-03-10T10:39:44.000Z</time>
      </trkpt>
      <trkpt lat="47.27751" lon="-2.43908">
        <ele>1</ele>
        <time>2022-03-10T10:39:52.000Z</time>
      </trkpt>
      <trkpt lat="47.27762" lon="-2.43862">
        <ele>1</ele>
        <time>2022-03-10T10:39:58.000Z</time>
      </trkpt>
      <trkpt lat="47.27765" lon="-2.43847">
        <ele>1</ele>
        <time>2022-03-10T10:40:00.000Z</time>
      </trkpt>
      <trkpt lat="47.27763" lon="-2.43832">
        <ele>1</ele>
        <time>2022-03-10T10:40:02.000Z</time>
      </trkpt>
      <trkpt lat="47.27771" lon="-2.43803">
        <ele>1</ele>
        <time>2022-03-10T10:40:06.000Z</time>
      </trkpt>
      <trkpt lat="47.2778" lon="-2.43792">
        <ele>1</ele>
        <time>2022-03-10T10:40:08.000Z</time>
      </trkpt>
      <trkpt lat="47.27789" lon="-2.43787">
        <ele>1</ele>
        <time>2022-03-10T10:40:10.000Z</time>
      </trkpt>
      <trkpt lat="47.27805" lon="-2.43794">
        <ele>1</ele>
        <time>2022-03-10T10:40:13.000Z</time>
      </trkpt>
      <trkpt lat="47.27828" lon="-2.43789">
        <ele>1</ele>
        <time>2022-03-10T10:40:17.000Z</time>
      </trkpt>
      <trkpt lat="47.27834" lon="-2.43787">
        <ele>1</ele>
        <time>2022-03-10T10:40:18.000Z</time>
      </trkpt>
      <trkpt lat="47.2784" lon="-2.43782">
        <ele>1</ele>
        <time>2022-03-10T10:40:19.000Z</time>
      </trkpt>
      <trkpt lat="47.27863" lon="-2.43764">
        <ele>1</ele>
        <time>2022-03-10T10:40:23.000Z</time>
      </trkpt>
      <trkpt lat="47.27891" lon="-2.43738">
        <ele>1</ele>
        <time>2022-03-10T10:40:28.000Z</time>
      </trkpt>
      <trkpt lat="47.27896" lon="-2.43731">
        <ele>1</ele>
        <time>2022-03-10T10:40:29.000Z</time>
      </trkpt>
      <trkpt lat="47.27931" lon="-2.43689">
        <ele>1</ele>
        <time>2022-03-10T10:40:36.000Z</time>
      </trkpt>
      <trkpt lat="47.27953" lon="-2.43656">
        <ele>1</ele>
        <time>2022-03-10T10:40:41.000Z</time>
      </trkpt>
      <trkpt lat="47.27984" lon="-2.43612">
        <ele>1</ele>
        <time>2022-03-10T10:40:48.000Z</time>
      </trkpt>
      <trkpt lat="47.28016" lon="-2.43567">
        <ele>1</ele>
        <time>2022-03-10T10:40:55.000Z</time>
      </trkpt>
      <trkpt lat="47.28052" lon="-2.43515">
        <ele>1</ele>
        <time>2022-03-10T10:41:03.000Z</time>
      </trkpt>
      <trkpt lat="47.28082" lon="-2.43467">
        <ele>1</ele>
        <time>2022-03-10T10:41:10.000Z</time>
      </trkpt>
      <trkpt lat="47.28113" lon="-2.43421">
        <ele>1</ele>
        <time>2022-03-10T10:41:17.000Z</time>
      </trkpt>
      <trkpt lat="47.28148" lon="-2.43371">
        <ele>1</ele>
        <time>2022-03-10T10:41:25.000Z</time>
      </trkpt>
      <trkpt lat="47.28181" lon="-2.43327">
        <ele>1</ele>
        <time>2022-03-10T10:41:33.000Z</time>
      </trkpt>
      <trkpt lat="47.28195" lon="-2.43318">
        <ele>1</ele>
        <time>2022-03-10T10:41:37.000Z</time>
      </trkpt>
      <trkpt lat="47.28215" lon="-2.43319">
        <ele>1</ele>
        <time>2022-03-10T10:41:41.000Z</time>
      </trkpt>
      <trkpt lat="47.28225" lon="-2.43338">
        <ele>1</ele>
        <time>2022-03-10T10:41:44.000Z</time>
      </trkpt>
      <trkpt lat="47.28235" lon="-2.43358">
        <ele>1</ele>
        <time>2022-03-10T10:41:47.000Z</time>
      </trkpt>
      <trkpt lat="47.28239" lon="-2.43363">
        <ele>1</ele>
        <time>2022-03-10T10:41:48.000Z</time>
      </trkpt>
      <trkpt lat="47.28259" lon="-2.43382">
        <ele>1</ele>
        <time>2022-03-10T10:41:53.000Z</time>
      </trkpt>
      <trkpt lat="47.28263" lon="-2.43378">
        <ele>1</ele>
        <time>2022-03-10T10:41:54.000Z</time>
      </trkpt>
      <trkpt lat="47.28266" lon="-2.43364">
        <ele>1</ele>
        <time>2022-03-10T10:41:56.000Z</time>
      </trkpt>
      <trkpt lat="47.28268" lon="-2.43349">
        <ele>1</ele>
        <time>2022-03-10T10:41:58.000Z</time>
      </trkpt>
      <trkpt lat="47.28272" lon="-2.43326">
        <ele>1</ele>
        <time>2022-03-10T10:42:01.000Z</time>
      </trkpt>
      <trkpt lat="47.28282" lon="-2.4327">
        <ele>1</ele>
        <time>2022-03-10T10:42:08.000Z</time>
      </trkpt>
      <trkpt lat="47.28291" lon="-2.43213">
        <ele>1</ele>
        <time>2022-03-10T10:42:15.000Z</time>
      </trkpt>
      <trkpt lat="47.28298" lon="-2.43161">
        <ele>1</ele>
        <time>2022-03-10T10:42:22.000Z</time>
      </trkpt>
      <trkpt lat="47.28303" lon="-2.43131">
        <ele>1</ele>
        <time>2022-03-10T10:42:26.000Z</time>
      </trkpt>
      <trkpt lat="47.28304" lon="-2.43119">
        <ele>1</ele>
        <time>2022-03-10T10:42:28.000Z</time>
      </trkpt>
      <trkpt lat="47.28306" lon="-2.43105">
        <ele>1</ele>
        <time>2022-03-10T10:42:32.000Z</time>
      </trkpt>
      <trkpt lat="47.28308" lon="-2.43102">
        <ele>1</ele>
        <time>2022-03-10T10:42:34.000Z</time>
      </trkpt>
      <trkpt lat="47.28312" lon="-2.43098">
        <ele>1</ele>
        <time>2022-03-10T10:42:37.000Z</time>
      </trkpt>
      <trkpt lat="47.28315" lon="-2.43095">
        <ele>1</ele>
        <time>2022-03-10T10:42:39.000Z</time>
      </trkpt>
      <trkpt lat="47.28323" lon="-2.43099">
        <ele>1</ele>
        <time>2022-03-10T10:42:42.000Z</time>
      </trkpt>
      <trkpt lat="47.28331" lon="-2.43102">
        <ele>1</ele>
        <time>2022-03-10T10:42:45.000Z</time>
      </trkpt>
      <trkpt lat="47.28336" lon="-2.43103">
        <ele>1</ele>
        <time>2022-03-10T10:42:47.000Z</time>
      </trkpt>
      <trkpt lat="47.28347" lon="-2.43095">
        <ele>1</ele>
        <time>2022-03-10T10:42:51.000Z</time>
      </trkpt>
      <trkpt lat="47.28364" lon="-2.43071">
        <ele>1</ele>
        <time>2022-03-10T10:42:57.000Z</time>
      </trkpt>
      <trkpt lat="47.28385" lon="-2.43038">
        <ele>1</ele>
        <time>2022-03-10T10:43:04.000Z</time>
      </trkpt>
      <trkpt lat="47.28408" lon="-2.43004">
        <ele>1</ele>
        <time>2022-03-10T10:43:11.000Z</time>
      </trkpt>
      <trkpt lat="47.28412" lon="-2.43001">
        <ele>1</ele>
        <time>2022-03-10T10:43:12.000Z</time>
      </trkpt>
      <trkpt lat="47.28426" lon="-2.42998">
        <ele>1</ele>
        <time>2022-03-10T10:43:15.000Z</time>
      </trkpt>
      <trkpt lat="47.28431" lon="-2.42997">
        <ele>1</ele>
        <time>2022-03-10T10:43:16.000Z</time>
      </trkpt>
      <trkpt lat="47.28463" lon="-2.42988">
        <ele>1</ele>
        <time>2022-03-10T10:43:23.000Z</time>
      </trkpt>
      <trkpt lat="47.28479" lon="-2.42984">
        <ele>1</ele>
        <time>2022-03-10T10:43:27.000Z</time>
      </trkpt>
      <trkpt lat="47.28483" lon="-2.42987">
        <ele>1</ele>
        <time>2022-03-10T10:43:28.000Z</time>
      </trkpt>
      <trkpt lat="47.28495" lon="-2.43004">
        <ele>1</ele>
        <time>2022-03-10T10:43:32.000Z</time>
      </trkpt>
      <trkpt lat="47.28498" lon="-2.43009">
        <ele>1</ele>
        <time>2022-03-10T10:43:33.000Z</time>
      </trkpt>
      <trkpt lat="47.28501" lon="-2.43013">
        <ele>1</ele>
        <time>2022-03-10T10:43:34.000Z</time>
      </trkpt>
      <trkpt lat="47.28515" lon="-2.43028">
        <ele>1</ele>
        <time>2022-03-10T10:43:38.000Z</time>
      </trkpt>
      <trkpt lat="47.28531" lon="-2.43037">
        <ele>1</ele>
        <time>2022-03-10T10:43:42.000Z</time>
      </trkpt>
      <trkpt lat="47.28535" lon="-2.4304">
        <ele>1</ele>
        <time>2022-03-10T10:43:43.000Z</time>
      </trkpt>
      <trkpt lat="47.28542" lon="-2.43047">
        <ele>1</ele>
        <time>2022-03-10T10:43:45.000Z</time>
      </trkpt>
      <trkpt lat="47.28549" lon="-2.43056">
        <ele>1</ele>
        <time>2022-03-10T10:43:47.000Z</time>
      </trkpt>
      <trkpt lat="47.2857" lon="-2.43089">
        <ele>1</ele>
        <time>2022-03-10T10:43:53.000Z</time>
      </trkpt>
      <trkpt lat="47.28582" lon="-2.43113">
        <ele>1</ele>
        <time>2022-03-10T10:43:57.000Z</time>
      </trkpt>
      <trkpt lat="47.28585" lon="-2.43126">
        <ele>1</ele>
        <time>2022-03-10T10:43:59.000Z</time>
      </trkpt>
      <trkpt lat="47.28592" lon="-2.43154">
        <ele>1</ele>
        <time>2022-03-10T10:44:03.000Z</time>
      </trkpt>
      <trkpt lat="47.28594" lon="-2.43168">
        <ele>1</ele>
        <time>2022-03-10T10:44:05.000Z</time>
      </trkpt>
      <trkpt lat="47.28594" lon="-2.43176">
        <ele>1</ele>
        <time>2022-03-10T10:44:06.000Z</time>
      </trkpt>
      <trkpt lat="47.28595" lon="-2.43206">
        <ele>1</ele>
        <time>2022-03-10T10:44:10.000Z</time>
      </trkpt>
      <trkpt lat="47.28596" lon="-2.43243">
        <ele>1</ele>
        <time>2022-03-10T10:44:15.000Z</time>
      </trkpt>
      <trkpt lat="47.28597" lon="-2.4325">
        <ele>1</ele>
        <time>2022-03-10T10:44:16.000Z</time>
      </trkpt>
      <trkpt lat="47.2861" lon="-2.43258">
        <ele>1</ele>
        <time>2022-03-10T10:44:19.000Z</time>
      </trkpt>
      <trkpt lat="47.28615" lon="-2.43256">
        <ele>1</ele>
        <time>2022-03-10T10:44:20.000Z</time>
      </trkpt>
      <trkpt lat="47.28638" lon="-2.43249">
        <ele>1</ele>
        <time>2022-03-10T10:44:25.000Z</time>
      </trkpt>
      <trkpt lat="47.28646" lon="-2.43244">
        <ele>1</ele>
        <time>2022-03-10T10:44:27.000Z</time>
      </trkpt>
      <trkpt lat="47.28652" lon="-2.43235">
        <ele>1</ele>
        <time>2022-03-10T10:44:29.000Z</time>
      </trkpt>
      <trkpt lat="47.28648" lon="-2.43223">
        <ele>1</ele>
        <time>2022-03-10T10:44:32.000Z</time>
      </trkpt>
      <trkpt lat="47.28642" lon="-2.43214">
        <ele>1</ele>
        <time>2022-03-10T10:44:34.000Z</time>
      </trkpt>
      <trkpt lat="47.28633" lon="-2.43198">
        <ele>1</ele>
        <time>2022-03-10T10:44:37.000Z</time>
      </trkpt>
      <trkpt lat="47.28631" lon="-2.43192">
        <ele>1</ele>
        <time>2022-03-10T10:44:38.000Z</time>
      </trkpt>
      <trkpt lat="47.28625" lon="-2.43168">
        <ele>1</ele>
        <time>2022-03-10T10:44:41.000Z</time>
      </trkpt>
      <trkpt lat="47.28623" lon="-2.43151">
        <ele>1</ele>
        <time>2022-03-10T10:44:43.000Z</time>
      </trkpt>
      <trkpt lat="47.28623" lon="-2.43134">
        <ele>1</ele>
        <time>2022-03-10T10:44:45.000Z</time>
      </trkpt>
      <trkpt lat="47.28626" lon="-2.4311">
        <ele>1</ele>
        <time>2022-03-10T10:44:48.000Z</time>
      </trkpt>
      <trkpt lat="47.28632" lon="-2.43078">
        <ele>1</ele>
        <time>2022-03-10T10:44:52.000Z</time>
      </trkpt>
      <trkpt lat="47.28639" lon="-2.43059">
        <ele>1</ele>
        <time>2022-03-10T10:44:55.000Z</time>
      </trkpt>
      <trkpt lat="47.28642" lon="-2.43046">
        <ele>1</ele>
        <time>2022-03-10T10:44:57.000Z</time>
      </trkpt>
      <trkpt lat="47.28653" lon="-2.42995">
        <ele>1</ele>
        <time>2022-03-10T10:45:04.000Z</time>
      </trkpt>
      <trkpt lat="47.28659" lon="-2.42957">
        <ele>1</ele>
        <time>2022-03-10T10:45:09.000Z</time>
      </trkpt>
      <trkpt lat="47.2866" lon="-2.42942">
        <ele>1</ele>
        <time>2022-03-10T10:45:11.000Z</time>
      </trkpt>
      <trkpt lat="47.28666" lon="-2.42897">
        <ele>1</ele>
        <time>2022-03-10T10:45:17.000Z</time>
      </trkpt>
      <trkpt lat="47.28668" lon="-2.42884">
        <ele>1</ele>
        <time>2022-03-10T10:45:19.000Z</time>
      </trkpt>
      <trkpt lat="47.28672" lon="-2.42856">
        <ele>1</ele>
        <time>2022-03-10T10:45:23.000Z</time>
      </trkpt>
      <trkpt lat="47.28678" lon="-2.42828">
        <ele>1</ele>
        <time>2022-03-10T10:45:27.000Z</time>
      </trkpt>
      <trkpt lat="47.28684" lon="-2.42816">
        <ele>1</ele>
        <time>2022-03-10T10:45:29.000Z</time>
      </trkpt>
      <trkpt lat="47.28702" lon="-2.4278">
        <ele>1</ele>
        <time>2022-03-10T10:45:35.000Z</time>
      </trkpt>
      <trkpt lat="47.28705" lon="-2.42774">
        <ele>1</ele>
        <time>2022-03-10T10:45:36.000Z</time>
      </trkpt>
      <trkpt lat="47.28711" lon="-2.42761">
        <ele>1</ele>
        <time>2022-03-10T10:45:38.000Z</time>
      </trkpt>
      <trkpt lat="47.28716" lon="-2.42738">
        <ele>1</ele>
        <time>2022-03-10T10:45:41.000Z</time>
      </trkpt>
      <trkpt lat="47.28718" lon="-2.42723">
        <ele>1</ele>
        <time>2022-03-10T10:45:43.000Z</time>
      </trkpt>
      <trkpt lat="47.28719" lon="-2.42715">
        <ele>1</ele>
        <time>2022-03-10T10:45:44.000Z</time>
      </trkpt>
      <trkpt lat="47.28719" lon="-2.4269">
        <ele>1</ele>
        <time>2022-03-10T10:45:47.000Z</time>
      </trkpt>
      <trkpt lat="47.28718" lon="-2.42675">
        <ele>1</ele>
        <time>2022-03-10T10:45:49.000Z</time>
      </trkpt>
      <trkpt lat="47.28711" lon="-2.42664">
        <ele>1</ele>
        <time>2022-03-10T10:45:51.000Z</time>
      </trkpt>
      <trkpt lat="47.28691" lon="-2.42655">
        <ele>1</ele>
        <time>2022-03-10T10:45:55.000Z</time>
      </trkpt>
      <trkpt lat="47.28675" lon="-2.42651">
        <ele>1</ele>
        <time>2022-03-10T10:45:58.000Z</time>
      </trkpt>
      <trkpt lat="47.28664" lon="-2.4265">
        <ele>1</ele>
        <time>2022-03-10T10:46:00.000Z</time>
      </trkpt>
      <trkpt lat="47.28653" lon="-2.42648">
        <ele>1</ele>
        <time>2022-03-10T10:46:02.000Z</time>
      </trkpt>
      <trkpt lat="47.28632" lon="-2.4264">
        <ele>1</ele>
        <time>2022-03-10T10:46:06.000Z</time>
      </trkpt>
      <trkpt lat="47.28606" lon="-2.42619">
        <ele>1</ele>
        <time>2022-03-10T10:46:11.000Z</time>
      </trkpt>
      <trkpt lat="47.28591" lon="-2.42605">
        <ele>1</ele>
        <time>2022-03-10T10:46:14.000Z</time>
      </trkpt>
      <trkpt lat="47.28578" lon="-2.42588">
        <ele>1</ele>
        <time>2022-03-10T10:46:17.000Z</time>
      </trkpt>
      <trkpt lat="47.28569" lon="-2.42574">
        <ele>1</ele>
        <time>2022-03-10T10:46:19.000Z</time>
      </trkpt>
      <trkpt lat="47.28562" lon="-2.42551">
        <ele>1</ele>
        <time>2022-03-10T10:46:22.000Z</time>
      </trkpt>
      <trkpt lat="47.28563" lon="-2.42526">
        <ele>1</ele>
        <time>2022-03-10T10:46:25.000Z</time>
      </trkpt>
      <trkpt lat="47.28576" lon="-2.42485">
        <ele>1</ele>
        <time>2022-03-10T10:46:30.000Z</time>
      </trkpt>
      <trkpt lat="47.28589" lon="-2.42466">
        <ele>1</ele>
        <time>2022-03-10T10:46:33.000Z</time>
      </trkpt>
      <trkpt lat="47.28594" lon="-2.4246">
        <ele>1</ele>
        <time>2022-03-10T10:46:34.000Z</time>
      </trkpt>
      <trkpt lat="47.28615" lon="-2.42439">
        <ele>1</ele>
        <time>2022-03-10T10:46:38.000Z</time>
      </trkpt>
      <trkpt lat="47.28626" lon="-2.4243">
        <ele>1</ele>
        <time>2022-03-10T10:46:40.000Z</time>
      </trkpt>
      <trkpt lat="47.28637" lon="-2.42419">
        <ele>1</ele>
        <time>2022-03-10T10:46:42.000Z</time>
      </trkpt>
      <trkpt lat="47.28652" lon="-2.42403">
        <ele>1</ele>
        <time>2022-03-10T10:46:45.000Z</time>
      </trkpt>
      <trkpt lat="47.28657" lon="-2.42396">
        <ele>1</ele>
        <time>2022-03-10T10:46:46.000Z</time>
      </trkpt>
      <trkpt lat="47.28668" lon="-2.42375">
        <ele>1</ele>
        <time>2022-03-10T10:46:49.000Z</time>
      </trkpt>
      <trkpt lat="47.28669" lon="-2.42366">
        <ele>1</ele>
        <time>2022-03-10T10:46:50.000Z</time>
      </trkpt>
      <trkpt lat="47.28672" lon="-2.42329">
        <ele>1</ele>
        <time>2022-03-10T10:46:54.000Z</time>
      </trkpt>
      <trkpt lat="47.28681" lon="-2.42272">
        <ele>1</ele>
        <time>2022-03-10T10:47:01.000Z</time>
      </trkpt>
      <trkpt lat="47.28692" lon="-2.42228">
        <ele>1</ele>
        <time>2022-03-10T10:47:06.000Z</time>
      </trkpt>
      <trkpt lat="47.28695" lon="-2.4222">
        <ele>1</ele>
        <time>2022-03-10T10:47:07.000Z</time>
      </trkpt>
      <trkpt lat="47.28703" lon="-2.42201">
        <ele>1</ele>
        <time>2022-03-10T10:47:10.000Z</time>
      </trkpt>
      <trkpt lat="47.28705" lon="-2.42197">
        <ele>1</ele>
        <time>2022-03-10T10:47:11.000Z</time>
      </trkpt>
      <trkpt lat="47.287" lon="-2.4219">
        <ele>1</ele>
        <time>2022-03-10T10:47:14.000Z</time>
      </trkpt>
      <trkpt lat="47.28689" lon="-2.42185">
        <ele>1</ele>
        <time>2022-03-10T10:47:17.000Z</time>
      </trkpt>
      <trkpt lat="47.28679" lon="-2.42184">
        <ele>1</ele>
        <time>2022-03-10T10:47:19.000Z</time>
      </trkpt>
      <trkpt lat="47.28674" lon="-2.42184">
        <ele>1</ele>
        <time>2022-03-10T10:47:20.000Z</time>
      </trkpt>
      <trkpt lat="47.2866" lon="-2.42189">
        <ele>1</ele>
        <time>2022-03-10T10:47:23.000Z</time>
      </trkpt>
      <trkpt lat="47.28642" lon="-2.42186">
        <ele>1</ele>
        <time>2022-03-10T10:47:27.000Z</time>
      </trkpt>
      <trkpt lat="47.28636" lon="-2.42173">
        <ele>1</ele>
        <time>2022-03-10T10:47:29.000Z</time>
      </trkpt>
      <trkpt lat="47.28627" lon="-2.42152">
        <ele>1</ele>
        <time>2022-03-10T10:47:32.000Z</time>
      </trkpt>
      <trkpt lat="47.286" lon="-2.42091">
        <ele>1</ele>
        <time>2022-03-10T10:47:41.000Z</time>
      </trkpt>
      <trkpt lat="47.28591" lon="-2.42068">
        <ele>1</ele>
        <time>2022-03-10T10:47:44.000Z</time>
      </trkpt>
      <trkpt lat="47.28583" lon="-2.42046">
        <ele>1</ele>
        <time>2022-03-10T10:47:47.000Z</time>
      </trkpt>
      <trkpt lat="47.28559" lon="-2.41992">
        <ele>1</ele>
        <time>2022-03-10T10:47:55.000Z</time>
      </trkpt>
      <trkpt lat="47.28538" lon="-2.41947">
        <ele>1</ele>
        <time>2022-03-10T10:48:02.000Z</time>
      </trkpt>
      <trkpt lat="47.28524" lon="-2.4194">
        <ele>1</ele>
        <time>2022-03-10T10:48:05.000Z</time>
      </trkpt>
      <trkpt lat="47.2852" lon="-2.41938">
        <ele>1</ele>
        <time>2022-03-10T10:48:06.000Z</time>
      </trkpt>
      <trkpt lat="47.28499" lon="-2.41936">
        <ele>1</ele>
        <time>2022-03-10T10:48:11.000Z</time>
      </trkpt>
      <trkpt lat="47.2849" lon="-2.41939">
        <ele>1</ele>
        <time>2022-03-10T10:48:13.000Z</time>
      </trkpt>
      <trkpt lat="47.28485" lon="-2.41939">
        <ele>1</ele>
        <time>2022-03-10T10:48:14.000Z</time>
      </trkpt>
      <trkpt lat="47.28476" lon="-2.41939">
        <ele>0.60000002384186</ele>
        <time>2022-03-10T10:48:16.000Z</time>
      </trkpt>
      <trkpt lat="47.28472" lon="-2.41943">
        <ele>2</ele>
        <time>2022-03-10T10:48:17.000Z</time>
      </trkpt>
      <trkpt lat="47.28469" lon="-2.41949">
        <ele>-0.40000000596046</ele>
        <time>2022-03-10T10:48:18.000Z</time>
      </trkpt>
      <trkpt lat="47.28467" lon="-2.41954">
        <ele>-0.80000001192093</ele>
        <time>2022-03-10T10:48:19.000Z</time>
      </trkpt>
      <trkpt lat="47.28465" lon="-2.41959">
        <ele>-1.3999999761581</ele>
        <time>2022-03-10T10:48:20.000Z</time>
      </trkpt>
      <trkpt lat="47.28461" lon="-2.41978">
        <ele>-1.3999999761581</ele>
        <time>2022-03-10T10:48:24.000Z</time>
      </trkpt>
      <trkpt lat="47.28455" lon="-2.41973">
        <ele>-1.3999999761581</ele>
        <time>2022-03-10T10:48:27.000Z</time>
      </trkpt>
      <trkpt lat="47.28456" lon="-2.41961">
        <ele>-1.3999999761581</ele>
        <time>2022-03-10T10:48:30.000Z</time>
      </trkpt>
      <trkpt lat="47.28458" lon="-2.41938">
        <ele>-1</ele>
        <time>2022-03-10T10:48:36.000Z</time>
      </trkpt>
      <trkpt lat="47.28456" lon="-2.41936">
        <ele>-0.40000000596046</ele>
        <time>2022-03-10T10:48:37.000Z</time>
      </trkpt>
      <trkpt lat="47.28454" lon="-2.41937">
        <ele>3.3</ele>
        <time>2022-03-10T10:48:38.000Z</time>
      </trkpt>
      <trkpt lat="47.28452" lon="-2.41939">
        <ele>0.40000000596046</ele>
        <time>2022-03-10T10:48:39.000Z</time>
      </trkpt>
      <trkpt lat="47.2845" lon="-2.41943">
        <ele>0.80000001192093</ele>
        <time>2022-03-10T10:48:40.000Z</time>
      </trkpt>
      <trkpt lat="47.28449" lon="-2.41953">
        <ele>0.80000001192093</ele>
        <time>2022-03-10T10:48:42.000Z</time>
      </trkpt>
      <trkpt lat="47.28445" lon="-2.41962">
        <ele>0.80000001192093</ele>
        <time>2022-03-10T10:48:44.000Z</time>
      </trkpt>
      <trkpt lat="47.28441" lon="-2.41974">
        <ele>0.80000001192093</ele>
        <time>2022-03-10T10:48:46.000Z</time>
      </trkpt>
      <trkpt lat="47.28438" lon="-2.41993">
        <ele>0.80000001192093</ele>
        <time>2022-03-10T10:48:49.000Z</time>
      </trkpt>
      <trkpt lat="47.28432" lon="-2.42019">
        <ele>0.80000001192093</ele>
        <time>2022-03-10T10:48:53.000Z</time>
      </trkpt>
      <trkpt lat="47.28429" lon="-2.42031">
        <ele>0.80000001192093</ele>
        <time>2022-03-10T10:48:55.000Z</time>
      </trkpt>
      <trkpt lat="47.2842" lon="-2.42079">
        <ele>0.80000001192093</ele>
        <time>2022-03-10T10:49:02.000Z</time>
      </trkpt>
      <trkpt lat="47.28408" lon="-2.42139">
        <ele>0.80000001192093</ele>
        <time>2022-03-10T10:49:10.000Z</time>
      </trkpt>
      <trkpt lat="47.28396" lon="-2.42189">
        <ele>0.80000001192093</ele>
        <time>2022-03-10T10:49:17.000Z</time>
      </trkpt>
      <trkpt lat="47.28393" lon="-2.42204">
        <ele>0.80000001192093</ele>
        <time>2022-03-10T10:49:19.000Z</time>
      </trkpt>
      <trkpt lat="47.28389" lon="-2.42226">
        <ele>0.80000001192093</ele>
        <time>2022-03-10T10:49:22.000Z</time>
      </trkpt>
      <trkpt lat="47.28382" lon="-2.42263">
        <ele>0.80000001192093</ele>
        <time>2022-03-10T10:49:27.000Z</time>
      </trkpt>
      <trkpt lat="47.2838" lon="-2.4227">
        <ele>0.80000001192093</ele>
        <time>2022-03-10T10:49:28.000Z</time>
      </trkpt>
      <trkpt lat="47.28377" lon="-2.42285">
        <ele>0.80000001192093</ele>
        <time>2022-03-10T10:49:30.000Z</time>
      </trkpt>
      <trkpt lat="47.28376" lon="-2.42308">
        <ele>0.80000001192093</ele>
        <time>2022-03-10T10:49:33.000Z</time>
      </trkpt>
      <trkpt lat="47.28379" lon="-2.42321">
        <ele>0.80000001192093</ele>
        <time>2022-03-10T10:49:35.000Z</time>
      </trkpt>
      <trkpt lat="47.2838" lon="-2.42328">
        <ele>0.80000001192093</ele>
        <time>2022-03-10T10:49:36.000Z</time>
      </trkpt>
      <trkpt lat="47.28385" lon="-2.42365">
        <ele>0.80000001192093</ele>
        <time>2022-03-10T10:49:41.000Z</time>
      </trkpt>
      <trkpt lat="47.28384" lon="-2.4238">
        <ele>0.80000001192093</ele>
        <time>2022-03-10T10:49:43.000Z</time>
      </trkpt>
      <trkpt lat="47.28379" lon="-2.42392">
        <ele>0.80000001192093</ele>
        <time>2022-03-10T10:49:45.000Z</time>
      </trkpt>
      <trkpt lat="47.28373" lon="-2.42405">
        <ele>0.80000001192093</ele>
        <time>2022-03-10T10:49:47.000Z</time>
      </trkpt>
      <trkpt lat="47.2835" lon="-2.4246">
        <ele>0.80000001192093</ele>
        <time>2022-03-10T10:49:55.000Z</time>
      </trkpt>
      <trkpt lat="47.2833" lon="-2.42509">
        <ele>0.80000001192093</ele>
        <time>2022-03-10T10:50:02.000Z</time>
      </trkpt>
      <trkpt lat="47.28328" lon="-2.42516">
        <ele>0.80000001192093</ele>
        <time>2022-03-10T10:50:03.000Z</time>
      </trkpt>
      <trkpt lat="47.28317" lon="-2.42543">
        <ele>0.80000001192093</ele>
        <time>2022-03-10T10:50:07.000Z</time>
      </trkpt>
      <trkpt lat="47.2831" lon="-2.42555">
        <ele>0.80000001192093</ele>
        <time>2022-03-10T10:50:09.000Z</time>
      </trkpt>
      <trkpt lat="47.28296" lon="-2.42567">
        <ele>0.80000001192093</ele>
        <time>2022-03-10T10:50:12.000Z</time>
      </trkpt>
      <trkpt lat="47.28291" lon="-2.42571">
        <ele>0.80000001192093</ele>
        <time>2022-03-10T10:50:13.000Z</time>
      </trkpt>
      <trkpt lat="47.28257" lon="-2.42606">
        <ele>0.80000001192093</ele>
        <time>2022-03-10T10:50:20.000Z</time>
      </trkpt>
      <trkpt lat="47.28223" lon="-2.42638">
        <ele>0.80000001192093</ele>
        <time>2022-03-10T10:50:27.000Z</time>
      </trkpt>
      <trkpt lat="47.28205" lon="-2.42658">
        <ele>0.80000001192093</ele>
        <time>2022-03-10T10:50:31.000Z</time>
      </trkpt>
      <trkpt lat="47.28199" lon="-2.42672">
        <ele>0.80000001192093</ele>
        <time>2022-03-10T10:50:33.000Z</time>
      </trkpt>
      <trkpt lat="47.28194" lon="-2.427">
        <ele>0.80000001192093</ele>
        <time>2022-03-10T10:50:37.000Z</time>
      </trkpt>
      <trkpt lat="47.28186" lon="-2.42705">
        <ele>0.80000001192093</ele>
        <time>2022-03-10T10:50:40.000Z</time>
      </trkpt>
      <trkpt lat="47.28181" lon="-2.42701">
        <ele>0.80000001192093</ele>
        <time>2022-03-10T10:50:42.000Z</time>
      </trkpt>
      <trkpt lat="47.28176" lon="-2.42693">
        <ele>0.80000001192093</ele>
        <time>2022-03-10T10:50:44.000Z</time>
      </trkpt>
      <trkpt lat="47.28161" lon="-2.4267">
        <ele>0.80000001192093</ele>
        <time>2022-03-10T10:50:49.000Z</time>
      </trkpt>
      <trkpt lat="47.28158" lon="-2.42666">
        <ele>0.80000001192093</ele>
        <time>2022-03-10T10:50:50.000Z</time>
      </trkpt>
      <trkpt lat="47.28152" lon="-2.42656">
        <ele>0.80000001192093</ele>
        <time>2022-03-10T10:50:52.000Z</time>
      </trkpt>
      <trkpt lat="47.28147" lon="-2.42646">
        <ele>1.2000000476837</ele>
        <time>2022-03-10T10:50:54.000Z</time>
      </trkpt>
      <trkpt lat="47.28144" lon="-2.42641">
        <ele>1.6000000238419</ele>
        <time>2022-03-10T10:50:55.000Z</time>
      </trkpt>
      <trkpt lat="47.28142" lon="-2.42636">
        <ele>2</ele>
        <time>2022-03-10T10:50:56.000Z</time>
      </trkpt>
      <trkpt lat="47.28139" lon="-2.4263">
        <ele>2.4000000953674</ele>
        <time>2022-03-10T10:50:57.000Z</time>
      </trkpt>
      <trkpt lat="47.28136" lon="-2.42624">
        <ele>2.7999999523163</ele>
        <time>2022-03-10T10:50:58.000Z</time>
      </trkpt>
      <trkpt lat="47.28123" lon="-2.42599">
        <ele>2.7999999523163</ele>
        <time>2022-03-10T10:51:02.000Z</time>
      </trkpt>
      <trkpt lat="47.281" lon="-2.42559">
        <ele>2.7999999523163</ele>
        <time>2022-03-10T10:51:09.000Z</time>
      </trkpt>
      <trkpt lat="47.28098" lon="-2.42548">
        <ele>2.7999999523163</ele>
        <time>2022-03-10T10:51:11.000Z</time>
      </trkpt>
      <trkpt lat="47.28099" lon="-2.42542">
        <ele>2.7999999523163</ele>
        <time>2022-03-10T10:51:12.000Z</time>
      </trkpt>
      <trkpt lat="47.28108" lon="-2.42538">
        <ele>2.7999999523163</ele>
        <time>2022-03-10T10:51:14.000Z</time>
      </trkpt>
      <trkpt lat="47.2812" lon="-2.42537">
        <ele>2.7999999523163</ele>
        <time>2022-03-10T10:51:16.000Z</time>
      </trkpt>
      <trkpt lat="47.28144" lon="-2.42533">
        <ele>2.7999999523163</ele>
        <time>2022-03-10T10:51:20.000Z</time>
      </trkpt>
      <trkpt lat="47.28175" lon="-2.42525">
        <ele>2.7999999523163</ele>
        <time>2022-03-10T10:51:25.000Z</time>
      </trkpt>
      <trkpt lat="47.2818" lon="-2.42522">
        <ele>2.7999999523163</ele>
        <time>2022-03-10T10:51:26.000Z</time>
      </trkpt>
      <trkpt lat="47.28202" lon="-2.42505">
        <ele>2.7999999523163</ele>
        <time>2022-03-10T10:51:30.000Z</time>
      </trkpt>
      <trkpt lat="47.28207" lon="-2.42499">
        <ele>2.7999999523163</ele>
        <time>2022-03-10T10:51:31.000Z</time>
      </trkpt>
      <trkpt lat="47.28219" lon="-2.42478">
        <ele>2.7999999523163</ele>
        <time>2022-03-10T10:51:34.000Z</time>
      </trkpt>
      <trkpt lat="47.28227" lon="-2.42463">
        <ele>2.7999999523163</ele>
        <time>2022-03-10T10:51:36.000Z</time>
      </trkpt>
      <trkpt lat="47.28246" lon="-2.42414">
        <ele>2.7999999523163</ele>
        <time>2022-03-10T10:51:42.000Z</time>
      </trkpt>
      <trkpt lat="47.28261" lon="-2.42347">
        <ele>2.7999999523163</ele>
        <time>2022-03-10T10:51:49.000Z</time>
      </trkpt>
      <trkpt lat="47.2827" lon="-2.42282">
        <ele>2.7999999523163</ele>
        <time>2022-03-10T10:51:56.000Z</time>
      </trkpt>
      <trkpt lat="47.28278" lon="-2.42217">
        <ele>2.7999999523163</ele>
        <time>2022-03-10T10:52:03.000Z</time>
      </trkpt>
      <trkpt lat="47.28289" lon="-2.42142">
        <ele>2.7999999523163</ele>
        <time>2022-03-10T10:52:11.000Z</time>
      </trkpt>
      <trkpt lat="47.28292" lon="-2.42124">
        <ele>2.4000000953674</ele>
        <time>2022-03-10T10:52:13.000Z</time>
      </trkpt>
      <trkpt lat="47.28293" lon="-2.42115">
        <ele>2</ele>
        <time>2022-03-10T10:52:14.000Z</time>
      </trkpt>
      <trkpt lat="47.28294" lon="-2.42106">
        <ele>1.6000000238419</ele>
        <time>2022-03-10T10:52:15.000Z</time>
      </trkpt>
      <trkpt lat="47.28296" lon="-2.42097">
        <ele>1.2000000476837</ele>
        <time>2022-03-10T10:52:16.000Z</time>
      </trkpt>
      <trkpt lat="47.28297" lon="-2.42088">
        <ele>0.80000001192093</ele>
        <time>2022-03-10T10:52:17.000Z</time>
      </trkpt>
      <trkpt lat="47.28298" lon="-2.42079">
        <ele>0.80000001192093</ele>
        <time>2022-03-10T10:52:18.000Z</time>
      </trkpt>
      <trkpt lat="47.28309" lon="-2.42012">
        <ele>0.80000001192093</ele>
        <time>2022-03-10T10:52:26.000Z</time>
      </trkpt>
      <trkpt lat="47.28311" lon="-2.41998">
        <ele>0.80000001192093</ele>
        <time>2022-03-10T10:52:28.000Z</time>
      </trkpt>
      <trkpt lat="47.28306" lon="-2.41987">
        <ele>0.80000001192093</ele>
        <time>2022-03-10T10:52:30.000Z</time>
      </trkpt>
      <trkpt lat="47.283" lon="-2.41975">
        <ele>0.80000001192093</ele>
        <time>2022-03-10T10:52:32.000Z</time>
      </trkpt>
      <trkpt lat="47.283" lon="-2.41961">
        <ele>0.80000001192093</ele>
        <time>2022-03-10T10:52:34.000Z</time>
      </trkpt>
      <trkpt lat="47.28302" lon="-2.41944">
        <ele>0.80000001192093</ele>
        <time>2022-03-10T10:52:36.000Z</time>
      </trkpt>
      <trkpt lat="47.28307" lon="-2.41927">
        <ele>0.80000001192093</ele>
        <time>2022-03-10T10:52:38.000Z</time>
      </trkpt>
      <trkpt lat="47.2832" lon="-2.41873">
        <ele>0.80000001192093</ele>
        <time>2022-03-10T10:52:44.000Z</time>
      </trkpt>
      <trkpt lat="47.28334" lon="-2.41815">
        <ele>0.80000001192093</ele>
        <time>2022-03-10T10:52:51.000Z</time>
      </trkpt>
      <trkpt lat="47.28355" lon="-2.41751">
        <ele>0.80000001192093</ele>
        <time>2022-03-10T10:52:59.000Z</time>
      </trkpt>
      <trkpt lat="47.2836" lon="-2.41736">
        <ele>0.80000001192093</ele>
        <time>2022-03-10T10:53:01.000Z</time>
      </trkpt>
      <trkpt lat="47.28366" lon="-2.41712">
        <ele>0.80000001192093</ele>
        <time>2022-03-10T10:53:04.000Z</time>
      </trkpt>
      <trkpt lat="47.28369" lon="-2.41692">
        <ele>0.80000001192093</ele>
        <time>2022-03-10T10:53:08.000Z</time>
      </trkpt>
      <trkpt lat="47.2836" lon="-2.41686">
        <ele>0.80000001192093</ele>
        <time>2022-03-10T10:53:11.000Z</time>
      </trkpt>
      <trkpt lat="47.28355" lon="-2.41684">
        <ele>0.80000001192093</ele>
        <time>2022-03-10T10:53:12.000Z</time>
      </trkpt>
      <trkpt lat="47.28332" lon="-2.41673">
        <ele>0.80000001192093</ele>
        <time>2022-03-10T10:53:16.000Z</time>
      </trkpt>
      <trkpt lat="47.28287" lon="-2.41651">
        <ele>0.80000001192093</ele>
        <time>2022-03-10T10:53:24.000Z</time>
      </trkpt>
      <trkpt lat="47.28254" lon="-2.41631">
        <ele>0.80000001192093</ele>
        <time>2022-03-10T10:53:31.000Z</time>
      </trkpt>
      <trkpt lat="47.28254" lon="-2.41619">
        <ele>0.80000001192093</ele>
        <time>2022-03-10T10:53:33.000Z</time>
      </trkpt>
      <trkpt lat="47.28257" lon="-2.41605">
        <ele>0.80000001192093</ele>
        <time>2022-03-10T10:53:35.000Z</time>
      </trkpt>
      <trkpt lat="47.28259" lon="-2.41592">
        <ele>0.80000001192093</ele>
        <time>2022-03-10T10:53:37.000Z</time>
      </trkpt>
      <trkpt lat="47.28261" lon="-2.41586">
        <ele>0.40000000596046</ele>
        <time>2022-03-10T10:53:38.000Z</time>
      </trkpt>
      <trkpt lat="47.28263" lon="-2.41581">
        <ele>2</ele>
        <time>2022-03-10T10:53:39.000Z</time>
      </trkpt>
      <trkpt lat="47.28265" lon="-2.41576">
        <ele>-0.40000000596046</ele>
        <time>2022-03-10T10:53:40.000Z</time>
      </trkpt>
      <trkpt lat="47.28266" lon="-2.4157">
        <ele>-0.80000001192093</ele>
        <time>2022-03-10T10:53:41.000Z</time>
      </trkpt>
      <trkpt lat="47.28268" lon="-2.41565">
        <ele>-1.2000000476837</ele>
        <time>2022-03-10T10:53:42.000Z</time>
      </trkpt>
      <trkpt lat="47.28276" lon="-2.41529">
        <ele>-1.2000000476837</ele>
        <time>2022-03-10T10:53:48.000Z</time>
      </trkpt>
      <trkpt lat="47.28286" lon="-2.41491">
        <ele>-1.2000000476837</ele>
        <time>2022-03-10T10:53:55.000Z</time>
      </trkpt>
      <trkpt lat="47.28294" lon="-2.41459">
        <ele>-1.2000000476837</ele>
        <time>2022-03-10T10:54:02.000Z</time>
      </trkpt>
      <trkpt lat="47.283" lon="-2.41439">
        <ele>-1.2000000476837</ele>
        <time>2022-03-10T10:54:08.000Z</time>
      </trkpt>
      <trkpt lat="47.28304" lon="-2.4142">
        <ele>-1.2000000476837</ele>
        <time>2022-03-10T10:54:15.000Z</time>
      </trkpt>
      <trkpt lat="47.28308" lon="-2.41406">
        <ele>-1.2000000476837</ele>
        <time>2022-03-10T10:54:20.000Z</time>
      </trkpt>
      <trkpt lat="47.28311" lon="-2.41384">
        <ele>-1.2000000476837</ele>
        <time>2022-03-10T10:54:25.000Z</time>
      </trkpt>
      <trkpt lat="47.2832" lon="-2.41355">
        <ele>-1.2000000476837</ele>
        <time>2022-03-10T10:54:31.000Z</time>
      </trkpt>
      <trkpt lat="47.28329" lon="-2.41313">
        <ele>-1.2000000476837</ele>
        <time>2022-03-10T10:54:38.000Z</time>
      </trkpt>
      <trkpt lat="47.2834" lon="-2.41266">
        <ele>-1.2000000476837</ele>
        <time>2022-03-10T10:54:46.000Z</time>
      </trkpt>
      <trkpt lat="47.28346" lon="-2.41244">
        <ele>-1.2000000476837</ele>
        <time>2022-03-10T10:54:51.000Z</time>
      </trkpt>
      <trkpt lat="47.28349" lon="-2.41233">
        <ele>-1.2000000476837</ele>
        <time>2022-03-10T10:54:56.000Z</time>
      </trkpt>
      <trkpt lat="47.2835" lon="-2.41228">
        <ele>-1.2000000476837</ele>
        <time>2022-03-10T10:54:59.000Z</time>
      </trkpt>
      <trkpt lat="47.28351" lon="-2.41221">
        <ele>-1.2000000476837</ele>
        <time>2022-03-10T10:55:02.000Z</time>
      </trkpt>
      <trkpt lat="47.28355" lon="-2.41207">
        <ele>-1.2000000476837</ele>
        <time>2022-03-10T10:55:07.000Z</time>
      </trkpt>
      <trkpt lat="47.28364" lon="-2.41181">
        <ele>-1.2000000476837</ele>
        <time>2022-03-10T10:55:11.000Z</time>
      </trkpt>
      <trkpt lat="47.28375" lon="-2.41129">
        <ele>-1.2000000476837</ele>
        <time>2022-03-10T10:55:18.000Z</time>
      </trkpt>
      <trkpt lat="47.2839" lon="-2.4107">
        <ele>-1.2000000476837</ele>
        <time>2022-03-10T10:55:26.000Z</time>
      </trkpt>
      <trkpt lat="47.28402" lon="-2.41024">
        <ele>-1.2000000476837</ele>
        <time>2022-03-10T10:55:32.000Z</time>
      </trkpt>
      <trkpt lat="47.28413" lon="-2.40973">
        <ele>-1.2000000476837</ele>
        <time>2022-03-10T10:55:39.000Z</time>
      </trkpt>
      <trkpt lat="47.28423" lon="-2.40925">
        <ele>-1.2000000476837</ele>
        <time>2022-03-10T10:55:46.000Z</time>
      </trkpt>
      <trkpt lat="47.28426" lon="-2.40914">
        <ele>-1.2000000476837</ele>
        <time>2022-03-10T10:55:48.000Z</time>
      </trkpt>
      <trkpt lat="47.28421" lon="-2.40907">
        <ele>-1.2000000476837</ele>
        <time>2022-03-10T10:55:50.000Z</time>
      </trkpt>
      <trkpt lat="47.28413" lon="-2.40902">
        <ele>-1.2000000476837</ele>
        <time>2022-03-10T10:55:52.000Z</time>
      </trkpt>
      <trkpt lat="47.28408" lon="-2.40901">
        <ele>-1.2000000476837</ele>
        <time>2022-03-10T10:55:53.000Z</time>
      </trkpt>
      <trkpt lat="47.28403" lon="-2.40899">
        <ele>-1.2000000476837</ele>
        <time>2022-03-10T10:55:54.000Z</time>
      </trkpt>
      <trkpt lat="47.28384" lon="-2.40888">
        <ele>-1.2000000476837</ele>
        <time>2022-03-10T10:55:59.000Z</time>
      </trkpt>
      <trkpt lat="47.2838" lon="-2.40886">
        <ele>-1.2000000476837</ele>
        <time>2022-03-10T10:56:00.000Z</time>
      </trkpt>
      <trkpt lat="47.28376" lon="-2.40884">
        <ele>-1.2000000476837</ele>
        <time>2022-03-10T10:56:01.000Z</time>
      </trkpt>
      <trkpt lat="47.28364" lon="-2.4087">
        <ele>-1.2000000476837</ele>
        <time>2022-03-10T10:56:05.000Z</time>
      </trkpt>
      <trkpt lat="47.28362" lon="-2.40847">
        <ele>-1.2000000476837</ele>
        <time>2022-03-10T10:56:09.000Z</time>
      </trkpt>
      <trkpt lat="47.28361" lon="-2.40813">
        <ele>-1.2000000476837</ele>
        <time>2022-03-10T10:56:14.000Z</time>
      </trkpt>
      <trkpt lat="47.28362" lon="-2.40806">
        <ele>-1.2000000476837</ele>
        <time>2022-03-10T10:56:15.000Z</time>
      </trkpt>
      <trkpt lat="47.2836" lon="-2.40787">
        <ele>-1.2000000476837</ele>
        <time>2022-03-10T10:56:20.000Z</time>
      </trkpt>
      <trkpt lat="47.28355" lon="-2.40785">
        <ele>-1.2000000476837</ele>
        <time>2022-03-10T10:56:24.000Z</time>
      </trkpt>
      <trkpt lat="47.28351" lon="-2.40788">
        <ele>-1.2000000476837</ele>
        <time>2022-03-10T10:56:26.000Z</time>
      </trkpt>
      <trkpt lat="47.28346" lon="-2.40792">
        <ele>-1.2000000476837</ele>
        <time>2022-03-10T10:56:29.000Z</time>
      </trkpt>
      <trkpt lat="47.28343" lon="-2.40793">
        <ele>-1.2000000476837</ele>
        <time>2022-03-10T10:56:32.000Z</time>
      </trkpt>
      <trkpt lat="47.28338" lon="-2.40796">
        <ele>-1.2000000476837</ele>
        <time>2022-03-10T10:56:35.000Z</time>
      </trkpt>
      <trkpt lat="47.28325" lon="-2.40808">
        <ele>-0.80000001192093</ele>
        <time>2022-03-10T10:56:40.000Z</time>
      </trkpt>
      <trkpt lat="47.28322" lon="-2.4081">
        <ele>-0.40000000596046</ele>
        <time>2022-03-10T10:56:41.000Z</time>
      </trkpt>
      <trkpt lat="47.28319" lon="-2.40813">
        <ele>3.9</ele>
        <time>2022-03-10T10:56:42.000Z</time>
      </trkpt>
      <trkpt lat="47.28317" lon="-2.40817">
        <ele>0.40000000596046</ele>
        <time>2022-03-10T10:56:43.000Z</time>
      </trkpt>
      <trkpt lat="47.28315" lon="-2.4082">
        <ele>0.80000001192093</ele>
        <time>2022-03-10T10:56:44.000Z</time>
      </trkpt>
      <trkpt lat="47.28313" lon="-2.40823">
        <ele>0.80000001192093</ele>
        <time>2022-03-10T10:56:45.000Z</time>
      </trkpt>
      <trkpt lat="47.28306" lon="-2.40824">
        <ele>0.80000001192093</ele>
        <time>2022-03-10T10:56:48.000Z</time>
      </trkpt>
      <trkpt lat="47.28297" lon="-2.4081">
        <ele>0.80000001192093</ele>
        <time>2022-03-10T10:56:52.000Z</time>
      </trkpt>
      <trkpt lat="47.283" lon="-2.40783">
        <ele>0.80000001192093</ele>
        <time>2022-03-10T10:56:56.000Z</time>
      </trkpt>
      <trkpt lat="47.28303" lon="-2.40768">
        <ele>0.80000001192093</ele>
        <time>2022-03-10T10:56:58.000Z</time>
      </trkpt>
      <trkpt lat="47.28313" lon="-2.40728">
        <ele>0.80000001192093</ele>
        <time>2022-03-10T10:57:03.000Z</time>
      </trkpt>
      <trkpt lat="47.28329" lon="-2.40662">
        <ele>0.80000001192093</ele>
        <time>2022-03-10T10:57:11.000Z</time>
      </trkpt>
      <trkpt lat="47.28339" lon="-2.40623">
        <ele>0.80000001192093</ele>
        <time>2022-03-10T10:57:17.000Z</time>
      </trkpt>
      <trkpt lat="47.28342" lon="-2.40609">
        <ele>0.80000001192093</ele>
        <time>2022-03-10T10:57:22.000Z</time>
      </trkpt>
      <trkpt lat="47.28346" lon="-2.40584">
        <ele>0.80000001192093</ele>
        <time>2022-03-10T10:57:28.000Z</time>
      </trkpt>
      <trkpt lat="47.28344" lon="-2.40578">
        <ele>0.80000001192093</ele>
        <time>2022-03-10T10:57:29.000Z</time>
      </trkpt>
      <trkpt lat="47.28335" lon="-2.40573">
        <ele>0.80000001192093</ele>
        <time>2022-03-10T10:57:31.000Z</time>
      </trkpt>
      <trkpt lat="47.28324" lon="-2.4057">
        <ele>0.80000001192093</ele>
        <time>2022-03-10T10:57:33.000Z</time>
      </trkpt>
      <trkpt lat="47.28307" lon="-2.40563">
        <ele>0.80000001192093</ele>
        <time>2022-03-10T10:57:36.000Z</time>
      </trkpt>
      <trkpt lat="47.28275" lon="-2.40555">
        <ele>0.80000001192093</ele>
        <time>2022-03-10T10:57:42.000Z</time>
      </trkpt>
      <trkpt lat="47.28271" lon="-2.40553">
        <ele>0.80000001192093</ele>
        <time>2022-03-10T10:57:43.000Z</time>
      </trkpt>
      <trkpt lat="47.28254" lon="-2.40548">
        <ele>0.80000001192093</ele>
        <time>2022-03-10T10:57:46.000Z</time>
      </trkpt>
      <trkpt lat="47.28218" lon="-2.40534">
        <ele>0.80000001192093</ele>
        <time>2022-03-10T10:57:53.000Z</time>
      </trkpt>
      <trkpt lat="47.28199" lon="-2.40526">
        <ele>0.80000001192093</ele>
        <time>2022-03-10T10:57:58.000Z</time>
      </trkpt>
      <trkpt lat="47.28189" lon="-2.4051">
        <ele>0.80000001192093</ele>
        <time>2022-03-10T10:58:02.000Z</time>
      </trkpt>
      <trkpt lat="47.28192" lon="-2.40489">
        <ele>0.80000001192093</ele>
        <time>2022-03-10T10:58:06.000Z</time>
      </trkpt>
      <trkpt lat="47.28196" lon="-2.4047">
        <ele>0.80000001192093</ele>
        <time>2022-03-10T10:58:09.000Z</time>
      </trkpt>
      <trkpt lat="47.28198" lon="-2.40455">
        <ele>0.80000001192093</ele>
        <time>2022-03-10T10:58:11.000Z</time>
      </trkpt>
      <trkpt lat="47.28199" lon="-2.4044">
        <ele>0.80000001192093</ele>
        <time>2022-03-10T10:58:13.000Z</time>
      </trkpt>
      <trkpt lat="47.282" lon="-2.40419">
        <ele>0.80000001192093</ele>
        <time>2022-03-10T10:58:16.000Z</time>
      </trkpt>
      <trkpt lat="47.28202" lon="-2.40385">
        <ele>0.80000001192093</ele>
        <time>2022-03-10T10:58:21.000Z</time>
      </trkpt>
      <trkpt lat="47.28197" lon="-2.40376">
        <ele>0.80000001192093</ele>
        <time>2022-03-10T10:58:23.000Z</time>
      </trkpt>
      <trkpt lat="47.28179" lon="-2.40368">
        <ele>0.80000001192093</ele>
        <time>2022-03-10T10:58:27.000Z</time>
      </trkpt>
      <trkpt lat="47.28174" lon="-2.40366">
        <ele>1.2000000476837</ele>
        <time>2022-03-10T10:58:28.000Z</time>
      </trkpt>
      <trkpt lat="47.28169" lon="-2.40364">
        <ele>1.6000000238419</ele>
        <time>2022-03-10T10:58:29.000Z</time>
      </trkpt>
      <trkpt lat="47.28165" lon="-2.40361">
        <ele>2.2000000476837</ele>
        <time>2022-03-10T10:58:30.000Z</time>
      </trkpt>
      <trkpt lat="47.2816" lon="-2.40359">
        <ele>2.5999999046326</ele>
        <time>2022-03-10T10:58:31.000Z</time>
      </trkpt>
      <trkpt lat="47.28156" lon="-2.40357">
        <ele>3</ele>
        <time>2022-03-10T10:58:32.000Z</time>
      </trkpt>
      <trkpt lat="47.28147" lon="-2.40355">
        <ele>3</ele>
        <time>2022-03-10T10:58:34.000Z</time>
      </trkpt>
      <trkpt lat="47.28138" lon="-2.4035">
        <ele>3</ele>
        <time>2022-03-10T10:58:38.000Z</time>
      </trkpt>
      <trkpt lat="47.2813" lon="-2.40341">
        <ele>3</ele>
        <time>2022-03-10T10:58:43.000Z</time>
      </trkpt>
      <trkpt lat="47.28128" lon="-2.4033">
        <ele>3</ele>
        <time>2022-03-10T10:58:49.000Z</time>
      </trkpt>
      <trkpt lat="47.28127" lon="-2.40329">
        <ele>3</ele>
        <time>2022-03-10T10:58:51.000Z</time>
      </trkpt>
      <trkpt lat="47.28124" lon="-2.40331">
        <ele>3</ele>
        <time>2022-03-10T10:58:54.000Z</time>
      </trkpt>
      <trkpt lat="47.28123" lon="-2.40329">
        <ele>3</ele>
        <time>2022-03-10T10:58:55.000Z</time>
      </trkpt>
      <trkpt lat="47.28122" lon="-2.40318">
        <ele>3</ele>
        <time>2022-03-10T10:59:00.000Z</time>
      </trkpt>
      <trkpt lat="47.28125" lon="-2.40292">
        <ele>3</ele>
        <time>2022-03-10T10:59:06.000Z</time>
      </trkpt>
      <trkpt lat="47.28129" lon="-2.40257">
        <ele>3</ele>
        <time>2022-03-10T10:59:12.000Z</time>
      </trkpt>
      <trkpt lat="47.28135" lon="-2.40205">
        <ele>3</ele>
        <time>2022-03-10T10:59:20.000Z</time>
      </trkpt>
      <trkpt lat="47.28141" lon="-2.40146">
        <ele>3</ele>
        <time>2022-03-10T10:59:28.000Z</time>
      </trkpt>
      <trkpt lat="47.28145" lon="-2.40092">
        <ele>3</ele>
        <time>2022-03-10T10:59:35.000Z</time>
      </trkpt>
      <trkpt lat="47.28151" lon="-2.40033">
        <ele>3</ele>
        <time>2022-03-10T10:59:43.000Z</time>
      </trkpt>
      <trkpt lat="47.28153" lon="-2.40018">
        <ele>3</ele>
        <time>2022-03-10T10:59:45.000Z</time>
      </trkpt>
      <trkpt lat="47.28154" lon="-2.39988">
        <ele>3</ele>
        <time>2022-03-10T10:59:49.000Z</time>
      </trkpt>
      <trkpt lat="47.28158" lon="-2.39948">
        <ele>3</ele>
        <time>2022-03-10T10:59:54.000Z</time>
      </trkpt>
      <trkpt lat="47.28161" lon="-2.39889">
        <ele>3</ele>
        <time>2022-03-10T11:00:01.000Z</time>
      </trkpt>
      <trkpt lat="47.28166" lon="-2.3981">
        <ele>3.4000000953674</ele>
        <time>2022-03-10T11:00:10.000Z</time>
      </trkpt>
      <trkpt lat="47.28167" lon="-2.39802">
        <ele>4.1999998092651</ele>
        <time>2022-03-10T11:00:11.000Z</time>
      </trkpt>
      <trkpt lat="47.28167" lon="-2.39792">
        <ele>4.5999999046326</ele>
        <time>2022-03-10T11:00:12.000Z</time>
      </trkpt>
      <trkpt lat="47.28169" lon="-2.39783">
        <ele>5</ele>
        <time>2022-03-10T11:00:13.000Z</time>
      </trkpt>
      <trkpt lat="47.28173" lon="-2.39724">
        <ele>5</ele>
        <time>2022-03-10T11:00:19.000Z</time>
      </trkpt>
      <trkpt lat="47.28176" lon="-2.39651">
        <ele>5</ele>
        <time>2022-03-10T11:00:27.000Z</time>
      </trkpt>
      <trkpt lat="47.28179" lon="-2.39565">
        <ele>5</ele>
        <time>2022-03-10T11:00:36.000Z</time>
      </trkpt>
      <trkpt lat="47.2818" lon="-2.39498">
        <ele>5</ele>
        <time>2022-03-10T11:00:43.000Z</time>
      </trkpt>
      <trkpt lat="47.28179" lon="-2.39431">
        <ele>5</ele>
        <time>2022-03-10T11:00:50.000Z</time>
      </trkpt>
      <trkpt lat="47.28178" lon="-2.39371">
        <ele>5</ele>
        <time>2022-03-10T11:00:56.000Z</time>
      </trkpt>
      <trkpt lat="47.28177" lon="-2.39292">
        <ele>5</ele>
        <time>2022-03-10T11:01:04.000Z</time>
      </trkpt>
      <trkpt lat="47.28176" lon="-2.39223">
        <ele>5</ele>
        <time>2022-03-10T11:01:11.000Z</time>
      </trkpt>
      <trkpt lat="47.28174" lon="-2.39162">
        <ele>5</ele>
        <time>2022-03-10T11:01:17.000Z</time>
      </trkpt>
      <trkpt lat="47.2817" lon="-2.39102">
        <ele>5</ele>
        <time>2022-03-10T11:01:23.000Z</time>
      </trkpt>
      <trkpt lat="47.28165" lon="-2.39025">
        <ele>5</ele>
        <time>2022-03-10T11:01:31.000Z</time>
      </trkpt>
      <trkpt lat="47.28157" lon="-2.38957">
        <ele>5</ele>
        <time>2022-03-10T11:01:38.000Z</time>
      </trkpt>
      <trkpt lat="47.28142" lon="-2.38899">
        <ele>5</ele>
        <time>2022-03-10T11:01:44.000Z</time>
      </trkpt>
      <trkpt lat="47.28132" lon="-2.38828">
        <ele>5</ele>
        <time>2022-03-10T11:01:51.000Z</time>
      </trkpt>
      <trkpt lat="47.28127" lon="-2.38756">
        <ele>5</ele>
        <time>2022-03-10T11:01:58.000Z</time>
      </trkpt>
      <trkpt lat="47.28121" lon="-2.38677">
        <ele>5</ele>
        <time>2022-03-10T11:02:06.000Z</time>
      </trkpt>
      <trkpt lat="47.2812" lon="-2.38667">
        <ele>5</ele>
        <time>2022-03-10T11:02:07.000Z</time>
      </trkpt>
      <trkpt lat="47.28113" lon="-2.38598">
        <ele>5</ele>
        <time>2022-03-10T11:02:14.000Z</time>
      </trkpt>
      <trkpt lat="47.28105" lon="-2.38527">
        <ele>5</ele>
        <time>2022-03-10T11:02:21.000Z</time>
      </trkpt>
      <trkpt lat="47.28091" lon="-2.38445">
        <ele>5</ele>
        <time>2022-03-10T11:02:29.000Z</time>
      </trkpt>
      <trkpt lat="47.28087" lon="-2.38425">
        <ele>5</ele>
        <time>2022-03-10T11:02:31.000Z</time>
      </trkpt>
      <trkpt lat="47.28072" lon="-2.38345">
        <ele>5</ele>
        <time>2022-03-10T11:02:39.000Z</time>
      </trkpt>
      <trkpt lat="47.28055" lon="-2.38266">
        <ele>5</ele>
        <time>2022-03-10T11:02:47.000Z</time>
      </trkpt>
      <trkpt lat="47.28052" lon="-2.38244">
        <ele>5</ele>
        <time>2022-03-10T11:02:49.000Z</time>
      </trkpt>
      <trkpt lat="47.28035" lon="-2.38158">
        <ele>5</ele>
        <time>2022-03-10T11:02:57.000Z</time>
      </trkpt>
      <trkpt lat="47.2802" lon="-2.38079">
        <ele>5</ele>
        <time>2022-03-10T11:03:04.000Z</time>
      </trkpt>
      <trkpt lat="47.28014" lon="-2.38045">
        <ele>5</ele>
        <time>2022-03-10T11:03:07.000Z</time>
      </trkpt>
      <trkpt lat="47.27999" lon="-2.37966">
        <ele>5</ele>
        <time>2022-03-10T11:03:14.000Z</time>
      </trkpt>
      <trkpt lat="47.27995" lon="-2.37944">
        <ele>5</ele>
        <time>2022-03-10T11:03:16.000Z</time>
      </trkpt>
      <trkpt lat="47.27984" lon="-2.37879">
        <ele>5</ele>
        <time>2022-03-10T11:03:22.000Z</time>
      </trkpt>
      <trkpt lat="47.27975" lon="-2.37823">
        <ele>5</ele>
        <time>2022-03-10T11:03:27.000Z</time>
      </trkpt>
      <trkpt lat="47.27973" lon="-2.37812">
        <ele>5</ele>
        <time>2022-03-10T11:03:28.000Z</time>
      </trkpt>
      <trkpt lat="47.27962" lon="-2.37767">
        <ele>5</ele>
        <time>2022-03-10T11:03:32.000Z</time>
      </trkpt>
      <trkpt lat="47.2794" lon="-2.37683">
        <ele>5</ele>
        <time>2022-03-10T11:03:39.000Z</time>
      </trkpt>
      <trkpt lat="47.27921" lon="-2.37596">
        <ele>5</ele>
        <time>2022-03-10T11:03:46.000Z</time>
      </trkpt>
      <trkpt lat="47.27901" lon="-2.37508">
        <ele>5</ele>
        <time>2022-03-10T11:03:53.000Z</time>
      </trkpt>
      <trkpt lat="47.27898" lon="-2.37497">
        <ele>5</ele>
        <time>2022-03-10T11:03:54.000Z</time>
      </trkpt>
      <trkpt lat="47.27878" lon="-2.37411">
        <ele>5</ele>
        <time>2022-03-10T11:04:01.000Z</time>
      </trkpt>
      <trkpt lat="47.27875" lon="-2.37399">
        <ele>5</ele>
        <time>2022-03-10T11:04:02.000Z</time>
      </trkpt>
      <trkpt lat="47.27854" lon="-2.37322">
        <ele>5</ele>
        <time>2022-03-10T11:04:08.000Z</time>
      </trkpt>
      <trkpt lat="47.27836" lon="-2.3725">
        <ele>5</ele>
        <time>2022-03-10T11:04:14.000Z</time>
      </trkpt>
      <trkpt lat="47.27818" lon="-2.37178">
        <ele>5</ele>
        <time>2022-03-10T11:04:20.000Z</time>
      </trkpt>
      <trkpt lat="47.27809" lon="-2.37142">
        <ele>5</ele>
        <time>2022-03-10T11:04:23.000Z</time>
      </trkpt>
      <trkpt lat="47.27806" lon="-2.37131">
        <ele>5</ele>
        <time>2022-03-10T11:04:24.000Z</time>
      </trkpt>
      <trkpt lat="47.27786" lon="-2.37059">
        <ele>5</ele>
        <time>2022-03-10T11:04:30.000Z</time>
      </trkpt>
      <trkpt lat="47.27763" lon="-2.36974">
        <ele>5</ele>
        <time>2022-03-10T11:04:37.000Z</time>
      </trkpt>
      <trkpt lat="47.27756" lon="-2.3695">
        <ele>5</ele>
        <time>2022-03-10T11:04:39.000Z</time>
      </trkpt>
      <trkpt lat="47.27733" lon="-2.36871">
        <ele>5</ele>
        <time>2022-03-10T11:04:46.000Z</time>
      </trkpt>
      <trkpt lat="47.27731" lon="-2.36861">
        <ele>5</ele>
        <time>2022-03-10T11:04:47.000Z</time>
      </trkpt>
      <trkpt lat="47.27707" lon="-2.36781">
        <ele>5</ele>
        <time>2022-03-10T11:04:54.000Z</time>
      </trkpt>
      <trkpt lat="47.27703" lon="-2.3677">
        <ele>5</ele>
        <time>2022-03-10T11:04:55.000Z</time>
      </trkpt>
      <trkpt lat="47.27681" lon="-2.36698">
        <ele>5</ele>
        <time>2022-03-10T11:05:01.000Z</time>
      </trkpt>
      <trkpt lat="47.27656" lon="-2.36626">
        <ele>5</ele>
        <time>2022-03-10T11:05:07.000Z</time>
      </trkpt>
      <trkpt lat="47.27639" lon="-2.36578">
        <ele>5</ele>
        <time>2022-03-10T11:05:11.000Z</time>
      </trkpt>
      <trkpt lat="47.27635" lon="-2.36566">
        <ele>5</ele>
        <time>2022-03-10T11:05:12.000Z</time>
      </trkpt>
      <trkpt lat="47.27608" lon="-2.36494">
        <ele>5</ele>
        <time>2022-03-10T11:05:18.000Z</time>
      </trkpt>
      <trkpt lat="47.276" lon="-2.36469">
        <ele>5</ele>
        <time>2022-03-10T11:05:20.000Z</time>
      </trkpt>
      <trkpt lat="47.27574" lon="-2.36395">
        <ele>5</ele>
        <time>2022-03-10T11:05:26.000Z</time>
      </trkpt>
      <trkpt lat="47.27565" lon="-2.3637">
        <ele>5</ele>
        <time>2022-03-10T11:05:28.000Z</time>
      </trkpt>
      <trkpt lat="47.27538" lon="-2.36296">
        <ele>5</ele>
        <time>2022-03-10T11:05:34.000Z</time>
      </trkpt>
      <trkpt lat="47.27524" lon="-2.36259">
        <ele>5</ele>
        <time>2022-03-10T11:05:37.000Z</time>
      </trkpt>
      <trkpt lat="47.27498" lon="-2.36189">
        <ele>5</ele>
        <time>2022-03-10T11:05:43.000Z</time>
      </trkpt>
      <trkpt lat="47.27489" lon="-2.36166">
        <ele>5</ele>
        <time>2022-03-10T11:05:45.000Z</time>
      </trkpt>
      <trkpt lat="47.27467" lon="-2.36105">
        <ele>5</ele>
        <time>2022-03-10T11:05:51.000Z</time>
      </trkpt>
      <trkpt lat="47.27463" lon="-2.36095">
        <ele>5</ele>
        <time>2022-03-10T11:05:52.000Z</time>
      </trkpt>
      <trkpt lat="47.2745" lon="-2.36069">
        <ele>5</ele>
        <time>2022-03-10T11:05:55.000Z</time>
      </trkpt>
      <trkpt lat="47.27428" lon="-2.3602">
        <ele>5</ele>
        <time>2022-03-10T11:06:00.000Z</time>
      </trkpt>
      <trkpt lat="47.27394" lon="-2.35943">
        <ele>5</ele>
        <time>2022-03-10T11:06:07.000Z</time>
      </trkpt>
      <trkpt lat="47.27363" lon="-2.35867">
        <ele>5</ele>
        <time>2022-03-10T11:06:14.000Z</time>
      </trkpt>
      <trkpt lat="47.27359" lon="-2.35857">
        <ele>5</ele>
        <time>2022-03-10T11:06:15.000Z</time>
      </trkpt>
      <trkpt lat="47.27333" lon="-2.35784">
        <ele>5</ele>
        <time>2022-03-10T11:06:22.000Z</time>
      </trkpt>
      <trkpt lat="47.2733" lon="-2.35774">
        <ele>5</ele>
        <time>2022-03-10T11:06:23.000Z</time>
      </trkpt>
      <trkpt lat="47.2732" lon="-2.35747">
        <ele>5</ele>
        <time>2022-03-10T11:06:26.000Z</time>
      </trkpt>
      <trkpt lat="47.27311" lon="-2.35735">
        <ele>5</ele>
        <time>2022-03-10T11:06:28.000Z</time>
      </trkpt>
      <trkpt lat="47.27314" lon="-2.35719">
        <ele>5</ele>
        <time>2022-03-10T11:06:31.000Z</time>
      </trkpt>
      <trkpt lat="47.27328" lon="-2.35716">
        <ele>5</ele>
        <time>2022-03-10T11:06:34.000Z</time>
      </trkpt>
      <trkpt lat="47.27346" lon="-2.35703">
        <ele>5</ele>
        <time>2022-03-10T11:06:37.000Z</time>
      </trkpt>
      <trkpt lat="47.27352" lon="-2.35698">
        <ele>5</ele>
        <time>2022-03-10T11:06:38.000Z</time>
      </trkpt>
      <trkpt lat="47.27382" lon="-2.35674">
        <ele>5</ele>
        <time>2022-03-10T11:06:43.000Z</time>
      </trkpt>
      <trkpt lat="47.27419" lon="-2.35656">
        <ele>5</ele>
        <time>2022-03-10T11:06:49.000Z</time>
      </trkpt>
      <trkpt lat="47.27425" lon="-2.35657">
        <ele>5</ele>
        <time>2022-03-10T11:06:50.000Z</time>
      </trkpt>
      <trkpt lat="47.27456" lon="-2.35665">
        <ele>5</ele>
        <time>2022-03-10T11:06:55.000Z</time>
      </trkpt>
      <trkpt lat="47.27496" lon="-2.35677">
        <ele>5</ele>
        <time>2022-03-10T11:07:01.000Z</time>
      </trkpt>
      <trkpt lat="47.27523" lon="-2.35685">
        <ele>5</ele>
        <time>2022-03-10T11:07:05.000Z</time>
      </trkpt>
      <trkpt lat="47.27535" lon="-2.35689">
        <ele>5</ele>
        <time>2022-03-10T11:07:07.000Z</time>
      </trkpt>
      <trkpt lat="47.27565" lon="-2.35696">
        <ele>5.4000000953674</ele>
        <time>2022-03-10T11:07:12.000Z</time>
      </trkpt>
      <trkpt lat="47.2757" lon="-2.35698">
        <ele>5.8000001907349</ele>
        <time>2022-03-10T11:07:13.000Z</time>
      </trkpt>
      <trkpt lat="47.27576" lon="-2.357">
        <ele>6.1999998092651</ele>
        <time>2022-03-10T11:07:14.000Z</time>
      </trkpt>
      <trkpt lat="47.27582" lon="-2.35701">
        <ele>6.5999999046326</ele>
        <time>2022-03-10T11:07:15.000Z</time>
      </trkpt>
      <trkpt lat="47.27588" lon="-2.35702">
        <ele>7</ele>
        <time>2022-03-10T11:07:16.000Z</time>
      </trkpt>
      <trkpt lat="47.27617" lon="-2.3571">
        <ele>7</ele>
        <time>2022-03-10T11:07:21.000Z</time>
      </trkpt>
      <trkpt lat="47.27655" lon="-2.35718">
        <ele>7</ele>
        <time>2022-03-10T11:07:28.000Z</time>
      </trkpt>
      <trkpt lat="47.2766" lon="-2.35721">
        <ele>7</ele>
        <time>2022-03-10T11:07:29.000Z</time>
      </trkpt>
      <trkpt lat="47.27672" lon="-2.35723">
        <ele>7</ele>
        <time>2022-03-10T11:07:32.000Z</time>
      </trkpt>
      <trkpt lat="47.27678" lon="-2.35722">
        <ele>7</ele>
        <time>2022-03-10T11:07:33.000Z</time>
      </trkpt>
      <trkpt lat="47.27686" lon="-2.35722">
        <ele>7</ele>
        <time>2022-03-10T11:07:35.000Z</time>
      </trkpt>
      <trkpt lat="47.27696" lon="-2.35718">
        <ele>7.4000000953674</ele>
        <time>2022-03-10T11:07:37.000Z</time>
      </trkpt>
      <trkpt lat="47.277" lon="-2.35714">
        <ele>7.8000001907349</ele>
        <time>2022-03-10T11:07:38.000Z</time>
      </trkpt>
      <trkpt lat="47.27704" lon="-2.35711">
        <ele>8.1999998092651</ele>
        <time>2022-03-10T11:07:39.000Z</time>
      </trkpt>
      <trkpt lat="47.27708" lon="-2.35707">
        <ele>8.6000003814697</ele>
        <time>2022-03-10T11:07:40.000Z</time>
      </trkpt>
      <trkpt lat="47.27712" lon="-2.35703">
        <ele>9</ele>
        <time>2022-03-10T11:07:41.000Z</time>
      </trkpt>
      <trkpt lat="47.27722" lon="-2.3569">
        <ele>9</ele>
        <time>2022-03-10T11:07:44.000Z</time>
      </trkpt>
      <trkpt lat="47.27728" lon="-2.35681">
        <ele>9</ele>
        <time>2022-03-10T11:07:46.000Z</time>
      </trkpt>
      <trkpt lat="47.27731" lon="-2.35677">
        <ele>9.6000003814697</ele>
        <time>2022-03-10T11:07:47.000Z</time>
      </trkpt>
      <trkpt lat="47.27734" lon="-2.35673">
        <ele>10</ele>
        <time>2022-03-10T11:07:48.000Z</time>
      </trkpt>
      <trkpt lat="47.27738" lon="-2.35669">
        <ele>10.39999961853</ele>
        <time>2022-03-10T11:07:49.000Z</time>
      </trkpt>
      <trkpt lat="47.27741" lon="-2.35664">
        <ele>10.800000190735</ele>
        <time>2022-03-10T11:07:50.000Z</time>
      </trkpt>
      <trkpt lat="47.27743" lon="-2.35659">
        <ele>11.199999809265</ele>
        <time>2022-03-10T11:07:51.000Z</time>
      </trkpt>
      <trkpt lat="47.27758" lon="-2.35641">
        <ele>11.199999809265</ele>
        <time>2022-03-10T11:07:55.000Z</time>
      </trkpt>
      <trkpt lat="47.27762" lon="-2.35637">
        <ele>11.199999809265</ele>
        <time>2022-03-10T11:07:56.000Z</time>
      </trkpt>
      <trkpt lat="47.27774" lon="-2.35625">
        <ele>11.199999809265</ele>
        <time>2022-03-10T11:07:59.000Z</time>
      </trkpt>
      <trkpt lat="47.27783" lon="-2.35619">
        <ele>11.199999809265</ele>
        <time>2022-03-10T11:08:01.000Z</time>
      </trkpt>
      <trkpt lat="47.27798" lon="-2.35612">
        <ele>11.199999809265</ele>
        <time>2022-03-10T11:08:04.000Z</time>
      </trkpt>
      <trkpt lat="47.27813" lon="-2.35607">
        <ele>11.60000038147</ele>
        <time>2022-03-10T11:08:07.000Z</time>
      </trkpt>
      <trkpt lat="47.27818" lon="-2.35605">
        <ele>12</ele>
        <time>2022-03-10T11:08:08.000Z</time>
      </trkpt>
      <trkpt lat="47.27823" lon="-2.35604">
        <ele>12.39999961853</ele>
        <time>2022-03-10T11:08:09.000Z</time>
      </trkpt>
      <trkpt lat="47.27828" lon="-2.35603">
        <ele>12.800000190735</ele>
        <time>2022-03-10T11:08:10.000Z</time>
      </trkpt>
      <trkpt lat="47.27833" lon="-2.35602">
        <ele>13.199999809265</ele>
        <time>2022-03-10T11:08:11.000Z</time>
      </trkpt>
      <trkpt lat="47.27852" lon="-2.35596">
        <ele>13.199999809265</ele>
        <time>2022-03-10T11:08:15.000Z</time>
      </trkpt>
      <trkpt lat="47.27874" lon="-2.35592">
        <ele>13.199999809265</ele>
        <time>2022-03-10T11:08:20.000Z</time>
      </trkpt>
      <trkpt lat="47.27878" lon="-2.35593">
        <ele>13.60000038147</ele>
        <time>2022-03-10T11:08:21.000Z</time>
      </trkpt>
      <trkpt lat="47.27882" lon="-2.35595">
        <ele>14</ele>
        <time>2022-03-10T11:08:22.000Z</time>
      </trkpt>
      <trkpt lat="47.27886" lon="-2.35598">
        <ele>14.60000038147</ele>
        <time>2022-03-10T11:08:23.000Z</time>
      </trkpt>
      <trkpt lat="47.27889" lon="-2.356">
        <ele>15</ele>
        <time>2022-03-10T11:08:24.000Z</time>
      </trkpt>
      <trkpt lat="47.27892" lon="-2.356">
        <ele>15.39999961853</ele>
        <time>2022-03-10T11:08:25.000Z</time>
      </trkpt>
      <trkpt lat="47.2791" lon="-2.35593">
        <ele>15.39999961853</ele>
        <time>2022-03-10T11:08:30.000Z</time>
      </trkpt>
      <trkpt lat="47.27914" lon="-2.35592">
        <ele>15.39999961853</ele>
        <time>2022-03-10T11:08:31.000Z</time>
      </trkpt>
      <trkpt lat="47.27928" lon="-2.3559">
        <ele>15.800000190735</ele>
        <time>2022-03-10T11:08:34.000Z</time>
      </trkpt>
      <trkpt lat="47.27932" lon="-2.3559">
        <ele>16.200000762939</ele>
        <time>2022-03-10T11:08:35.000Z</time>
      </trkpt>
      <trkpt lat="47.27937" lon="-2.35589">
        <ele>16.60000038147</ele>
        <time>2022-03-10T11:08:36.000Z</time>
      </trkpt>
      <trkpt lat="47.27941" lon="-2.35588">
        <ele>17</ele>
        <time>2022-03-10T11:08:37.000Z</time>
      </trkpt>
      <trkpt lat="47.27945" lon="-2.35587">
        <ele>17.39999961853</ele>
        <time>2022-03-10T11:08:38.000Z</time>
      </trkpt>
      <trkpt lat="47.27954" lon="-2.35583">
        <ele>17.39999961853</ele>
        <time>2022-03-10T11:08:40.000Z</time>
      </trkpt>
      <trkpt lat="47.27963" lon="-2.3558">
        <ele>17.39999961853</ele>
        <time>2022-03-10T11:08:42.000Z</time>
      </trkpt>
      <trkpt lat="47.27976" lon="-2.35583">
        <ele>17.39999961853</ele>
        <time>2022-03-10T11:08:45.000Z</time>
      </trkpt>
      <trkpt lat="47.27986" lon="-2.35585">
        <ele>17.39999961853</ele>
        <time>2022-03-10T11:08:47.000Z</time>
      </trkpt>
      <trkpt lat="47.27999" lon="-2.35582">
        <ele>17.39999961853</ele>
        <time>2022-03-10T11:08:50.000Z</time>
      </trkpt>
      <trkpt lat="47.2803" lon="-2.35575">
        <ele>17.39999961853</ele>
        <time>2022-03-10T11:08:57.000Z</time>
      </trkpt>
      <trkpt lat="47.28038" lon="-2.35577">
        <ele>17.799999237061</ele>
        <time>2022-03-10T11:08:59.000Z</time>
      </trkpt>
      <trkpt lat="47.28043" lon="-2.35578">
        <ele>18.200000762939</ele>
        <time>2022-03-10T11:09:00.000Z</time>
      </trkpt>
      <trkpt lat="47.28047" lon="-2.35579">
        <ele>18.60000038147</ele>
        <time>2022-03-10T11:09:01.000Z</time>
      </trkpt>
      <trkpt lat="47.28051" lon="-2.3558">
        <ele>19</ele>
        <time>2022-03-10T11:09:02.000Z</time>
      </trkpt>
      <trkpt lat="47.28055" lon="-2.35581">
        <ele>19.39999961853</ele>
        <time>2022-03-10T11:09:03.000Z</time>
      </trkpt>
      <trkpt lat="47.28068" lon="-2.35587">
        <ele>19.39999961853</ele>
        <time>2022-03-10T11:09:07.000Z</time>
      </trkpt>
      <trkpt lat="47.28076" lon="-2.35603">
        <ele>19.39999961853</ele>
        <time>2022-03-10T11:09:11.000Z</time>
      </trkpt>
      <trkpt lat="47.28084" lon="-2.3562">
        <ele>19.39999961853</ele>
        <time>2022-03-10T11:09:17.000Z</time>
      </trkpt>
      <trkpt lat="47.28085" lon="-2.35622">
        <ele>19.39999961853</ele>
        <time>2022-03-10T11:09:19.000Z</time>
      </trkpt>
      <trkpt lat="47.28081" lon="-2.35611">
        <ele>21.39999961853</ele>
        <time>2022-03-10T11:18:19.000Z</time>
      </trkpt>
      <trkpt lat="47.2808" lon="-2.35609">
        <ele>21.39999961853</ele>
        <time>2022-03-10T11:18:20.000Z</time>
      </trkpt>
      <trkpt lat="47.28071" lon="-2.3561">
        <ele>21.39999961853</ele>
        <time>2022-03-10T11:18:25.000Z</time>
      </trkpt>
      <trkpt lat="47.28066" lon="-2.35611">
        <ele>21.39999961853</ele>
        <time>2022-03-10T11:18:28.000Z</time>
      </trkpt>
      <trkpt lat="47.28059" lon="-2.35606">
        <ele>21.39999961853</ele>
        <time>2022-03-10T11:18:31.000Z</time>
      </trkpt>
      <trkpt lat="47.28046" lon="-2.35605">
        <ele>21.39999961853</ele>
        <time>2022-03-10T11:18:35.000Z</time>
      </trkpt>
      <trkpt lat="47.28043" lon="-2.35605">
        <ele>21.39999961853</ele>
        <time>2022-03-10T11:18:36.000Z</time>
      </trkpt>
      <trkpt lat="47.28041" lon="-2.35603">
        <ele>21.39999961853</ele>
        <time>2022-03-10T11:18:37.000Z</time>
      </trkpt>
      <trkpt lat="47.28039" lon="-2.35596">
        <ele>21.39999961853</ele>
        <time>2022-03-10T11:18:39.000Z</time>
      </trkpt>
      <trkpt lat="47.28034" lon="-2.35575">
        <ele>21.39999961853</ele>
        <time>2022-03-10T11:18:43.000Z</time>
      </trkpt>
      <trkpt lat="47.28022" lon="-2.35562">
        <ele>21.39999961853</ele>
        <time>2022-03-10T11:18:46.000Z</time>
      </trkpt>
      <trkpt lat="47.28008" lon="-2.35563">
        <ele>21.39999961853</ele>
        <time>2022-03-10T11:18:49.000Z</time>
      </trkpt>
      <trkpt lat="47.28004" lon="-2.35564">
        <ele>21.39999961853</ele>
        <time>2022-03-10T11:18:50.000Z</time>
      </trkpt>
      <trkpt lat="47.27992" lon="-2.35568">
        <ele>21</ele>
        <time>2022-03-10T11:18:53.000Z</time>
      </trkpt>
      <trkpt lat="47.27987" lon="-2.3557">
        <ele>20.60000038147</ele>
        <time>2022-03-10T11:18:54.000Z</time>
      </trkpt>
      <trkpt lat="47.27983" lon="-2.35571">
        <ele>20.200000762939</ele>
        <time>2022-03-10T11:18:55.000Z</time>
      </trkpt>
      <trkpt lat="47.27979" lon="-2.35572">
        <ele>19.799999237061</ele>
        <time>2022-03-10T11:18:56.000Z</time>
      </trkpt>
      <trkpt lat="47.27975" lon="-2.35574">
        <ele>19.39999961853</ele>
        <time>2022-03-10T11:18:57.000Z</time>
      </trkpt>
      <trkpt lat="47.27951" lon="-2.35581">
        <ele>19.39999961853</ele>
        <time>2022-03-10T11:19:03.000Z</time>
      </trkpt>
      <trkpt lat="47.27923" lon="-2.35588">
        <ele>19.39999961853</ele>
        <time>2022-03-10T11:19:10.000Z</time>
      </trkpt>
      <trkpt lat="47.27894" lon="-2.35594">
        <ele>19.39999961853</ele>
        <time>2022-03-10T11:19:16.000Z</time>
      </trkpt>
      <trkpt lat="47.27856" lon="-2.35603">
        <ele>19</ele>
        <time>2022-03-10T11:19:23.000Z</time>
      </trkpt>
      <trkpt lat="47.2785" lon="-2.35605">
        <ele>18.60000038147</ele>
        <time>2022-03-10T11:19:24.000Z</time>
      </trkpt>
      <trkpt lat="47.27844" lon="-2.35606">
        <ele>18</ele>
        <time>2022-03-10T11:19:25.000Z</time>
      </trkpt>
      <trkpt lat="47.27838" lon="-2.35607">
        <ele>17.60000038147</ele>
        <time>2022-03-10T11:19:26.000Z</time>
      </trkpt>
      <trkpt lat="47.27832" lon="-2.35609">
        <ele>17.200000762939</ele>
        <time>2022-03-10T11:19:27.000Z</time>
      </trkpt>
      <trkpt lat="47.2781" lon="-2.35615">
        <ele>17.200000762939</ele>
        <time>2022-03-10T11:19:31.000Z</time>
      </trkpt>
      <trkpt lat="47.27793" lon="-2.3562">
        <ele>16.799999237061</ele>
        <time>2022-03-10T11:19:34.000Z</time>
      </trkpt>
      <trkpt lat="47.27788" lon="-2.35622">
        <ele>16.39999961853</ele>
        <time>2022-03-10T11:19:35.000Z</time>
      </trkpt>
      <trkpt lat="47.27782" lon="-2.35626">
        <ele>16</ele>
        <time>2022-03-10T11:19:36.000Z</time>
      </trkpt>
      <trkpt lat="47.27776" lon="-2.3563">
        <ele>15.60000038147</ele>
        <time>2022-03-10T11:19:37.000Z</time>
      </trkpt>
      <trkpt lat="47.27771" lon="-2.35634">
        <ele>15.199999809265</ele>
        <time>2022-03-10T11:19:38.000Z</time>
      </trkpt>
      <trkpt lat="47.27761" lon="-2.35645">
        <ele>15.199999809265</ele>
        <time>2022-03-10T11:19:40.000Z</time>
      </trkpt>
      <trkpt lat="47.27754" lon="-2.35656">
        <ele>15.199999809265</ele>
        <time>2022-03-10T11:19:42.000Z</time>
      </trkpt>
      <trkpt lat="47.27723" lon="-2.35704">
        <ele>15.199999809265</ele>
        <time>2022-03-10T11:19:50.000Z</time>
      </trkpt>
      <trkpt lat="47.27718" lon="-2.35709">
        <ele>14.60000038147</ele>
        <time>2022-03-10T11:19:51.000Z</time>
      </trkpt>
      <trkpt lat="47.27713" lon="-2.35714">
        <ele>14.199999809265</ele>
        <time>2022-03-10T11:19:52.000Z</time>
      </trkpt>
      <trkpt lat="47.27708" lon="-2.35718">
        <ele>13.800000190735</ele>
        <time>2022-03-10T11:19:53.000Z</time>
      </trkpt>
      <trkpt lat="47.27703" lon="-2.35723">
        <ele>13.39999961853</ele>
        <time>2022-03-10T11:19:54.000Z</time>
      </trkpt>
      <trkpt lat="47.27698" lon="-2.35726">
        <ele>13</ele>
        <time>2022-03-10T11:19:55.000Z</time>
      </trkpt>
      <trkpt lat="47.27692" lon="-2.3573">
        <ele>13</ele>
        <time>2022-03-10T11:19:56.000Z</time>
      </trkpt>
      <trkpt lat="47.27687" lon="-2.35735">
        <ele>13</ele>
        <time>2022-03-10T11:19:57.000Z</time>
      </trkpt>
      <trkpt lat="47.27678" lon="-2.35743">
        <ele>12.60000038147</ele>
        <time>2022-03-10T11:19:59.000Z</time>
      </trkpt>
      <trkpt lat="47.27673" lon="-2.35743">
        <ele>12</ele>
        <time>2022-03-10T11:20:00.000Z</time>
      </trkpt>
      <trkpt lat="47.27668" lon="-2.3574">
        <ele>11.60000038147</ele>
        <time>2022-03-10T11:20:01.000Z</time>
      </trkpt>
      <trkpt lat="47.27664" lon="-2.35736">
        <ele>11.199999809265</ele>
        <time>2022-03-10T11:20:02.000Z</time>
      </trkpt>
      <trkpt lat="47.2766" lon="-2.35731">
        <ele>10.800000190735</ele>
        <time>2022-03-10T11:20:03.000Z</time>
      </trkpt>
      <trkpt lat="47.27656" lon="-2.35727">
        <ele>10.800000190735</ele>
        <time>2022-03-10T11:20:04.000Z</time>
      </trkpt>
      <trkpt lat="47.2764" lon="-2.35717">
        <ele>10.800000190735</ele>
        <time>2022-03-10T11:20:07.000Z</time>
      </trkpt>
      <trkpt lat="47.27629" lon="-2.35713">
        <ele>10.800000190735</ele>
        <time>2022-03-10T11:20:09.000Z</time>
      </trkpt>
      <trkpt lat="47.27618" lon="-2.3571">
        <ele>10.39999961853</ele>
        <time>2022-03-10T11:20:11.000Z</time>
      </trkpt>
      <trkpt lat="47.27613" lon="-2.35708">
        <ele>10</ele>
        <time>2022-03-10T11:20:12.000Z</time>
      </trkpt>
      <trkpt lat="47.27609" lon="-2.35707">
        <ele>9.6000003814697</ele>
        <time>2022-03-10T11:20:13.000Z</time>
      </trkpt>
      <trkpt lat="47.27604" lon="-2.35706">
        <ele>9</ele>
        <time>2022-03-10T11:20:14.000Z</time>
      </trkpt>
      <trkpt lat="47.27599" lon="-2.35705">
        <ele>8.6000003814697</ele>
        <time>2022-03-10T11:20:15.000Z</time>
      </trkpt>
      <trkpt lat="47.27583" lon="-2.35702">
        <ele>8.6000003814697</ele>
        <time>2022-03-10T11:20:18.000Z</time>
      </trkpt>
      <trkpt lat="47.27537" lon="-2.35692">
        <ele>8.6000003814697</ele>
        <time>2022-03-10T11:20:26.000Z</time>
      </trkpt>
      <trkpt lat="47.27497" lon="-2.35683">
        <ele>8.6000003814697</ele>
        <time>2022-03-10T11:20:33.000Z</time>
      </trkpt>
      <trkpt lat="47.27491" lon="-2.35682">
        <ele>8.1999998092651</ele>
        <time>2022-03-10T11:20:34.000Z</time>
      </trkpt>
      <trkpt lat="47.27486" lon="-2.35681">
        <ele>7.8000001907349</ele>
        <time>2022-03-10T11:20:35.000Z</time>
      </trkpt>
      <trkpt lat="47.2748" lon="-2.3568">
        <ele>7.4000000953674</ele>
        <time>2022-03-10T11:20:36.000Z</time>
      </trkpt>
      <trkpt lat="47.27475" lon="-2.35679">
        <ele>7</ele>
        <time>2022-03-10T11:20:37.000Z</time>
      </trkpt>
      <trkpt lat="47.27469" lon="-2.35678">
        <ele>6.4000000953674</ele>
        <time>2022-03-10T11:20:38.000Z</time>
      </trkpt>
      <trkpt lat="47.27453" lon="-2.35673">
        <ele>6.4000000953674</ele>
        <time>2022-03-10T11:20:41.000Z</time>
      </trkpt>
      <trkpt lat="47.27423" lon="-2.35666">
        <ele>6.4000000953674</ele>
        <time>2022-03-10T11:20:47.000Z</time>
      </trkpt>
      <trkpt lat="47.27417" lon="-2.35665">
        <ele>6.4000000953674</ele>
        <time>2022-03-10T11:20:48.000Z</time>
      </trkpt>
      <trkpt lat="47.27403" lon="-2.35669">
        <ele>6</ele>
        <time>2022-03-10T11:20:51.000Z</time>
      </trkpt>
      <trkpt lat="47.27398" lon="-2.35671">
        <ele>5.5999999046326</ele>
        <time>2022-03-10T11:20:52.000Z</time>
      </trkpt>
      <trkpt lat="47.27392" lon="-2.35674">
        <ele>5.1999998092651</ele>
        <time>2022-03-10T11:20:53.000Z</time>
      </trkpt>
      <trkpt lat="47.27387" lon="-2.35677">
        <ele>4.8000001907349</ele>
        <time>2022-03-10T11:20:54.000Z</time>
      </trkpt>
      <trkpt lat="47.27382" lon="-2.3568">
        <ele>4.4000000953674</ele>
        <time>2022-03-10T11:20:55.000Z</time>
      </trkpt>
      <trkpt lat="47.27373" lon="-2.35688">
        <ele>4.4000000953674</ele>
        <time>2022-03-10T11:20:57.000Z</time>
      </trkpt>
      <trkpt lat="47.27335" lon="-2.35717">
        <ele>4.4000000953674</ele>
        <time>2022-03-10T11:21:05.000Z</time>
      </trkpt>
      <trkpt lat="47.27325" lon="-2.35727">
        <ele>4.4000000953674</ele>
        <time>2022-03-10T11:21:09.000Z</time>
      </trkpt>
      <trkpt lat="47.27324" lon="-2.3573">
        <ele>4.4000000953674</ele>
        <time>2022-03-10T11:21:10.000Z</time>
      </trkpt>
      <trkpt lat="47.27317" lon="-2.35739">
        <ele>4.4000000953674</ele>
        <time>2022-03-10T11:21:13.000Z</time>
      </trkpt>
      <trkpt lat="47.27306" lon="-2.35734">
        <ele>4.4000000953674</ele>
        <time>2022-03-10T11:21:16.000Z</time>
      </trkpt>
      <trkpt lat="47.27298" lon="-2.35716">
        <ele>4.4000000953674</ele>
        <time>2022-03-10T11:21:19.000Z</time>
      </trkpt>
      <trkpt lat="47.27296" lon="-2.3571">
        <ele>4.4000000953674</ele>
        <time>2022-03-10T11:21:20.000Z</time>
      </trkpt>
      <trkpt lat="47.27284" lon="-2.35678">
        <ele>4.4000000953674</ele>
        <time>2022-03-10T11:21:25.000Z</time>
      </trkpt>
      <trkpt lat="47.2726" lon="-2.35622">
        <ele>4.4000000953674</ele>
        <time>2022-03-10T11:21:35.000Z</time>
      </trkpt>
      <trkpt lat="47.27239" lon="-2.35574">
        <ele>4.4000000953674</ele>
        <time>2022-03-10T11:21:43.000Z</time>
      </trkpt>
      <trkpt lat="47.27215" lon="-2.3552">
        <ele>4.4000000953674</ele>
        <time>2022-03-10T11:21:52.000Z</time>
      </trkpt>
      <trkpt lat="47.27209" lon="-2.35508">
        <ele>4.8000001907349</ele>
        <time>2022-03-10T11:21:54.000Z</time>
      </trkpt>
      <trkpt lat="47.27206" lon="-2.35502">
        <ele>5.1999998092651</ele>
        <time>2022-03-10T11:21:55.000Z</time>
      </trkpt>
      <trkpt lat="47.27204" lon="-2.35496">
        <ele>5.8000001907349</ele>
        <time>2022-03-10T11:21:56.000Z</time>
      </trkpt>
      <trkpt lat="47.272" lon="-2.3549">
        <ele>6.1999998092651</ele>
        <time>2022-03-10T11:21:57.000Z</time>
      </trkpt>
      <trkpt lat="47.27197" lon="-2.35484">
        <ele>6.5999999046326</ele>
        <time>2022-03-10T11:21:58.000Z</time>
      </trkpt>
      <trkpt lat="47.27191" lon="-2.35473">
        <ele>6.5999999046326</ele>
        <time>2022-03-10T11:22:00.000Z</time>
      </trkpt>
      <trkpt lat="47.27166" lon="-2.35424">
        <ele>6.5999999046326</ele>
        <time>2022-03-10T11:22:08.000Z</time>
      </trkpt>
      <trkpt lat="47.27142" lon="-2.3538">
        <ele>6.5999999046326</ele>
        <time>2022-03-10T11:22:15.000Z</time>
      </trkpt>
      <trkpt lat="47.27116" lon="-2.35337">
        <ele>6.5999999046326</ele>
        <time>2022-03-10T11:22:22.000Z</time>
      </trkpt>
      <trkpt lat="47.27093" lon="-2.35302">
        <ele>6.5999999046326</ele>
        <time>2022-03-10T11:22:28.000Z</time>
      </trkpt>
      <trkpt lat="47.27086" lon="-2.35291">
        <ele>6.5999999046326</ele>
        <time>2022-03-10T11:22:30.000Z</time>
      </trkpt>
      <trkpt lat="47.27052" lon="-2.3524">
        <ele>6.5999999046326</ele>
        <time>2022-03-10T11:22:39.000Z</time>
      </trkpt>
      <trkpt lat="47.27027" lon="-2.35199">
        <ele>6.5999999046326</ele>
        <time>2022-03-10T11:22:46.000Z</time>
      </trkpt>
      <trkpt lat="47.26999" lon="-2.35155">
        <ele>6.5999999046326</ele>
        <time>2022-03-10T11:22:54.000Z</time>
      </trkpt>
      <trkpt lat="47.26966" lon="-2.35107">
        <ele>6.5999999046326</ele>
        <time>2022-03-10T11:23:03.000Z</time>
      </trkpt>
      <trkpt lat="47.26952" lon="-2.35086">
        <ele>6.5999999046326</ele>
        <time>2022-03-10T11:23:07.000Z</time>
      </trkpt>
      <trkpt lat="47.26945" lon="-2.35075">
        <ele>6.5999999046326</ele>
        <time>2022-03-10T11:23:09.000Z</time>
      </trkpt>
      <trkpt lat="47.26911" lon="-2.35025">
        <ele>6.5999999046326</ele>
        <time>2022-03-10T11:23:19.000Z</time>
      </trkpt>
      <trkpt lat="47.26876" lon="-2.3497">
        <ele>6.5999999046326</ele>
        <time>2022-03-10T11:23:29.000Z</time>
      </trkpt>
      <trkpt lat="47.26842" lon="-2.3492">
        <ele>6.5999999046326</ele>
        <time>2022-03-10T11:23:38.000Z</time>
      </trkpt>
      <trkpt lat="47.26809" lon="-2.34871">
        <ele>6.5999999046326</ele>
        <time>2022-03-10T11:23:47.000Z</time>
      </trkpt>
      <trkpt lat="47.26774" lon="-2.34817">
        <ele>6.5999999046326</ele>
        <time>2022-03-10T11:23:57.000Z</time>
      </trkpt>
      <trkpt lat="47.2677" lon="-2.34814">
        <ele>6.5999999046326</ele>
        <time>2022-03-10T11:23:58.000Z</time>
      </trkpt>
      <trkpt lat="47.26762" lon="-2.34806">
        <ele>6.5999999046326</ele>
        <time>2022-03-10T11:24:00.000Z</time>
      </trkpt>
      <trkpt lat="47.2676" lon="-2.348">
        <ele>6.5999999046326</ele>
        <time>2022-03-10T11:24:01.000Z</time>
      </trkpt>
      <trkpt lat="47.26744" lon="-2.34779">
        <ele>6.5999999046326</ele>
        <time>2022-03-10T11:24:05.000Z</time>
      </trkpt>
      <trkpt lat="47.26712" lon="-2.3474">
        <ele>6.5999999046326</ele>
        <time>2022-03-10T11:24:13.000Z</time>
      </trkpt>
      <trkpt lat="47.2668" lon="-2.34701">
        <ele>6.5999999046326</ele>
        <time>2022-03-10T11:24:21.000Z</time>
      </trkpt>
      <trkpt lat="47.26648" lon="-2.34662">
        <ele>6.5999999046326</ele>
        <time>2022-03-10T11:24:29.000Z</time>
      </trkpt>
      <trkpt lat="47.26621" lon="-2.34628">
        <ele>6.5999999046326</ele>
        <time>2022-03-10T11:24:36.000Z</time>
      </trkpt>
      <trkpt lat="47.26591" lon="-2.3459">
        <ele>6.5999999046326</ele>
        <time>2022-03-10T11:24:44.000Z</time>
      </trkpt>
      <trkpt lat="47.26561" lon="-2.3456">
        <ele>6.5999999046326</ele>
        <time>2022-03-10T11:24:51.000Z</time>
      </trkpt>
      <trkpt lat="47.26525" lon="-2.34525">
        <ele>6.5999999046326</ele>
        <time>2022-03-10T11:24:59.000Z</time>
      </trkpt>
      <trkpt lat="47.26521" lon="-2.34522">
        <ele>6.5999999046326</ele>
        <time>2022-03-10T11:25:00.000Z</time>
      </trkpt>
      <trkpt lat="47.26501" lon="-2.34508">
        <ele>6.5999999046326</ele>
        <time>2022-03-10T11:25:04.000Z</time>
      </trkpt>
      <trkpt lat="47.26468" lon="-2.34485">
        <ele>6.5999999046326</ele>
        <time>2022-03-10T11:25:11.000Z</time>
      </trkpt>
      <trkpt lat="47.26422" lon="-2.34452">
        <ele>6.5999999046326</ele>
        <time>2022-03-10T11:25:21.000Z</time>
      </trkpt>
      <trkpt lat="47.26377" lon="-2.34415">
        <ele>6.5999999046326</ele>
        <time>2022-03-10T11:25:31.000Z</time>
      </trkpt>
      <trkpt lat="47.26348" lon="-2.34389">
        <ele>6.5999999046326</ele>
        <time>2022-03-10T11:25:38.000Z</time>
      </trkpt>
      <trkpt lat="47.26336" lon="-2.34381">
        <ele>6.5999999046326</ele>
        <time>2022-03-10T11:25:41.000Z</time>
      </trkpt>
      <trkpt lat="47.26327" lon="-2.34379">
        <ele>6.5999999046326</ele>
        <time>2022-03-10T11:25:43.000Z</time>
      </trkpt>
      <trkpt lat="47.26316" lon="-2.34365">
        <ele>6.5999999046326</ele>
        <time>2022-03-10T11:25:46.000Z</time>
      </trkpt>
      <trkpt lat="47.26313" lon="-2.34359">
        <ele>6.5999999046326</ele>
        <time>2022-03-10T11:25:47.000Z</time>
      </trkpt>
      <trkpt lat="47.26309" lon="-2.34354">
        <ele>6.5999999046326</ele>
        <time>2022-03-10T11:25:48.000Z</time>
      </trkpt>
      <trkpt lat="47.26297" lon="-2.3434">
        <ele>6.5999999046326</ele>
        <time>2022-03-10T11:25:51.000Z</time>
      </trkpt>
      <trkpt lat="47.26293" lon="-2.34336">
        <ele>6.5999999046326</ele>
        <time>2022-03-10T11:25:52.000Z</time>
      </trkpt>
      <trkpt lat="47.26279" lon="-2.3432">
        <ele>6.1999998092651</ele>
        <time>2022-03-10T11:25:56.000Z</time>
      </trkpt>
      <trkpt lat="47.26275" lon="-2.34316">
        <ele>5.8000001907349</ele>
        <time>2022-03-10T11:25:57.000Z</time>
      </trkpt>
      <trkpt lat="47.2627" lon="-2.34312">
        <ele>5.4000000953674</ele>
        <time>2022-03-10T11:25:58.000Z</time>
      </trkpt>
      <trkpt lat="47.26266" lon="-2.34309">
        <ele>5</ele>
        <time>2022-03-10T11:25:59.000Z</time>
      </trkpt>
      <trkpt lat="47.26262" lon="-2.34305">
        <ele>4.5999999046326</ele>
        <time>2022-03-10T11:26:00.000Z</time>
      </trkpt>
      <trkpt lat="47.26242" lon="-2.34284">
        <ele>4.5999999046326</ele>
        <time>2022-03-10T11:26:05.000Z</time>
      </trkpt>
      <trkpt lat="47.26238" lon="-2.34279">
        <ele>4.5999999046326</ele>
        <time>2022-03-10T11:26:06.000Z</time>
      </trkpt>
      <trkpt lat="47.2621" lon="-2.34249">
        <ele>4.5999999046326</ele>
        <time>2022-03-10T11:26:13.000Z</time>
      </trkpt>
      <trkpt lat="47.26177" lon="-2.34215">
        <ele>4.5999999046326</ele>
        <time>2022-03-10T11:26:21.000Z</time>
      </trkpt>
      <trkpt lat="47.26143" lon="-2.34185">
        <ele>4.5999999046326</ele>
        <time>2022-03-10T11:26:29.000Z</time>
      </trkpt>
      <trkpt lat="47.26125" lon="-2.34173">
        <ele>4.5999999046326</ele>
        <time>2022-03-10T11:26:33.000Z</time>
      </trkpt>
      <trkpt lat="47.26108" lon="-2.34159">
        <ele>4.5999999046326</ele>
        <time>2022-03-10T11:26:37.000Z</time>
      </trkpt>
      <trkpt lat="47.26103" lon="-2.34156">
        <ele>4.5999999046326</ele>
        <time>2022-03-10T11:26:38.000Z</time>
      </trkpt>
      <trkpt lat="47.2606" lon="-2.34134">
        <ele>4.5999999046326</ele>
        <time>2022-03-10T11:26:47.000Z</time>
      </trkpt>
      <trkpt lat="47.26016" lon="-2.34112">
        <ele>4.5999999046326</ele>
        <time>2022-03-10T11:26:56.000Z</time>
      </trkpt>
      <trkpt lat="47.25978" lon="-2.34092">
        <ele>4.5999999046326</ele>
        <time>2022-03-10T11:27:04.000Z</time>
      </trkpt>
      <trkpt lat="47.25944" lon="-2.34079">
        <ele>4.5999999046326</ele>
        <time>2022-03-10T11:27:11.000Z</time>
      </trkpt>
      <trkpt lat="47.2593" lon="-2.34074">
        <ele>4.5999999046326</ele>
        <time>2022-03-10T11:27:14.000Z</time>
      </trkpt>
      <trkpt lat="47.25911" lon="-2.34072">
        <ele>4.5999999046326</ele>
        <time>2022-03-10T11:27:18.000Z</time>
      </trkpt>
      <trkpt lat="47.25907" lon="-2.3407">
        <ele>4.5999999046326</ele>
        <time>2022-03-10T11:27:19.000Z</time>
      </trkpt>
      <trkpt lat="47.25896" lon="-2.34056">
        <ele>4.5999999046326</ele>
        <time>2022-03-10T11:27:22.000Z</time>
      </trkpt>
      <trkpt lat="47.25894" lon="-2.3405">
        <ele>4.1999998092651</ele>
        <time>2022-03-10T11:27:23.000Z</time>
      </trkpt>
      <trkpt lat="47.25893" lon="-2.34043">
        <ele>3.7999999523163</ele>
        <time>2022-03-10T11:27:24.000Z</time>
      </trkpt>
      <trkpt lat="47.25894" lon="-2.34036">
        <ele>3.4000000953674</ele>
        <time>2022-03-10T11:27:25.000Z</time>
      </trkpt>
      <trkpt lat="47.25896" lon="-2.3403">
        <ele>2.7999999523163</ele>
        <time>2022-03-10T11:27:26.000Z</time>
      </trkpt>
      <trkpt lat="47.25898" lon="-2.34023">
        <ele>2.4000000953674</ele>
        <time>2022-03-10T11:27:27.000Z</time>
      </trkpt>
      <trkpt lat="47.25904" lon="-2.34012">
        <ele>2.4000000953674</ele>
        <time>2022-03-10T11:27:29.000Z</time>
      </trkpt>
      <trkpt lat="47.25909" lon="-2.33993">
        <ele>2.4000000953674</ele>
        <time>2022-03-10T11:27:32.000Z</time>
      </trkpt>
      <trkpt lat="47.25911" lon="-2.33987">
        <ele>2.4000000953674</ele>
        <time>2022-03-10T11:27:33.000Z</time>
      </trkpt>
      <trkpt lat="47.25916" lon="-2.33974">
        <ele>2.4000000953674</ele>
        <time>2022-03-10T11:27:35.000Z</time>
      </trkpt>
      <trkpt lat="47.25921" lon="-2.33961">
        <ele>2.4000000953674</ele>
        <time>2022-03-10T11:27:37.000Z</time>
      </trkpt>
      <trkpt lat="47.25928" lon="-2.33949">
        <ele>2.4000000953674</ele>
        <time>2022-03-10T11:27:39.000Z</time>
      </trkpt>
      <trkpt lat="47.25946" lon="-2.33919">
        <ele>2.4000000953674</ele>
        <time>2022-03-10T11:27:44.000Z</time>
      </trkpt>
      <trkpt lat="47.25952" lon="-2.33906">
        <ele>2.4000000953674</ele>
        <time>2022-03-10T11:27:46.000Z</time>
      </trkpt>
      <trkpt lat="47.25955" lon="-2.339">
        <ele>2.4000000953674</ele>
        <time>2022-03-10T11:27:47.000Z</time>
      </trkpt>
      <trkpt lat="47.25968" lon="-2.33884">
        <ele>2.4000000953674</ele>
        <time>2022-03-10T11:27:50.000Z</time>
      </trkpt>
      <trkpt lat="47.25979" lon="-2.33855">
        <ele>2.4000000953674</ele>
        <time>2022-03-10T11:27:54.000Z</time>
      </trkpt>
      <trkpt lat="47.25982" lon="-2.33847">
        <ele>2.4000000953674</ele>
        <time>2022-03-10T11:27:55.000Z</time>
      </trkpt>
      <trkpt lat="47.26009" lon="-2.33776">
        <ele>2.4000000953674</ele>
        <time>2022-03-10T11:28:04.000Z</time>
      </trkpt>
      <trkpt lat="47.26018" lon="-2.33751">
        <ele>2.4000000953674</ele>
        <time>2022-03-10T11:28:07.000Z</time>
      </trkpt>
      <trkpt lat="47.26026" lon="-2.33728">
        <ele>2.4000000953674</ele>
        <time>2022-03-10T11:28:10.000Z</time>
      </trkpt>
      <trkpt lat="47.26032" lon="-2.33714">
        <ele>2.4000000953674</ele>
        <time>2022-03-10T11:28:12.000Z</time>
      </trkpt>
      <trkpt lat="47.26035" lon="-2.33707">
        <ele>2.4000000953674</ele>
        <time>2022-03-10T11:28:14.000Z</time>
      </trkpt>
      <trkpt lat="47.26038" lon="-2.337">
        <ele>2.4000000953674</ele>
        <time>2022-03-10T11:28:17.000Z</time>
      </trkpt>
      <trkpt lat="47.26041" lon="-2.337">
        <ele>2.4000000953674</ele>
        <time>2022-03-10T11:28:19.000Z</time>
      </trkpt>
      <trkpt lat="47.26048" lon="-2.33689">
        <ele>2.4000000953674</ele>
        <time>2022-03-10T11:28:22.000Z</time>
      </trkpt>
      <trkpt lat="47.26051" lon="-2.33676">
        <ele>2.4000000953674</ele>
        <time>2022-03-10T11:28:24.000Z</time>
      </trkpt>
      <trkpt lat="47.26053" lon="-2.33669">
        <ele>2.4000000953674</ele>
        <time>2022-03-10T11:28:25.000Z</time>
      </trkpt>
      <trkpt lat="47.26056" lon="-2.33662">
        <ele>2.4000000953674</ele>
        <time>2022-03-10T11:28:26.000Z</time>
      </trkpt>
      <trkpt lat="47.26077" lon="-2.33601">
        <ele>2.4000000953674</ele>
        <time>2022-03-10T11:28:34.000Z</time>
      </trkpt>
      <trkpt lat="47.26103" lon="-2.3353">
        <ele>2.4000000953674</ele>
        <time>2022-03-10T11:28:43.000Z</time>
      </trkpt>
      <trkpt lat="47.26125" lon="-2.33467">
        <ele>2.4000000953674</ele>
        <time>2022-03-10T11:28:51.000Z</time>
      </trkpt>
      <trkpt lat="47.26132" lon="-2.33449">
        <ele>2.4000000953674</ele>
        <time>2022-03-10T11:28:55.000Z</time>
      </trkpt>
      <trkpt lat="47.26134" lon="-2.33435">
        <ele>2.4000000953674</ele>
        <time>2022-03-10T11:28:58.000Z</time>
      </trkpt>
      <trkpt lat="47.26133" lon="-2.3343">
        <ele>2.4000000953674</ele>
        <time>2022-03-10T11:28:59.000Z</time>
      </trkpt>
      <trkpt lat="47.26124" lon="-2.33417">
        <ele>2.4000000953674</ele>
        <time>2022-03-10T11:29:02.000Z</time>
      </trkpt>
      <trkpt lat="47.26121" lon="-2.33412">
        <ele>2.4000000953674</ele>
        <time>2022-03-10T11:29:03.000Z</time>
      </trkpt>
      <trkpt lat="47.26097" lon="-2.33377">
        <ele>2.4000000953674</ele>
        <time>2022-03-10T11:29:09.000Z</time>
      </trkpt>
      <trkpt lat="47.26092" lon="-2.33373">
        <ele>2.4000000953674</ele>
        <time>2022-03-10T11:29:10.000Z</time>
      </trkpt>
      <trkpt lat="47.26079" lon="-2.33357">
        <ele>2.4000000953674</ele>
        <time>2022-03-10T11:29:13.000Z</time>
      </trkpt>
      <trkpt lat="47.26076" lon="-2.33349">
        <ele>2.4000000953674</ele>
        <time>2022-03-10T11:29:14.000Z</time>
      </trkpt>
      <trkpt lat="47.26061" lon="-2.33305">
        <ele>2.4000000953674</ele>
        <time>2022-03-10T11:29:20.000Z</time>
      </trkpt>
      <trkpt lat="47.26042" lon="-2.33249">
        <ele>2.4000000953674</ele>
        <time>2022-03-10T11:29:27.000Z</time>
      </trkpt>
      <trkpt lat="47.26016" lon="-2.33176">
        <ele>2.4000000953674</ele>
        <time>2022-03-10T11:29:36.000Z</time>
      </trkpt>
      <trkpt lat="47.25994" lon="-2.33112">
        <ele>2.4000000953674</ele>
        <time>2022-03-10T11:29:44.000Z</time>
      </trkpt>
      <trkpt lat="47.25992" lon="-2.33104">
        <ele>2.4000000953674</ele>
        <time>2022-03-10T11:29:45.000Z</time>
      </trkpt>
      <trkpt lat="47.25986" lon="-2.33078">
        <ele>2.4000000953674</ele>
        <time>2022-03-10T11:29:49.000Z</time>
      </trkpt>
      <trkpt lat="47.25975" lon="-2.33048">
        <ele>2.4000000953674</ele>
        <time>2022-03-10T11:29:53.000Z</time>
      </trkpt>
      <trkpt lat="47.25972" lon="-2.3304">
        <ele>2.4000000953674</ele>
        <time>2022-03-10T11:29:54.000Z</time>
      </trkpt>
      <trkpt lat="47.25959" lon="-2.3299">
        <ele>2.4000000953674</ele>
        <time>2022-03-10T11:30:00.000Z</time>
      </trkpt>
      <trkpt lat="47.25939" lon="-2.32934">
        <ele>2.4000000953674</ele>
        <time>2022-03-10T11:30:07.000Z</time>
      </trkpt>
      <trkpt lat="47.25911" lon="-2.32861">
        <ele>2.4000000953674</ele>
        <time>2022-03-10T11:30:16.000Z</time>
      </trkpt>
      <trkpt lat="47.25889" lon="-2.32806">
        <ele>2.4000000953674</ele>
        <time>2022-03-10T11:30:23.000Z</time>
      </trkpt>
      <trkpt lat="47.25866" lon="-2.32732">
        <ele>2.4000000953674</ele>
        <time>2022-03-10T11:30:32.000Z</time>
      </trkpt>
      <trkpt lat="47.25865" lon="-2.32725">
        <ele>2.4000000953674</ele>
        <time>2022-03-10T11:30:33.000Z</time>
      </trkpt>
      <trkpt lat="47.2586" lon="-2.32705">
        <ele>2.4000000953674</ele>
        <time>2022-03-10T11:30:36.000Z</time>
      </trkpt>
      <trkpt lat="47.25848" lon="-2.32677">
        <ele>2.4000000953674</ele>
        <time>2022-03-10T11:30:40.000Z</time>
      </trkpt>
      <trkpt lat="47.25845" lon="-2.32668">
        <ele>2.4000000953674</ele>
        <time>2022-03-10T11:30:41.000Z</time>
      </trkpt>
      <trkpt lat="47.25831" lon="-2.32615">
        <ele>2.4000000953674</ele>
        <time>2022-03-10T11:30:47.000Z</time>
      </trkpt>
      <trkpt lat="47.2582" lon="-2.32566">
        <ele>2.4000000953674</ele>
        <time>2022-03-10T11:30:53.000Z</time>
      </trkpt>
      <trkpt lat="47.25808" lon="-2.32514">
        <ele>2.4000000953674</ele>
        <time>2022-03-10T11:31:00.000Z</time>
      </trkpt>
      <trkpt lat="47.25801" lon="-2.32479">
        <ele>2.4000000953674</ele>
        <time>2022-03-10T11:31:06.000Z</time>
      </trkpt>
      <trkpt lat="47.25803" lon="-2.32466">
        <ele>2.4000000953674</ele>
        <time>2022-03-10T11:31:09.000Z</time>
      </trkpt>
      <trkpt lat="47.25806" lon="-2.32463">
        <ele>2.4000000953674</ele>
        <time>2022-03-10T11:31:10.000Z</time>
      </trkpt>
      <trkpt lat="47.25814" lon="-2.32458">
        <ele>2.4000000953674</ele>
        <time>2022-03-10T11:31:14.000Z</time>
      </trkpt>
      <trkpt lat="47.25833" lon="-2.32468">
        <ele>2.4000000953674</ele>
        <time>2022-03-10T11:31:18.000Z</time>
      </trkpt>
      <trkpt lat="47.25849" lon="-2.32474">
        <ele>2.4000000953674</ele>
        <time>2022-03-10T11:31:21.000Z</time>
      </trkpt>
      <trkpt lat="47.25859" lon="-2.32474">
        <ele>2.4000000953674</ele>
        <time>2022-03-10T11:31:23.000Z</time>
      </trkpt>
      <trkpt lat="47.2589" lon="-2.32466">
        <ele>2.4000000953674</ele>
        <time>2022-03-10T11:31:29.000Z</time>
      </trkpt>
      <trkpt lat="47.25904" lon="-2.32454">
        <ele>2.4000000953674</ele>
        <time>2022-03-10T11:31:32.000Z</time>
      </trkpt>
      <trkpt lat="47.25913" lon="-2.32443">
        <ele>2.4000000953674</ele>
        <time>2022-03-10T11:31:34.000Z</time>
      </trkpt>
      <trkpt lat="47.25949" lon="-2.32396">
        <ele>2.4000000953674</ele>
        <time>2022-03-10T11:31:42.000Z</time>
      </trkpt>
      <trkpt lat="47.25991" lon="-2.32341">
        <ele>2.4000000953674</ele>
        <time>2022-03-10T11:31:52.000Z</time>
      </trkpt>
      <trkpt lat="47.2602" lon="-2.32305">
        <ele>2.4000000953674</ele>
        <time>2022-03-10T11:31:59.000Z</time>
      </trkpt>
      <trkpt lat="47.2605" lon="-2.32269">
        <ele>2.4000000953674</ele>
        <time>2022-03-10T11:32:06.000Z</time>
      </trkpt>
      <trkpt lat="47.26064" lon="-2.32253">
        <ele>2.4000000953674</ele>
        <time>2022-03-10T11:32:09.000Z</time>
      </trkpt>
      <trkpt lat="47.26076" lon="-2.32238">
        <ele>2.4000000953674</ele>
        <time>2022-03-10T11:32:12.000Z</time>
      </trkpt>
      <trkpt lat="47.26091" lon="-2.32217">
        <ele>2.4000000953674</ele>
        <time>2022-03-10T11:32:16.000Z</time>
      </trkpt>
      <trkpt lat="47.26098" lon="-2.32204">
        <ele>2.4000000953674</ele>
        <time>2022-03-10T11:32:18.000Z</time>
      </trkpt>
      <trkpt lat="47.26115" lon="-2.32163">
        <ele>2.4000000953674</ele>
        <time>2022-03-10T11:32:24.000Z</time>
      </trkpt>
      <trkpt lat="47.26135" lon="-2.32104">
        <ele>2.4000000953674</ele>
        <time>2022-03-10T11:32:32.000Z</time>
      </trkpt>
      <trkpt lat="47.26148" lon="-2.32062">
        <ele>2.4000000953674</ele>
        <time>2022-03-10T11:32:38.000Z</time>
      </trkpt>
      <trkpt lat="47.26161" lon="-2.32031">
        <ele>2.4000000953674</ele>
        <time>2022-03-10T11:32:43.000Z</time>
      </trkpt>
      <trkpt lat="47.26166" lon="-2.32021">
        <ele>2.4000000953674</ele>
        <time>2022-03-10T11:32:45.000Z</time>
      </trkpt>
      <trkpt lat="47.26174" lon="-2.32019">
        <ele>2.4000000953674</ele>
        <time>2022-03-10T11:32:47.000Z</time>
      </trkpt>
      <trkpt lat="47.26187" lon="-2.32023">
        <ele>2.4000000953674</ele>
        <time>2022-03-10T11:32:51.000Z</time>
      </trkpt>
      <trkpt lat="47.26197" lon="-2.32018">
        <ele>2.4000000953674</ele>
        <time>2022-03-10T11:32:56.000Z</time>
      </trkpt>
      <trkpt lat="47.26198" lon="-2.32005">
        <ele>2.4000000953674</ele>
        <time>2022-03-10T11:32:59.000Z</time>
      </trkpt>
      <trkpt lat="47.26205" lon="-2.32001">
        <ele>2.4000000953674</ele>
        <time>2022-03-10T11:33:02.000Z</time>
      </trkpt>
      <trkpt lat="47.26218" lon="-2.31987">
        <ele>2.4000000953674</ele>
        <time>2022-03-10T11:33:07.000Z</time>
      </trkpt>
      <trkpt lat="47.26235" lon="-2.31974">
        <ele>2.4000000953674</ele>
        <time>2022-03-10T11:33:12.000Z</time>
      </trkpt>
      <trkpt lat="47.26248" lon="-2.31956">
        <ele>2.4000000953674</ele>
        <time>2022-03-10T11:33:18.000Z</time>
      </trkpt>
      <trkpt lat="47.26257" lon="-2.31939">
        <ele>2.4000000953674</ele>
        <time>2022-03-10T11:33:23.000Z</time>
      </trkpt>
      <trkpt lat="47.26267" lon="-2.31922">
        <ele>2.4000000953674</ele>
        <time>2022-03-10T11:33:28.000Z</time>
      </trkpt>
      <trkpt lat="47.26286" lon="-2.31901">
        <ele>2.4000000953674</ele>
        <time>2022-03-10T11:33:33.000Z</time>
      </trkpt>
      <trkpt lat="47.26294" lon="-2.31888">
        <ele>2.4000000953674</ele>
        <time>2022-03-10T11:33:36.000Z</time>
      </trkpt>
      <trkpt lat="47.26294" lon="-2.31883">
        <ele>2.4000000953674</ele>
        <time>2022-03-10T11:33:37.000Z</time>
      </trkpt>
      <trkpt lat="47.26297" lon="-2.31847">
        <ele>2.4000000953674</ele>
        <time>2022-03-10T11:33:42.000Z</time>
      </trkpt>
      <trkpt lat="47.26301" lon="-2.31809">
        <ele>2.4000000953674</ele>
        <time>2022-03-10T11:33:48.000Z</time>
      </trkpt>
      <trkpt lat="47.263" lon="-2.31773">
        <ele>2.4000000953674</ele>
        <time>2022-03-10T11:33:54.000Z</time>
      </trkpt>
      <trkpt lat="47.26299" lon="-2.31724">
        <ele>2.4000000953674</ele>
        <time>2022-03-10T11:34:02.000Z</time>
      </trkpt>
      <trkpt lat="47.26304" lon="-2.31716">
        <ele>2.4000000953674</ele>
        <time>2022-03-10T11:34:04.000Z</time>
      </trkpt>
      <trkpt lat="47.26308" lon="-2.31715">
        <ele>2.4000000953674</ele>
        <time>2022-03-10T11:34:05.000Z</time>
      </trkpt>
      <trkpt lat="47.26331" lon="-2.31701">
        <ele>3</ele>
        <time>2022-03-10T11:34:12.000Z</time>
      </trkpt>
      <trkpt lat="47.26333" lon="-2.31697">
        <ele>3.4000000953674</ele>
        <time>2022-03-10T11:34:13.000Z</time>
      </trkpt>
      <trkpt lat="47.26334" lon="-2.31692">
        <ele>3.7999999523163</ele>
        <time>2022-03-10T11:34:14.000Z</time>
      </trkpt>
      <trkpt lat="47.26336" lon="-2.3169">
        <ele>4.1999998092651</ele>
        <time>2022-03-10T11:34:15.000Z</time>
      </trkpt>
      <trkpt lat="47.26337" lon="-2.31688">
        <ele>4.5999999046326</ele>
        <time>2022-03-10T11:34:16.000Z</time>
      </trkpt>
      <trkpt lat="47.26353" lon="-2.31679">
        <ele>4.5999999046326</ele>
        <time>2022-03-10T11:34:21.000Z</time>
      </trkpt>
      <trkpt lat="47.26363" lon="-2.31675">
        <ele>5</ele>
        <time>2022-03-10T11:34:24.000Z</time>
      </trkpt>
      <trkpt lat="47.26366" lon="-2.31674">
        <ele>5.4000000953674</ele>
        <time>2022-03-10T11:34:25.000Z</time>
      </trkpt>
      <trkpt lat="47.2637" lon="-2.31673">
        <ele>5.8000001907349</ele>
        <time>2022-03-10T11:34:26.000Z</time>
      </trkpt>
      <trkpt lat="47.26373" lon="-2.31672">
        <ele>6.4000000953674</ele>
        <time>2022-03-10T11:34:27.000Z</time>
      </trkpt>
      <trkpt lat="47.26376" lon="-2.31671">
        <ele>6.8000001907349</ele>
        <time>2022-03-10T11:34:28.000Z</time>
      </trkpt>
      <trkpt lat="47.26384" lon="-2.31665">
        <ele>6.8000001907349</ele>
        <time>2022-03-10T11:34:31.000Z</time>
      </trkpt>
      <trkpt lat="47.26401" lon="-2.31657">
        <ele>6.8000001907349</ele>
        <time>2022-03-10T11:34:37.000Z</time>
      </trkpt>
      <trkpt lat="47.26409" lon="-2.31646">
        <ele>6.8000001907349</ele>
        <time>2022-03-10T11:34:40.000Z</time>
      </trkpt>
      <trkpt lat="47.2641" lon="-2.31641">
        <ele>6.8000001907349</ele>
        <time>2022-03-10T11:34:41.000Z</time>
      </trkpt>
      <trkpt lat="47.26411" lon="-2.31618">
        <ele>6.8000001907349</ele>
        <time>2022-03-10T11:34:46.000Z</time>
      </trkpt>
      <trkpt lat="47.2641" lon="-2.31585">
        <ele>6.8000001907349</ele>
        <time>2022-03-10T11:34:53.000Z</time>
      </trkpt>
      <trkpt lat="47.2641" lon="-2.31557">
        <ele>6.8000001907349</ele>
        <time>2022-03-10T11:34:59.000Z</time>
      </trkpt>
      <trkpt lat="47.26412" lon="-2.31551">
        <ele>6.8000001907349</ele>
        <time>2022-03-10T11:35:01.000Z</time>
      </trkpt>
      <trkpt lat="47.26414" lon="-2.31551">
        <ele>7.1999998092651</ele>
        <time>2022-03-10T11:35:02.000Z</time>
      </trkpt>
      <trkpt lat="47.26416" lon="-2.31552">
        <ele>7.5999999046326</ele>
        <time>2022-03-10T11:35:03.000Z</time>
      </trkpt>
      <trkpt lat="47.26417" lon="-2.31551">
        <ele>8</ele>
        <time>2022-03-10T11:35:04.000Z</time>
      </trkpt>
      <trkpt lat="47.26417" lon="-2.31551">
        <ele>8.3999996185303</ele>
        <time>2022-03-10T11:35:05.000Z</time>
      </trkpt>
      <trkpt lat="47.26417" lon="-2.31552">
        <ele>8.8000001907349</ele>
        <time>2022-03-10T11:35:06.000Z</time>
      </trkpt>
      <trkpt lat="47.26417" lon="-2.31552">
        <ele>8.8000001907349</ele>
        <time>2022-03-10T11:35:07.000Z</time>
      </trkpt>
    </trkseg>
  </trk>
</gpx>